# Wetter Temperatur Luftdruck Luftfeuchtigkeit Sichtweite Windgeschwindigkeit Windrichtung Zeit
1 Snow -13 1011 83 9656 2.06 50 16:45 01.02.2023
2 Snow -12 1011 84 8047 1.54 50 14:21 01.02.2023
3 Snow -12 1011 84 8047 1.54 50 14:21 01.02.2023
4 Snow -13 1012 84 10000 1.54 40 13:19 01.02.2023
5 Snow -12 1012 82 10000 2.57 90 12:26 01.02.2023
6 Snow -11 1013 82 9656 2.57 60 10:46 01.02.2023
7 Snow -11 1012 80 10000 2.57 50 08:41 01.02.2023
8 Snow -8 1013 85 10000 2.57 60 22:59 31.01.2023
9 Snow -8 1012 85 4828 2.57 60 21:20 31.01.2023
10 Haze -8 1013 79 8047 2.57 50 19:24 31.01.2023
11 Snow -8 1013 83 9656 2.57 70 17:41 31.01.2023
12 Clouds -8 1013 83 10000 2.57 70 15:36 31.01.2023
13 Clouds -8 1013 83 10000 2.57 70 15:18 31.01.2023
14 Clouds -13 1016 95 8170 1.78 347 13:34 31.01.2023
15 Clouds -7 1014 86 10000 2.06 80 11:28 31.01.2023
16 Snow -6 1014 86 10000 2.06 10 10:25 31.01.2023
17 Snow -6 1014 83 10000 2.06 50 09:44 31.01.2023
18 Snow -6 1014 86 10000 2.06 50 08:36 31.01.2023
19 Snow -6 1014 86 10000 2.57 50 07:36 31.01.2023
20 Snow -5 1014 89 9656 1.54 20 03:34 31.01.2023
21 Mist -4 1016 89 6437 0 0 23:27 30.01.2023
22 Snow -4 1016 90 4023 1.54 30 22:50 30.01.2023
23 Snow -4 1016 92 3219 0 0 21:48 30.01.2023
24 Snow -4 1016 89 3621 1.54 40 20:44 30.01.2023
25 Snow -5 1017 89 4828 0 0 18:26 30.01.2023
26 Mist -5 1017 91 4023 0 0 17:25 30.01.2023
27 Snow -5 1018 92 4023 0 0 14:47 30.01.2023
28 Snow -6 1019 90 10000 0 0 13:55 30.01.2023
29 Snow -6 1019 90 10000 1.54 40 12:18 30.01.2023
30 Snow -6 1019 90 10000 1.54 40 12:18 30.01.2023
31 Clouds -6 1020 91 10000 0 0 10:21 30.01.2023
32 Clouds -6 1020 91 10000 0 0 09:53 30.01.2023
33 Clouds -6 1021 92 10000 0 0 08:30 30.01.2023
34 Snow -4 1022 91 10000 0 0 06:23 30.01.2023
35 Clouds -4 1023 93 10000 0 0 00:50 30.01.2023
36 Clouds -3 1024 92 10000 0 0 23:31 29.01.2023
37 Snow -4 1025 91 10000 0 0 22:36 29.01.2023
38 Snow -5 1026 91 4828 0 0 20:54 29.01.2023
39 Mist -6 1027 90 4828 0 0 20:19 29.01.2023
40 Snow -6 1028 88 8047 2.06 50 19:32 29.01.2023
41 Clouds -6 1027 91 10000 0.63 51 17:56 29.01.2023
42 Clouds -7 1030 89 10000 3.6 60 16:43 29.01.2023
43 Clouds -7 1030 89 10000 3.6 60 16:19 29.01.2023
44 Clouds -9 1033 90 10000 3.6 70 14:20 29.01.2023
45 Clouds -8 1031 88 10000 0.92 34 12:59 29.01.2023
46 Clouds -9 1034 85 10000 3.6 50 12:37 29.01.2023
47 Clouds -9 1034 85 10000 3.6 50 12:18 29.01.2023
48 Clouds -9 1035 89 10000 2.06 10 11:36 29.01.2023
49 Clouds -9 1035 89 10000 0 0 10:47 29.01.2023
50 Clouds -9 1036 87 10000 2.06 50 08:32 29.01.2023
51 Mist -9 1039 87 6437 2.57 350 04:44 29.01.2023
52 Clouds -9 1039 85 10000 0 0 23:51 28.01.2023
53 Snow -9 1038 83 2615 1.54 190 20:53 28.01.2023
54 Snow -9 1037 79 10000 0 0 19:56 28.01.2023
55 Snow -9 1036 81 10000 0 0 19:24 28.01.2023
56 Clouds -9 1035 77 10000 1.54 230 17:44 28.01.2023
57 Clouds -10 1034 76 10000 0 0 16:45 28.01.2023
58 Snow -10 1034 76 10000 0 0 16:19 28.01.2023
59 Snow -11 1034 80 10000 0 0 15:36 28.01.2023
60 Clouds -11 1035 74 10000 2.06 40 13:50 28.01.2023
61 Clouds -12 1035 73 10000 4.12 20 12:28 28.01.2023
62 Clouds -14 1036 73 10000 3.09 60 10:35 28.01.2023
63 Clouds -16 1037 76 10000 3.6 30 09:49 28.01.2023
64 Clear -18 1040 77 10000 5.66 30 05:50 28.01.2023
65 Clouds -16 1042 79 10000 0 0 01:31 28.01.2023
66 Clear -17 1043 81 10000 2.06 70 00:19 28.01.2023
67 Clear -23 1042 80 10000 0 0 20:25 27.01.2023
68 Clouds -20 1040 81 10000 1.32 23 17:58 27.01.2023
69 Clouds -21 1041 81 10000 0 0 17:21 27.01.2023
70 Clouds -19 1039 82 10000 1.18 40 16:58 27.01.2023
71 Clouds -21 1041 80 10000 0 0 16:21 27.01.2023
72 Clouds -20 1040 80 10000 0 0 14:28 27.01.2023
73 Clouds -21 1041 82 10000 0 0 13:44 27.01.2023
74 Clouds -19 1040 81 10000 1.54 170 11:51 27.01.2023
75 Clouds -19 1038 81 10000 0 0 08:35 27.01.2023
76 Clouds -13 1033 85 10000 1.54 60 00:45 27.01.2023
77 Snow -13 1030 84 10000 2.57 50 22:48 26.01.2023
78 Clouds -14 1029 86 10000 2.06 80 21:21 26.01.2023
79 Snow -14 1028 85 10000 1.54 190 20:34 26.01.2023
80 Snow -12 1025 81 4828 2.06 240 18:20 26.01.2023
81 Mist -13 1023 84 3621 3.6 220 17:40 26.01.2023
82 Snow -13 1020 86 2414 5.14 220 16:26 26.01.2023
83 Snow -13 1020 84 2414 2.57 230 15:48 26.01.2023
84 Mist -14 1018 81 8047 5.14 240 15:28 26.01.2023
85 Snow -16 1014 85 8047 2.57 50 13:58 26.01.2023
86 Snow -16 1015 85 4828 2.57 20 12:44 26.01.2023
87 Snow -16 1014 85 1006 2.57 20 11:26 26.01.2023
88 Snow -16 1013 83 10000 0 0 10:28 26.01.2023
89 Snow -16 1013 81 9656 2.57 20 09:44 26.01.2023
90 Snow -16 1012 80 10000 2.06 70 08:25 26.01.2023
91 Snow -16 1012 80 10000 2.06 70 08:25 26.01.2023
92 Clouds -13 1010 86 10000 0.89 305 23:59 25.01.2023
93 Clouds -20 1005 75 10000 0 0 23:38 25.01.2023
94 Clouds -17 1010 93 10000 0.76 306 21:57 25.01.2023
95 Clouds -23 1004 78 10000 0 0 21:21 25.01.2023
96 Clouds -23 1003 76 10000 0 0 18:57 25.01.2023
97 Clouds -23 1004 76 10000 0 0 18:22 25.01.2023
98 Clouds -24 1005 79 10000 0 0 15:50 25.01.2023
99 Clouds -21 1003 80 10000 0.94 313 12:59 25.01.2023
100 Clouds -23 1006 78 10000 0 0 11:21 25.01.2023
101 Clouds -24 1008 81 10000 0 0 09:48 25.01.2023
102 Clouds -20 1008 79 10000 1.54 50 07:45 25.01.2023
103 Clouds -18 1009 79 10000 0 0 01:37 25.01.2023
104 Clouds -18 1009 79 10000 0 0 00:25 25.01.2023
105 Snow -19 1007 79 10000 0 0 21:35 24.01.2023
106 Snow -19 1006 78 10000 0 0 20:23 24.01.2023
107 Snow -19 1005 75 6437 0 0 18:50 24.01.2023
108 Snow -19 1005 78 9656 0 0 18:29 24.01.2023
109 Snow -20 1005 78 10000 0 0 16:53 24.01.2023
110 Snow -20 1005 78 10000 0 0 16:29 24.01.2023
111 Snow -20 1006 77 6437 0 0 13:46 24.01.2023
112 Snow -21 1006 79 10000 1.54 40 11:43 24.01.2023
113 Snow -21 1005 77 1207 0 0 08:43 24.01.2023
114 Snow -21 1005 77 1207 0 0 08:18 24.01.2023
115 Snow -21 1005 76 2816 0 0 07:48 24.01.2023
116 Snow -22 1004 77 2816 0 0 02:43 24.01.2023
117 Snow -22 1003 78 2615 0 0 00:40 24.01.2023
118 Snow -23 1003 76 1006 0 0 22:32 23.01.2023
119 Snow -23 1003 75 2213 0 0 20:43 23.01.2023
120 Snow -23 1002 76 6437 0 0 19:22 23.01.2023
121 Snow -23 1002 77 6437 0 0 17:20 23.01.2023
122 Snow -24 1003 75 6437 1.54 210 15:32 23.01.2023
123 Clouds -26 1011 99 297 0.5 291 13:56 23.01.2023
124 Clouds -27 1011 97 659 0.5 293 12:56 23.01.2023
125 Snow -25 1004 77 10000 0 0 11:57 23.01.2023
126 Clouds -25 1005 74 10000 2.06 200 11:28 23.01.2023
127 Clouds -26 1006 76 10000 0 0 08:25 23.01.2023
128 Clouds -27 1014 73 10000 3.09 40 00:24 23.01.2023
129 Clouds -25 1016 77 10000 0 0 22:19 22.01.2023
130 Clouds -37 1022 98 10000 1.03 24 21:19 22.01.2023
131 Clouds -37 1022 98 10000 1.14 19 19:58 22.01.2023
132 Clouds -28 1019 76 10000 0 0 19:40 22.01.2023
133 Snow -29 1019 76 10000 0 0 18:48 22.01.2023
134 Mist -30 1021 76 10000 0 0 17:56 22.01.2023
135 Mist -31 1022 76 10000 0 0 17:24 22.01.2023
136 Clear -34 1023 75 10000 1.54 60 15:30 22.01.2023
137 Clear -34 1024 79 10000 2.06 80 14:43 22.01.2023
138 Clear -32 1024 83 10000 0 0 13:28 22.01.2023
139 Clear -30 1024 75 10000 1.54 240 12:34 22.01.2023
140 Clear -27 1024 76 10000 2.57 170 11:34 22.01.2023
141 Clouds -25 1023 77 10000 0 0 09:35 22.01.2023
142 Clouds -18 1021 72 10000 4.63 270 05:51 22.01.2023
143 Mist -15 1017 82 3219 4.12 240 00:40 22.01.2023
144 Snow -15 1016 83 8047 2.57 230 23:30 21.01.2023
145 Mist -16 1014 81 10000 0 0 21:40 21.01.2023
146 Snow -17 1012 82 4828 1.54 50 19:46 21.01.2023
147 Snow -17 1009 79 9656 1.54 80 16:55 21.01.2023
148 Snow -18 1006 80 4828 0 0 14:34 21.01.2023
149 Snow -18 1003 81 6437 1.54 80 12:57 21.01.2023
150 Snow -18 1003 81 10000 0 0 12:35 21.01.2023
151 Clouds -19 1002 81 10000 3.09 40 11:22 21.01.2023
152 Clouds -19 999 79 10000 0 0 09:29 21.01.2023
153 Clouds -20 997 80 10000 0 0 04:34 21.01.2023
154 Clouds -19 999 79 10000 1.54 190 22:29 20.01.2023
155 Clouds -19 999 79 10000 1.54 190 22:29 20.01.2023
156 Clouds -19 999 78 10000 1.54 190 21:38 20.01.2023
157 Clouds -17 998 83 10000 0 0 20:58 20.01.2023
158 Clouds -18 998 82 10000 0 0 19:52 20.01.2023
159 Clouds -19 997 80 10000 0 0 16:47 20.01.2023
160 Clouds -20 997 78 10000 0 0 14:47 20.01.2023
161 Clouds -21 997 77 10000 0 0 13:51 20.01.2023
162 Clouds -26 996 77 10000 0 0 10:25 20.01.2023
163 Clouds -20 993 80 10000 1.4 9 08:57 20.01.2023
164 Clouds -25 995 76 10000 0 0 06:38 20.01.2023
165 Clouds -23 995 80 10000 0 0 02:31 20.01.2023
166 Clouds -21 993 81 10000 2.06 180 22:36 19.01.2023
167 Clouds -21 993 81 10000 2.06 180 22:36 19.01.2023
168 Clouds -21 993 79 10000 2.06 190 21:20 19.01.2023
169 Clouds -21 992 77 10000 0 0 19:29 19.01.2023
170 Clouds -21 991 79 10000 0 0 17:20 19.01.2023
171 Clouds -23 995 100 10000 0.98 359 13:47 19.01.2023
172 Clouds -27 991 76 10000 0 0 10:18 19.01.2023
173 Clouds -24 991 77 10000 0 0 08:49 19.01.2023
174 Clouds -26 992 76 10000 0 0 22:30 18.01.2023
175 Haze -27 991 79 9656 0 0 20:20 18.01.2023
176 Clouds -27 991 75 10000 0 0 19:41 18.01.2023
177 Clouds -27 991 72 10000 0 0 19:23 18.01.2023
178 Clear -27 990 77 10000 0 0 16:19 18.01.2023
179 Clouds -27 995 80 10000 0.52 19 13:59 18.01.2023
180 Clear -25 988 76 10000 0 0 11:46 18.01.2023
181 Clear -25 987 76 10000 0 0 09:32 18.01.2023
182 Clear -23 987 79 10000 0 0 06:22 18.01.2023
183 Clouds -19 987 82 10000 0 0 00:37 18.01.2023
184 Clouds -21 987 79 10000 1.54 10 21:27 17.01.2023
185 Clouds -17 988 80 10000 4.63 30 19:37 17.01.2023
186 Clouds -19 988 77 10000 3.09 50 18:48 17.01.2023
187 Clouds -20 988 81 10000 4.12 50 17:40 17.01.2023
188 Clouds -20 988 76 10000 5.14 50 15:27 17.01.2023
189 Clear -20 989 81 10000 3.6 10 14:45 17.01.2023
190 Clouds -23 994 98 10000 1.28 4 13:33 17.01.2023
191 Clear -21 991 78 10000 1.54 60 11:47 17.01.2023
192 Clear -22 991 83 10000 3.09 30 09:36 17.01.2023
193 Clear -21 991 80 10000 0 0 08:45 17.01.2023
194 Clear -20 991 82 10000 0 0 07:33 17.01.2023
195 Clear -17 991 85 10000 0 0 03:47 17.01.2023
196 Clear -14 990 80 10000 3.6 50 00:48 17.01.2023
197 Clouds -16 990 79 10000 0 0 22:38 16.01.2023
198 Clouds -16 990 79 10000 0 0 21:43 16.01.2023
199 Clouds -19 995 97 10000 1.09 357 19:55 16.01.2023
200 Clear -17 990 75 10000 2.57 10 19:18 16.01.2023
201 Clear -17 990 79 10000 3.6 40 18:48 16.01.2023
202 Clear -17 990 79 10000 3.6 40 18:18 16.01.2023
203 Clear -18 990 76 10000 4.63 50 17:20 16.01.2023
204 Clear -21 991 77 10000 3.6 40 14:19 16.01.2023
205 Clear -20 992 78 10000 3.6 50 13:36 16.01.2023
206 Clear -20 992 77 10000 3.09 30 10:25 16.01.2023
207 Clear -20 992 81 10000 4.12 20 08:23 16.01.2023
208 Clear -16 993 75 10000 2.06 30 22:49 15.01.2023
209 Clouds -16 992 80 10000 1.54 30 21:24 15.01.2023
210 Clouds -16 992 78 10000 1.54 30 20:31 15.01.2023
211 Clouds -14 992 78 10000 2.06 40 19:34 15.01.2023
212 Clear -16 992 75 10000 2.06 40 17:25 15.01.2023
213 Clouds -18 993 82 10000 3.09 40 13:55 15.01.2023
214 Clear -17 993 80 10000 3.09 40 12:25 15.01.2023
215 Clear -17 993 82 10000 3.09 40 11:29 15.01.2023
216 Clear -17 993 82 10000 3.6 30 10:24 15.01.2023
217 Clear -19 994 85 10000 3.09 30 08:29 15.01.2023
218 Clouds -20 997 81 10000 0 0 23:56 14.01.2023
219 Clear -22 996 79 10000 0 0 22:44 14.01.2023
220 Clear -26 998 76 10000 0 0 21:54 14.01.2023
221 Clear -26 998 78 10000 0 0 21:36 14.01.2023
222 Clear -26 998 76 10000 0 0 21:36 14.01.2023
223 Clear -24 997 78 10000 0 0 21:18 14.01.2023
224 Clear -24 997 78 10000 0 0 21:18 14.01.2023
225 Clear -27 998 78 10000 1.54 50 20:28 14.01.2023
226 Clear -27 998 78 10000 0 0 18:18 14.01.2023
227 Clear -27 999 77 10000 0 0 15:41 14.01.2023
228 Clear -27 999 78 10000 0 0 15:23 14.01.2023
229 Clear -27 999 76 10000 0 0 14:22 14.01.2023
230 Clear -27 1000 77 10000 0 0 13:25 14.01.2023
231 Clear -27 1000 78 10000 0 0 10:50 14.01.2023
232 Clear -26 1000 76 10000 0 0 09:23 14.01.2023
233 Clear -22 1001 81 10000 0 0 02:39 14.01.2023
234 Clear -19 1001 82 10000 0 0 23:20 13.01.2023
235 Clouds -20 1002 80 10000 0 0 22:41 13.01.2023
236 Clouds -17 1000 83 10000 0.43 11 21:58 13.01.2023
237 Clouds -19 1002 82 10000 0 0 20:38 13.01.2023
238 Clouds -18 1002 80 10000 0 0 19:28 13.01.2023
239 Clouds -19 1002 82 10000 0 0 17:42 13.01.2023
240 Clouds -19 1003 77 10000 0 0 15:20 13.01.2023
241 Clouds -25 1005 78 10000 0 0 12:33 13.01.2023
242 Clouds -26 1009 83 10000 0.95 16 11:57 13.01.2023
243 Clouds -25 1005 79 10000 0 0 10:23 13.01.2023
244 Clouds -25 1005 79 10000 0 0 09:44 13.01.2023
245 Clouds -24 1005 76 10000 0 0 08:52 13.01.2023
246 Clouds -23 1011 84 10000 1 7 06:57 13.01.2023
247 Clouds -23 1006 78 10000 0 0 06:30 13.01.2023
248 Clouds -19 1006 81 10000 0 0 02:29 13.01.2023
249 Clouds -16 1006 83 10000 2.06 140 22:57 12.01.2023
250 Clouds -15 1005 84 10000 0.88 310 21:59 12.01.2023
251 Clouds -17 1007 83 10000 0 0 20:52 12.01.2023
252 Clouds -17 1007 83 10000 0 0 18:27 12.01.2023
253 Clouds -17 1007 82 10000 0 0 17:20 12.01.2023
254 Clouds -17 1007 80 10000 4.12 50 15:28 12.01.2023
255 Clouds -17 1008 78 10000 4.63 40 14:42 12.01.2023
256 Clouds -17 1008 78 10000 4.63 40 14:19 12.01.2023
257 Clouds -19 1009 78 10000 0 0 12:29 12.01.2023
258 Clouds -20 1009 83 10000 1.54 70 10:27 12.01.2023
259 Clouds -18 1009 71 10000 4.12 40 07:38 12.01.2023
260 Clouds -15 1005 78 10000 2.57 40 00:34 12.01.2023
261 Clouds -15 1005 80 10000 2.06 40 23:57 11.01.2023
262 Clouds -15 1005 80 10000 2.06 40 23:38 11.01.2023
263 Clouds -15 1005 80 10000 2.06 40 23:19 11.01.2023
264 Clouds -14 1003 75 10000 2.57 40 21:41 11.01.2023
265 Clouds -16 1002 78 10000 2.06 20 19:30 11.01.2023
266 Clouds -15 1001 75 10000 2.06 40 18:19 11.01.2023
267 Clouds -13 1000 72 10000 2.06 50 15:53 11.01.2023
268 Clouds -20 1005 95 10000 1.53 356 13:59 11.01.2023
269 Clouds -15 1001 78 10000 2.57 20 12:34 11.01.2023
270 Clouds -15 1001 78 10000 3.6 30 11:51 11.01.2023
271 Clear -15 1001 78 10000 3.09 50 09:46 11.01.2023
272 Clouds -14 1001 72 10000 3.6 40 07:37 11.01.2023
273 Clouds -19 1004 96 10000 1.29 4 06:56 11.01.2023
274 Clouds -15 1001 75 10000 3.6 50 23:55 10.01.2023
275 Clouds -21 1001 77 10000 2.06 40 22:36 10.01.2023
276 Clear -19 1001 83 10000 3.09 50 21:30 10.01.2023
277 Clear -21 1000 84 10000 1.54 30 19:56 10.01.2023
278 Clear -21 1000 84 10000 1.54 30 19:34 10.01.2023
279 Clouds -21 1000 77 10000 0 0 18:47 10.01.2023
280 Clouds -21 1000 84 10000 1.54 20 17:54 10.01.2023
281 Clouds -18 999 85 10000 2.57 60 15:48 10.01.2023
282 Clouds -18 999 85 10000 2.57 60 15:22 10.01.2023
283 Clouds -18 1000 85 10000 1.54 70 13:42 10.01.2023
284 Clouds -21 1000 81 10000 1.54 40 11:49 10.01.2023
285 Clouds -22 1005 98 10000 1.19 5 08:57 10.01.2023
286 Clouds -22 1005 98 10000 1.16 2 07:59 10.01.2023
287 Clouds -18 1002 78 10000 1.54 30 07:25 10.01.2023
288 Clear -20 1003 74 10000 0 0 04:50 10.01.2023
289 Clouds -23 1007 81 10000 0 0 22:50 09.01.2023
290 Clouds -24 1007 80 10000 0 0 21:20 09.01.2023
291 Clouds -22 1008 83 10000 0 0 20:34 09.01.2023
292 Snow -20 1009 84 10000 0 0 18:42 09.01.2023
293 Clouds -24 1012 100 10000 1.19 28 17:51 09.01.2023
294 Clouds -23 1012 100 10000 1.06 31 16:47 09.01.2023
295 Clouds -23 1013 100 10000 1.05 28 16:29 09.01.2023
296 Clouds -21 1013 100 10000 0.91 29 15:22 09.01.2023
297 Clouds -21 1013 100 10000 0.91 29 15:22 09.01.2023
298 Clouds -28 1013 100 10000 0.91 29 14:43 09.01.2023
299 Clouds -28 1014 100 10000 0.97 30 12:54 09.01.2023
300 Clouds -28 1014 100 10000 1.02 28 12:18 09.01.2023
301 Clouds -27 1014 100 10000 1.02 34 11:20 09.01.2023
302 Clouds -26 1013 100 5740 0.82 20 07:23 09.01.2023
303 Clouds -26 1013 100 5740 0.82 20 06:31 09.01.2023
304 Snow -15 1009 79 10000 0 0 02:53 09.01.2023
305 Snow -15 1008 82 9656 0 0 22:31 08.01.2023
306 Snow -15 1007 78 10000 0 0 21:23 08.01.2023
307 Snow -15 1007 78 10000 0 0 21:23 08.01.2023
308 Snow -15 1008 78 10000 0 0 20:57 08.01.2023
309 Snow -16 1006 85 10000 0 0 19:19 08.01.2023
310 Snow -15 1006 78 10000 0 0 17:39 08.01.2023
311 Snow -15 1006 78 10000 0 0 17:18 08.01.2023
312 Snow -15 1006 82 10000 0 0 15:38 08.01.2023
313 Snow -15 1006 85 10000 0 0 14:18 08.01.2023
314 Snow -15 1006 85 10000 0 0 13:32 08.01.2023
315 Clouds -15 1006 85 10000 0 0 12:58 08.01.2023
316 Snow -15 1007 85 10000 2.06 170 11:22 08.01.2023
317 Snow -14 1007 79 10000 1.54 180 09:37 08.01.2023
318 Snow -14 1007 82 10000 0 0 08:27 08.01.2023
319 Snow -13 1008 82 10000 0 0 02:25 08.01.2023
320 Snow -15 1009 82 10000 1.54 360 22:49 07.01.2023
321 Snow -15 1009 83 10000 1.54 360 22:26 07.01.2023
322 Snow -15 1009 81 10000 0 0 21:49 07.01.2023
323 Clouds -19 1012 99 1595 0.84 44 20:58 07.01.2023
324 Snow -15 1008 79 10000 1.54 350 20:25 07.01.2023
325 Snow -15 1008 80 10000 1.54 40 19:19 07.01.2023
326 Snow -15 1007 83 6437 0 0 18:18 07.01.2023
327 Snow -15 1007 83 10000 1.54 20 17:39 07.01.2023
328 Snow -15 1007 83 10000 1.54 20 16:39 07.01.2023
329 Snow -16 1006 83 10000 0 0 15:52 07.01.2023
330 Snow -16 1006 83 10000 0 0 15:31 07.01.2023
331 Snow -16 1006 85 10000 0 0 14:47 07.01.2023
332 Clouds -16 1006 85 10000 0 0 13:58 07.01.2023
333 Snow -16 1006 83 10000 0 0 13:39 07.01.2023
334 Snow -16 1005 81 10000 0 0 12:35 07.01.2023
335 Snow -16 1005 83 10000 0 0 11:58 07.01.2023
336 Snow -16 1004 83 9656 0 0 10:26 07.01.2023
337 Snow -16 1003 83 8047 0 0 08:46 07.01.2023
338 Snow -15 1003 82 10000 0 0 07:47 07.01.2023
339 Snow -15 1003 82 10000 0 0 07:20 07.01.2023
340 Clouds -15 1001 85 358 0.4 190 04:59 07.01.2023
341 Clouds -17 999 84 1852 0.08 266 22:57 06.01.2023
342 Clouds -18 1001 81 10000 0 0 22:20 06.01.2023
343 Clouds -18 1000 82 10000 0 0 21:44 06.01.2023
344 Clouds -17 998 84 5441 0.2 350 19:59 06.01.2023
345 Clouds -19 1001 80 10000 0 0 19:41 06.01.2023
346 Clouds -19 1001 80 10000 0 0 19:23 06.01.2023
347 Clouds -20 1001 80 10000 0 0 18:54 06.01.2023
348 Clouds -20 1001 78 10000 0 0 17:41 06.01.2023
349 Clouds -21 1001 81 10000 0 0 16:51 06.01.2023
350 Clouds -22 1001 81 10000 0 0 16:20 06.01.2023
351 Clouds -22 1001 79 10000 0 0 15:50 06.01.2023
352 Mist -22 1001 79 10000 0 0 15:22 06.01.2023
353 Clear -24 1001 76 10000 0 0 12:55 06.01.2023
354 Clouds -24 1005 84 9575 0.75 20 10:59 06.01.2023
355 Clouds -24 1001 77 10000 0 0 09:32 06.01.2023
356 Clear -24 1000 79 10000 0 0 07:57 06.01.2023
357 Clear -18 1000 86 10000 0 0 01:52 06.01.2023
358 Clouds -16 1003 87 10000 0.68 1 22:55 05.01.2023
359 Clouds -16 1003 87 10000 0.68 1 22:55 05.01.2023
360 Clouds -13 999 88 10000 0 0 21:54 05.01.2023
361 Clouds -12 999 82 10000 0 0 19:49 05.01.2023
362 Clouds -13 999 88 10000 0 0 17:28 05.01.2023
363 Clouds -14 1000 84 10000 0 0 16:30 05.01.2023
364 Clear -14 1000 84 10000 1.54 240 15:47 05.01.2023
365 Clear -13 999 87 10000 0 0 14:53 05.01.2023
366 Clouds -15 1000 81 10000 0 0 12:49 05.01.2023
367 Clouds -16 1000 81 10000 0 0 12:27 05.01.2023
368 Clear -17 998 81 10000 0 0 09:55 05.01.2023
369 Clear -19 999 78 10000 0 0 08:41 05.01.2023
370 Clear -19 998 80 10000 0 0 07:20 05.01.2023
371 Clear -19 998 80 10000 0 0 06:36 05.01.2023
372 Clear -21 998 78 10000 1.54 40 23:26 04.01.2023
373 Clouds -22 998 77 10000 2.06 40 21:33 04.01.2023
374 Clouds -23 998 84 10000 0 0 20:55 04.01.2023
375 Clouds -16 1000 96 10000 1.83 30 19:57 04.01.2023
376 Clouds -22 998 77 10000 0 0 19:33 04.01.2023
377 Clear -22 998 81 10000 1.54 230 18:37 04.01.2023
378 Clear -22 998 81 10000 0 0 16:32 04.01.2023
379 Clouds -16 1001 96 10000 1.67 38 15:55 04.01.2023
380 Clear -22 998 80 10000 0 0 14:47 04.01.2023
381 Clear -20 998 78 10000 0 0 11:43 04.01.2023
382 Clear -23 999 75 10000 0 0 11:21 04.01.2023
383 Clear -20 998 82 10000 1.54 340 10:43 04.01.2023
384 Clear -23 999 80 10000 1.54 340 10:23 04.01.2023
385 Clear -22 999 79 10000 0 0 08:52 04.01.2023
386 Clear -21 998 81 10000 0 0 05:35 04.01.2023
387 Clouds -19 998 81 10000 0 0 00:32 04.01.2023
388 Clear -19 997 82 10000 0 0 23:35 03.01.2023
389 Clear -17 996 85 10000 0 0 22:54 03.01.2023
390 Clear -21 996 83 10000 0 0 20:53 03.01.2023
391 Clear -20 995 80 10000 0 0 19:26 03.01.2023
392 Clear -19 994 80 10000 0 0 17:37 03.01.2023
393 Clear -19 993 82 10000 0 0 16:39 03.01.2023
394 Clouds -18 996 86 10000 0.95 16 13:56 03.01.2023
395 Clear -19 991 82 10000 0 0 13:30 03.01.2023
396 Clouds -17 996 87 10000 0.89 8 12:57 03.01.2023
397 Clear -18 990 81 10000 0 0 12:30 03.01.2023
398 Clear -18 990 81 10000 0 0 12:30 03.01.2023
399 Clouds -18 990 80 10000 0 0 11:21 03.01.2023
400 Clear -17 986 85 10000 0 0 07:29 03.01.2023
401 Clear -15 984 85 10000 3.09 0 04:22 03.01.2023
402 Clear -13 983 85 10000 0 0 03:43 03.01.2023
403 Clear -14 982 85 10000 0 0 01:56 03.01.2023
404 Clear -14 981 83 10000 2.57 20 22:42 02.01.2023
405 Clear -14 981 83 10000 2.57 20 22:19 02.01.2023
406 Clouds -12 980 79 10000 3.6 50 20:40 02.01.2023
407 Clouds -12 979 79 10000 3.6 20 19:52 02.01.2023
408 Clear -10 978 83 10000 3.09 40 17:29 02.01.2023
409 Clear -12 978 82 10000 3.09 40 15:23 02.01.2023
410 Clear -12 978 83 10000 3.6 50 13:25 02.01.2023
411 Clouds -13 982 88 10000 1.63 32 11:57 02.01.2023
412 Clear -16 978 85 10000 0 0 10:43 02.01.2023
413 Clear -12 976 87 10000 2.06 50 07:33 02.01.2023
414 Clouds -10 979 86 10000 2.12 41 00:58 02.01.2023
415 Clouds -11 976 87 10000 1.54 170 22:32 01.01.2023
416 Clouds -10 977 84 10000 0 0 21:30 01.01.2023
417 Clouds -11 977 84 10000 0 0 20:47 01.01.2023
418 Clouds -13 978 84 10000 1.54 40 19:44 01.01.2023
419 Clouds -10 977 86 10000 1.28 39 17:59 01.01.2023
420 Clear -19 980 78 10000 1.54 290 17:21 01.01.2023
421 Clear -22 982 77 10000 0 0 16:32 01.01.2023
422 Clouds -23 989 81 10000 1.69 24 14:59 01.01.2023
423 Mist -25 986 74 10000 0 0 13:40 01.01.2023
424 Mist -25 988 78 10000 0 0 12:40 01.01.2023
425 Clear -25 989 76 10000 0 0 11:37 01.01.2023
426 Clear -25 990 77 10000 0 0 10:36 01.01.2023
427 Clear -24 992 77 10000 0 0 08:51 01.01.2023
428 Clear -24 992 76 10000 0 0 08:20 01.01.2023
429 Clear -25 992 81 10000 0 0 07:18 01.01.2023
430 Clear -21 993 83 10000 0 0 01:45 01.01.2023
431 Clouds -20 994 78 10000 0 0 23:43 31.12.2022
432 Clouds -19 994 78 10000 0 0 22:33 31.12.2022
433 Clouds -19 994 80 10000 0 0 21:36 31.12.2022
434 Clouds -19 994 80 10000 0 0 21:18 31.12.2022
435 Clouds -19 993 82 10000 0 0 19:33 31.12.2022
436 Clouds -20 992 77 10000 0 0 18:42 31.12.2022
437 Clouds -20 992 77 10000 0 0 18:18 31.12.2022
438 Snow -22 994 74 10000 0 0 17:46 31.12.2022
439 Snow -23 994 77 10000 0 0 16:42 31.12.2022
440 Snow -23 994 77 10000 0 0 16:20 31.12.2022
441 Clouds -19 996 98 760 0.94 7 14:39 31.12.2022
442 Clouds -25 993 78 10000 0 0 13:37 31.12.2022
443 Clear -25 992 77 10000 0 0 12:40 31.12.2022
444 Clear -25 992 78 10000 0 0 12:19 31.12.2022
445 Clear -25 992 78 10000 0 0 12:19 31.12.2022
446 Clear -25 992 78 10000 0 0 12:19 31.12.2022
447 Clear -25 992 78 10000 0 0 11:50 31.12.2022
448 Clear -24 992 78 10000 0 0 10:35 31.12.2022
449 Clear -27 992 76 10000 0 0 09:53 31.12.2022
450 Clear -27 992 76 10000 0 0 09:18 31.12.2022
451 Clear -26 992 82 10000 0 0 07:48 31.12.2022
452 Clear -21 989 79 10000 1.54 190 00:35 31.12.2022
453 Clear -21 989 79 10000 1.54 190 00:35 31.12.2022
454 Clear -21 989 79 10000 1.54 190 00:35 31.12.2022
455 Clear -20 988 80 10000 0 0 23:45 30.12.2022
456 Clouds -20 988 80 10000 1.54 20 22:49 30.12.2022
457 Clouds -19 988 78 10000 0 0 21:44 30.12.2022
458 Clouds -19 988 78 10000 0 0 21:26 30.12.2022
459 Clouds -21 992 100 10000 1.24 9 18:59 30.12.2022
460 Clouds -21 988 80 10000 0 0 17:45 30.12.2022
461 Clouds -21 988 80 10000 0 0 17:26 30.12.2022
462 Clouds -23 991 84 10000 1.41 10 15:57 30.12.2022
463 Clear -23 988 77 10000 2.06 50 14:38 30.12.2022
464 Clouds -22 989 79 10000 0 0 10:25 30.12.2022
465 Clouds -21 990 82 10000 0 0 08:19 30.12.2022
466 Clouds -22 994 84 10000 1.22 8 02:59 30.12.2022
467 Clouds -20 991 79 10000 0 0 01:53 30.12.2022
468 Clouds -19 991 82 10000 0 0 22:54 29.12.2022
469 Clear -18 991 82 10000 0 0 21:31 29.12.2022
470 Clear -17 991 82 10000 0 0 20:54 29.12.2022
471 Clear -17 991 82 10000 0 0 20:25 29.12.2022
472 Clouds -16 991 83 10000 0 0 18:26 29.12.2022
473 Clouds -16 991 83 10000 0 0 17:29 29.12.2022
474 Clouds -15 989 84 10000 0.41 9 16:55 29.12.2022
475 Clouds -15 990 84 10000 0.42 348 15:59 29.12.2022
476 Clouds -17 992 83 10000 0 0 15:29 29.12.2022
477 Clouds -18 992 82 10000 0 0 13:33 29.12.2022
478 Clouds -18 992 82 10000 0 0 11:29 29.12.2022
479 Clouds -15 992 83 10000 0 0 07:45 29.12.2022
480 Clouds -16 993 82 10000 0 0 00:18 29.12.2022
481 Clouds -16 993 82 10000 0 0 23:27 28.12.2022
482 Clouds -16 993 82 10000 1.54 200 21:21 28.12.2022
483 Clouds -16 993 78 10000 0 0 20:25 28.12.2022
484 Snow -16 993 78 10000 1.54 180 19:23 28.12.2022
485 Clouds -19 996 98 10000 1.1 335 16:56 28.12.2022
486 Snow -17 993 81 10000 1.54 190 14:42 28.12.2022
487 Clouds -17 993 85 10000 0 0 12:55 28.12.2022
488 Snow -16 992 78 10000 0 0 11:53 28.12.2022
489 Snow -16 991 75 10000 1.54 10 10:39 28.12.2022
490 Snow -16 991 77 10000 3.09 10 08:42 28.12.2022
491 Snow -16 990 74 10000 2.06 10 06:50 28.12.2022
492 Snow -17 989 74 10000 2.57 360 03:45 28.12.2022
493 Snow -17 987 74 10000 4.12 360 23:23 27.12.2022
494 Clouds -18 984 77 10000 1.89 338 19:58 27.12.2022
495 Clouds -18 986 68 10000 3.6 30 19:24 27.12.2022
496 Clouds -18 986 70 10000 4.63 30 17:20 27.12.2022
497 Clouds -18 985 72 10000 4.12 30 16:39 27.12.2022
498 Clouds -18 984 74 10000 3.09 50 15:22 27.12.2022
499 Clouds -19 985 68 10000 3.6 80 12:29 27.12.2022
500 Clouds -19 985 68 10000 3.09 60 11:24 27.12.2022
501 Clouds -19 985 68 10000 4.12 50 09:45 27.12.2022
502 Clouds -19 985 68 10000 4.12 50 09:22 27.12.2022
503 Clouds -19 985 68 10000 3.09 50 06:49 27.12.2022
504 Clouds -19 985 68 10000 3.09 60 04:29 27.12.2022
505 Clear -21 986 68 10000 4.63 70 22:20 26.12.2022
506 Clouds -20 986 71 10000 3.6 20 20:46 26.12.2022
507 Clouds -20 986 71 10000 3.6 20 20:24 26.12.2022
508 Clouds -19 987 75 10000 3.6 50 18:43 26.12.2022
509 Snow -19 988 75 10000 2.57 80 17:26 26.12.2022
510 Snow -19 989 75 10000 3.09 70 15:46 26.12.2022
511 Snow -19 992 72 10000 3.09 70 13:20 26.12.2022
512 Clouds -20 994 68 10000 3.6 70 11:46 26.12.2022
513 Clear -26 999 71 10000 3.09 50 06:42 26.12.2022
514 Clear -29 1009 72 10000 4.63 60 23:46 25.12.2022
515 Clouds -31 1014 92 10000 1.93 33 22:57 25.12.2022
516 Clear -29 1010 70 10000 4.63 70 22:26 25.12.2022
517 Clear -30 1012 72 10000 4.12 70 20:41 25.12.2022
518 Clouds -29 1014 69 10000 3.6 60 18:32 25.12.2022
519 Clear -29 1014 66 10000 4.63 40 17:51 25.12.2022
520 Clear -29 1014 66 10000 4.63 40 17:33 25.12.2022
521 Clear -28 1014 67 10000 3.6 20 14:47 25.12.2022
522 Snow -24 1014 67 10000 3.09 70 11:49 25.12.2022
523 Clouds -23 1011 64 10000 4.63 60 06:20 25.12.2022
524 Clear -25 1011 70 10000 5.66 60 23:25 24.12.2022
525 Clouds -33 1012 75 10000 0 0 21:18 24.12.2022
526 Clear -32 1014 69 10000 2.57 360 17:56 24.12.2022
527 Clear -34 1015 75 10000 0 0 16:27 24.12.2022
528 Clear -32 1016 68 10000 0 0 14:37 24.12.2022
529 Clear -31 1018 73 10000 3.09 70 12:42 24.12.2022
530 Clear -32 1020 76 10000 4.12 70 10:31 24.12.2022
531 Clouds -38 1024 98 10000 1.27 53 09:55 24.12.2022
532 Clear -30 1021 70 10000 3.09 100 09:36 24.12.2022
533 Clear -26 1025 70 10000 3.6 80 05:46 24.12.2022
534 Clear -23 1027 66 10000 5.66 60 00:52 24.12.2022
535 Clear -22 1027 67 10000 6.69 20 23:35 23.12.2022
536 Clear -21 1027 68 10000 4.73 51 21:55 23.12.2022
537 Clear -22 1030 70 10000 3.6 100 20:31 23.12.2022
538 Clear -20 1030 71 10000 7.72 10 19:39 23.12.2022
539 Clear -20 1030 70 10000 7.72 10 19:21 23.12.2022
540 Clear -20 1031 68 10000 6.17 40 18:38 23.12.2022
541 Clear -20 1031 69 10000 6.17 40 18:19 23.12.2022
542 Clouds -18 1029 72 10000 0.45 44 16:32 23.12.2022
543 Clouds -18 1029 77 10000 3.7 51 14:44 23.12.2022
544 Clear -33 1032 68 10000 0 0 11:42 23.12.2022
545 Clear -33 1033 71 10000 1.54 30 09:37 23.12.2022
546 Clear -37 1034 65 10000 0 0 07:52 23.12.2022
547 Clear -33 1033 72 10000 0 0 06:51 23.12.2022
548 Clear -33 1033 70 10000 0 0 05:27 23.12.2022
549 Clear -31 1033 72 10000 0 0 23:21 22.12.2022
550 Clouds -31 1033 68 10000 0 0 22:34 22.12.2022
551 Clear -35 1034 68 10000 0 0 20:27 22.12.2022
552 Clear -33 1034 62 10000 1.54 20 19:24 22.12.2022
553 Clear -35 1034 65 10000 0 0 18:38 22.12.2022
554 Clear -33 1037 97 10000 1.2 44 16:59 22.12.2022
555 Clear -36 1035 65 10000 0 0 16:37 22.12.2022
556 Clear -36 1036 65 10000 0 0 15:33 22.12.2022
557 Clear -36 1037 62 10000 0 0 14:45 22.12.2022
558 Clear -36 1038 67 10000 0 0 13:32 22.12.2022
559 Clear -36 1039 70 10000 0 0 12:46 22.12.2022
560 Clear -37 1040 70 10000 0 0 10:35 22.12.2022
561 Clear -38 1044 76 10000 1.47 44 09:59 22.12.2022
562 Haze -37 1041 70 9656 0 0 09:20 22.12.2022
563 Haze -37 1041 70 4023 0 0 08:22 22.12.2022
564 Haze -37 1043 70 9656 1.54 20 05:18 22.12.2022
565 Haze -38 1043 70 4828 1.54 120 04:18 22.12.2022
566 Mist -36 1044 75 8047 0 0 22:56 21.12.2022
567 Mist -40 1044 60 8047 0 0 21:54 21.12.2022
568 Mist -38 1044 65 8047 0 0 21:21 21.12.2022
569 Haze -38 1043 65 3621 0 0 20:48 21.12.2022
570 Clouds -36 1043 98 10000 0 0 19:58 21.12.2022
571 Clear -36 1043 98 10000 0 0 19:40 21.12.2022
572 Clear -37 1043 74 10000 0 0 19:21 21.12.2022
573 Mist -38 1042 70 4828 0 0 18:43 21.12.2022
574 Mist -38 1042 70 6437 2.06 20 17:35 21.12.2022
575 Haze -38 1040 70 9656 0 0 14:24 21.12.2022
576 Haze -38 1040 70 3621 0 0 12:49 21.12.2022
577 Haze -38 1040 70 4023 2.06 50 11:41 21.12.2022
578 Haze -39 1040 69 4023 2.06 50 11:19 21.12.2022
579 Haze -39 1038 69 4828 0 0 08:52 21.12.2022
580 Haze -41 1038 69 2615 0 0 06:59 21.12.2022
581 Mist -38 1037 68 1609 0 0 00:48 21.12.2022
582 Fog -39 1037 68 805 0 0 22:41 20.12.2022
583 Fog -40 1037 69 805 0 0 21:18 20.12.2022
584 Mist -40 1037 69 2816 0 0 20:18 20.12.2022
585 Fog -40 1037 69 805 0 0 18:49 20.12.2022
586 Fog -40 1037 69 805 0 0 18:26 20.12.2022
587 Fog -40 1037 69 805 0 0 18:26 20.12.2022
588 Haze -40 1037 66 4828 0 0 17:51 20.12.2022
589 Haze -40 1037 69 2615 0 0 17:28 20.12.2022
590 Haze -40 1037 69 4023 0 0 16:32 20.12.2022
591 Haze -41 1037 69 6437 0 0 14:57 20.12.2022
592 Haze -40 1037 69 3219 0 0 14:36 20.12.2022
593 Haze -40 1037 69 3219 0 0 14:36 20.12.2022
594 Haze -40 1037 66 4023 0 0 13:52 20.12.2022
595 Haze -40 1038 69 6437 2.06 40 12:40 20.12.2022
596 Haze -40 1038 65 4828 0 0 11:56 20.12.2022
597 Haze -40 1038 69 2816 0 0 10:47 20.12.2022
598 Haze -39 1038 70 4828 0 0 07:41 20.12.2022
599 Haze -37 1039 70 6437 0 0 00:23 20.12.2022
600 Haze -38 1040 70 6437 0 0 22:36 19.12.2022
601 Haze -36 1039 71 4828 0 0 21:33 19.12.2022
602 Clouds -34 1038 74 10000 0 0 19:50 19.12.2022
603 Clouds -34 1038 74 10000 0 0 19:31 19.12.2022
604 Clear -34 1038 73 10000 0 0 18:23 19.12.2022
605 Haze -37 1040 75 8047 0 0 16:31 19.12.2022
606 Clear -33 1040 74 10000 0 0 13:22 19.12.2022
607 Clouds -30 1038 74 10000 1.03 13 11:55 19.12.2022
608 Clear -33 1041 71 10000 0 0 08:47 19.12.2022
609 Clear -36 1042 74 10000 0 0 07:25 19.12.2022
610 Clouds -34 1046 76 10000 0.97 25 00:56 19.12.2022
611 Haze -35 1043 73 9656 0 0 21:50 18.12.2022
612 Haze -35 1043 72 9656 0 0 21:31 18.12.2022
613 Clouds -34 1047 77 10000 1.48 9 20:58 18.12.2022
614 Clear -33 1042 71 10000 0 0 19:45 18.12.2022
615 Clear -33 1042 71 10000 0 0 19:24 18.12.2022
616 Clear -33 1042 74 10000 0 0 17:52 18.12.2022
617 Clear -32 1043 74 10000 0 0 16:26 18.12.2022
618 Clear -32 1043 74 10000 0 0 15:39 18.12.2022
619 Clear -32 1043 74 10000 0 0 15:18 18.12.2022
620 Clear -31 1043 75 10000 0 0 13:35 18.12.2022
621 Clear -29 1043 73 10000 0 0 12:51 18.12.2022
622 Clear -28 1043 77 10000 0 0 11:54 18.12.2022
623 Clear -29 1043 73 10000 0 0 10:19 18.12.2022
624 Clouds -27 1043 76 10000 0 0 08:47 18.12.2022
625 Haze -27 1043 73 9656 0 0 07:20 18.12.2022
626 Clear -27 1043 72 10000 0 0 06:19 18.12.2022
627 Clouds -31 1048 78 10000 1.47 23 01:59 18.12.2022
628 Clear -30 1047 75 10000 2.57 30 23:39 17.12.2022
629 Clear -33 1047 68 10000 2.06 30 21:40 17.12.2022
630 Clear -33 1047 72 10000 0 0 18:54 17.12.2022
631 Snow -32 1048 74 10000 2.06 30 16:39 17.12.2022
632 Clear -30 1052 79 10000 1.32 32 13:57 17.12.2022
633 Clear -29 1050 71 10000 4.12 50 11:24 17.12.2022
634 Clear -30 1050 73 10000 2.06 50 10:44 17.12.2022
635 Clear -29 1050 75 10000 2.06 30 09:40 17.12.2022
636 Clear -30 1051 71 10000 2.06 50 07:24 17.12.2022
637 Clear -31 1050 70 10000 0 0 06:45 17.12.2022
638 Clear -31 1050 70 10000 0 0 06:45 17.12.2022
639 Clouds -30 1051 73 10000 0 0 23:32 16.12.2022
640 Clear -32 1051 76 10000 0 0 20:55 16.12.2022
641 Clear -31 1050 77 10000 1.54 20 18:46 16.12.2022
642 Clear -30 1049 77 10000 0 0 15:37 16.12.2022
643 Clear -29 1049 78 10000 0 0 14:47 16.12.2022
644 Clouds -28 1049 79 10000 0 0 13:40 16.12.2022
645 Clouds -27 1052 83 4640 0.5 24 11:57 16.12.2022
646 Clouds -24 1045 80 10000 0 0 09:53 16.12.2022
647 Clouds -23 1045 78 10000 0 0 09:24 16.12.2022
648 Clouds -23 1048 100 1839 0.65 30 07:55 16.12.2022
649 Clouds -20 1044 78 10000 1.54 280 07:25 16.12.2022
650 Snow -14 1034 77 3219 5.66 240 23:24 15.12.2022
651 Snow -14 1031 80 3219 6.69 230 22:20 15.12.2022
652 Mist -11 1028 85 2012 5.14 220 20:30 15.12.2022
653 Snow -8 1025 79 1207 3.6 230 19:36 15.12.2022
654 Snow -9 1023 87 3018 3.6 360 17:59 15.12.2022
655 Snow -10 1023 86 3219 3.6 360 17:20 15.12.2022
656 Snow -10 1022 81 10000 4.63 10 14:58 15.12.2022
657 Clouds -12 1021 80 10000 3.09 40 13:18 15.12.2022
658 Clouds -13 1022 81 10000 5.14 60 12:25 15.12.2022
659 Clouds -15 1025 84 10000 4.63 70 09:32 15.12.2022
660 Clouds -15 1026 84 10000 3.6 60 08:49 15.12.2022
661 Clear -18 1030 83 10000 3.6 70 05:48 15.12.2022
662 Snow -21 1031 83 10000 2.57 40 04:37 15.12.2022
663 Clouds -22 1026 82 10000 0 0 21:25 14.12.2022
664 Clouds -23 1029 100 4712 1.1 3 20:59 14.12.2022
665 Clouds -20 1025 83 10000 0 0 20:23 14.12.2022
666 Clouds -15 1023 86 10000 2.57 240 18:25 14.12.2022
667 Clouds -13 1021 87 10000 3.09 230 16:57 14.12.2022
668 Snow -12 1019 86 8047 6.17 270 15:39 14.12.2022
669 Snow -11 1016 85 4828 3.6 240 13:41 14.12.2022
670 Snow -11 1013 87 6437 0 0 11:21 14.12.2022
671 Snow -12 1011 86 10000 1.54 350 10:33 14.12.2022
672 Clouds -13 1009 85 10000 0 0 08:51 14.12.2022
673 Clouds -15 1007 86 10000 2.57 80 22:49 13.12.2022
674 Clouds -16 1007 84 10000 3.09 60 21:48 13.12.2022
675 Clouds -17 1008 84 10000 3.09 60 20:48 13.12.2022
676 Clouds -18 1008 85 10000 1.51 44 19:59 13.12.2022
677 Clear -20 1011 82 10000 3.09 70 17:40 13.12.2022
678 Clear -23 1012 81 10000 2.57 80 15:44 13.12.2022
679 Clear -21 1012 81 10000 2.06 70 14:36 13.12.2022
680 Clear -22 1013 84 10000 1.54 80 11:18 13.12.2022
681 Clear -22 1013 84 10000 1.54 20 10:36 13.12.2022
682 Clear -20 1013 84 10000 2.57 40 09:23 13.12.2022
683 Snow -13 1010 85 9656 2.57 210 04:35 13.12.2022
684 Snow -13 1004 83 3219 6.17 250 22:22 12.12.2022
685 Mist -13 1002 87 2012 3.6 230 20:53 12.12.2022
686 Snow -11 1000 85 2816 2.06 170 18:33 12.12.2022
687 Snow -11 998 86 3219 1.54 220 17:19 12.12.2022
688 Snow -11 997 89 1609 1.54 230 15:22 12.12.2022
689 Mist -11 996 88 2414 2.06 220 11:50 12.12.2022
690 Snow -11 996 86 3219 0 0 09:19 12.12.2022
691 Snow -13 1000 85 10000 0 0 04:54 12.12.2022
692 Clouds -13 1002 81 10000 1.54 40 01:53 12.12.2022
693 Clear -15 1003 83 10000 1.54 70 22:53 11.12.2022
694 Clear -16 1004 79 10000 2.06 20 20:42 11.12.2022
695 Clouds -18 1006 83 10000 2.06 30 19:42 11.12.2022
696 Clouds -18 1006 83 10000 2.06 30 19:22 11.12.2022
697 Clouds -19 1007 81 10000 0 0 18:18 11.12.2022
698 Clouds -20 1007 82 10000 1.54 40 17:29 11.12.2022
699 Clear -21 1008 81 10000 0 0 16:52 11.12.2022
700 Clouds -23 1008 84 10000 0 0 15:46 11.12.2022
701 Clouds -23 1008 84 10000 0 0 15:46 11.12.2022
702 Clouds -23 1009 79 10000 1.54 50 14:26 11.12.2022
703 Clear -23 1010 80 10000 2.06 20 12:44 11.12.2022
704 Clear -23 1010 84 10000 0 0 11:53 11.12.2022
705 Clouds -20 1011 82 10000 0 0 08:25 11.12.2022
706 Clouds -14 1015 79 10000 1.54 70 00:34 11.12.2022
707 Clouds -13 1017 79 10000 2.57 30 22:54 10.12.2022
708 Clouds -13 1017 85 10000 2.57 30 22:33 10.12.2022
709 Clouds -13 1017 75 10000 2.06 40 21:19 10.12.2022
710 Clouds -13 1017 79 10000 2.06 80 20:26 10.12.2022
711 Snow -16 1018 82 10000 0 0 18:49 10.12.2022
712 Snow -13 1019 76 10000 1.54 90 16:51 10.12.2022
713 Snow -13 1020 76 10000 2.06 70 16:32 10.12.2022
714 Snow -14 1020 76 10000 1.54 100 15:38 10.12.2022
715 Clouds -13 1021 78 10000 2.57 140 14:22 10.12.2022
716 Clouds -12 1021 85 10000 0 0 12:53 10.12.2022
717 Clouds -12 1022 92 10000 0 0 11:35 10.12.2022
718 Clouds -11 1022 85 10000 1.54 130 10:34 10.12.2022
719 Clouds -12 1025 100 1528 0.92 60 08:55 10.12.2022
720 Clouds -22 1026 100 2634 0.83 42 07:19 10.12.2022
721 Snow -10 1018 79 10000 4.12 240 00:19 10.12.2022
722 Snow -11 1018 83 10000 2.06 170 23:18 09.12.2022
723 Snow -11 1017 83 10000 3.6 260 22:36 09.12.2022
724 Snow -11 1016 83 10000 3.6 250 21:24 09.12.2022
725 Snow -11 1015 81 10000 3.6 250 20:41 09.12.2022
726 Snow -11 1014 86 10000 4.63 250 18:42 09.12.2022
727 Snow -11 1013 85 9656 4.12 230 17:51 09.12.2022
728 Snow -11 1011 87 9656 3.09 250 16:31 09.12.2022
729 Snow -11 1010 87 8047 2.57 250 15:34 09.12.2022
730 Mist -11 1009 86 3219 3.09 250 14:40 09.12.2022
731 Snow -10 1007 87 6437 3.6 240 11:29 09.12.2022
732 Snow -10 1006 88 4023 3.6 230 10:32 09.12.2022
733 Snow -10 1004 88 3219 3.09 250 08:24 09.12.2022
734 Snow -9 1001 88 3219 3.09 270 03:19 09.12.2022
735 Mist -9 1000 88 4023 2.57 280 00:18 09.12.2022
736 Snow -8 999 87 2414 3.09 290 21:23 08.12.2022
737 Snow -8 999 88 3219 3.09 290 20:21 08.12.2022
738 Snow -7 999 90 4828 2.57 280 16:52 08.12.2022
739 Snow -7 1000 89 4828 1.54 300 14:46 08.12.2022
740 Snow -7 1000 89 4828 1.54 300 14:21 08.12.2022
741 Snow -7 1000 95 4828 2.57 290 10:56 08.12.2022
742 Snow -7 1000 92 3219 1.54 260 09:45 08.12.2022
743 Snow -7 999 92 3018 2.06 230 09:20 08.12.2022
744 Snow -9 999 90 4023 0 0 22:56 07.12.2022
745 Snow -9 999 89 6437 0 0 22:19 07.12.2022
746 Snow -9 999 88 9656 0 0 21:47 07.12.2022
747 Snow -9 999 90 4828 0 0 20:36 07.12.2022
748 Snow -9 999 90 10000 0 0 18:42 07.12.2022
749 Snow -10 999 90 10000 0 0 16:21 07.12.2022
750 Mist -9 1000 90 8047 0 0 14:40 07.12.2022
751 Snow -10 1000 89 10000 0 0 11:37 07.12.2022
752 Snow -10 1000 89 10000 0 0 10:38 07.12.2022
753 Snow -10 1000 89 10000 0 0 09:37 07.12.2022
754 Snow -11 1000 88 10000 2.06 40 08:44 07.12.2022
755 Snow -10 1001 88 9656 0 0 05:28 07.12.2022
756 Snow -11 1000 90 8047 0 0 03:55 07.12.2022
757 Clouds -9 999 90 10000 0 0 22:35 06.12.2022
758 Fog -9 999 89 10000 0 0 20:20 06.12.2022
759 Clouds -8 1000 91 10000 0 0 17:39 06.12.2022
760 Clouds -8 1001 91 10000 1.54 180 16:40 06.12.2022
761 Clouds -8 1002 91 10000 1.54 80 15:40 06.12.2022
762 Clouds -9 1004 89 4731 0.85 36 14:55 06.12.2022
763 Clouds -8 1002 89 10000 0 0 14:24 06.12.2022
764 Snow -7 1003 91 10000 0 0 12:42 06.12.2022
765 Snow -7 1003 91 10000 0 0 12:20 06.12.2022
766 Snow -7 1007 95 3018 0 0 07:59 06.12.2022
767 Snow -7 1011 90 1609 0 0 04:54 06.12.2022
768 Clouds -9 1014 87 10000 0 0 01:24 06.12.2022
769 Clouds -11 1016 89 10000 0 0 22:25 05.12.2022
770 Clouds -12 1016 90 10000 0 0 20:55 05.12.2022
771 Clouds -12 1016 88 10000 3.09 20 20:25 05.12.2022
772 Mist -13 1017 86 8047 0 0 19:43 05.12.2022
773 Clouds -16 1018 91 10000 0 0 16:57 05.12.2022
774 Clouds -16 1018 91 10000 0 0 16:57 05.12.2022
775 Fog -16 1018 87 402 0 0 15:49 05.12.2022
776 Mist -16 1018 85 1811 0 0 15:18 05.12.2022
777 Clouds -15 1019 88 10000 0.83 39 12:59 05.12.2022
778 Clear -16 1015 86 10000 1.54 10 12:38 05.12.2022
779 Mist -15 1015 84 6437 0 0 11:46 05.12.2022
780 Fog -14 1015 84 604 1.54 290 09:36 05.12.2022
781 Mist -10 1019 86 4426 0 0 00:19 05.12.2022
782 Mist -9 1020 91 6437 2.06 40 22:44 04.12.2022
783 Mist -9 1020 91 6437 2.06 40 22:20 04.12.2022
784 Clouds -8 1020 97 10000 0 0 21:41 04.12.2022
785 Clouds -6 1020 87 10000 3.6 30 20:27 04.12.2022
786 Clouds -4 1021 92 10000 4.12 40 19:26 04.12.2022
787 Clouds -7 1021 87 10000 2.57 70 18:40 04.12.2022
788 Clouds -7 1021 88 10000 4.12 50 17:23 04.12.2022
789 Clouds -7 1022 89 10000 1.54 80 16:37 04.12.2022
790 Clouds -7 1022 89 10000 1.54 80 16:19 04.12.2022
791 Clouds -8 1022 87 10000 2.06 60 15:54 04.12.2022
792 Fog -8 1023 91 604 2.06 50 14:43 04.12.2022
793 Fog -9 1024 89 604 2.06 50 13:26 04.12.2022
794 Fog -7 1024 90 402 0 0 12:42 04.12.2022
795 Fog -6 1024 92 805 0 0 11:46 04.12.2022
796 Clouds -3 1025 94 10000 0 0 09:20 04.12.2022
797 Clouds -3 1024 94 10000 3.09 30 07:21 04.12.2022
798 Clouds -3 1022 90 10000 3.09 60 00:45 04.12.2022
799 Snow -3 1022 93 10000 2.57 50 23:33 03.12.2022
800 Snow -4 1022 91 6437 2.06 70 21:59 03.12.2022
801 Snow -4 1021 91 10000 2.57 70 21:21 03.12.2022
802 Snow -5 1021 88 10000 3.09 40 19:34 03.12.2022
803 Snow -4 1020 88 10000 2.57 70 18:39 03.12.2022
804 Snow -5 1020 92 3621 3.09 60 15:53 03.12.2022
805 Snow -6 1021 91 9656 2.06 80 14:23 03.12.2022
806 Snow -6 1021 90 10000 2.06 60 12:54 03.12.2022
807 Snow -6 1021 91 6437 0 0 12:22 03.12.2022
808 Snow -7 1021 87 10000 1.54 70 10:21 03.12.2022
809 Snow -9 1022 87 2414 3.6 70 06:56 03.12.2022
810 Mist -12 1024 84 1609 1.54 60 00:31 03.12.2022
811 Clouds -13 1025 82 10000 0 0 22:22 02.12.2022
812 Clouds -13 1025 83 10000 0 0 20:53 02.12.2022
813 Snow -14 1025 83 10000 2.57 80 19:23 02.12.2022
814 Snow -15 1027 82 4828 0 0 15:59 02.12.2022
815 Snow -17 1030 85 10000 0 0 14:43 02.12.2022
816 Clouds -16 1029 85 10000 0 0 14:23 02.12.2022
817 Clouds -18 1029 82 10000 0 0 12:55 02.12.2022
818 Clouds -21 1030 81 10000 0 0 11:32 02.12.2022
819 Clouds -21 1031 81 10000 0 0 08:35 02.12.2022
820 Clouds -20 1031 80 10000 0 0 07:23 02.12.2022
821 Clouds -18 1031 85 10000 1.54 60 23:35 01.12.2022
822 Clouds -17 1029 82 10000 1.54 70 21:45 01.12.2022
823 Clouds -17 1029 82 10000 1.54 70 21:26 01.12.2022
824 Snow -17 1029 80 10000 0 0 19:24 01.12.2022
825 Snow -18 1026 84 9656 1.54 170 17:48 01.12.2022
826 Snow -16 1023 84 8047 2.57 210 15:39 01.12.2022
827 Snow -14 1015 86 4828 2.06 210 11:37 01.12.2022
828 Snow -15 1013 84 1609 0 0 10:23 01.12.2022
829 Snow -15 1013 84 1609 1.54 190 09:53 01.12.2022
830 Snow -14 1013 84 2414 1.54 190 09:35 01.12.2022
831 Clouds -17 1019 78 10000 0 0 23:59 30.11.2022
832 Clouds -18 1021 78 10000 0 0 22:35 30.11.2022
833 Clouds -18 1023 77 10000 0 0 21:19 30.11.2022
834 Clouds -19 1024 76 10000 0 0 20:25 30.11.2022
835 Clouds -20 1026 81 10000 0 0 19:36 30.11.2022
836 Clouds -20 1028 78 10000 0 0 18:33 30.11.2022
837 Clouds -20 1028 77 10000 1.54 270 17:35 30.11.2022
838 Clouds -21 1031 77 10000 0 0 14:47 30.11.2022
839 Clouds -22 1031 77 10000 0 0 14:27 30.11.2022
840 Clouds -24 1032 79 10000 1.54 20 13:31 30.11.2022
841 Clear -22 1035 78 10000 0 0 10:24 30.11.2022
842 Clear -23 1036 77 10000 0 0 08:38 30.11.2022
843 Clouds -24 1036 76 10000 0 0 07:25 30.11.2022
844 Clouds -26 1043 78 10000 0 0 23:33 29.11.2022
845 Clouds -26 1042 76 10000 0 0 22:46 29.11.2022
846 Clouds -28 1044 77 10000 0 0 21:25 29.11.2022
847 Clear -29 1044 78 10000 0 0 20:36 29.11.2022
848 Clear -29 1044 79 10000 0 0 18:57 29.11.2022
849 Clear -28 1048 81 10000 1.04 47 16:59 29.11.2022
850 Clear -29 1045 75 10000 0 0 16:24 29.11.2022
851 Clear -30 1044 75 10000 0 0 14:49 29.11.2022
852 Clear -29 1042 77 10000 0 0 12:55 29.11.2022
853 Clear -30 1042 76 10000 0 0 11:32 29.11.2022
854 Clear -29 1042 76 10000 0 0 10:53 29.11.2022
855 Clear -30 1041 80 10000 0 0 09:38 29.11.2022
856 Clear -28 1041 79 10000 0 0 08:34 29.11.2022
857 Clouds -23 1038 74 10000 4.12 50 00:36 29.11.2022
858 Clouds -22 1039 80 10000 3.6 50 23:34 28.11.2022
859 Clouds -20 1038 75 10000 3.09 40 22:50 28.11.2022
860 Clouds -23 1038 77 10000 3.09 50 21:43 28.11.2022
861 Clouds -24 1037 80 10000 3.09 30 20:37 28.11.2022
862 Clouds -19 1037 71 10000 2.06 40 19:38 28.11.2022
863 Clouds -19 1037 78 10000 3.09 360 18:29 28.11.2022
864 Clouds -21 1037 75 10000 3.6 360 17:50 28.11.2022
865 Snow -17 1037 82 10000 2.06 40 15:31 28.11.2022
866 Snow -17 1038 82 10000 2.06 40 14:24 28.11.2022
867 Snow -16 1038 78 10000 2.06 30 13:49 28.11.2022
868 Snow -17 1037 84 10000 2.57 20 12:35 28.11.2022
869 Snow -16 1037 82 10000 2.06 50 09:27 28.11.2022
870 Snow -15 1037 84 10000 0 0 06:29 28.11.2022
871 Snow -15 1038 84 10000 2.06 180 04:42 28.11.2022
872 Snow -15 1037 85 6437 0 0 03:23 28.11.2022
873 Mist -15 1036 85 10000 0 0 01:27 28.11.2022
874 Snow -14 1035 86 10000 0 0 22:35 27.11.2022
875 Snow -14 1034 86 10000 0 0 21:27 27.11.2022
876 Snow -13 1033 84 10000 0 0 19:28 27.11.2022
877 Clouds -13 1032 87 10000 0 0 16:47 27.11.2022
878 Snow -13 1030 87 8047 0 0 14:30 27.11.2022
879 Snow -12 1029 88 10000 0 0 12:31 27.11.2022
880 Snow -12 1028 89 3018 0 0 10:40 27.11.2022
881 Snow -12 1026 88 6437 0 0 07:57 27.11.2022
882 Mist -11 1021 90 10000 1.54 180 23:43 26.11.2022
883 Mist -12 1018 86 10000 0 0 21:52 26.11.2022
884 Snow -13 1018 86 10000 0 0 20:36 26.11.2022
885 Snow -11 1016 89 10000 0 0 19:21 26.11.2022
886 Snow -9 1014 86 10000 1.54 50 16:49 26.11.2022
887 Snow -9 1014 89 10000 0 0 15:38 26.11.2022
888 Snow -10 1011 92 9656 0 0 12:55 26.11.2022
889 Snow -10 1010 89 10000 1.54 200 11:23 26.11.2022
890 Snow -10 1009 86 10000 1.54 50 09:44 26.11.2022
891 Snow -10 1009 86 4828 0 0 08:45 26.11.2022
892 Snow -11 1005 90 10000 0 0 23:22 25.11.2022
893 Mist -12 1005 89 8047 0 0 21:41 25.11.2022
894 Snow -12 1004 88 4828 1.54 40 20:33 25.11.2022
895 Mist -13 1004 87 4828 0 0 19:24 25.11.2022
896 Snow -13 1003 86 10000 0 0 15:51 25.11.2022
897 Snow -12 1002 87 4426 1.54 60 12:28 25.11.2022
898 Snow -14 1001 90 10000 0 0 08:56 25.11.2022
899 Clouds -13 1000 88 10000 0 0 08:37 25.11.2022
900 Snow -12 1000 87 10000 2.06 190 06:48 25.11.2022
901 Mist -10 998 92 10000 2.06 20 01:26 25.11.2022
902 Clouds -10 999 86 10000 0 0 23:41 24.11.2022
903 Clouds -10 999 86 10000 0 0 22:35 24.11.2022
904 Mist -11 1000 88 10000 3.09 30 21:42 24.11.2022
905 Snow -11 1000 92 10000 0 0 19:48 24.11.2022
906 Snow -12 1002 90 10000 0 0 17:48 24.11.2022
907 Snow -12 1002 90 10000 0 0 17:24 24.11.2022
908 Snow -12 1002 89 10000 0 0 16:40 24.11.2022
909 Snow -12 1003 89 10000 0 0 14:24 24.11.2022
910 Snow -12 1003 89 10000 0 0 12:41 24.11.2022
911 Mist -12 1004 87 10000 0 0 11:37 24.11.2022
912 Mist -13 1004 90 4426 0 0 08:59 24.11.2022
913 Snow -13 1003 89 8047 2.06 40 06:22 24.11.2022
914 Mist -13 1003 88 1006 0 0 00:40 24.11.2022
915 Fog -12 1003 88 402 0 0 23:32 23.11.2022
916 Fog -13 1004 89 604 0 0 21:48 23.11.2022
917 Fog -13 1003 88 201 1.54 20 20:51 23.11.2022
918 Fog -13 1002 87 805 0 0 19:34 23.11.2022
919 Snow -14 1002 89 2414 0 0 18:55 23.11.2022
920 Clouds -14 1002 89 10000 0 0 17:29 23.11.2022
921 Clouds -10 1002 87 10000 2.06 10 13:42 23.11.2022
922 Clouds -11 1002 85 10000 2.06 10 13:23 23.11.2022
923 Snow -11 1001 88 10000 0 0 12:23 23.11.2022
924 Snow -11 1001 87 10000 0 0 11:45 23.11.2022
925 Clouds -11 999 86 10000 0 0 10:48 23.11.2022
926 Clouds -11 999 86 10000 0 0 09:57 23.11.2022
927 Clouds -11 999 86 10000 0 0 09:27 23.11.2022
928 Clouds -11 1002 93 6059 0.73 35 08:58 23.11.2022
929 Clouds -11 1000 90 10000 0 0 08:35 23.11.2022
930 Snow -11 999 87 10000 0 0 05:19 23.11.2022
931 Snow -11 999 87 10000 0 0 05:19 23.11.2022
932 Clouds -11 997 85 10000 0 0 01:42 23.11.2022
933 Clouds -10 997 88 10000 0 0 22:37 22.11.2022
934 Clouds -10 998 89 10000 0 0 21:49 22.11.2022
935 Clouds -11 996 88 10000 0 0 21:23 22.11.2022
936 Clouds -11 996 87 10000 0 0 20:43 22.11.2022
937 Clouds -11 996 87 10000 0 0 19:45 22.11.2022
938 Clouds -11 995 90 10000 0 0 17:54 22.11.2022
939 Clouds -11 994 86 10000 0 0 16:38 22.11.2022
940 Clouds -12 993 88 10000 0 0 14:31 22.11.2022
941 Clouds -12 994 89 10000 0 0 12:51 22.11.2022
942 Clouds -11 992 88 10000 0 0 09:28 22.11.2022
943 Clouds -11 992 88 10000 0 0 09:28 22.11.2022
944 Clouds -11 991 88 10000 0 0 09:28 22.11.2022
945 Clouds -10 990 90 10000 0.29 1 07:59 22.11.2022
946 Clouds -12 991 89 10000 1.54 190 06:43 22.11.2022
947 Clouds -10 990 90 10000 0 0 00:23 22.11.2022
948 Clear -10 991 89 10000 0 0 22:52 21.11.2022
949 Clear -10 991 89 10000 0 0 22:23 21.11.2022
950 Clouds -12 991 87 10000 0 0 21:31 21.11.2022
951 Clouds -12 992 90 10000 0 0 19:54 21.11.2022
952 Clouds -13 992 88 10000 0 0 19:35 21.11.2022
953 Clouds -13 992 86 10000 0 0 18:51 21.11.2022
954 Clouds -12 992 86 10000 1.54 20 17:32 21.11.2022
955 Clear -12 993 87 10000 0 0 16:43 21.11.2022
956 Clouds -10 993 89 10000 1.13 39 15:58 21.11.2022
957 Clear -11 993 87 10000 0 0 15:23 21.11.2022
958 Clouds -9 995 89 10000 1.54 30 13:53 21.11.2022
959 Clouds -10 996 88 10000 0 0 12:50 21.11.2022
960 Clouds -10 997 88 10000 0 0 09:43 21.11.2022
961 Clouds -10 997 88 10000 0 0 07:52 21.11.2022
962 Clouds -9 997 87 10000 0 0 00:36 21.11.2022
963 Clouds -7 997 84 10000 0 0 21:39 20.11.2022
964 Clouds -8 998 85 10000 2.57 80 20:47 20.11.2022
965 Clear -10 999 86 10000 0 0 19:21 20.11.2022
966 Clouds -11 999 84 10000 0 0 17:24 20.11.2022
967 Clear -14 999 83 10000 1.54 50 15:44 20.11.2022
968 Clear -13 1000 85 10000 1.54 50 15:23 20.11.2022
969 Clear -13 1000 83 10000 0 0 14:18 20.11.2022
970 Clear -15 1001 83 10000 2.06 110 13:32 20.11.2022
971 Clear -15 1001 83 10000 2.06 110 13:32 20.11.2022
972 Clear -15 1001 83 10000 2.06 110 13:32 20.11.2022
973 Clouds -15 1003 87 10000 0 0 11:46 20.11.2022
974 Clouds -10 1001 86 10000 1.07 16 10:58 20.11.2022
975 Clouds -10 1001 86 10000 1.07 16 10:58 20.11.2022
976 Clouds -15 1004 85 10000 0 0 09:44 20.11.2022
977 Clouds -11 1002 85 10000 1.42 14 08:55 20.11.2022
978 Clear -15 1005 85 10000 0 0 08:32 20.11.2022
979 Clear -14 1006 84 10000 0 0 07:27 20.11.2022
980 Clear -11 1010 86 10000 0 0 01:29 20.11.2022
981 Clouds -10 1010 86 10000 0.88 35 00:57 20.11.2022
982 Clear -11 1011 86 10000 2.06 320 00:38 20.11.2022
983 Clear -11 1011 87 10000 2.06 320 00:19 20.11.2022
984 Clear -11 1011 83 10000 0 0 23:26 19.11.2022
985 Clouds -11 1012 84 10000 1.54 50 22:49 19.11.2022
986 Clouds -11 1012 84 10000 1.54 50 22:18 19.11.2022
987 Clear -13 1014 87 10000 0 0 21:27 19.11.2022
988 Clouds -13 1014 85 10000 1.54 10 20:41 19.11.2022
989 Clouds -13 1014 86 10000 1.54 150 19:51 19.11.2022
990 Clouds -12 1014 87 10000 0 0 18:54 19.11.2022
991 Clouds -10 1015 86 10000 0 0 17:39 19.11.2022
992 Clouds -10 1015 86 10000 0 0 17:18 19.11.2022
993 Clouds -10 1017 88 10000 0.37 63 14:58 19.11.2022
994 Clouds -10 1018 85 10000 0 0 13:36 19.11.2022
995 Clouds -10 1018 84 10000 0.62 50 11:56 19.11.2022
996 Clouds -11 1019 85 10000 0 0 09:51 19.11.2022
997 Clouds -11 1020 84 10000 1.54 30 08:19 19.11.2022
998 Clouds -11 1020 84 10000 1.54 30 08:19 19.11.2022
999 Clouds -13 1021 86 10000 0 0 04:45 19.11.2022
1000 Clear -12 1024 84 10000 0 0 00:50 19.11.2022
1001 Clear -12 1023 83 10000 0 0 23:35 18.11.2022
1002 Clear -14 1025 84 10000 0 0 22:24 18.11.2022
1003 Clear -15 1024 79 10000 2.06 40 21:36 18.11.2022
1004 Clear -12 1023 84 10000 0.82 34 20:58 18.11.2022
1005 Clear -17 1025 82 10000 0 0 20:25 18.11.2022
1006 Clouds -16 1027 80 10000 1.54 40 19:44 18.11.2022
1007 Clear -16 1027 82 10000 0 0 17:45 18.11.2022
1008 Clear -16 1027 82 10000 0 0 17:45 18.11.2022
1009 Clear -16 1027 82 10000 0 0 16:32 18.11.2022
1010 Clouds -14 1029 85 10000 0 0 12:53 18.11.2022
1011 Clear -15 1030 85 10000 0 0 10:45 18.11.2022
1012 Clear -13 1030 85 10000 0 0 07:52 18.11.2022
1013 Clear -14 1030 87 10000 0 0 05:45 18.11.2022
1014 Clear -12 1031 85 10000 0 0 02:49 18.11.2022
1015 Clear -11 1033 87 10000 0 0 23:48 17.11.2022
1016 Clear -16 1035 85 10000 0 0 20:48 17.11.2022
1017 Clear -17 1036 82 10000 0 0 20:25 17.11.2022
1018 Clouds -18 1036 73 10000 0 0 19:49 17.11.2022
1019 Clear -16 1036 84 10000 0 0 18:34 17.11.2022
1020 Clear -16 1036 83 10000 1.54 330 17:32 17.11.2022
1021 Clear -16 1037 82 10000 0 0 16:33 17.11.2022
1022 Clear -16 1038 85 10000 0 0 12:27 17.11.2022
1023 Clear -16 1038 85 10000 0 0 11:20 17.11.2022
1024 Clouds -12 1039 88 10000 1.47 39 07:59 17.11.2022
1025 Clouds -12 1041 72 10000 0 0 01:39 17.11.2022
1026 Clouds -13 1042 86 10000 0 0 23:33 16.11.2022
1027 Clear -13 1041 86 10000 0 0 22:25 16.11.2022
1028 Clear -17 1043 84 10000 0 0 20:33 16.11.2022
1029 Clouds -19 1042 78 10000 0 0 19:29 16.11.2022
1030 Clear -15 1042 83 10000 0 0 18:32 16.11.2022
1031 Clear -15 1041 85 10000 2.06 50 16:36 16.11.2022
1032 Clear -12 1042 86 10000 0 0 12:56 16.11.2022
1033 Clear -12 1044 86 10000 5.66 70 08:27 16.11.2022
1034 Clouds -11 1044 81 10000 2.06 20 01:49 16.11.2022
1035 Fog -10 1046 88 10000 4.63 10 23:50 15.11.2022
1036 Clouds -10 1046 90 10000 2.57 50 21:54 15.11.2022
1037 Mist -10 1045 87 9656 0 0 20:32 15.11.2022
1038 Mist -10 1045 92 9656 1.54 270 19:18 15.11.2022
1039 Mist -11 1043 89 3219 0 0 17:38 15.11.2022
1040 Mist -12 1043 86 8047 0 0 16:52 15.11.2022
1041 Mist -12 1042 87 8047 0 0 16:18 15.11.2022
1042 Clouds -13 1041 88 10000 0 0 14:41 15.11.2022
1043 Clouds -11 1039 90 6013 0.32 315 12:59 15.11.2022
1044 Clouds -9 1038 89 10000 2.06 260 11:22 15.11.2022
1045 Clouds -7 1035 90 10000 2.57 240 09:53 15.11.2022
1046 Snow -4 1030 92 10000 2.06 210 05:19 15.11.2022
1047 Snow -3 1023 91 2414 2.57 190 00:28 15.11.2022
1048 Snow -3 1021 92 2414 2.06 180 22:52 14.11.2022
1049 Snow -3 1018 92 3219 1.54 180 20:53 14.11.2022
1050 Snow -4 1017 93 2816 1.54 200 20:30 14.11.2022
1051 Snow -3 1014 91 6437 3.6 240 18:28 14.11.2022
1052 Snow -3 1004 90 3219 7.2 220 13:21 14.11.2022
1053 Rain 0 1000 94 8047 3.6 220 11:49 14.11.2022
1054 Rain 1 999 90 9656 5.14 240 11:28 14.11.2022
1055 Clouds 0 995 87 10000 4.63 350 08:48 14.11.2022
1056 Clouds 1 995 88 10000 5.66 360 07:53 14.11.2022
1057 Snow 0 996 93 10000 3.6 350 05:46 14.11.2022
1058 Clouds -6 999 85 10000 1.54 30 23:24 13.11.2022
1059 Clear -7 1000 90 10000 0 0 21:43 13.11.2022
1060 Clear -7 1000 90 10000 0 0 21:43 13.11.2022
1061 Clear -9 1000 91 10000 0 0 20:54 13.11.2022
1062 Clouds -12 1004 88 10000 1.17 27 18:59 13.11.2022
1063 Clouds -8 998 87 10000 0 0 17:50 13.11.2022
1064 Clouds -7 1002 92 10000 1.14 14 16:56 13.11.2022
1065 Clear -8 996 90 10000 0 0 14:54 13.11.2022
1066 Clear -9 996 88 10000 0 0 13:24 13.11.2022
1067 Clouds -9 995 89 10000 2.57 30 12:34 13.11.2022
1068 Clouds -9 995 89 10000 2.57 30 12:34 13.11.2022
1069 Clouds -9 995 89 10000 2.57 30 12:34 13.11.2022
1070 Clouds -9 995 89 10000 2.57 30 12:34 13.11.2022
1071 Mist -10 994 89 1207 0 0 10:48 13.11.2022
1072 Clear -6 991 87 10000 0 0 06:31 13.11.2022
1073 Clear -4 990 84 10000 2.57 80 00:34 13.11.2022
1074 Clouds -7 994 90 10000 1.99 42 21:59 12.11.2022
1075 Clouds -6 991 87 10000 1.54 50 21:23 12.11.2022
1076 Clear -12 992 92 10000 0 0 19:53 12.11.2022
1077 Clear -10 993 91 10000 0 0 17:53 12.11.2022
1078 Clear -12 993 88 10000 2.06 40 16:21 12.11.2022
1079 Clouds -9 997 88 10000 1.66 45 14:59 12.11.2022
1080 Clear -5 995 88 10000 3.6 80 11:24 12.11.2022
1081 Clouds -6 998 92 10000 3.09 70 08:28 12.11.2022
1082 Clouds -6 999 89 10000 1.9 37 01:59 12.11.2022
1083 Clear -14 1005 87 10000 0 0 21:43 11.11.2022
1084 Clear -14 1006 86 10000 0 0 20:45 11.11.2022
1085 Clear -16 1006 84 10000 1.54 30 19:30 11.11.2022
1086 Clear -14 1007 85 10000 1.54 20 18:42 11.11.2022
1087 Clear -13 1008 85 10000 2.06 30 17:42 11.11.2022
1088 Clouds -13 1009 87 10000 3.09 50 15:50 11.11.2022
1089 Clouds -11 1010 88 10000 2.57 50 14:20 11.11.2022
1090 Clouds -11 1010 79 10000 2.06 30 13:24 11.11.2022
1091 Clouds -10 1012 89 10000 1.54 340 09:37 11.11.2022
1092 Clouds -10 1012 89 10000 1.54 340 09:37 11.11.2022
1093 Mist -10 1012 89 9656 2.06 20 08:27 11.11.2022
1094 Snow -7 1012 89 4828 0 0 04:39 11.11.2022
1095 Snow -6 1011 89 3219 0 0 23:21 10.11.2022
1096 Snow -7 1011 91 2414 0 0 21:55 10.11.2022
1097 Snow -7 1011 90 2414 0 0 21:32 10.11.2022
1098 Snow -8 1010 90 2213 2.06 70 20:50 10.11.2022
1099 Mist -8 1010 89 2213 2.06 70 20:20 10.11.2022
1100 Snow -8 1010 90 3018 2.06 90 19:42 10.11.2022
1101 Clouds -9 1010 88 10000 1.54 80 18:32 10.11.2022
1102 Snow -8 1010 87 9656 0 0 16:26 10.11.2022
1103 Clouds -9 1009 86 10000 0 0 13:43 10.11.2022
1104 Clear -10 1009 88 10000 0 0 11:38 10.11.2022
1105 Clear -12 1007 89 10000 0 0 08:43 10.11.2022
1106 Clouds -7 1005 83 10000 1.54 350 01:31 10.11.2022
1107 Clouds -6 1007 87 10000 2.57 30 23:34 09.11.2022
1108 Snow -6 1005 89 10000 2.57 20 22:36 09.11.2022
1109 Snow -7 1005 89 1609 1.54 40 20:48 09.11.2022
1110 Snow -7 1005 90 1609 0 0 20:29 09.11.2022
1111 Snow -7 1005 88 4828 1.54 290 19:42 09.11.2022
1112 Snow -7 1006 84 1609 0 0 19:18 09.11.2022
1113 Clouds -9 1005 89 10000 0 0 16:19 09.11.2022
1114 Clear -11 1006 90 10000 0 0 14:48 09.11.2022
1115 Clear -11 1006 89 10000 0 0 14:25 09.11.2022
1116 Clouds -10 1005 88 10000 0 0 13:19 09.11.2022
1117 Clear -8 1006 87 10000 1.54 10 11:46 09.11.2022
1118 Clear -8 1008 92 10000 0 0 08:44 09.11.2022
1119 Clouds -8 1009 88 10000 0 0 07:46 09.11.2022
1120 Clouds -8 1009 87 10000 0 0 07:46 09.11.2022
1121 Clouds -6 1013 93 10000 0 0 00:56 09.11.2022
1122 Clouds -5 1016 89 10000 0 0 21:49 08.11.2022
1123 Clouds -5 1016 89 10000 0 0 21:31 08.11.2022
1124 Clouds -5 1015 86 10000 0 0 20:41 08.11.2022
1125 Clouds -7 1015 100 10000 0 0 19:40 08.11.2022
1126 Clouds -6 1014 93 10000 0 0 18:57 08.11.2022
1127 Snow -5 1015 89 10000 1.54 30 17:26 08.11.2022
1128 Snow -6 1015 88 8047 2.57 70 14:56 08.11.2022
1129 Snow -6 1015 83 9656 0 0 13:44 08.11.2022
1130 Snow -6 1015 82 9656 0 0 13:25 08.11.2022
1131 Clouds -8 1014 85 10000 0 0 09:46 08.11.2022
1132 Clouds -9 1015 82 10000 0 0 07:30 08.11.2022
1133 Snow -9 1017 71 10000 0.45 345 01:41 08.11.2022
1134 Snow -9 1017 71 10000 0.45 345 01:41 08.11.2022
1135 Clouds -12 1022 70 10000 2.06 60 22:51 07.11.2022
1136 Clouds -14 1022 78 10000 2.06 50 21:38 07.11.2022
1137 Clear -16 1024 76 10000 1.54 30 20:45 07.11.2022
1138 Clouds -16 1025 80 10000 1.54 50 19:33 07.11.2022
1139 Clouds -19 1029 70 10000 1.54 350 17:39 07.11.2022
1140 Clear -18 1031 82 10000 0 0 15:36 07.11.2022
1141 Snow -17 1033 84 10000 0 0 14:54 07.11.2022
1142 Clouds -20 1033 79 10000 0 0 13:20 07.11.2022
1143 Clear -21 1036 85 10000 0 0 11:50 07.11.2022
1144 Clear -20 1038 85 10000 0 0 09:49 07.11.2022
1145 Clear -20 1040 82 10000 0 0 08:18 07.11.2022
1146 Clear -19 1041 85 10000 2.06 50 06:27 07.11.2022
1147 Clear -18 1043 80 10000 0 0 01:43 07.11.2022
1148 Clouds -17 1044 82 10000 0 0 23:19 06.11.2022
1149 Clear -19 1045 84 10000 0 0 21:21 06.11.2022
1150 Clear -20 1045 86 10000 1.54 70 20:36 06.11.2022
1151 Clouds -16 1048 88 10000 1.63 71 19:56 06.11.2022
1152 Clear -23 1047 79 10000 0 0 18:50 06.11.2022
1153 Clear -23 1047 79 10000 0 0 18:20 06.11.2022
1154 Clear -23 1047 82 10000 1.54 50 17:22 06.11.2022
1155 Clouds -20 1045 80 10000 1.45 49 16:58 06.11.2022
1156 Clear -22 1047 83 10000 1.54 360 16:18 06.11.2022
1157 Snow -22 1049 83 10000 0 0 14:45 06.11.2022
1158 Snow -21 1046 83 10000 0 0 12:44 06.11.2022
1159 Snow -20 1047 82 10000 2.06 80 10:55 06.11.2022
1160 Snow -20 1045 85 10000 1.54 30 09:51 06.11.2022
1161 Snow -19 1046 86 10000 2.06 80 07:39 06.11.2022
1162 Clear -13 1039 79 10000 0 0 23:23 05.11.2022
1163 Clouds -15 1034 83 10000 2.06 140 20:40 05.11.2022
1164 Snow -15 1031 86 10000 0 0 18:22 05.11.2022
1165 Snow -15 1031 86 10000 0 0 18:22 05.11.2022
1166 Snow -15 1031 86 10000 0 0 18:22 05.11.2022
1167 Clear -14 1028 83 10000 1.54 350 16:27 05.11.2022
1168 Snow -13 1026 82 10000 3.6 360 14:42 05.11.2022
1169 Snow -13 1024 83 10000 3.09 360 13:32 05.11.2022
1170 Clouds -13 1025 88 10000 1.04 348 10:59 05.11.2022
1171 Clouds -13 1019 92 10000 1.54 60 08:55 05.11.2022
1172 Clouds -12 1019 85 10000 0 0 07:23 05.11.2022
1173 Clouds -12 1019 87 10000 1.03 300 06:54 05.11.2022
1174 Mist -11 1014 86 9656 0 0 23:45 04.11.2022
1175 Snow -11 1014 86 9656 0 0 23:18 04.11.2022
1176 Snow -12 1013 86 8047 2.06 80 20:37 04.11.2022
1177 Snow -12 1013 85 10000 0 0 19:28 04.11.2022
1178 Snow -12 1013 85 10000 0 0 17:24 04.11.2022
1179 Snow -12 1012 86 10000 2.06 50 13:54 04.11.2022
1180 Snow -12 1011 87 8047 0 0 12:28 04.11.2022
1181 Snow -12 1011 86 9656 0 0 11:43 04.11.2022
1182 Clouds -13 1010 84 10000 0 0 08:53 04.11.2022
1183 Snow -12 1009 82 10000 3.6 220 07:46 04.11.2022
1184 Snow -11 1008 84 10000 4.12 230 05:24 04.11.2022
1185 Mist -11 1005 83 4828 4.12 250 00:25 04.11.2022
1186 Snow -12 1002 85 2414 3.6 250 20:53 03.11.2022
1187 Snow -12 1002 85 2414 3.6 250 20:29 03.11.2022
1188 Snow -12 1002 83 2414 4.12 250 19:40 03.11.2022
1189 Snow -12 1000 83 4828 3.09 260 17:51 03.11.2022
1190 Snow -12 999 83 4023 3.6 250 16:53 03.11.2022
1191 Mist -12 996 85 4023 2.57 230 14:53 03.11.2022
1192 Snow -12 996 85 4023 2.06 220 13:19 03.11.2022
1193 Mist -12 996 86 4828 2.06 230 12:30 03.11.2022
1194 Snow -11 993 85 9656 3.09 220 09:43 03.11.2022
1195 Clouds -10 992 84 10000 2.57 190 07:43 03.11.2022
1196 Clouds -8 994 82 10000 2.57 50 21:37 02.11.2022
1197 Clouds -9 994 83 10000 2.57 40 20:44 02.11.2022
1198 Clouds -9 994 87 10000 1.79 348 19:59 02.11.2022
1199 Clouds -11 996 79 10000 2.57 50 17:30 02.11.2022
1200 Clouds -12 997 79 10000 3.09 40 16:22 02.11.2022
1201 Clouds -13 999 80 10000 1.54 50 14:58 02.11.2022
1202 Clouds -15 1001 82 10000 3.09 70 12:48 02.11.2022
1203 Clouds -15 1001 84 10000 2.22 36 11:55 02.11.2022
1204 Clear -16 1005 82 10000 4.12 60 09:22 02.11.2022
1205 Clouds -14 1010 83 10000 3.6 70 05:36 02.11.2022
1206 Mist -11 1014 81 9656 4.12 50 00:28 02.11.2022
1207 Snow -13 1017 82 10000 3.09 70 22:19 01.11.2022
1208 Mist -13 1017 82 4828 3.09 70 21:41 01.11.2022
1209 Snow -14 1017 85 9656 2.06 70 20:26 01.11.2022
1210 Snow -15 1017 86 9656 2.06 60 19:54 01.11.2022
1211 Mist -15 1017 84 8047 2.57 70 19:35 01.11.2022
1212 Snow -15 1018 86 10000 1.54 80 17:33 01.11.2022
1213 Snow -15 1018 85 9656 3.09 70 16:22 01.11.2022
1214 Snow -15 1020 86 9656 0.45 59 14:29 01.11.2022
1215 Snow -16 1021 86 9656 0 0 12:29 01.11.2022
1216 Snow -17 1021 87 9656 0 0 11:24 01.11.2022
1217 Clouds -16 1020 88 10000 1.1 37 10:57 01.11.2022
1218 Snow -18 1019 85 10000 2.06 50 08:44 01.11.2022
1219 Snow -18 1019 83 10000 0 0 07:31 01.11.2022
1220 Clouds -18 1019 85 10000 0 0 06:48 01.11.2022
1221 Clouds -17 1022 90 10000 1 26 05:58 01.11.2022
1222 Clouds -15 1018 85 10000 0 0 03:55 01.11.2022
1223 Snow -15 1015 87 10000 0 0 21:59 31.10.2022
1224 Mist -16 1014 85 6437 0 0 20:53 31.10.2022
1225 Snow -17 1015 85 9656 0 0 19:55 31.10.2022
1226 Snow -18 1014 86 10000 0 0 18:28 31.10.2022
1227 Clouds -19 1013 84 10000 0 0 16:43 31.10.2022
1228 Clouds -18 1010 85 10000 0 0 13:49 31.10.2022
1229 Clear -18 1009 85 10000 0 0 11:54 31.10.2022
1230 Clear -18 1008 86 10000 1.54 20 09:18 31.10.2022
1231 Snow -17 1006 86 10000 2.06 50 05:39 31.10.2022
1232 Snow -15 1003 82 10000 0 0 02:30 31.10.2022
1233 Snow -15 1001 79 10000 0 0 23:19 30.10.2022
1234 Snow -16 1000 78 9656 0 0 21:45 30.10.2022
1235 Clouds -17 1000 83 10000 2.06 50 20:37 30.10.2022
1236 Clouds -18 1000 81 10000 1.54 50 18:56 30.10.2022
1237 Clouds -18 999 83 10000 1.54 40 16:18 30.10.2022
1238 Clouds -17 998 85 10000 1.54 90 14:22 30.10.2022
1239 Clouds -17 998 85 10000 2.06 90 13:23 30.10.2022
1240 Clouds -18 997 86 10000 2.06 70 11:48 30.10.2022
1241 Clear -18 995 84 10000 2.06 100 09:40 30.10.2022
1242 Clear -17 994 85 10000 0 0 08:39 30.10.2022
1243 Clear -17 995 83 10000 0 0 07:24 30.10.2022
1244 Clear -12 991 75 10000 0 0 00:29 30.10.2022
1245 Clear -12 991 75 10000 0 0 23:45 29.10.2022
1246 Clear -15 992 78 10000 0 0 21:32 29.10.2022
1247 Clear -16 992 81 10000 3.6 40 18:34 29.10.2022
1248 Clear -16 992 81 10000 3.6 60 17:21 29.10.2022
1249 Clear -17 991 79 10000 3.09 50 15:38 29.10.2022
1250 Clouds -16 991 82 10000 2.57 30 14:51 29.10.2022
1251 Clear -17 991 83 10000 2.06 70 12:36 29.10.2022
1252 Clear -16 991 83 10000 2.06 80 11:55 29.10.2022
1253 Clear -16 993 83 10000 3.09 70 07:38 29.10.2022
1254 Clear -15 993 83 10000 3.6 80 06:46 29.10.2022
1255 Clear -14 994 84 10000 3.09 80 05:53 29.10.2022
1256 Clouds -13 997 79 10000 2.06 80 23:43 28.10.2022
1257 Clouds -16 997 83 10000 1.54 50 21:29 28.10.2022
1258 Clouds -16 997 81 10000 2.06 60 19:43 28.10.2022
1259 Clouds -16 997 81 10000 2.57 80 18:32 28.10.2022
1260 Clouds -16 997 83 10000 2.06 80 17:26 28.10.2022
1261 Clouds -15 996 84 10000 1.54 60 14:46 28.10.2022
1262 Clouds -15 996 82 10000 1.54 130 13:23 28.10.2022
1263 Clouds -16 995 84 10000 2.06 70 11:54 28.10.2022
1264 Clouds -15 995 82 10000 2.57 50 11:31 28.10.2022
1265 Clouds -15 995 81 10000 1.54 60 10:44 28.10.2022
1266 Clouds -15 994 82 10000 1.54 70 08:40 28.10.2022
1267 Clouds -13 992 82 10000 1.03 322 05:59 28.10.2022
1268 Snow -11 990 82 10000 0 0 00:47 28.10.2022
1269 Snow -12 991 84 10000 1.54 50 23:45 27.10.2022
1270 Clouds -13 989 84 10000 0 0 22:31 27.10.2022
1271 Clouds -14 989 81 10000 2.06 30 20:48 27.10.2022
1272 Snow -14 989 84 10000 2.06 50 18:28 27.10.2022
1273 Clouds -13 988 87 10000 0 0 16:36 27.10.2022
1274 Clouds -11 987 86 10000 2.57 240 11:35 27.10.2022
1275 Clouds -10 985 80 10000 3.6 320 07:34 27.10.2022
1276 Clouds -8 982 74 10000 2.06 190 02:50 27.10.2022
1277 Clouds -9 981 78 10000 1.54 60 23:53 26.10.2022
1278 Clear -9 980 71 10000 4.63 10 22:41 26.10.2022
1279 Clear -10 980 76 10000 4.12 360 21:31 26.10.2022
1280 Clouds -10 981 81 10000 3.09 40 17:59 26.10.2022
1281 Clouds -8 982 79 10000 3.09 30 14:54 26.10.2022
1282 Clouds -9 983 83 10000 3.6 60 13:33 26.10.2022
1283 Clouds -8 983 80 10000 4.12 60 12:19 26.10.2022
1284 Clouds -9 986 81 10000 3.6 60 09:19 26.10.2022
1285 Clouds -7 987 74 10000 3.09 30 08:53 26.10.2022
1286 Clouds -4 997 79 10000 3.55 70 00:57 26.10.2022
1287 Clear -5 1000 77 10000 5.66 80 00:36 26.10.2022
1288 Clear -7 1003 86 10000 5.66 60 22:30 25.10.2022
1289 Clear -9 1005 88 10000 4.12 60 21:45 25.10.2022
1290 Clouds -9 1006 89 10000 4.12 50 20:45 25.10.2022
1291 Mist -8 1010 91 10000 3.6 50 18:56 25.10.2022
1292 Mist -7 1012 93 10000 2.06 90 17:38 25.10.2022
1293 Snow -7 1015 92 9656 2.06 70 12:55 25.10.2022
1294 Snow -7 1015 92 9656 2.06 60 11:38 25.10.2022
1295 Snow -6 1015 89 9656 1.54 70 10:36 25.10.2022
1296 Snow -6 1015 92 9656 1.54 160 08:43 25.10.2022
1297 Snow -7 1015 95 6437 1.54 0 08:18 25.10.2022
1298 Snow -7 1015 92 9656 1.54 130 07:53 25.10.2022
1299 Snow -5 1015 89 8047 1.54 150 06:53 25.10.2022
1300 Clouds -3 1015 87 10000 1.54 200 03:35 25.10.2022
1301 Clouds -3 1013 87 10000 0 0 00:33 25.10.2022
1302 Fog -5 1013 87 10000 0 0 22:29 24.10.2022
1303 Clouds -5 1012 86 10000 0 0 21:50 24.10.2022
1304 Clouds -5 1012 85 10000 0 0 21:31 24.10.2022
1305 Mist -10 1013 89 3219 1.54 60 20:40 24.10.2022
1306 Fog -7 1012 87 805 2.06 60 18:46 24.10.2022
1307 Clouds -6 1012 92 10000 1.5 42 16:59 24.10.2022
1308 Mist -6 1012 93 1408 0 0 15:51 24.10.2022
1309 Snow -3 1013 91 10000 2.57 50 14:21 24.10.2022
1310 Snow -2 1013 91 10000 2.06 60 12:53 24.10.2022
1311 Snow -2 1015 95 10000 1.54 330 09:42 24.10.2022
1312 Snow -2 1016 95 10000 1.54 210 07:56 24.10.2022
1313 Snow -1 1016 95 9656 0 0 23:45 23.10.2022
1314 Fog -2 1016 95 201 0 0 20:41 23.10.2022
1315 Clouds -2 1016 95 805 1.54 70 19:29 23.10.2022
1316 Clouds -2 1016 95 604 1.54 240 17:30 23.10.2022
1317 Fog -2 1015 95 604 0 0 16:37 23.10.2022
1318 Snow -2 1014 95 10000 0 0 15:19 23.10.2022
1319 Mist -1 1014 95 4828 0 0 12:21 23.10.2022
1320 Mist -2 1013 96 1609 0 0 10:58 23.10.2022
1321 Mist -1 1013 93 1408 0 0 06:36 23.10.2022
1322 Clouds 0 1014 97 10000 2.57 60 23:32 22.10.2022
1323 Snow 0 1013 95 3219 2.06 80 22:30 22.10.2022
1324 Snow -1 1013 95 10000 2.06 70 21:40 22.10.2022
1325 Snow -1 1014 95 1207 1.54 70 20:28 22.10.2022
1326 Snow -1 1014 94 10000 1.54 80 19:31 22.10.2022
1327 Snow -1 1014 95 1006 2.06 50 17:42 22.10.2022
1328 Mist -1 1014 95 2012 0 0 16:50 22.10.2022
1329 Clouds -1 1014 94 4828 2.06 90 15:18 22.10.2022
1330 Fog -1 1014 96 805 2.57 40 14:31 22.10.2022
1331 Fog 0 1013 94 604 0 0 11:40 22.10.2022
1332 Mist 0 1012 94 1811 1.54 250 09:46 22.10.2022
1333 Snow 0 1012 94 2816 2.06 210 08:37 22.10.2022
1334 Snow 0 1011 95 8047 2.57 240 06:19 22.10.2022
1335 Snow 1 1009 94 2012 4.12 280 01:25 22.10.2022
1336 Snow 0 1008 97 1811 3.6 260 22:53 21.10.2022
1337 Snow 0 1007 95 1811 2.57 250 21:34 21.10.2022
1338 Snow 0 1006 94 1811 2.57 260 20:39 21.10.2022
1339 Rain 0 1005 94 1408 3.6 280 18:28 21.10.2022
1340 Snow 0 1004 94 9656 2.06 260 14:47 21.10.2022
1341 Snow 0 1004 94 2816 0 0 13:40 21.10.2022
1342 Snow 0 1004 95 9656 0 0 11:54 21.10.2022
1343 Snow 0 1004 94 8047 0 0 10:24 21.10.2022
1344 Snow 1 1004 94 8047 0 0 08:51 21.10.2022
1345 Snow 1 1004 94 8047 0 0 08:21 21.10.2022
1346 Clouds 2 1003 89 10000 2.57 250 04:50 21.10.2022
1347 Clouds 2 1002 88 10000 0 0 23:25 20.10.2022
1348 Clouds -1 1002 91 10000 0 0 21:21 20.10.2022
1349 Clouds -1 1001 90 10000 2.06 100 19:44 20.10.2022
1350 Snow -1 1001 91 10000 2.06 50 18:50 20.10.2022
1351 Snow -1 1001 92 10000 1.54 100 17:44 20.10.2022
1352 Clouds -2 1002 91 10000 0 0 15:24 20.10.2022
1353 Clouds -1 1002 92 10000 0 0 12:33 20.10.2022
1354 Clouds -1 1002 92 10000 0 0 11:36 20.10.2022
1355 Clouds -2 1002 95 10000 0 0 10:53 20.10.2022
1356 Mist -1 1001 90 10000 1.54 60 09:34 20.10.2022
1357 Fog -1 1001 91 805 0 0 07:23 20.10.2022
1358 Fog -1 1001 96 402 0 0 02:23 20.10.2022
1359 Fog 0 1000 90 604 0 0 23:41 19.10.2022
1360 Fog -1 1000 93 604 1.54 150 22:30 19.10.2022
1361 Fog -1 1000 91 402 0 0 21:31 19.10.2022
1362 Fog 0 1000 89 201 0.45 139 20:19 19.10.2022
1363 Clouds -1 1000 93 10000 0 0 17:52 19.10.2022
1364 Clouds -1 1000 95 10000 2.57 190 16:28 19.10.2022
1365 Rain 0 1000 91 10000 0 0 14:34 19.10.2022
1366 Snow 0 1000 90 9656 0 0 12:21 19.10.2022
1367 Clouds 1 1001 86 10000 0 0 08:52 19.10.2022
1368 Clouds 0 1002 88 10000 1.54 140 07:24 19.10.2022
1369 Clear 4 1004 77 10000 0 0 02:30 19.10.2022
1370 Clear 3 1006 84 10000 0 0 23:45 18.10.2022
1371 Clear -1 1007 89 10000 0 0 21:49 18.10.2022
1372 Clear -1 1007 93 10000 0 0 21:31 18.10.2022
1373 Clear -3 1007 93 10000 1.54 30 20:31 18.10.2022
1374 Clouds -1 1006 90 10000 1.37 33 18:59 18.10.2022
1375 Clouds -1 1007 91 10000 1.07 42 16:57 18.10.2022
1376 Clear -1 1007 92 10000 2.06 180 15:23 18.10.2022
1377 Clouds 0 1006 89 10000 0 0 13:43 18.10.2022
1378 Clouds 0 1005 88 10000 3.09 70 11:47 18.10.2022
1379 Clouds 0 1004 88 10000 3.09 70 10:36 18.10.2022
1380 Clouds 1 1003 85 10000 2.06 30 09:26 18.10.2022
1381 Clouds 1 1001 87 10000 1.61 36 06:56 18.10.2022
1382 Fog 1 999 84 10000 0 0 23:40 17.10.2022
1383 Fog -1 998 88 10000 0 0 21:35 17.10.2022
1384 Fog -2 997 90 10000 1.54 130 20:49 17.10.2022
1385 Fog -3 997 90 10000 0 0 20:29 17.10.2022
1386 Fog -3 996 89 10000 1.54 190 19:42 17.10.2022
1387 Clouds -3 995 95 10000 0 0 17:53 17.10.2022
1388 Clear -2 994 94 10000 2.06 190 16:22 17.10.2022
1389 Clouds -2 994 95 10000 0 0 15:27 17.10.2022
1390 Clear -2 992 94 10000 0 0 13:35 17.10.2022
1391 Clouds 1 992 89 10000 4.12 60 09:28 17.10.2022
1392 Clear 5 994 63 10000 0 0 02:37 17.10.2022
1393 Clouds 1 996 87 10000 2.08 24 22:59 16.10.2022
1394 Clouds 1 995 86 10000 2.06 50 21:46 16.10.2022
1395 Mist 0 994 87 9656 3.09 360 19:56 16.10.2022
1396 Mist -1 995 87 9656 3.09 360 19:38 16.10.2022
1397 Snow -1 995 83 10000 3.6 10 17:47 16.10.2022
1398 Snow 0 996 80 10000 3.09 360 16:32 16.10.2022
1399 Clouds -1 996 83 2753 1.89 358 15:55 16.10.2022
1400 Clouds -1 998 80 10000 2.06 40 12:49 16.10.2022
1401 Clouds -1 999 81 10000 3.6 60 11:41 16.10.2022
1402 Clouds -2 999 81 10000 2.57 10 10:26 16.10.2022
1403 Clear -1 999 79 10000 2.57 60 07:38 16.10.2022
1404 Clear 0 1003 63 10000 3.6 90 23:43 15.10.2022
1405 Clouds -2 1005 69 10000 3.42 57 21:58 15.10.2022
1406 Clouds -2 1006 67 10000 2.57 70 21:20 15.10.2022
1407 Clouds -4 1007 72 10000 2.88 57 19:55 15.10.2022
1408 Clouds -5 1012 76 10000 2.57 40 17:26 15.10.2022
1409 Clouds -7 1014 78 10000 2.57 50 15:45 15.10.2022
1410 Clouds -7 1017 78 10000 3.09 40 13:42 15.10.2022
1411 Clear -8 1019 79 10000 4.12 40 11:51 15.10.2022
1412 Clear -8 1019 84 10000 3.09 70 10:26 15.10.2022
1413 Clear -6 1021 83 10000 2.57 70 08:20 15.10.2022
1414 Snow -2 1023 70 10000 2.06 90 00:41 15.10.2022
1415 Clear -3 1022 77 10000 1.54 80 23:25 14.10.2022
1416 Clear -5 1022 82 10000 3.09 60 22:22 14.10.2022
1417 Clear -5 1022 82 10000 3.09 60 22:22 14.10.2022
1418 Clear -6 1023 83 10000 2.57 30 21:24 14.10.2022
1419 Clouds -8 1021 83 10000 2.06 70 19:25 14.10.2022
1420 Clear -9 1020 84 10000 1.54 60 16:23 14.10.2022
1421 Clear -8 1020 88 10000 2.06 50 13:26 14.10.2022
1422 Clear -7 1019 90 10000 0.45 83 11:39 14.10.2022
1423 Clouds -5 1018 90 10000 2.06 70 08:59 14.10.2022
1424 Clouds -5 1015 89 10000 2.06 60 06:54 14.10.2022
1425 Clouds -4 1016 87 10000 2.06 60 06:18 14.10.2022
1426 Clouds -4 1016 86 10000 2.57 40 05:42 14.10.2022
1427 Clouds -3 1016 83 10000 2.06 80 03:43 14.10.2022
1428 Clouds -5 1011 82 10000 1.54 210 23:49 13.10.2022
1429 Snow -6 1011 87 10000 0 0 22:21 13.10.2022
1430 Snow -6 1010 88 8047 1.54 60 21:21 13.10.2022
1431 Clouds -7 1009 87 10000 0 0 19:43 13.10.2022
1432 Clouds -7 1009 87 10000 0 0 19:18 13.10.2022
1433 Clouds -6 1009 87 10000 1.54 210 18:41 13.10.2022
1434 Clouds -6 1008 87 10000 0 0 16:31 13.10.2022
1435 Clouds -6 1007 85 10000 2.06 200 15:43 13.10.2022
1436 Clouds -6 1007 83 10000 1.54 50 14:18 13.10.2022
1437 Clouds -5 1006 79 10000 3.6 360 12:45 13.10.2022
1438 Clouds -5 1006 80 10000 3.09 350 11:34 13.10.2022
1439 Clouds -4 1007 81 10000 2.57 360 09:21 13.10.2022
1440 Clouds -4 1008 83 10000 3.6 360 07:39 13.10.2022
1441 Clouds -4 1009 82 10000 3.6 10 06:29 13.10.2022
1442 Clouds -2 1015 80 10000 3.6 70 01:47 13.10.2022
1443 Clouds -2 1017 83 10000 3.6 60 00:45 13.10.2022
1444 Mist -3 1018 90 10000 3.6 80 22:46 12.10.2022
1445 Snow -3 1020 91 10000 3.09 80 21:51 12.10.2022
1446 Snow -3 1020 92 10000 3.09 80 21:20 12.10.2022
1447 Snow -4 1021 95 10000 2.57 70 20:46 12.10.2022
1448 Snow -4 1021 92 10000 2.57 60 19:26 12.10.2022
1449 Snow -4 1021 92 4828 2.57 100 18:19 12.10.2022
1450 Snow -4 1021 94 4828 1.54 60 17:45 12.10.2022
1451 Mist -4 1022 92 2414 1.54 50 14:52 12.10.2022
1452 Mist -4 1023 94 2615 0 0 13:54 12.10.2022
1453 Clouds -5 1022 92 10000 1.54 360 12:31 12.10.2022
1454 Snow -4 1021 89 9656 2.06 70 09:37 12.10.2022
1455 Clouds -4 1021 86 10000 1.54 220 07:42 12.10.2022
1456 Clouds -3 1021 82 10000 2.06 250 06:44 12.10.2022
1457 Clouds -2 1020 81 10000 2.06 220 05:33 12.10.2022
1458 Snow -1 1020 84 10000 4.12 230 00:55 12.10.2022
1459 Clouds -2 1018 88 10000 2.57 220 21:43 11.10.2022
1460 Snow -2 1018 90 10000 2.06 210 20:36 11.10.2022
1461 Snow -2 1017 90 10000 2.57 220 18:28 11.10.2022
1462 Clouds -3 1017 90 10000 2.06 200 16:33 11.10.2022
1463 Clouds -2 1015 91 10000 1.88 229 14:00 11.10.2022
1464 Snow -2 1012 88 10000 2.06 190 11:52 11.10.2022
1465 Snow -1 1011 90 4828 3.6 300 10:28 11.10.2022
1466 Clouds -1 1010 87 10000 2.57 320 09:26 11.10.2022
1467 Clouds -1 1009 84 10000 2.06 60 05:36 11.10.2022
1468 Clouds 1 1009 77 10000 2.57 80 02:19 11.10.2022
1469 Clouds 1 1008 78 10000 1.54 80 00:27 11.10.2022
1470 Clear -1 1009 90 10000 2.06 220 21:23 10.10.2022
1471 Clouds -2 1011 91 10000 3.09 220 19:46 10.10.2022
1472 Clouds -2 1011 91 10000 3.09 220 19:46 10.10.2022
1473 Clouds -2 1011 91 10000 3.09 220 19:46 10.10.2022
1474 Clouds -1 1010 91 10000 3.6 230 18:25 10.10.2022
1475 Snow -1 1009 88 10000 4.63 220 16:48 10.10.2022
1476 Snow -1 1009 88 8047 4.63 230 14:48 10.10.2022
1477 Clouds -1 1008 87 10000 5.14 230 12:38 10.10.2022
1478 Clouds -1 1007 87 10000 5.66 240 11:26 10.10.2022
1479 Clouds -1 1005 88 10000 5.66 260 08:33 10.10.2022
1480 Clouds 0 1002 89 10000 10.29 260 05:41 10.10.2022
1481 Snow 1 998 94 9656 6.17 250 02:53 10.10.2022
1482 Snow 0 996 93 6437 7.2 250 00:29 10.10.2022
1483 Snow 1 995 92 4023 5.14 230 22:27 09.10.2022
1484 Snow 1 994 94 6437 4.12 240 21:58 09.10.2022
1485 Rain 1 994 93 10000 6.17 240 21:19 09.10.2022
1486 Rain 3 992 93 10000 7.72 230 19:59 09.10.2022
1487 Rain 3 992 93 10000 5.14 220 19:34 09.10.2022
1488 Mist 4 991 93 10000 4.63 230 18:39 09.10.2022
1489 Rain 5 990 92 10000 3.6 240 16:56 09.10.2022
1490 Snow 5 990 91 10000 4.12 210 16:33 09.10.2022
1491 Rain 5 990 91 10000 6.17 210 15:37 09.10.2022
1492 Clouds 5 991 93 10000 2.57 200 14:31 09.10.2022
1493 Clouds 7 991 91 10000 0.37 29 12:59 09.10.2022
1494 Clouds 6 992 91 10000 1.54 180 12:22 09.10.2022
1495 Clouds 7 993 86 10000 0 0 10:48 09.10.2022
1496 Clouds 6 993 91 10000 0 0 08:29 09.10.2022
1497 Clouds 10 998 78 10000 3.6 350 03:37 09.10.2022
1498 Clouds 9 999 83 10000 1.54 340 02:49 09.10.2022
1499 Clouds 8 1001 88 10000 3.09 60 00:34 09.10.2022
1500 Clouds 7 1003 93 10000 4.12 60 22:53 08.10.2022
1501 Rain 6 1005 93 9656 3.6 60 21:48 08.10.2022
1502 Rain 5 1006 93 10000 3.6 80 20:27 08.10.2022
1503 Rain 3 1008 94 8047 3.6 70 18:53 08.10.2022
1504 Rain 4 1011 82 10000 2.57 80 16:38 08.10.2022
1505 Clouds 4 1012 81 10000 3.09 60 14:54 08.10.2022
1506 Clouds 4 1013 81 10000 3.6 70 13:25 08.10.2022
1507 Clouds 3 1015 87 10000 3.09 80 10:40 08.10.2022
1508 Clouds 3 1015 88 10000 3.09 80 10:21 08.10.2022
1509 Clouds 3 1017 91 10000 2.57 70 08:48 08.10.2022
1510 Clouds 3 1017 91 10000 2.57 70 08:48 08.10.2022
1511 Clouds 5 1018 84 10000 0.61 215 03:59 08.10.2022
1512 Clouds 6 1018 84 10000 5.14 230 00:43 08.10.2022
1513 Rain 6 1017 86 10000 6.17 240 23:27 07.10.2022
1514 Rain 6 1016 88 10000 5.66 250 22:50 07.10.2022
1515 Rain 6 1015 87 10000 8.23 260 21:38 07.10.2022
1516 Clouds 7 1012 77 10000 1.54 300 19:42 07.10.2022
1517 Clear 6 1011 73 10000 2.57 70 17:48 07.10.2022
1518 Clouds 6 1012 73 10000 2.06 90 16:41 07.10.2022
1519 Clouds 6 1012 73 10000 2.06 90 15:21 07.10.2022
1520 Clouds 6 1013 73 10000 1.54 80 13:26 07.10.2022
1521 Clouds 6 1014 76 10000 3.6 80 11:19 07.10.2022
1522 Clear 7 1015 75 10000 3.09 70 09:25 07.10.2022
1523 Clear 8 1015 72 10000 1.54 90 08:19 07.10.2022
1524 Clouds 13 1015 62 10000 1.54 280 02:26 07.10.2022
1525 Clouds 9 1015 77 10000 0 0 22:52 06.10.2022
1526 Clouds 8 1015 78 10000 0 0 21:50 06.10.2022
1527 Clouds 7 1015 85 10000 0 0 21:30 06.10.2022
1528 Rain 7 1015 80 10000 2.06 70 20:38 06.10.2022
1529 Rain 4 1015 90 10000 0 0 18:56 06.10.2022
1530 Rain 4 1015 88 10000 1.54 280 18:20 06.10.2022
1531 Clouds 3 1014 87 10000 1.54 100 15:36 06.10.2022
1532 Clouds 2 1013 86 10000 0 0 12:49 06.10.2022
1533 Clear 1 1013 88 10000 1.54 20 08:23 06.10.2022
1534 Clear 6 1014 71 10000 0 0 04:37 06.10.2022
1535 Clouds 5 1015 74 10000 2.57 50 00:50 06.10.2022
1536 Clouds 1 1016 87 10000 0 0 21:53 05.10.2022
1537 Clouds 0 1014 88 10000 1.54 70 19:41 05.10.2022
1538 Clouds 0 1013 89 10000 1.54 160 17:37 05.10.2022
1539 Clouds 2 1012 86 10000 2.57 220 16:24 05.10.2022
1540 Clouds 3 1011 83 10000 1.02 351 14:55 05.10.2022
1541 Clear 2 1012 84 10000 0 0 14:20 05.10.2022
1542 Clouds 3 1012 78 10000 0 0 12:43 05.10.2022
1543 Clouds 4 1012 78 10000 1.54 20 10:48 05.10.2022
1544 Clouds 5 1012 78 10000 3.09 40 08:19 05.10.2022
1545 Clouds 8 1013 65 10000 0 0 06:24 05.10.2022
1546 Clouds 9 1012 59 10000 2.06 70 05:31 05.10.2022
1547 Clouds 13 1014 48 10000 4.63 80 02:29 05.10.2022
1548 Clear 11 1016 56 10000 4.12 60 00:28 05.10.2022
1549 Clear 9 1016 63 10000 3.6 70 22:54 04.10.2022
1550 Clear 4 1015 76 10000 4.12 60 20:44 04.10.2022
1551 Clear 1 1015 85 10000 3.6 50 19:47 04.10.2022
1552 Clear 0 1016 90 10000 2.06 40 18:40 04.10.2022
1553 Clear 1 1016 90 10000 2.57 60 17:53 04.10.2022
1554 Clear 0 1016 90 10000 3.6 70 16:51 04.10.2022
1555 Clear 2 1016 89 10000 2.13 38 13:59 04.10.2022
1556 Clouds 4 1015 86 10000 2.25 43 09:57 04.10.2022
1557 Clear 4 1014 83 10000 2.06 360 07:48 04.10.2022
1558 Clouds 8 1013 72 10000 3.09 360 04:42 04.10.2022
1559 Clouds 7 1013 80 10000 3.09 10 23:48 03.10.2022
1560 Clouds 5 1012 86 10000 3.09 10 22:19 03.10.2022
1561 Clouds 4 1012 89 10000 3.6 10 21:27 03.10.2022
1562 Rain 4 1011 90 10000 3.6 10 20:33 03.10.2022
1563 Rain 3 1011 92 10000 3.6 10 18:47 03.10.2022
1564 Rain 3 1011 90 9656 3.6 360 17:32 03.10.2022
1565 Rain 3 1010 88 9656 4.12 10 15:55 03.10.2022
1566 Clouds 3 1009 88 10000 3.09 40 14:26 03.10.2022
1567 Clouds 3 1009 91 10000 4.12 10 12:36 03.10.2022
1568 Clouds 3 1009 93 10000 1.54 90 10:53 03.10.2022
1569 Clouds 3 1009 92 10000 3.09 360 09:46 03.10.2022
1570 Clouds 3 1010 92 10000 1.54 30 08:43 03.10.2022
1571 Rain 6 1010 85 10000 2.06 40 04:41 03.10.2022
1572 Clouds 5 1009 94 10000 0.45 129 22:56 02.10.2022
1573 Mist 4 1009 94 10000 1.54 70 21:38 02.10.2022
1574 Mist 2 1008 94 10000 1.54 100 19:47 02.10.2022
1575 Clouds 2 1007 94 10000 1.54 60 17:55 02.10.2022
1576 Clouds 2 1007 96 10000 0 0 16:51 02.10.2022
1577 Mist 2 1007 96 1408 0 0 16:30 02.10.2022
1578 Clouds 4 1006 93 10000 0 0 14:58 02.10.2022
1579 Rain 4 1006 95 10000 1.54 340 13:46 02.10.2022
1580 Clouds 4 1006 93 10000 3.09 50 12:39 02.10.2022
1581 Rain 5 1006 92 10000 2.06 90 11:48 02.10.2022
1582 Rain 5 1006 92 10000 2.06 90 11:30 02.10.2022
1583 Rain 5 1006 90 10000 2.57 10 10:19 02.10.2022
1584 Clouds 6 1005 88 10000 0 0 08:27 02.10.2022
1585 Clouds 8 1005 76 10000 0 0 05:19 02.10.2022
1586 Clouds 9 1002 75 10000 0.89 274 00:57 02.10.2022
1587 Clouds 9 1003 73 10000 3.6 230 00:37 02.10.2022
1588 Haze 8 1002 82 9656 4.12 220 23:28 01.10.2022
1589 Clouds 5 1001 87 10000 0 0 21:39 01.10.2022
1590 Clouds 4 1000 87 10000 0 0 18:54 01.10.2022
1591 Clouds 4 1000 89 10000 2.06 140 17:28 01.10.2022
1592 Clouds 3 1001 90 10000 0 0 14:50 01.10.2022
1593 Mist 3 1002 90 8047 1.54 330 13:44 01.10.2022
1594 Clouds 3 1003 88 10000 1.54 320 12:34 01.10.2022
1595 Clear 4 1003 83 10000 0 0 11:22 01.10.2022
1596 Mist 4 1003 82 8047 2.06 30 10:51 01.10.2022
1597 Clouds 5 1004 83 10000 2.06 30 10:29 01.10.2022
1598 Clouds 6 1005 83 10000 1.54 20 09:21 01.10.2022
1599 Clouds 6 1005 82 10000 0 0 08:26 01.10.2022
1600 Clouds 12 1008 61 10000 1.54 360 03:42 01.10.2022
1601 Clouds 12 1008 62 10000 2.06 160 02:37 01.10.2022
1602 Clouds 9 1010 72 10000 1.54 130 23:21 30.09.2022
1603 Rain 8 1009 77 10000 1.54 100 22:18 30.09.2022
1604 Clouds 6 1010 87 10000 2.06 90 20:53 30.09.2022
1605 Clouds 6 1009 86 10000 2.06 90 20:20 30.09.2022
1606 Clouds 5 1009 88 10000 1.54 60 18:32 30.09.2022
1607 Clouds 5 1008 87 10000 0 0 16:54 30.09.2022
1608 Clouds 6 1007 85 10000 2.57 50 14:24 30.09.2022
1609 Rain 5 1006 86 10000 2.06 330 12:50 30.09.2022
1610 Clouds 6 1005 78 10000 0 0 11:56 30.09.2022
1611 Clouds 7 1004 79 10000 1.54 340 09:25 30.09.2022
1612 Clouds 9 1004 72 10000 0.74 275 07:58 30.09.2022
1613 Clouds 15 1001 43 10000 0 0 03:35 30.09.2022
1614 Clouds 14 1000 49 10000 0 0 01:44 30.09.2022
1615 Clouds 10 999 59 10000 2.06 90 21:40 29.09.2022
1616 Clouds 9 999 60 10000 2.06 90 21:19 29.09.2022
1617 Clouds 7 999 62 10000 2.54 64 19:58 29.09.2022
1618 Clouds 3 997 74 10000 1.54 40 18:30 29.09.2022
1619 Clouds 6 998 64 10000 2.57 70 16:29 29.09.2022
1620 Clouds 6 998 64 10000 3.09 50 15:37 29.09.2022
1621 Clouds 6 1000 65 10000 2.57 45 14:59 29.09.2022
1622 Clouds 4 1000 69 10000 3.6 80 12:39 29.09.2022
1623 Clear 6 1001 63 10000 4.12 70 08:47 29.09.2022
1624 Clouds 10 1002 52 10000 3.6 90 04:46 29.09.2022
1625 Clear 11 1003 52 10000 5.66 70 02:36 29.09.2022
1626 Clouds 9 1004 51 10000 5.66 90 23:26 28.09.2022
1627 Clouds 9 1005 55 10000 4.63 80 22:22 28.09.2022
1628 Clear 7 1005 62 10000 5.66 70 21:25 28.09.2022
1629 Clouds 4 1006 73 10000 4.63 40 19:57 28.09.2022
1630 Clear 0 1007 87 10000 4.12 60 16:52 28.09.2022
1631 Clear 0 1008 91 10000 4.63 70 14:35 28.09.2022
1632 Clear 1 1009 91 10000 3.6 60 11:49 28.09.2022
1633 Clear 1 1009 90 10000 3.6 70 09:49 28.09.2022
1634 Clear 3 1009 90 10000 1.54 10 07:52 28.09.2022
1635 Clouds 3 1009 91 10000 2.57 10 06:27 28.09.2022
1636 Clouds 4 1008 90 10000 2.06 80 01:47 28.09.2022
1637 Clouds 4 1008 90 10000 2.06 80 01:25 28.09.2022
1638 Mist 4 1007 92 4828 0 0 22:49 27.09.2022
1639 Mist 3 1006 92 8047 0 0 21:20 27.09.2022
1640 Rain 3 1006 96 8047 1.54 180 20:35 27.09.2022
1641 Rain 2 1004 94 8047 0 0 19:45 27.09.2022
1642 Mist 2 1003 95 8047 0 0 17:54 27.09.2022
1643 Mist 2 1003 94 8047 0 0 17:29 27.09.2022
1644 Rain 2 1002 93 10000 2.06 90 15:23 27.09.2022
1645 Rain 2 1001 92 9656 2.06 50 14:24 27.09.2022
1646 Rain 3 1000 92 10000 0 0 12:39 27.09.2022
1647 Rain 3 999 91 10000 1.54 260 10:45 27.09.2022
1648 Clouds 3 999 90 10000 0 0 08:42 27.09.2022
1649 Rain 6 998 77 9656 3.6 80 05:48 27.09.2022
1650 Haze 7 998 70 9656 2.57 270 01:40 27.09.2022
1651 Clouds 7 998 67 10000 2.57 70 00:28 27.09.2022
1652 Clouds 6 998 69 10000 0 0 23:24 26.09.2022
1653 Clouds 5 998 72 10000 2.06 40 21:44 26.09.2022
1654 Clouds 4 999 78 10000 3.09 20 20:26 26.09.2022
1655 Mist 3 999 79 9656 3.6 60 19:21 26.09.2022
1656 Clouds 1 1001 85 10000 4.63 80 17:27 26.09.2022
1657 Clouds 1 1004 85 10000 2.57 60 15:49 26.09.2022
1658 Clear 1 1006 88 10000 0 0 13:25 26.09.2022
1659 Mist 2 1007 81 8047 0 0 11:28 26.09.2022
1660 Mist 2 1007 83 6437 1.54 80 10:36 26.09.2022
1661 Mist 2 1007 83 6437 1.54 80 10:18 26.09.2022
1662 Mist 2 1008 84 9656 1.54 50 09:52 26.09.2022
1663 Mist 3 1008 84 9656 1.54 50 09:22 26.09.2022
1664 Clear 9 1008 60 10000 1.54 170 05:50 26.09.2022
1665 Clouds 11 1009 55 10000 1.54 0 02:41 26.09.2022
1666 Clouds 8 1008 68 10000 2.57 60 23:26 25.09.2022
1667 Clouds 6 1008 74 10000 2.06 50 21:48 25.09.2022
1668 Clouds 5 1008 78 10000 2.06 50 21:25 25.09.2022
1669 Clear 4 1007 81 10000 2.06 70 20:37 25.09.2022
1670 Clear 3 1007 82 10000 0 0 19:30 25.09.2022
1671 Clear 1 1006 87 10000 0 0 18:29 25.09.2022
1672 Clear 1 1006 86 10000 2.57 70 17:41 25.09.2022
1673 Clear 1 1005 89 10000 3.09 60 16:21 25.09.2022
1674 Clear 2 1005 88 10000 0 0 14:55 25.09.2022
1675 Clear 2 1005 87 10000 0 0 14:20 25.09.2022
1676 Clear 3 1005 85 10000 3.6 60 11:53 25.09.2022
1677 Clouds 5 1004 83 10000 3.6 70 09:48 25.09.2022
1678 Rain 5 1004 83 10000 2.06 60 07:47 25.09.2022
1679 Clear 9 1004 68 10000 2.57 90 05:29 25.09.2022
1680 Clouds 9 1003 75 10000 3.09 130 23:37 24.09.2022
1681 Haze 8 1003 79 9656 3.09 70 22:34 24.09.2022
1682 Mist 5 1002 93 8047 2.57 30 20:36 24.09.2022
1683 Drizzle 3 1001 95 10000 0 0 19:20 24.09.2022
1684 Clouds 3 1000 93 10000 1.54 360 16:58 24.09.2022
1685 Mist 3 1000 94 8047 2.06 90 16:23 24.09.2022
1686 Clouds 3 999 95 10000 1.54 50 15:19 24.09.2022
1687 Clouds 3 998 95 10000 0 0 13:23 24.09.2022
1688 Clouds 3 999 94 10000 0 0 12:40 24.09.2022
1689 Clouds 3 996 93 10000 0 0 10:19 24.09.2022
1690 Clear 3 996 93 10000 0 0 09:22 24.09.2022
1691 Clouds 4 995 92 10000 0 0 08:43 24.09.2022
1692 Clear 6 993 85 10000 2.06 130 05:55 24.09.2022
1693 Clouds 6 993 83 10000 2.06 150 04:31 24.09.2022
1694 Clear 6 991 77 10000 2.57 240 23:47 23.09.2022
1695 Clear 5 992 83 10000 1.54 210 22:21 23.09.2022
1696 Clouds 3 992 86 10000 0 0 21:25 23.09.2022
1697 Clouds 3 991 89 10000 1.54 150 20:54 23.09.2022
1698 Clouds 2 991 90 10000 3.09 40 19:44 23.09.2022
1699 Clouds 0 991 92 10000 0 0 17:55 23.09.2022
1700 Clouds 2 992 91 10000 1.54 40 13:41 23.09.2022
1701 Clouds 2 992 91 10000 1.54 30 10:25 23.09.2022
1702 Clouds 3 993 90 10000 1.54 30 08:45 23.09.2022
1703 Clouds 6 993 85 10000 2.57 100 03:37 23.09.2022
1704 Mist 5 994 91 10000 2.06 110 23:30 22.09.2022
1705 Mist 4 994 92 10000 2.57 110 22:28 22.09.2022
1706 Mist 4 994 94 10000 2.06 150 21:39 22.09.2022
1707 Mist 3 995 95 3219 2.57 140 20:31 22.09.2022
1708 Rain 3 994 96 1609 1.54 150 18:59 22.09.2022
1709 Rain 3 995 94 9656 0 0 15:58 22.09.2022
1710 Rain 4 996 94 9656 0 0 10:56 22.09.2022
1711 Rain 4 996 94 6437 0 0 10:19 22.09.2022
1712 Rain 4 997 92 10000 1.54 240 08:22 22.09.2022
1713 Rain 5 999 90 10000 2.06 250 06:18 22.09.2022
1714 Rain 7 1002 76 10000 1.54 230 02:28 22.09.2022
1715 Clouds 4 1004 86 10000 1.54 40 22:29 21.09.2022
1716 Clouds 3 1005 89 10000 2.57 30 21:26 21.09.2022
1717 Mist 3 1007 90 2414 3.09 340 19:30 21.09.2022
1718 Fog 3 1008 89 805 1.54 30 17:45 21.09.2022
1719 Mist 2 1009 94 4828 0 0 16:22 21.09.2022
1720 Mist 0 1011 98 6437 0 0 13:57 21.09.2022
1721 Clear 3 1012 90 10000 0 0 11:44 21.09.2022
1722 Clear 3 1012 90 10000 0 0 11:22 21.09.2022
1723 Clear 4 1013 93 10000 0 0 09:44 21.09.2022
1724 Clouds 4 1013 92 10000 0 0 08:50 21.09.2022
1725 Rain 7 1014 82 10000 2.06 150 05:53 21.09.2022
1726 Clouds 9 1015 77 10000 0 0 02:42 21.09.2022
1727 Clouds 8 1015 78 10000 0 0 02:19 21.09.2022
1728 Clouds 8 1015 81 10000 3.6 280 00:20 21.09.2022
1729 Clouds 6 1015 87 10000 3.09 240 21:55 20.09.2022
1730 Clouds 6 1015 90 10000 3.6 240 20:37 20.09.2022
1731 Clouds 6 1015 93 10000 2.57 220 19:24 20.09.2022
1732 Rain 6 1012 94 10000 4.12 230 15:58 20.09.2022
1733 Rain 6 1011 94 10000 5.14 240 14:34 20.09.2022
1734 Rain 6 1011 93 10000 3.09 190 12:41 20.09.2022
1735 Rain 7 1008 91 10000 5.14 260 08:51 20.09.2022
1736 Rain 8 1007 91 9656 5.14 260 08:25 20.09.2022
1737 Rain 11 1005 78 9656 1.54 360 04:44 20.09.2022
1738 Clouds 14 1004 57 10000 0 0 02:37 20.09.2022
1739 Clouds 11 1007 61 10000 2.57 90 22:50 19.09.2022
1740 Clouds 9 1008 68 10000 2.57 70 21:38 19.09.2022
1741 Rain 8 1009 73 10000 1.54 70 20:45 19.09.2022
1742 Clouds 6 1009 79 10000 2.57 10 19:42 19.09.2022
1743 Clear 5 1010 83 10000 2.06 250 17:39 19.09.2022
1744 Clouds 4 1012 88 10000 1.68 41 13:56 19.09.2022
1745 Clouds 4 1013 87 10000 2.06 50 12:48 19.09.2022
1746 Clear 3 1013 87 10000 0 0 10:31 19.09.2022
1747 Clouds 6 1013 82 10000 0 0 08:51 19.09.2022
1748 Clouds 11 1012 60 10000 1.54 80 05:42 19.09.2022
1749 Clouds 13 1014 52 10000 4.63 240 01:53 19.09.2022
1750 Clouds 12 1014 54 10000 4.63 240 23:22 18.09.2022
1751 Clouds 10 1015 68 10000 4.63 250 21:33 18.09.2022
1752 Clouds 8 1015 79 10000 3.6 230 20:23 18.09.2022
1753 Clouds 6 1014 87 10000 2.06 70 17:54 18.09.2022
1754 Clouds 6 1014 87 10000 2.06 70 17:19 18.09.2022
1755 Clouds 6 1013 90 10000 1.54 70 15:36 18.09.2022
1756 Clouds 7 1013 85 10000 2.57 60 13:47 18.09.2022
1757 Rain 8 1013 84 10000 1.54 360 12:34 18.09.2022
1758 Clouds 8 1012 85 10000 1.54 20 10:45 18.09.2022
1759 Clouds 13 1009 47 10000 3.6 230 03:42 18.09.2022
1760 Clouds 13 1009 47 10000 6.69 240 01:24 18.09.2022
1761 Clouds 12 1009 66 10000 1.54 190 00:23 18.09.2022
1762 Clouds 9 1007 79 10000 1.54 110 21:39 17.09.2022
1763 Clear 7 1006 81 10000 1.54 140 19:42 17.09.2022
1764 Clouds 5 1005 91 10000 0.23 130 18:57 17.09.2022
1765 Clouds 6 1006 83 10000 0.45 87 15:58 17.09.2022
1766 Clear 7 1005 86 10000 4.12 80 13:56 17.09.2022
1767 Clouds 10 1005 78 10000 1.41 113 10:57 17.09.2022
1768 Clouds 10 1005 75 10000 1.49 71 08:55 17.09.2022
1769 Clouds 13 1006 66 10000 0 0 06:24 17.09.2022
1770 Clear 13 1008 67 10000 3.09 100 00:20 17.09.2022
1771 Clear 11 1009 76 10000 3.09 30 22:52 16.09.2022
1772 Mist 8 1009 87 10000 1.54 70 21:22 16.09.2022
1773 Mist 6 1009 93 9656 3.6 80 19:50 16.09.2022
1774 Clear 5 1010 93 10000 2.06 80 16:38 16.09.2022
1775 Mist 5 1009 93 6437 1.54 50 15:26 16.09.2022
1776 Clouds 7 1008 91 10000 0.68 223 13:57 16.09.2022
1777 Clouds 9 1007 90 10000 2.57 300 11:31 16.09.2022
1778 Rain 11 1004 84 10000 1.54 110 08:19 16.09.2022
1779 Clouds 11 1003 80 10000 2.06 270 07:18 16.09.2022
1780 Clouds 11 1003 80 10000 2.06 360 06:35 16.09.2022
1781 Clouds 12 1003 81 10000 4.12 60 02:40 16.09.2022
1782 Clouds 10 1003 90 10000 3.6 80 22:52 15.09.2022
1783 Mist 8 1004 95 4828 2.57 80 20:57 15.09.2022
1784 Mist 8 1004 95 2414 2.57 80 19:48 15.09.2022
1785 Mist 7 1005 96 9656 1.54 70 18:29 15.09.2022
1786 Rain 7 1005 95 10000 0 0 17:32 15.09.2022
1787 Rain 7 1005 95 10000 0 0 16:42 15.09.2022
1788 Rain 8 1005 95 10000 1.54 120 14:30 15.09.2022
1789 Rain 8 1004 95 10000 2.06 250 12:21 15.09.2022
1790 Clouds 7 1004 97 10000 0 0 09:54 15.09.2022
1791 Mist 8 1002 95 10000 3.09 210 07:50 15.09.2022
1792 Rain 9 1001 95 6437 3.6 230 03:52 15.09.2022
1793 Rain 9 999 94 2414 5.14 190 23:44 14.09.2022
1794 Rain 9 999 93 2414 3.6 200 21:30 14.09.2022
1795 Rain 9 998 96 10000 4.63 210 19:34 14.09.2022
1796 Rain 9 998 96 6437 4.12 210 18:32 14.09.2022
1797 Rain 9 998 93 9656 2.06 210 16:46 14.09.2022
1798 Rain 9 998 94 9656 2.06 200 15:34 14.09.2022
1799 Rain 10 997 94 9656 0 0 13:36 14.09.2022
1800 Rain 10 998 93 8047 0 0 11:30 14.09.2022
1801 Rain 11 998 89 10000 5.14 60 09:41 14.09.2022
1802 Rain 14 997 70 10000 1.54 20 06:52 14.09.2022
1803 Rain 14 997 69 10000 0 0 06:34 14.09.2022
1804 Rain 14 997 69 10000 1.54 20 06:34 14.09.2022
1805 Rain 14 997 69 10000 1.54 20 06:34 14.09.2022
1806 Clouds 17 998 50 10000 0 0 03:55 14.09.2022
1807 Clouds 17 999 50 10000 2.57 80 01:46 14.09.2022
1808 Clouds 17 999 51 10000 2.57 80 01:27 14.09.2022
1809 Clouds 16 1000 58 10000 0.45 184 23:55 13.09.2022
1810 Clear 15 1000 58 10000 2.57 40 23:37 13.09.2022
1811 Clear 15 1000 60 10000 2.57 40 23:19 13.09.2022
1812 Clear 14 1001 64 10000 2.57 70 22:44 13.09.2022
1813 Clear 12 1001 69 10000 1.54 40 21:44 13.09.2022
1814 Mist 7 1002 89 9656 0 0 19:32 13.09.2022
1815 Clouds 5 1003 91 10000 3.6 50 17:33 13.09.2022
1816 Clouds 5 1003 90 10000 0 0 15:54 13.09.2022
1817 Clear 4 1003 94 10000 0 0 14:31 13.09.2022
1818 Clear 6 1003 89 10000 0 0 12:30 13.09.2022
1819 Clouds 9 1003 82 10000 0 0 08:33 13.09.2022
1820 Clouds 16 1004 57 10000 2.57 80 04:32 13.09.2022
1821 Clouds 13 1006 68 10000 0 0 23:32 12.09.2022
1822 Clouds 12 1006 69 10000 0 0 22:49 12.09.2022
1823 Clouds 11 1007 70 10000 2.06 280 21:36 12.09.2022
1824 Clouds 10 1007 76 10000 1.54 30 20:25 12.09.2022
1825 Clouds 8 1007 79 10000 0 0 18:42 12.09.2022
1826 Clouds 7 1008 82 10000 3.09 80 16:23 12.09.2022
1827 Clouds 7 1009 82 10000 4.12 70 13:41 12.09.2022
1828 Clouds 7 1009 82 10000 1.54 70 11:22 12.09.2022
1829 Haze 8 1010 80 4828 2.57 50 09:35 12.09.2022
1830 Haze 16 1010 50 2012 1.54 120 04:46 12.09.2022
1831 Clouds 16 1011 51 10000 2.57 90 03:33 12.09.2022
1832 Clouds 13 1012 60 10000 3.09 90 23:22 11.09.2022
1833 Clouds 9 1012 81 10000 2.93 112 21:58 11.09.2022
1834 Clear 7 1012 81 10000 2.06 80 20:46 11.09.2022
1835 Clear 5 1012 84 10000 1.54 80 19:51 11.09.2022
1836 Clear 5 1012 84 10000 1.54 80 19:22 11.09.2022
1837 Fog 3 1013 90 10000 0 0 18:20 11.09.2022
1838 Clear 3 1013 89 10000 1.54 60 16:28 11.09.2022
1839 Clear 3 1014 91 10000 3.09 70 14:18 11.09.2022
1840 Clear 4 1013 90 10000 3.09 70 12:32 11.09.2022
1841 Clear 6 1013 88 10000 1.54 60 08:39 11.09.2022
1842 Clear 9 1012 82 10000 2.06 140 06:44 11.09.2022
1843 Clouds 10 1012 78 10000 6.17 240 00:49 11.09.2022
1844 Clouds 8 1010 87 10000 6.69 240 22:54 10.09.2022
1845 Clouds 8 1009 94 10000 0 0 20:59 10.09.2022
1846 Rain 6 1009 95 9656 2.06 150 19:46 10.09.2022
1847 Rain 6 1009 94 10000 2.06 150 19:28 10.09.2022
1848 Rain 6 1008 93 10000 0 0 18:22 10.09.2022
1849 Clouds 6 1007 94 10000 3.09 140 15:49 10.09.2022
1850 Rain 6 1006 92 10000 2.06 60 14:40 10.09.2022
1851 Rain 6 1005 91 10000 1.54 80 12:52 10.09.2022
1852 Clouds 6 1004 90 10000 0 0 10:46 10.09.2022
1853 Clear 6 1003 87 10000 2.06 40 09:28 10.09.2022
1854 Clear 7 1002 86 10000 0 0 08:27 10.09.2022
1855 Clouds 10 1001 72 10000 2.57 290 06:41 10.09.2022
1856 Clouds 11 997 85 10000 2.06 270 00:19 10.09.2022
1857 Rain 11 997 89 10000 1.54 190 23:32 09.09.2022
1858 Rain 10 996 91 10000 0.89 173 21:50 09.09.2022
1859 Rain 10 997 92 10000 2.57 60 20:41 09.09.2022
1860 Rain 9 997 92 10000 2.06 50 19:24 09.09.2022
1861 Drizzle 9 997 92 9656 2.57 340 18:46 09.09.2022
1862 Clouds 9 999 91 10000 2.06 80 16:23 09.09.2022
1863 Clouds 10 999 85 10000 2.57 90 13:48 09.09.2022
1864 Clouds 11 1000 84 10000 2.57 30 11:58 09.09.2022
1865 Rain 12 999 78 10000 2.06 50 09:22 09.09.2022
1866 Rain 12 999 78 10000 3.6 60 04:57 09.09.2022
1867 Rain 12 1002 76 10000 5.14 110 02:53 09.09.2022
1868 Clouds 12 1005 62 10000 5.14 80 21:52 08.09.2022
1869 Clouds 11 1006 67 10000 5.66 80 20:51 08.09.2022
1870 Clouds 12 1005 66 10000 5.66 60 20:31 08.09.2022
1871 Clouds 10 1007 71 10000 4.63 60 19:44 08.09.2022
1872 Clouds 6 1011 88 10000 4.63 60 17:48 08.09.2022
1873 Clouds 5 1012 90 10000 4.63 80 16:19 08.09.2022
1874 Clouds 6 1014 91 10000 4.12 60 14:40 08.09.2022
1875 Clouds 7 1014 89 10000 3.09 70 13:23 08.09.2022
1876 Clouds 7 1015 90 10000 2.06 60 11:39 08.09.2022
1877 Clouds 8 1015 91 10000 3.09 80 10:48 08.09.2022
1878 Clouds 11 1014 84 10000 1.56 33 07:57 08.09.2022
1879 Clouds 13 1015 69 10000 0 0 06:41 08.09.2022
1880 Clouds 14 1015 68 10000 0 0 02:36 08.09.2022
1881 Clouds 14 1015 70 10000 0 0 02:18 08.09.2022
1882 Clouds 11 1014 85 10000 0.45 140 00:27 08.09.2022
1883 Clouds 10 1014 88 10000 1.54 90 22:42 07.09.2022
1884 Clouds 9 1014 90 10000 1.54 120 21:42 07.09.2022
1885 Mist 8 1014 92 10000 2.06 70 20:42 07.09.2022
1886 Clouds 7 1014 91 10000 1.54 70 19:36 07.09.2022
1887 Clouds 6 1013 92 10000 2.06 100 17:28 07.09.2022
1888 Rain 8 1012 89 10000 2.06 240 12:52 07.09.2022
1889 Clouds 8 1011 88 10000 1.54 350 10:47 07.09.2022
1890 Clouds 9 1011 85 10000 0 0 08:38 07.09.2022
1891 Clouds 11 1010 80 10000 0.45 117 06:57 07.09.2022
1892 Clouds 14 1011 67 10000 0.89 171 02:46 07.09.2022
1893 Rain 10 1012 84 10000 2.06 60 22:44 06.09.2022
1894 Clouds 10 1013 87 10000 1.54 80 21:39 06.09.2022
1895 Clouds 8 1013 91 10000 2.06 40 20:21 06.09.2022
1896 Clouds 7 1012 91 10000 2.57 40 18:45 06.09.2022
1897 Clouds 7 1012 91 10000 2.57 40 18:21 06.09.2022
1898 Clouds 7 1012 91 10000 1.54 160 17:20 06.09.2022
1899 Clouds 7 1013 92 10000 2.57 70 16:37 06.09.2022
1900 Clouds 8 1013 92 10000 2.57 330 14:55 06.09.2022
1901 Rain 8 1013 88 9656 3.09 210 13:45 06.09.2022
1902 Rain 8 1013 89 10000 3.09 260 13:21 06.09.2022
1903 Clouds 8 1012 88 10000 2.06 70 11:54 06.09.2022
1904 Clouds 9 1012 84 10000 3.09 80 10:41 06.09.2022
1905 Clouds 9 1011 83 10000 1.54 70 08:41 06.09.2022
1906 Clouds 10 1011 81 10000 0 0 07:37 06.09.2022
1907 Clouds 15 1011 58 10000 1.54 150 02:34 06.09.2022
1908 Clear 13 1011 71 10000 2.57 160 23:21 05.09.2022
1909 Clouds 11 1011 79 10000 0.45 206 21:52 05.09.2022
1910 Clouds 10 1011 84 10000 0.89 176 20:32 05.09.2022
1911 Clouds 8 1010 88 10000 0 0 19:18 05.09.2022
1912 Clouds 8 1010 90 10000 1.54 180 18:44 05.09.2022
1913 Clouds 8 1010 90 10000 1.54 180 18:21 05.09.2022
1914 Clouds 8 1009 89 10000 1.54 70 16:27 05.09.2022
1915 Clouds 8 1009 88 10000 2.57 200 15:29 05.09.2022
1916 Clouds 8 1008 88 10000 0 0 13:25 05.09.2022
1917 Clouds 9 1008 86 10000 2.06 200 12:26 05.09.2022
1918 Clouds 11 1006 77 10000 4.63 250 09:19 05.09.2022
1919 Clouds 13 1005 69 10000 4.63 250 06:40 05.09.2022
1920 Clouds 14 1004 67 10000 0.89 205 01:56 05.09.2022
1921 Clouds 13 1002 80 10000 6.17 240 22:39 04.09.2022
1922 Clouds 13 1002 83 10000 6.17 240 22:19 04.09.2022
1923 Clouds 11 1001 90 10000 5.66 220 20:43 04.09.2022
1924 Rain 10 1000 93 10000 4.63 230 19:20 04.09.2022
1925 Drizzle 10 999 93 10000 4.63 230 17:43 04.09.2022
1926 Clouds 10 999 93 10000 5.14 220 16:28 04.09.2022
1927 Clouds 10 998 93 10000 3.09 230 14:27 04.09.2022
1928 Clouds 11 998 93 10000 4.63 230 12:57 04.09.2022
1929 Rain 11 997 93 10000 5.14 230 11:51 04.09.2022
1930 Clouds 11 996 93 10000 4.12 230 09:50 04.09.2022
1931 Clouds 12 995 89 10000 2.57 210 06:51 04.09.2022
1932 Rain 13 994 85 10000 3.09 60 03:59 04.09.2022
1933 Clouds 14 991 75 10000 2.57 190 23:40 03.09.2022
1934 Clouds 13 991 77 10000 2.06 210 22:20 03.09.2022
1935 Clouds 13 990 80 10000 0 0 21:23 03.09.2022
1936 Clouds 13 990 80 10000 0 0 21:23 03.09.2022
1937 Clouds 11 989 85 10000 0.93 26 18:59 03.09.2022
1938 Clouds 10 990 84 10000 0 0 17:25 03.09.2022
1939 Clouds 11 989 82 10000 1.54 60 16:26 03.09.2022
1940 Clouds 10 989 83 10000 3.09 360 14:44 03.09.2022
1941 Rain 10 990 85 10000 2.06 350 13:50 03.09.2022
1942 Rain 11 991 81 10000 1.54 30 11:37 03.09.2022
1943 Clouds 12 991 76 10000 1.54 50 09:56 03.09.2022
1944 Clouds 13 991 68 10000 0.89 228 07:57 03.09.2022
1945 Clouds 16 991 59 10000 0.89 264 04:57 03.09.2022
1946 Clear 16 992 56 10000 3.09 50 04:31 03.09.2022
1947 Clear 15 995 65 10000 2.06 80 23:49 02.09.2022
1948 Clear 14 995 73 10000 0.45 115 22:39 02.09.2022
1949 Clouds 10 996 89 10000 0 0 20:59 02.09.2022
1950 Mist 10 996 90 10000 0.45 114 20:27 02.09.2022
1951 Mist 8 996 93 4828 0 0 18:59 02.09.2022
1952 Mist 7 997 94 2414 2.57 140 18:27 02.09.2022
1953 Fog 7 996 95 201 0 0 17:36 02.09.2022
1954 Mist 8 997 93 3621 0.45 130 16:45 02.09.2022
1955 Rain 8 997 92 10000 2.06 70 13:51 02.09.2022
1956 Rain 9 997 90 10000 3.09 160 11:47 02.09.2022
1957 Rain 10 996 86 10000 2.57 200 09:49 02.09.2022
1958 Rain 10 996 88 10000 2.57 260 08:56 02.09.2022
1959 Rain 11 996 87 10000 3.6 220 07:24 02.09.2022
1960 Rain 12 995 82 9656 5.14 230 06:35 02.09.2022
1961 Clouds 16 994 57 10000 0.45 126 02:37 02.09.2022
1962 Clouds 14 994 67 10000 1.54 30 22:26 01.09.2022
1963 Clouds 13 994 74 10000 0 0 21:40 01.09.2022
1964 Clouds 13 994 74 10000 0 0 21:21 01.09.2022
1965 Clouds 12 993 73 10000 2.06 80 20:37 01.09.2022
1966 Clouds 11 994 78 10000 0 0 18:49 01.09.2022
1967 Clouds 11 994 77 10000 0 0 17:21 01.09.2022
1968 Clouds 10 994 75 10000 1.54 40 15:34 01.09.2022
1969 Clouds 12 996 71 10000 2.06 90 13:48 01.09.2022
1970 Clouds 11 995 75 10000 1.62 55 12:57 01.09.2022
1971 Haze 12 996 71 3219 2.57 360 11:52 01.09.2022
1972 Haze 12 995 70 3219 2.57 360 11:30 01.09.2022
1973 Clouds 13 996 69 10000 3.09 60 09:49 01.09.2022
1974 Clouds 14 997 69 10000 2.57 60 07:50 01.09.2022
1975 Clouds 16 997 64 10000 1.9 103 05:58 01.09.2022
1976 Clouds 17 999 61 10000 3.6 70 01:31 01.09.2022
1977 Clouds 17 999 61 10000 3.6 70 01:31 01.09.2022
1978 Clouds 17 999 61 10000 3.6 70 01:31 01.09.2022
1979 Clouds 16 1001 63 10000 3.09 100 23:19 31.08.2022
1980 Clouds 15 1001 64 10000 4.12 80 21:20 31.08.2022
1981 Clouds 11 1001 79 10000 1.54 50 19:23 31.08.2022
1982 Clouds 10 1002 84 10000 1.54 70 17:25 31.08.2022
1983 Clouds 10 1004 87 10000 0 0 15:39 31.08.2022
1984 Clouds 11 1003 84 10000 2.57 70 13:38 31.08.2022
1985 Clouds 11 1004 85 10000 4.63 70 12:19 31.08.2022
1986 Clouds 12 1004 82 10000 2.57 80 09:39 31.08.2022
1987 Clouds 13 1005 82 10000 2.57 60 08:32 31.08.2022
1988 Clouds 17 1005 64 10000 1.54 60 03:41 31.08.2022
1989 Mist 12 1005 88 10000 2.06 120 22:42 30.08.2022
1990 Mist 11 1005 90 10000 2.06 110 21:33 30.08.2022
1991 Mist 10 1005 92 10000 2.06 80 20:38 30.08.2022
1992 Clouds 9 1003 91 10000 0 0 17:25 30.08.2022
1993 Clouds 9 1003 89 10000 0.45 288 14:41 30.08.2022
1994 Clear 9 1003 90 10000 0 0 12:54 30.08.2022
1995 Clear 10 1002 86 10000 1.54 290 11:20 30.08.2022
1996 Clouds 11 1002 85 10000 2.57 50 10:20 30.08.2022
1997 Clear 14 1000 73 10000 2.06 10 06:49 30.08.2022
1998 Clouds 18 1000 58 10000 1.54 0 01:44 30.08.2022
1999 Clouds 13 1000 81 10000 1.54 280 22:44 29.08.2022
2000 Clouds 12 1000 87 10000 0.45 128 21:55 29.08.2022
2001 Clouds 11 1000 88 10000 0 0 21:23 29.08.2022
2002 Clouds 11 1000 88 10000 0 0 21:23 29.08.2022
2003 Mist 9 1000 94 10000 0 0 19:41 29.08.2022
2004 Fog 8 999 92 10000 0 0 17:39 29.08.2022
2005 Mist 7 1000 94 10000 0 0 17:18 29.08.2022
2006 Mist 7 999 92 10000 0 0 15:38 29.08.2022
2007 Clouds 8 999 92 10000 0.78 60 13:58 29.08.2022
2008 Clear 8 1000 91 10000 0 0 12:32 29.08.2022
2009 Rain 10 999 88 10000 1.54 100 10:49 29.08.2022
2010 Clear 11 1000 88 10000 1.54 20 09:30 29.08.2022
2011 Clouds 13 999 82 10000 1.54 340 07:35 29.08.2022
2012 Clear 16 1001 67 10000 3.09 50 02:34 29.08.2022
2013 Rain 14 1002 82 10000 2.57 290 23:37 28.08.2022
2014 Clouds 13 1002 85 10000 0 0 21:49 28.08.2022
2015 Clouds 13 1002 86 10000 0 0 21:31 28.08.2022
2016 Rain 12 1002 89 10000 2.06 80 20:24 28.08.2022
2017 Clouds 10 1002 91 10000 1.54 80 18:37 28.08.2022
2018 Clouds 10 1002 91 10000 0 0 18:18 28.08.2022
2019 Clouds 10 1001 90 10000 1.54 80 16:52 28.08.2022
2020 Clouds 10 1001 90 10000 1.54 60 15:37 28.08.2022
2021 Clouds 12 1001 88 10000 2.06 350 13:34 28.08.2022
2022 Clouds 12 1001 86 10000 2.06 30 12:20 28.08.2022
2023 Rain 13 1001 86 10000 0.45 257 10:27 28.08.2022
2024 Clouds 13 1001 86 10000 2.06 70 09:38 28.08.2022
2025 Clouds 14 1001 80 10000 0 0 08:31 28.08.2022
2026 Clouds 14 1001 78 10000 0 0 07:32 28.08.2022
2027 Clouds 15 1002 77 10000 0 0 01:00 28.08.2022
2028 Clouds 14 1002 85 10000 1.54 0 23:48 27.08.2022
2029 Clouds 13 1002 89 10000 0.45 132 22:27 27.08.2022
2030 Clouds 13 1002 89 10000 0.45 132 22:27 27.08.2022
2031 Rain 11 1002 93 10000 0.45 205 20:37 27.08.2022
2032 Rain 11 1002 93 10000 0 0 19:37 27.08.2022
2033 Rain 10 1002 94 10000 1.54 60 16:34 27.08.2022
2034 Rain 11 1001 93 10000 1.54 60 15:31 27.08.2022
2035 Rain 11 1001 93 10000 0 0 13:57 27.08.2022
2036 Rain 12 1001 90 10000 2.06 250 12:22 27.08.2022
2037 Rain 12 1001 87 10000 2.57 250 10:30 27.08.2022
2038 Rain 12 1001 84 10000 3.09 230 09:39 27.08.2022
2039 Clouds 14 1001 70 10000 3.6 220 06:55 27.08.2022
2040 Rain 18 1001 55 10000 1.54 120 02:24 27.08.2022
2041 Clouds 16 1001 61 10000 0 0 23:49 26.08.2022
2042 Clouds 15 1001 67 10000 2.24 192 21:53 26.08.2022
2043 Clouds 14 1001 72 10000 1.54 60 20:22 26.08.2022
2044 Clouds 12 1001 78 10000 1.54 80 18:32 26.08.2022
2045 Clouds 11 1002 82 10000 0 0 16:40 26.08.2022
2046 Clouds 11 1003 83 10000 1.54 70 15:25 26.08.2022
2047 Clouds 12 1004 80 10000 0 0 13:26 26.08.2022
2048 Clouds 12 1004 78 10000 3.09 80 12:34 26.08.2022
2049 Clouds 13 1004 75 10000 3.6 90 11:22 26.08.2022
2050 Clouds 13 1004 68 10000 1.54 290 09:53 26.08.2022
2051 Clouds 19 1005 57 10000 0.45 117 04:56 26.08.2022
2052 Clouds 19 1009 58 10000 0.89 281 00:55 26.08.2022
2053 Clouds 17 1010 69 10000 2.06 110 22:45 25.08.2022
2054 Clouds 14 1010 85 10000 0.89 130 20:57 25.08.2022
2055 Fog 12 1011 90 10000 0.45 127 19:47 25.08.2022
2056 Fog 11 1010 92 10000 2.06 20 18:36 25.08.2022
2057 Fog 9 1011 93 10000 3.09 70 17:32 25.08.2022
2058 Rain 9 1011 92 10000 2.57 70 16:46 25.08.2022
2059 Clouds 8 1012 94 10000 1.54 110 15:37 25.08.2022
2060 Clear 9 1011 91 10000 2.06 70 14:30 25.08.2022
2061 Clouds 11 1011 89 10000 1.54 60 11:34 25.08.2022
2062 Clouds 12 1011 86 10000 2.06 70 10:45 25.08.2022
2063 Clouds 15 1009 76 10000 0.45 190 07:55 25.08.2022
2064 Clouds 17 1009 64 10000 0 0 04:40 25.08.2022
2065 Clouds 16 1010 75 10000 0.51 90 23:56 24.08.2022
2066 Rain 15 1010 72 10000 0.51 90 23:25 24.08.2022
2067 Clouds 14 1009 79 10000 1.02 231 21:59 24.08.2022
2068 Clouds 13 1011 80 10000 1.54 120 21:31 24.08.2022
2069 Clouds 12 1011 80 10000 1.54 360 20:18 24.08.2022
2070 Clouds 11 1011 82 10000 1.54 90 17:32 24.08.2022
2071 Clouds 11 1011 86 10000 0 0 15:55 24.08.2022
2072 Clouds 11 1011 86 10000 0 0 15:35 24.08.2022
2073 Clouds 12 1011 83 10000 2.57 40 12:52 24.08.2022
2074 Clouds 13 1011 80 10000 2.57 80 11:22 24.08.2022
2075 Clouds 14 1010 72 10000 1.54 300 09:19 24.08.2022
2076 Clouds 18 1010 59 10000 0.45 82 06:52 24.08.2022
2077 Clouds 21 1011 45 10000 3.6 230 01:20 24.08.2022
2078 Clouds 18 1011 66 10000 1.54 320 22:49 23.08.2022
2079 Clouds 18 1011 68 10000 1.54 320 22:21 23.08.2022
2080 Clouds 16 1010 72 10000 1.54 140 21:21 23.08.2022
2081 Rain 14 1009 77 10000 0 0 19:28 23.08.2022
2082 Rain 14 1008 78 10000 1.54 10 18:21 23.08.2022
2083 Clouds 14 1008 78 10000 1.03 0 17:31 23.08.2022
2084 Rain 13 1008 83 10000 2.06 50 16:31 23.08.2022
2085 Clouds 13 1008 80 10000 0 0 14:54 23.08.2022
2086 Clouds 14 1008 81 10000 0.51 0 12:46 23.08.2022
2087 Clouds 15 1008 72 10000 2.06 40 11:19 23.08.2022
2088 Clouds 16 1009 78 10000 2.57 40 10:33 23.08.2022
2089 Clouds 16 1009 79 10000 2.57 20 09:46 23.08.2022
2090 Clouds 17 1008 79 10000 2.06 20 08:47 23.08.2022
2091 Clouds 17 1009 77 10000 2.06 20 08:19 23.08.2022
2092 Clouds 18 1009 73 10000 0.51 340 07:33 23.08.2022
2093 Clouds 19 1009 72 10000 1.03 0 06:25 23.08.2022
2094 Clouds 21 1010 58 10000 1.54 130 01:52 23.08.2022
2095 Clouds 21 1011 57 10000 2.06 90 00:27 23.08.2022
2096 Clouds 21 1010 57 10000 1.03 0 23:32 22.08.2022
2097 Clouds 20 1010 59 10000 2.57 0 22:25 22.08.2022
2098 Clouds 18 1010 73 10000 1.03 350 20:53 22.08.2022
2099 Clouds 16 1010 81 10000 1.54 50 19:46 22.08.2022
2100 Clouds 15 1010 86 10000 2.57 60 18:38 22.08.2022
2101 Clouds 15 1010 86 10000 1.54 350 16:23 22.08.2022
2102 Clouds 15 1010 86 10000 2.06 10 15:36 22.08.2022
2103 Rain 15 1011 88 10000 0 0 12:55 22.08.2022
2104 Rain 17 1010 76 10000 0.45 256 09:57 22.08.2022
2105 Rain 18 1010 74 8047 2.06 350 07:21 22.08.2022
2106 Clouds 21 1011 59 10000 2.06 20 02:42 22.08.2022
2107 Clouds 20 1011 60 10000 0.45 162 00:37 22.08.2022
2108 Clouds 19 1011 59 10000 1.54 30 23:34 21.08.2022
2109 Clouds 18 1011 63 10000 0.45 274 21:57 21.08.2022
2110 Clouds 18 1011 62 10000 0.45 274 21:21 21.08.2022
2111 Clear 16 1010 68 10000 3.6 80 20:21 21.08.2022
2112 Clouds 14 1009 69 10000 0.79 95 18:59 21.08.2022
2113 Clear 10 1028 85 10000 0 0 16:52 21.08.2022
2114 Clear 11 1010 82 10000 2.06 100 15:53 21.08.2022
2115 Clouds 10 1047 85 10000 1.49 45 14:59 21.08.2022
2116 Clouds 11 1028 87 10000 2.06 50 13:51 21.08.2022
2117 Clouds 11 1031 87 10000 0 0 12:57 21.08.2022
2118 Clouds 12 1026 84 10000 2.06 40 10:48 21.08.2022
2119 Clouds 14 1026 81 10000 1.54 10 09:21 21.08.2022
2120 Clouds 14 1008 77 10000 1.54 50 08:56 21.08.2022
2121 Clouds 15 1008 78 10000 1.54 50 08:38 21.08.2022
2122 Clouds 18 1007 56 10000 0 0 06:59 21.08.2022
2123 Clouds 20 1007 40 10000 2.06 60 02:52 21.08.2022
2124 Clouds 18 1008 45 10000 2.57 100 23:44 20.08.2022
2125 Clouds 16 1004 59 10000 1.54 80 22:23 20.08.2022
2126 Clouds 15 1008 62 10000 2.06 90 21:22 20.08.2022
2127 Clouds 13 1005 66 10000 3.09 80 19:49 20.08.2022
2128 Haze 12 1005 69 402 3.09 80 19:21 20.08.2022
2129 Haze 11 1005 72 201 2.57 80 18:27 20.08.2022
2130 Haze 10 1005 74 604 2.57 70 17:25 20.08.2022
2131 Haze 10 1005 74 604 4.12 60 16:35 20.08.2022
2132 Haze 9 1004 83 1006 4.12 70 14:55 20.08.2022
2133 Fog 9 1006 82 805 3.6 80 12:28 20.08.2022
2134 Clear 9 1006 82 10000 4.63 70 11:46 20.08.2022
2135 Clear 11 1007 73 10000 3.09 70 09:25 20.08.2022
2136 Clouds 13 1007 69 10000 3.09 30 08:25 20.08.2022
2137 Clouds 16 1007 58 10000 2.57 110 05:48 20.08.2022
2138 Clouds 15 1012 72 10000 0.45 198 00:58 20.08.2022
2139 Clouds 14 1014 75 10000 2.57 30 23:52 19.08.2022
2140 Clouds 13 1014 83 10000 2.06 10 22:48 19.08.2022
2141 Clouds 11 1014 87 10000 2.06 60 21:34 19.08.2022
2142 Mist 9 1009 94 10000 1.54 110 19:40 19.08.2022
2143 Rain 9 1009 94 10000 0 0 16:32 19.08.2022
2144 Rain 10 1009 92 10000 3.09 220 14:37 19.08.2022
2145 Rain 10 1008 91 10000 2.06 40 12:45 19.08.2022
2146 Rain 11 1009 88 8047 2.57 310 10:41 19.08.2022
2147 Rain 12 1009 80 9656 6.69 200 09:36 19.08.2022
2148 Clouds 16 1005 60 10000 4.63 300 04:59 19.08.2022
2149 Clouds 18 1007 44 10000 3.6 250 00:45 19.08.2022
2150 Clouds 18 1008 45 10000 3.6 250 00:20 19.08.2022
2151 Clouds 17 1002 53 10000 3.47 271 22:59 18.08.2022
2152 Clouds 17 1007 50 10000 5.66 270 22:26 18.08.2022
2153 Clear 16 1006 51 10000 3.6 230 21:51 18.08.2022
2154 Clear 15 1006 57 10000 4.12 250 20:56 18.08.2022
2155 Clear 13 1006 74 10000 3.6 250 19:40 18.08.2022
2156 Clear 13 1006 75 10000 3.6 250 19:20 18.08.2022
2157 Clear 11 1005 85 10000 5.14 230 17:38 18.08.2022
2158 Clouds 12 1003 80 10000 5.14 250 16:19 18.08.2022
2159 Clouds 13 1001 59 10000 2.57 0 14:22 18.08.2022
2160 Rain 15 1000 59 10000 5.66 210 13:44 18.08.2022
2161 Rain 15 1000 59 10000 5.66 210 13:44 18.08.2022
2162 Clouds 16 1002 58 10000 3.09 210 12:30 18.08.2022
2163 Clouds 15 1001 61 10000 1.54 240 11:21 18.08.2022
2164 Clouds 17 998 56 10000 3.6 290 09:43 18.08.2022
2165 Clouds 19 995 52 10000 4.12 280 07:53 18.08.2022
2166 Clouds 20 995 50 10000 3.09 270 06:43 18.08.2022
2167 Clouds 22 993 45 10000 2.57 260 02:32 18.08.2022
2168 Clouds 22 993 49 10000 4.63 150 22:50 17.08.2022
2169 Clouds 18 993 64 10000 4.12 80 20:37 17.08.2022
2170 Clouds 17 992 72 10000 2.68 195 19:59 17.08.2022
2171 Rain 15 993 76 10000 4.12 70 18:39 17.08.2022
2172 Clouds 13 994 79 10000 4.63 60 17:21 17.08.2022
2173 Rain 12 995 83 10000 4.12 60 16:20 17.08.2022
2174 Clouds 12 997 80 10000 4.12 80 14:46 17.08.2022
2175 Clouds 12 998 78 10000 4.12 70 12:36 17.08.2022
2176 Clear 13 999 77 10000 3.09 70 11:36 17.08.2022
2177 Clear 14 999 75 10000 4.12 80 09:29 17.08.2022
2178 Clear 18 1001 65 10000 3.09 40 06:50 17.08.2022
2179 Clouds 19 1004 60 10000 2.57 100 01:45 17.08.2022
2180 Clouds 17 1005 66 10000 2.06 110 23:33 16.08.2022
2181 Clouds 16 1006 73 10000 3.6 90 21:48 16.08.2022
2182 Clouds 14 1006 81 10000 2.57 90 20:25 16.08.2022
2183 Clouds 12 1007 87 10000 3.6 90 19:40 16.08.2022
2184 Fog 10 1007 93 10000 2.57 110 18:18 16.08.2022
2185 Clouds 10 1007 94 10000 2.06 80 17:24 16.08.2022
2186 Clouds 10 1007 93 10000 0 0 15:46 16.08.2022
2187 Clouds 10 1007 93 10000 2.06 60 14:55 16.08.2022
2188 Clouds 10 1007 94 10000 2.06 60 14:36 16.08.2022
2189 Clouds 10 1008 93 10000 2.06 80 12:40 16.08.2022
2190 Rain 11 1008 92 10000 1.54 200 10:29 16.08.2022
2191 Clouds 12 1008 92 10000 0.45 339 09:31 16.08.2022
2192 Rain 13 1008 90 10000 1.54 120 08:26 16.08.2022
2193 Rain 13 1007 89 10000 0.45 345 07:23 16.08.2022
2194 Clouds 18 1007 59 10000 3.09 180 01:23 16.08.2022
2195 Clouds 17 1007 67 10000 0.45 258 22:29 15.08.2022
2196 Clouds 16 1007 74 10000 0.45 128 21:51 15.08.2022
2197 Clouds 15 1007 82 10000 1.54 90 20:47 15.08.2022
2198 Clouds 14 1007 85 10000 1.54 90 20:18 15.08.2022
2199 Fog 11 1007 94 10000 0 0 18:31 15.08.2022
2200 Mist 10 1006 94 10000 1.54 80 16:40 15.08.2022
2201 Mist 10 1006 94 10000 1.54 80 16:40 15.08.2022
2202 Fog 10 1005 94 10000 2.57 70 16:20 15.08.2022
2203 Clouds 11 1004 93 10000 3.6 70 13:55 15.08.2022
2204 Clear 11 1005 91 10000 1.54 170 12:24 15.08.2022
2205 Clouds 12 1005 88 10000 1.28 265 09:57 15.08.2022
2206 Clear 16 1003 78 10000 3.09 230 08:21 15.08.2022
2207 Clouds 18 1002 67 10000 3.09 230 04:36 15.08.2022
2208 Clear 18 1002 67 10000 0 0 01:35 15.08.2022
2209 Clouds 16 991 75 10000 2.57 0 22:39 14.08.2022
2210 Clouds 16 1001 79 10000 1.54 60 21:38 14.08.2022
2211 Clouds 13 1002 86 10000 2.57 100 19:58 14.08.2022
2212 Rain 13 1002 90 10000 2.57 100 19:30 14.08.2022
2213 Clouds 13 1001 88 10000 2.06 50 18:19 14.08.2022
2214 Clear 13 1000 87 10000 2.06 70 16:54 14.08.2022
2215 Clear 12 1001 91 10000 0 0 15:50 14.08.2022
2216 Clouds 13 1001 91 10000 0 0 14:34 14.08.2022
2217 Clouds 14 1000 90 10000 0 0 13:50 14.08.2022
2218 Clouds 14 1000 90 10000 0 0 13:22 14.08.2022
2219 Clear 14 1000 87 10000 0 0 12:34 14.08.2022
2220 Clear 16 999 85 10000 1.54 80 10:55 14.08.2022
2221 Clear 18 998 83 10000 0 0 08:52 14.08.2022
2222 Clear 21 998 67 10000 1.54 20 06:22 14.08.2022
2223 Clear 23 999 60 10000 1.54 110 03:36 14.08.2022
2224 Clear 22 1000 59 10000 2.06 140 00:33 14.08.2022
2225 Clear 22 1001 64 10000 0.89 100 22:56 13.08.2022
2226 Clear 22 1001 64 10000 0.89 100 22:56 13.08.2022
2227 Clear 20 1002 68 10000 2.06 80 21:47 13.08.2022
2228 Clear 18 1002 74 10000 2.57 100 20:47 13.08.2022
2229 Clear 16 1003 79 10000 2.06 70 19:46 13.08.2022
2230 Clouds 14 1003 84 10000 2.57 70 18:19 13.08.2022
2231 Clear 13 1004 88 10000 2.06 90 15:40 13.08.2022
2232 Clear 13 1003 89 10000 1.54 90 14:32 13.08.2022
2233 Clear 15 1003 83 10000 0 0 13:46 13.08.2022
2234 Clear 16 1003 81 10000 2.06 40 11:53 13.08.2022
2235 Clouds 17 1003 77 10000 2.06 130 10:33 13.08.2022
2236 Clouds 19 1003 72 10000 0 0 09:22 13.08.2022
2237 Clouds 24 1004 50 10000 2.06 350 05:57 13.08.2022
2238 Clear 23 1008 49 10000 2.06 220 00:36 13.08.2022
2239 Clouds 20 1009 55 10000 0 0 22:26 12.08.2022
2240 Clouds 18 1009 60 10000 1.54 50 21:20 12.08.2022
2241 Clouds 15 1009 74 10000 1.54 100 19:44 12.08.2022
2242 Clouds 13 1009 79 10000 0.71 113 18:58 12.08.2022
2243 Clouds 11 1010 81 10000 2.57 60 17:57 12.08.2022
2244 Clouds 10 1010 82 10000 2.06 70 16:25 12.08.2022
2245 Clouds 10 1010 82 10000 2.06 90 14:50 12.08.2022
2246 Clouds 10 1011 82 10000 0.45 76 12:59 12.08.2022
2247 Clear 11 1011 78 10000 0 0 11:39 12.08.2022
2248 Clear 16 1011 66 10000 0 0 08:47 12.08.2022
2249 Clear 19 1011 53 10000 2.06 40 07:44 12.08.2022
2250 Clear 21 1012 38 10000 2.06 100 03:41 12.08.2022
2251 Clouds 20 1014 44 10000 2.57 80 00:31 12.08.2022
2252 Clouds 19 1014 49 10000 1.54 80 23:42 11.08.2022
2253 Clear 18 1015 53 10000 2.06 110 22:37 11.08.2022
2254 Clear 16 1015 59 10000 0 0 21:47 11.08.2022
2255 Clear 15 1015 61 10000 0 0 21:22 11.08.2022
2256 Clear 13 1015 66 10000 0 0 20:29 11.08.2022
2257 Clear 10 1015 72 10000 0 0 19:33 11.08.2022
2258 Clear 9 1015 77 10000 2.06 70 18:39 11.08.2022
2259 Clear 6 1014 82 10000 2.06 70 16:42 11.08.2022
2260 Clear 5 1015 88 10000 2.06 50 15:37 11.08.2022
2261 Clear 6 1014 85 10000 2.06 100 13:51 11.08.2022
2262 Clear 8 1014 82 10000 3.09 60 11:51 11.08.2022
2263 Clear 13 1014 67 10000 1.54 280 08:34 11.08.2022
2264 Clear 18 1015 44 10000 1.54 190 04:53 11.08.2022
2265 Clear 17 1016 47 10000 1.54 170 01:56 11.08.2022
2266 Clear 14 1017 58 10000 1.54 80 22:54 10.08.2022
2267 Clouds 13 1017 64 10000 1.54 70 21:44 10.08.2022
2268 Clear 11 1017 72 10000 0.45 224 20:56 10.08.2022
2269 Clouds 9 1017 82 10000 1.21 157 19:58 10.08.2022
2270 Clear 7 1017 86 10000 1.54 40 18:45 10.08.2022
2271 Clear 5 1017 91 10000 1.54 40 17:20 10.08.2022
2272 Clouds 7 1016 88 10000 2.57 70 13:49 10.08.2022
2273 Clouds 7 1016 87 10000 2.06 80 12:50 10.08.2022
2274 Clouds 7 1015 86 10000 1.54 340 10:21 10.08.2022
2275 Clouds 9 1015 80 10000 0.45 53 08:37 10.08.2022
2276 Clouds 11 1015 69 10000 2.57 310 07:22 10.08.2022
2277 Clouds 12 1015 66 10000 2.57 250 04:50 10.08.2022
2278 Clouds 10 1015 66 10000 5.14 250 00:50 10.08.2022
2279 Clouds 10 1015 71 10000 4.12 210 23:27 09.08.2022
2280 Clouds 7 1015 88 10000 2.06 180 21:38 09.08.2022
2281 Clouds 6 1016 89 10000 2.57 140 20:56 09.08.2022
2282 Clouds 5 1016 91 10000 2.06 190 18:56 09.08.2022
2283 Clouds 4 1016 89 10000 2.06 210 17:31 09.08.2022
2284 Clouds 4 1016 89 10000 2.06 210 17:31 09.08.2022
2285 Clouds 5 1015 92 10000 2.06 170 16:43 09.08.2022
2286 Rain 4 1015 94 10000 3.09 180 15:59 09.08.2022
2287 Rain 5 1015 92 10000 3.09 200 14:43 09.08.2022
2288 Rain 6 1014 89 10000 3.6 210 10:53 09.08.2022
2289 Rain 7 1012 87 10000 9.77 290 08:52 09.08.2022
2290 Rain 10 1010 87 10000 4.47 222 07:54 09.08.2022
2291 Clouds 16 1008 57 10000 3.6 110 04:43 09.08.2022
2292 Clouds 12 1011 86 10000 2.06 140 23:58 08.08.2022
2293 Rain 12 1010 92 10000 3.6 160 23:24 08.08.2022
2294 Mist 11 1011 93 8047 2.57 160 22:38 08.08.2022
2295 Rain 11 1010 92 8047 2.57 180 21:40 08.08.2022
2296 Rain 10 1009 94 10000 1.44 145 19:58 08.08.2022
2297 Rain 10 1009 93 8047 1.54 280 19:31 08.08.2022
2298 Rain 9 1008 92 9656 0 0 17:56 08.08.2022
2299 Rain 10 1005 89 10000 3.6 50 15:47 08.08.2022
2300 Rain 9 1008 91 10000 2.06 50 14:46 08.08.2022
2301 Rain 10 1008 89 10000 3.6 80 12:30 08.08.2022
2302 Rain 11 1007 83 10000 0.45 44 10:26 08.08.2022
2303 Clouds 13 1006 78 10000 1.54 150 07:49 08.08.2022
2304 Clear 15 1007 61 10000 4.63 130 03:42 08.08.2022
2305 Clear 12 1011 69 10000 2.57 140 23:28 07.08.2022
2306 Clouds 10 1012 81 10000 4.12 230 21:41 07.08.2022
2307 Rain 9 1012 83 10000 0.89 101 20:55 07.08.2022
2308 Rain 10 1013 83 10000 2.06 220 20:18 07.08.2022
2309 Clouds 9 1013 87 10000 3.6 190 19:51 07.08.2022
2310 Clouds 8 1013 91 10000 2.57 200 18:49 07.08.2022
2311 Clouds 7 1013 92 10000 2.57 180 17:22 07.08.2022
2312 Clouds 7 1012 92 10000 1.54 200 16:51 07.08.2022
2313 Clouds 7 1012 90 10000 0.45 262 15:29 07.08.2022
2314 Clouds 7 1011 90 10000 3.6 220 13:55 07.08.2022
2315 Clouds 7 1011 89 10000 2.57 210 12:38 07.08.2022
2316 Rain 9 1009 87 10000 5.66 260 10:48 07.08.2022
2317 Mist 10 1008 90 6437 4.63 220 09:56 07.08.2022
2318 Rain 13 1004 87 10000 3.09 260 04:33 07.08.2022
2319 Clouds 14 1004 74 10000 4.63 230 01:59 07.08.2022
2320 Rain 12 1005 85 10000 4.12 210 22:33 06.08.2022
2321 Rain 11 1000 89 10000 5.14 230 21:48 06.08.2022
2322 Rain 10 1003 92 9656 3.6 230 19:43 06.08.2022
2323 Rain 10 1003 90 10000 3.6 230 18:38 06.08.2022
2324 Clouds 10 1003 89 10000 3.09 180 17:45 06.08.2022
2325 Rain 10 1003 89 10000 3.09 230 16:19 06.08.2022
2326 Clouds 10 996 89 10000 2.57 200 13:51 06.08.2022
2327 Rain 10 1003 89 10000 3.09 190 12:27 06.08.2022
2328 Rain 11 1003 88 10000 4.63 240 10:53 06.08.2022
2329 Clouds 11 1002 84 10000 3.09 190 09:31 06.08.2022
2330 Clouds 12 1001 81 10000 4.63 260 04:43 06.08.2022
2331 Rain 11 1001 93 4828 5.14 250 00:49 06.08.2022
2332 Rain 12 996 95 4023 2.06 270 22:35 05.08.2022
2333 Rain 12 1001 93 6437 3.09 250 20:50 05.08.2022
2334 Clouds 12 1002 93 10000 2.57 210 19:18 05.08.2022
2335 Mist 12 1002 93 10000 3.6 200 18:41 05.08.2022
2336 Clouds 12 1003 94 10000 2.06 190 16:53 05.08.2022
2337 Rain 13 1003 93 10000 3.09 240 15:25 05.08.2022
2338 Rain 13 1003 92 9656 3.6 220 14:38 05.08.2022
2339 Rain 14 1004 91 10000 5.14 250 13:38 05.08.2022
2340 Rain 14 1004 90 10000 4.12 230 13:18 05.08.2022
2341 Rain 15 1004 89 10000 3.09 220 11:55 05.08.2022
2342 Clouds 16 1004 85 10000 0.45 240 09:18 05.08.2022
2343 Clouds 16 1004 86 10000 2.06 130 07:57 05.08.2022
2344 Rain 19 1005 65 9656 6.17 230 04:48 05.08.2022
2345 Clouds 23 1008 51 10000 3.6 110 23:49 04.08.2022
2346 Clouds 20 1009 56 10000 2.06 100 21:37 04.08.2022
2347 Clouds 20 1009 57 10000 2.06 100 21:18 04.08.2022
2348 Clouds 18 1011 63 10000 1.54 90 20:38 04.08.2022
2349 Clear 12 1011 75 10000 0 0 19:00 04.08.2022
2350 Clear 14 1011 73 10000 1.54 80 18:34 04.08.2022
2351 Clear 12 1011 78 10000 1.54 90 16:54 04.08.2022
2352 Clear 10 997 85 10000 2.06 40 13:34 04.08.2022
2353 Clear 12 1012 83 10000 1.54 140 11:42 04.08.2022
2354 Clear 14 1012 75 10000 2.06 50 10:24 04.08.2022
2355 Clear 19 1012 53 10000 3.09 230 07:50 04.08.2022
2356 Clouds 23 1013 40 10000 2.57 300 03:33 04.08.2022
2357 Clouds 22 1014 44 10000 2.57 250 01:42 04.08.2022
2358 Clouds 20 1015 64 10000 2.06 170 23:41 03.08.2022
2359 Clouds 18 1015 78 10000 0.89 9 21:39 03.08.2022
2360 Clouds 15 1016 88 10000 2.57 30 20:22 03.08.2022
2361 Clouds 15 1016 90 10000 2.57 30 19:28 03.08.2022
2362 Clouds 14 1016 94 10000 0.45 248 17:41 03.08.2022
2363 Mist 13 1015 92 9656 0 0 16:24 03.08.2022
2364 Clouds 13 1015 91 10000 0 0 14:25 03.08.2022
2365 Clouds 15 1014 88 10000 2.57 260 11:47 03.08.2022
2366 Clouds 16 1012 86 10000 1.82 261 07:55 03.08.2022
2367 Clouds 18 1011 80 10000 1.54 350 04:46 03.08.2022
2368 Rain 19 1011 72 10000 4.63 270 03:26 03.08.2022
2369 Rain 19 1010 77 6437 5.66 240 01:18 03.08.2022
2370 Clouds 18 1011 76 10000 2.57 240 22:53 02.08.2022
2371 Clouds 17 1011 87 10000 2.57 270 21:53 02.08.2022
2372 Clouds 16 1010 92 10000 1.54 270 20:58 02.08.2022
2373 Rain 15 1009 93 10000 1.54 270 18:48 02.08.2022
2374 Clouds 13 1009 94 10000 1.54 270 16:22 02.08.2022
2375 Rain 14 1007 93 10000 0 0 12:34 02.08.2022
2376 Clouds 15 1006 90 10000 2.06 330 09:34 02.08.2022
2377 Rain 15 1005 90 10000 4.63 320 07:54 02.08.2022
2378 Thunderstorm 15 1005 85 10000 8.75 60 06:43 02.08.2022
2379 Rain 21 1004 57 9656 6.69 70 04:55 02.08.2022
2380 Clouds 21 1006 55 10000 3.09 90 23:52 01.08.2022
2381 Clouds 20 1006 64 10000 3.09 70 22:36 01.08.2022
2382 Clouds 18 1007 75 10000 4.63 80 20:53 01.08.2022
2383 Clouds 16 1007 81 10000 1.54 60 19:32 01.08.2022
2384 Clouds 14 1008 87 10000 2.57 40 18:42 01.08.2022
2385 Clouds 14 1008 87 10000 2.57 40 18:42 01.08.2022
2386 Clear 12 1009 93 10000 2.06 80 16:54 01.08.2022
2387 Clear 12 1010 93 10000 2.06 80 16:28 01.08.2022
2388 Clouds 12 1010 94 10000 0.45 79 15:30 01.08.2022
2389 Clear 12 1011 93 10000 2.06 80 14:43 01.08.2022
2390 Clouds 14 1012 89 10000 2.57 80 12:51 01.08.2022
2391 Rain 15 1013 87 10000 0.45 107 10:22 01.08.2022
2392 Clouds 17 1013 75 10000 2.06 160 08:39 01.08.2022
2393 Clouds 18 1012 70 10000 3.6 220 06:21 01.08.2022
2394 Clouds 19 1013 74 10000 2.06 0 04:20 01.08.2022
2395 Clouds 17 1013 85 10000 2.06 70 00:49 01.08.2022
2396 Clouds 14 1013 92 10000 0 0 22:41 31.07.2022
2397 Rain 14 1013 93 10000 0 0 21:33 31.07.2022
2398 Rain 13 1012 95 10000 0 0 19:58 31.07.2022
2399 Rain 13 1012 93 9656 1.54 70 18:36 31.07.2022
2400 Rain 13 1012 91 10000 0 0 15:54 31.07.2022
2401 Rain 15 1011 84 10000 2.57 250 13:51 31.07.2022
2402 Rain 15 1011 80 10000 2.06 220 12:28 31.07.2022
2403 Clouds 17 1010 72 10000 3.6 310 10:22 31.07.2022
2404 Rain 19 1009 63 10000 5.66 250 08:18 31.07.2022
2405 Clouds 24 1007 39 10000 3.09 280 03:49 31.07.2022
2406 Clouds 22 1008 39 10000 1.54 170 23:53 30.07.2022
2407 Clear 20 1009 49 10000 1.54 280 22:19 30.07.2022
2408 Clear 20 1009 49 10000 1.54 280 22:19 30.07.2022
2409 Clear 19 1009 52 10000 0.45 131 21:50 30.07.2022
2410 Clouds 18 1009 57 10000 0.45 97 20:58 30.07.2022
2411 Clouds 16 1009 60 10000 0.65 83 19:59 30.07.2022
2412 Clouds 16 1009 61 10000 2.57 80 19:20 30.07.2022
2413 Clouds 14 1009 63 10000 0 0 17:45 30.07.2022
2414 Clouds 11 1011 74 10000 1.54 30 15:55 30.07.2022
2415 Clouds 11 1011 72 10000 1.54 30 15:25 30.07.2022
2416 Clouds 11 1011 72 10000 3.6 80 13:21 30.07.2022
2417 Clear 12 1011 69 10000 2.06 30 12:20 30.07.2022
2418 Clouds 14 1011 66 10000 1.54 30 10:36 30.07.2022
2419 Clouds 15 1011 62 10000 0 0 09:57 30.07.2022
2420 Clouds 19 1011 46 10000 1.54 10 07:55 30.07.2022
2421 Clouds 19 1011 46 10000 1.54 10 07:55 30.07.2022
2422 Clouds 22 1012 36 10000 1.54 100 05:29 30.07.2022
2423 Clear 22 1014 35 10000 3.09 100 02:31 30.07.2022
2424 Clouds 19 1015 49 10000 2.06 120 22:54 29.07.2022
2425 Clouds 17 1016 58 10000 3.09 0 21:28 29.07.2022
2426 Clouds 15 1017 61 10000 2.06 90 20:50 29.07.2022
2427 Clear 9 997 83 10000 2.06 90 18:27 29.07.2022
2428 Clear 5 1018 90 10000 2.57 80 16:32 29.07.2022
2429 Clear 6 1018 86 10000 1.54 30 13:46 29.07.2022
2430 Clear 8 1018 84 10000 1.54 80 11:33 29.07.2022
2431 Clouds 15 1017 58 10000 2.57 310 08:51 29.07.2022
2432 Clouds 15 1017 61 10000 2.57 310 08:20 29.07.2022
2433 Rain 18 1019 50 10000 3.6 250 02:52 29.07.2022
2434 Clouds 15 1019 60 10000 3.09 240 23:20 28.07.2022
2435 Clouds 14 1020 65 10000 0.45 186 21:30 28.07.2022
2436 Clouds 12 1021 70 10000 0.45 207 20:50 28.07.2022
2437 Clouds 11 1021 77 10000 3.03 240 19:58 28.07.2022
2438 Clouds 9 1021 81 10000 1.54 80 19:26 28.07.2022
2439 Clouds 7 1021 86 10000 1.54 40 17:45 28.07.2022
2440 Clouds 6 1021 87 10000 1.54 40 17:19 28.07.2022
2441 Clouds 6 1021 87 10000 2.57 80 16:39 28.07.2022
2442 Clear 6 1021 84 10000 1.54 170 13:47 28.07.2022
2443 Clear 9 1021 76 10000 0.45 281 11:43 28.07.2022
2444 Clouds 14 1020 56 10000 5.66 270 07:33 28.07.2022
2445 Clouds 15 1020 60 10000 6.17 230 05:37 28.07.2022
2446 Clouds 15 1020 59 10000 5.66 270 05:18 28.07.2022
2447 Rain 14 1021 72 10000 4.12 230 23:19 27.07.2022
2448 Rain 11 1022 84 10000 3.6 260 21:30 27.07.2022
2449 Rain 9 1022 85 9656 2.06 180 19:46 27.07.2022
2450 Rain 9 1022 81 10000 2.06 70 18:49 27.07.2022
2451 Clouds 8 1022 84 10000 0 0 16:31 27.07.2022
2452 Clouds 7 1023 85 10000 2.57 70 15:41 27.07.2022
2453 Clouds 7 1022 84 10000 2.06 70 14:41 27.07.2022
2454 Clouds 6 1022 85 10000 0 0 13:34 27.07.2022
2455 Clouds 12 1021 60 10000 4.12 240 09:28 27.07.2022
2456 Clouds 14 1021 54 10000 7.2 250 07:40 27.07.2022
2457 Clouds 14 1021 63 10000 5.66 250 03:57 27.07.2022
2458 Clouds 14 1018 54 10000 7.2 230 22:49 26.07.2022
2459 Clouds 13 1018 56 10000 8.23 240 21:36 26.07.2022
2460 Clouds 12 1018 61 10000 7.72 250 20:49 26.07.2022
2461 Clouds 11 1017 65 10000 6.17 240 19:20 26.07.2022
2462 Clouds 11 1017 67 10000 8.75 230 18:39 26.07.2022
2463 Clouds 10 1016 70 10000 7.2 240 17:46 26.07.2022
2464 Clouds 10 1015 77 10000 5.66 230 15:43 26.07.2022
2465 Clouds 10 1014 80 10000 4.63 230 14:38 26.07.2022
2466 Rain 11 1011 80 10000 6.69 230 12:25 26.07.2022
2467 Clouds 13 1007 74 10000 7.72 260 09:59 26.07.2022
2468 Clouds 16 1005 68 10000 8.23 280 08:23 26.07.2022
2469 Clouds 23 999 50 10000 6.17 130 01:52 26.07.2022
2470 Clouds 22 999 54 10000 5.14 120 00:19 26.07.2022
2471 Clouds 21 999 56 10000 3.6 90 22:40 25.07.2022
2472 Clouds 20 1000 57 10000 4.63 80 21:43 25.07.2022
2473 Clouds 20 1000 58 10000 4.12 80 20:43 25.07.2022
2474 Clouds 20 1000 58 10000 4.12 80 20:23 25.07.2022
2475 Clouds 19 1001 60 10000 3.6 70 19:24 25.07.2022
2476 Clouds 15 1002 67 10000 2.06 50 17:37 25.07.2022
2477 Clouds 14 1002 67 10000 0.89 245 16:44 25.07.2022
2478 Clouds 13 1003 65 10000 2.57 80 13:22 25.07.2022
2479 Clouds 15 1003 59 10000 3.09 70 10:48 25.07.2022
2480 Clear 20 1003 44 10000 2.06 80 07:32 25.07.2022
2481 Clear 21 1008 37 10000 1.34 246 00:57 25.07.2022
2482 Clear 21 1008 42 10000 2.06 180 23:45 24.07.2022
2483 Clear 20 1009 45 10000 1.34 262 22:44 24.07.2022
2484 Clouds 18 1008 50 10000 1.34 283 21:41 24.07.2022
2485 Clouds 18 1010 53 10000 1.32 130 20:58 24.07.2022
2486 Clear 16 1009 60 10000 1.54 0 20:37 24.07.2022
2487 Clouds 14 1009 65 10000 2.57 80 19:20 24.07.2022
2488 Clouds 10 1009 78 10000 2.06 50 17:57 24.07.2022
2489 Haze 8 1010 81 9656 1.54 80 15:55 24.07.2022
2490 Haze 8 1010 80 1207 2.57 80 14:47 24.07.2022
2491 Haze 9 1009 77 1006 2.57 50 13:47 24.07.2022
2492 Haze 10 1009 74 1207 2.06 70 12:28 24.07.2022
2493 Haze 11 1010 75 2615 2.57 100 11:30 24.07.2022
2494 Haze 14 1009 66 2615 2.06 100 09:48 24.07.2022
2495 Haze 16 1009 48 1609 2.06 120 07:57 24.07.2022
2496 Haze 17 1009 51 1408 1.54 120 07:31 24.07.2022
2497 Rain 19 1011 42 10000 3.6 130 03:18 24.07.2022
2498 Clouds 17 1013 52 10000 2.57 0 23:25 23.07.2022
2499 Clear 13 1013 73 10000 2.06 50 20:47 23.07.2022
2500 Mist 11 1013 88 9656 2.57 80 19:29 23.07.2022
2501 Mist 9 1013 90 4828 2.06 70 18:36 23.07.2022
2502 Mist 8 1013 92 2012 2.57 140 17:27 23.07.2022
2503 Clear 7 1012 92 10000 1.54 360 16:24 23.07.2022
2504 Clear 7 1012 91 10000 1.54 210 15:22 23.07.2022
2505 Clear 8 1012 91 10000 0.45 294 14:55 23.07.2022
2506 Clear 8 1012 90 10000 2.06 190 14:23 23.07.2022
2507 Clouds 10 1011 88 10000 1.95 246 11:56 23.07.2022
2508 Rain 11 1011 85 10000 5.14 230 10:44 23.07.2022
2509 Clouds 11 1010 92 10000 2.93 243 09:53 23.07.2022
2510 Clouds 13 1009 83 10000 5.14 220 08:24 23.07.2022
2511 Clouds 16 1007 62 10000 4.12 220 03:38 23.07.2022
2512 Clouds 15 1007 66 10000 4.12 200 00:39 23.07.2022
2513 Clouds 13 1007 78 10000 2.57 200 21:38 22.07.2022
2514 Clouds 12 1007 81 10000 3.09 190 20:33 22.07.2022
2515 Clouds 11 1007 88 10000 3.09 200 18:57 22.07.2022
2516 Clouds 10 1007 90 10000 2.57 190 17:52 22.07.2022
2517 Clouds 10 1006 91 10000 3.09 190 16:31 22.07.2022
2518 Clouds 12 1005 85 10000 2.57 200 13:50 22.07.2022
2519 Rain 14 1004 82 10000 1.54 260 10:40 22.07.2022
2520 Clouds 14 1003 80 10000 0.45 304 09:25 22.07.2022
2521 Rain 15 1003 73 10000 2.06 10 08:26 22.07.2022
2522 Rain 18 1004 60 10000 4.12 90 04:26 22.07.2022
2523 Clouds 17 1005 60 10000 1.54 150 23:45 21.07.2022
2524 Clouds 16 1004 67 10000 0 0 22:20 21.07.2022
2525 Clouds 15 1004 66 10000 3.09 130 20:36 21.07.2022
2526 Clouds 13 1003 73 10000 1.52 108 18:54 21.07.2022
2527 Clouds 12 1003 75 10000 0.45 67 17:29 21.07.2022
2528 Clouds 11 1003 79 10000 0.45 299 16:53 21.07.2022
2529 Clouds 11 1003 78 10000 0 0 14:52 21.07.2022
2530 Clouds 11 1003 77 10000 0 0 14:22 21.07.2022
2531 Clouds 12 1001 73 10000 2.06 260 12:27 21.07.2022
2532 Clouds 14 1002 72 10000 1.54 60 10:39 21.07.2022
2533 Clouds 15 1002 68 10000 0.89 226 08:54 21.07.2022
2534 Clouds 16 1002 65 10000 1.54 110 08:35 21.07.2022
2535 Clouds 17 1002 59 10000 1.54 160 07:23 21.07.2022
2536 Clouds 19 1004 49 10000 1.34 203 03:55 21.07.2022
2537 Clouds 18 1008 59 10000 3.6 110 23:26 20.07.2022
2538 Clouds 17 1009 64 10000 4.12 80 22:21 20.07.2022
2539 Clouds 14 1009 78 10000 2.06 90 20:50 20.07.2022
2540 Clouds 13 1009 82 10000 1.54 0 19:49 20.07.2022
2541 Clouds 12 1009 84 10000 1.54 0 19:20 20.07.2022
2542 Clouds 11 1010 88 10000 2.06 60 18:33 20.07.2022
2543 Clouds 10 1010 92 10000 0.26 178 17:54 20.07.2022
2544 Clouds 9 1010 92 10000 0.45 214 16:19 20.07.2022
2545 Clouds 9 1009 92 10000 0.45 214 14:57 20.07.2022
2546 Clouds 9 1009 92 10000 0.45 214 13:57 20.07.2022
2547 Clouds 10 1009 91 10000 0.45 214 11:32 20.07.2022
2548 Clouds 13 1008 84 10000 2.06 110 07:50 20.07.2022
2549 Rain 12 1009 87 10000 2.57 180 02:45 20.07.2022
2550 Rain 12 1008 86 10000 4.63 170 00:46 20.07.2022
2551 Clouds 12 1008 80 10000 3.09 180 23:37 19.07.2022
2552 Clouds 12 1009 81 10000 3.09 200 22:22 19.07.2022
2553 Clouds 12 1007 84 10000 2.06 210 21:18 19.07.2022
2554 Clouds 11 1007 86 10000 2.57 220 20:23 19.07.2022
2555 Rain 10 1006 92 9656 5.66 250 18:43 19.07.2022
2556 Rain 10 1006 92 6437 4.63 260 17:57 19.07.2022
2557 Rain 10 1003 92 6437 2.06 0 16:26 19.07.2022
2558 Rain 11 1002 85 10000 2.57 80 14:31 19.07.2022
2559 Clouds 12 1003 83 10000 2.57 40 11:35 19.07.2022
2560 Rain 13 1004 84 10000 2.57 60 10:31 19.07.2022
2561 Clouds 14 1004 79 10000 3.09 150 08:48 19.07.2022
2562 Clouds 14 1005 78 10000 3.09 150 08:22 19.07.2022
2563 Clouds 15 1005 74 10000 4.63 160 07:18 19.07.2022
2564 Clouds 17 1005 62 10000 4.63 200 05:26 19.07.2022
2565 Clouds 17 1005 64 10000 3.6 220 04:46 19.07.2022
2566 Clouds 15 1004 73 10000 6.17 240 00:35 19.07.2022
2567 Rain 15 1003 77 10000 6.17 230 23:31 18.07.2022
2568 Clouds 15 1003 78 10000 5.14 230 22:58 18.07.2022
2569 Clouds 15 1002 77 10000 5.66 230 21:58 18.07.2022
2570 Rain 13 1002 91 10000 4.12 220 20:50 18.07.2022
2571 Rain 13 1001 90 10000 6.17 220 19:25 18.07.2022
2572 Rain 12 999 89 10000 2.06 200 17:22 18.07.2022
2573 Rain 12 999 86 9656 3.09 200 15:51 18.07.2022
2574 Clouds 12 998 84 10000 0 0 14:30 18.07.2022
2575 Clouds 13 997 80 10000 2.06 230 12:45 18.07.2022
2576 Rain 13 996 82 10000 2.06 220 11:29 18.07.2022
2577 Clouds 15 995 71 10000 0 0 08:54 18.07.2022
2578 Clouds 16 994 69 10000 2.06 20 07:28 18.07.2022
2579 Clouds 20 995 48 10000 4.12 270 01:24 18.07.2022
2580 Rain 17 994 63 10000 0.45 28 22:42 17.07.2022
2581 Clouds 16 994 66 10000 0 0 21:57 17.07.2022
2582 Clouds 16 994 65 10000 0 0 21:21 17.07.2022
2583 Clouds 16 995 68 10000 2.57 30 20:44 17.07.2022
2584 Rain 14 994 78 10000 2.06 360 19:32 17.07.2022
2585 Rain 13 995 80 10000 2.06 30 18:30 17.07.2022
2586 Rain 13 995 78 10000 2.06 50 17:38 17.07.2022
2587 Clouds 13 995 77 10000 1.54 80 16:51 17.07.2022
2588 Clouds 13 995 77 10000 1.54 80 16:51 17.07.2022
2589 Rain 13 995 77 10000 2.57 70 16:26 17.07.2022
2590 Clouds 13 995 78 10000 2.06 70 14:44 17.07.2022
2591 Clouds 13 996 80 10000 2.06 80 13:31 17.07.2022
2592 Clouds 14 996 82 10000 0.45 55 11:41 17.07.2022
2593 Clouds 16 997 77 10000 2.06 30 09:24 17.07.2022
2594 Clouds 19 999 72 10000 2.06 50 05:25 17.07.2022
2595 Clouds 18 999 70 10000 1.54 80 02:33 17.07.2022
2596 Clouds 16 1001 77 10000 1.54 230 23:21 16.07.2022
2597 Clouds 14 1001 84 10000 3.6 200 21:32 16.07.2022
2598 Rain 13 1001 91 9656 3.6 210 19:53 16.07.2022
2599 Rain 12 1002 94 10000 2.57 170 18:35 16.07.2022
2600 Rain 11 1002 93 10000 2.06 160 17:19 16.07.2022
2601 Clouds 11 1002 92 10000 2.06 170 14:31 16.07.2022
2602 Clouds 11 999 92 10000 3.6 210 11:38 16.07.2022
2603 Rain 12 1002 93 6437 5.66 230 09:35 16.07.2022
2604 Rain 13 1001 92 8047 4.63 200 08:47 16.07.2022
2605 Rain 13 1001 92 8047 4.63 200 08:29 16.07.2022
2606 Rain 16 1001 74 8047 2.57 90 04:24 16.07.2022
2607 Rain 20 1001 53 9656 1.54 150 03:29 16.07.2022
2608 Clouds 20 1003 42 10000 4.12 90 23:38 15.07.2022
2609 Clear 20 1004 42 10000 3.6 90 22:41 15.07.2022
2610 Clear 18 1005 50 10000 3.6 80 21:29 15.07.2022
2611 Clear 17 1005 52 10000 3.6 70 20:31 15.07.2022
2612 Clouds 13 1006 66 10000 2.06 60 18:44 15.07.2022
2613 Clouds 12 1007 66 10000 2.06 70 17:48 15.07.2022
2614 Clouds 9 1008 74 10000 2.57 90 14:57 15.07.2022
2615 Smoke 11 1008 68 10000 3.09 90 13:20 15.07.2022
2616 Smoke 11 1008 72 10000 1.54 70 11:45 15.07.2022
2617 Smoke 13 1008 66 10000 0.89 309 10:27 15.07.2022
2618 Clouds 20 1008 36 10000 2.06 0 06:30 15.07.2022
2619 Smoke 19 1008 35 10000 5.14 330 01:32 15.07.2022
2620 Smoke 19 1008 33 10000 5.66 310 00:37 15.07.2022
2621 Clear 18 1007 39 10000 4.12 300 22:53 14.07.2022
2622 Clear 17 1008 44 10000 2.57 280 21:54 14.07.2022
2623 Smoke 17 1008 42 10000 2.57 280 21:30 14.07.2022
2624 Smoke 16 1009 47 10000 3.09 310 20:45 14.07.2022
2625 Smoke 15 1009 44 10000 3.09 310 20:26 14.07.2022
2626 Clouds 15 1008 51 10000 3.26 256 19:58 14.07.2022
2627 Smoke 9 1007 77 10000 1.54 320 16:23 14.07.2022
2628 Clear 9 1006 77 10000 0.45 286 15:54 14.07.2022
2629 Clouds 9 1006 80 10000 0.45 290 14:44 14.07.2022
2630 Clouds 9 1006 81 10000 0.89 255 13:32 14.07.2022
2631 Clouds 10 1006 81 10000 2.57 60 12:18 14.07.2022
2632 Smoke 12 1005 78 10000 2.57 10 11:25 14.07.2022
2633 Smoke 13 1005 76 10000 0.45 298 10:39 14.07.2022
2634 Rain 16 1005 64 10000 3.09 240 08:21 14.07.2022
2635 Smoke 18 1003 54 10000 4.63 270 03:36 14.07.2022
2636 Clouds 18 1003 62 10000 1.34 236 00:54 14.07.2022
2637 Smoke 17 1004 63 10000 3.6 220 23:38 13.07.2022
2638 Smoke 15 1003 76 10000 2.57 250 22:26 13.07.2022
2639 Smoke 14 1003 80 10000 3.6 240 21:30 13.07.2022
2640 Smoke 14 1003 86 10000 3.09 200 20:26 13.07.2022
2641 Clouds 13 1002 92 10000 2.27 241 17:56 13.07.2022
2642 Rain 14 1002 92 6437 4.12 220 16:59 13.07.2022
2643 Rain 15 1002 84 8047 3.6 290 15:51 13.07.2022
2644 Smoke 16 1000 83 8047 1.54 130 13:44 13.07.2022
2645 Smoke 18 1000 74 4828 1.54 150 10:47 13.07.2022
2646 Smoke 19 1000 68 4828 1.54 150 10:28 13.07.2022
2647 Smoke 20 1000 62 4828 2.06 220 09:28 13.07.2022
2648 Smoke 23 999 47 8047 3.6 180 07:53 13.07.2022
2649 Smoke 25 1001 48 6437 2.57 210 03:34 13.07.2022
2650 Smoke 23 1003 59 4828 3.09 200 00:25 13.07.2022
2651 Mist 21 1003 70 4828 1.54 0 22:28 12.07.2022
2652 Smoke 20 1004 80 4828 1.54 0 21:45 12.07.2022
2653 Smoke 18 1004 88 4828 0 0 20:44 12.07.2022
2654 Smoke 18 1004 88 8047 0 0 19:45 12.07.2022
2655 Mist 17 1004 91 8047 0 0 18:35 12.07.2022
2656 Mist 15 1003 93 4828 2.06 50 16:24 12.07.2022
2657 Mist 15 1004 94 4023 2.06 90 14:31 12.07.2022
2658 Mist 16 1004 94 4023 1.54 90 13:34 12.07.2022
2659 Mist 17 1004 92 4023 1.54 70 11:54 12.07.2022
2660 Mist 17 1004 90 4023 0.45 207 10:26 12.07.2022
2661 Mist 18 1004 89 6437 3.09 90 08:46 12.07.2022
2662 Mist 19 1004 88 6437 3.09 50 07:48 12.07.2022
2663 Smoke 23 1004 61 4023 4.63 70 05:45 12.07.2022
2664 Clear 24 1003 61 4023 3.6 240 04:46 12.07.2022
2665 Mist 19 1006 78 3219 0 0 00:54 12.07.2022
2666 Mist 16 1007 91 2816 2.06 190 22:43 11.07.2022
2667 Mist 16 1007 94 3219 1.54 140 20:56 11.07.2022
2668 Mist 16 1007 91 3219 1.54 140 20:32 11.07.2022
2669 Mist 17 1007 91 3219 1.54 140 20:32 11.07.2022
2670 Mist 15 1006 95 4023 0 0 18:50 11.07.2022
2671 Mist 15 1006 96 4023 0 0 18:28 11.07.2022
2672 Fog 14 1006 95 604 1.54 50 16:26 11.07.2022
2673 Mist 14 1006 95 1006 2.06 90 15:28 11.07.2022
2674 Smoke 14 1006 95 10000 1.54 40 13:19 11.07.2022
2675 Smoke 15 1006 93 10000 0 0 11:23 11.07.2022
2676 Clear 16 1006 90 10000 2.06 120 09:55 11.07.2022
2677 Smoke 17 1006 88 10000 2.57 110 09:27 11.07.2022
2678 Smoke 18 1006 87 10000 4.12 270 08:31 11.07.2022
2679 Smoke 22 1007 66 10000 3.09 0 00:59 11.07.2022
2680 Clouds 21 1007 79 10000 0.45 150 23:54 10.07.2022
2681 Smoke 18 1008 86 10000 0.45 146 22:45 10.07.2022
2682 Smoke 17 1008 92 10000 2.57 180 20:56 10.07.2022
2683 Smoke 17 1008 92 10000 0 0 20:36 10.07.2022
2684 Smoke 16 1008 93 10000 1.54 30 19:30 10.07.2022
2685 Smoke 16 1008 93 10000 1.54 30 19:30 10.07.2022
2686 Smoke 16 1008 94 10000 0 0 18:25 10.07.2022
2687 Smoke 15 1008 93 2414 3.09 80 17:33 10.07.2022
2688 Smoke 15 1008 94 10000 0 0 16:21 10.07.2022
2689 Mist 16 1008 94 2615 2.06 60 14:47 10.07.2022
2690 Mist 16 1008 93 8047 2.57 80 13:30 10.07.2022
2691 Rain 17 1009 90 10000 1.54 340 11:57 10.07.2022
2692 Haze 18 1008 77 6437 2.06 80 09:46 10.07.2022
2693 Haze 19 1008 75 6437 1.54 140 08:44 10.07.2022
2694 Haze 20 1008 71 3621 2.57 210 07:20 10.07.2022
2695 Clouds 26 1006 42 10000 2.75 204 23:58 09.07.2022
2696 Smoke 21 1009 61 10000 4.12 140 22:27 09.07.2022
2697 Smoke 21 1008 60 10000 3.09 150 21:49 09.07.2022
2698 Smoke 17 1009 63 10000 2.06 90 19:57 09.07.2022
2699 Haze 18 1007 70 9656 2.06 70 18:32 09.07.2022
2700 Smoke 17 1007 71 10000 0 0 17:32 09.07.2022
2701 Haze 17 1007 70 9656 2.57 80 16:40 09.07.2022
2702 Haze 16 1007 70 8047 0.45 216 15:39 09.07.2022
2703 Haze 17 1007 67 8047 2.06 130 14:24 09.07.2022
2704 Smoke 17 1007 67 10000 3.09 70 13:49 09.07.2022
2705 Smoke 17 1006 68 10000 3.09 30 12:43 09.07.2022
2706 Smoke 19 1006 62 10000 3.09 80 11:19 09.07.2022
2707 Smoke 21 1006 53 10000 0.45 216 10:22 09.07.2022
2708 Smoke 24 1005 43 10000 0.45 202 07:45 09.07.2022
2709 Smoke 28 1004 35 6437 1.54 50 04:53 09.07.2022
2710 Clouds 26 1005 43 10000 0.89 99 00:59 09.07.2022
2711 Haze 23 1007 52 9656 2.57 110 22:53 08.07.2022
2712 Haze 22 1007 58 9656 2.06 100 21:34 08.07.2022
2713 Haze 20 1007 63 9656 2.06 50 20:40 08.07.2022
2714 Haze 19 1007 65 9656 2.57 60 19:48 08.07.2022
2715 Smoke 17 1007 70 10000 2.57 90 18:20 08.07.2022
2716 Smoke 15 1006 73 10000 2.57 70 16:39 08.07.2022
2717 Smoke 14 1005 76 10000 0 0 14:51 08.07.2022
2718 Smoke 16 1005 67 10000 3.6 250 13:26 08.07.2022
2719 Smoke 18 1005 54 10000 2.06 300 11:28 08.07.2022
2720 Smoke 20 1004 49 10000 3.6 280 10:27 08.07.2022
2721 Smoke 24 1002 51 9656 2.06 230 08:26 08.07.2022
2722 Smoke 26 1002 43 9656 1.54 130 06:47 08.07.2022
2723 Smoke 24 1003 46 3219 0 0 01:19 08.07.2022
2724 Smoke 20 1006 60 3219 2.57 90 22:57 07.07.2022
2725 Smoke 21 1005 63 3219 2.57 90 22:27 07.07.2022
2726 Smoke 18 1005 81 3219 2.06 90 19:53 07.07.2022
2727 Smoke 16 1005 83 3219 2.57 60 18:18 07.07.2022
2728 Smoke 15 1005 84 6437 1.54 70 16:46 07.07.2022
2729 Smoke 16 1004 80 4828 2.06 210 14:32 07.07.2022
2730 Smoke 18 1005 66 2414 4.12 270 12:53 07.07.2022
2731 Smoke 18 1005 65 2816 4.12 270 12:23 07.07.2022
2732 Smoke 20 1004 62 3219 5.66 240 11:35 07.07.2022
2733 Smoke 21 1004 56 4023 5.14 260 10:47 07.07.2022
2734 Smoke 21 1004 56 4023 5.14 260 10:29 07.07.2022
2735 Smoke 22 1002 53 4023 5.14 240 09:52 07.07.2022
2736 Smoke 28 1002 44 4828 2.06 260 06:32 07.07.2022
2737 Clear 28 1005 44 10000 1.69 175 00:32 07.07.2022
2738 Clear 27 1006 41 10000 1.68 150 23:36 06.07.2022
2739 Clear 26 1006 49 10000 1.24 132 23:18 06.07.2022
2740 Smoke 24 1007 54 4828 1.54 110 22:52 06.07.2022
2741 Smoke 24 1007 54 4828 1.54 110 22:33 06.07.2022
2742 Smoke 21 1008 72 8047 2.57 90 20:30 06.07.2022
2743 Smoke 21 1009 71 8047 2.57 90 20:30 06.07.2022
2744 Smoke 18 1008 77 8047 0 0 19:32 06.07.2022
2745 Smoke 15 1009 87 4426 1.54 80 17:22 06.07.2022
2746 Smoke 14 1010 88 4828 1.54 90 15:58 06.07.2022
2747 Smoke 16 1010 84 4828 0 0 12:57 06.07.2022
2748 Smoke 16 1009 84 4828 1.54 50 12:28 06.07.2022
2749 Smoke 17 1010 82 4828 1.54 50 11:44 06.07.2022
2750 Smoke 19 1010 72 10000 1.54 40 09:50 06.07.2022
2751 Smoke 22 1009 65 10000 2.06 0 07:44 06.07.2022
2752 Smoke 24 1009 62 10000 2.57 180 06:49 06.07.2022
2753 Smoke 25 1013 55 2816 2.57 210 00:38 06.07.2022
2754 Smoke 23 1013 64 10000 2.06 0 22:43 05.07.2022
2755 Smoke 19 1014 78 2816 0 0 20:57 05.07.2022
2756 Smoke 19 1014 79 2816 1.54 260 20:33 05.07.2022
2757 Smoke 18 1014 82 2816 2.06 180 19:39 05.07.2022
2758 Clear 16 1014 87 10000 2.57 80 17:55 05.07.2022
2759 Smoke 16 1013 88 10000 2.57 80 17:25 05.07.2022
2760 Mist 15 1013 89 6437 2.06 70 16:33 05.07.2022
2761 Haze 16 1013 86 4023 2.06 230 14:55 05.07.2022
2762 Haze 16 1013 80 6437 3.09 180 13:36 05.07.2022
2763 Haze 18 1013 76 6437 1.54 350 12:26 05.07.2022
2764 Haze 22 1012 55 4426 5.14 300 10:46 05.07.2022
2765 Haze 23 1012 58 4426 9.77 280 09:58 05.07.2022
2766 Smoke 24 1010 55 10000 4.63 280 08:23 05.07.2022
2767 Clear 27 1009 48 10000 3.6 240 06:59 05.07.2022
2768 Smoke 28 1010 37 10000 2.57 210 04:37 05.07.2022
2769 Haze 26 1011 46 9656 0 0 01:33 05.07.2022
2770 Haze 25 1012 51 9656 0.45 149 23:38 04.07.2022
2771 Haze 24 1012 54 9656 0 0 22:57 04.07.2022
2772 Smoke 23 1012 60 6437 0 0 22:19 04.07.2022
2773 Clouds 21 1013 66 10000 1 220 20:57 04.07.2022
2774 Haze 20 1013 69 9656 2.06 70 20:36 04.07.2022
2775 Clouds 19 1013 72 10000 0.45 142 19:57 04.07.2022
2776 Smoke 19 1013 74 6437 1.54 0 19:37 04.07.2022
2777 Smoke 17 1013 79 10000 2.57 60 18:52 04.07.2022
2778 Clouds 15 1012 85 10000 0.95 190 16:58 04.07.2022
2779 Smoke 15 1012 82 10000 2.06 160 15:40 04.07.2022
2780 Smoke 15 1012 80 10000 0 0 14:19 04.07.2022
2781 Clear 17 1012 73 10000 3.6 300 12:55 04.07.2022
2782 Clouds 19 1012 69 10000 1.54 330 10:57 04.07.2022
2783 Smoke 19 1011 68 10000 1.54 40 10:27 04.07.2022
2784 Smoke 20 994 63 10000 1.54 290 09:23 04.07.2022
2785 Smoke 23 998 52 10000 5.66 360 06:28 04.07.2022
2786 Clear 29 1010 41 10000 0 0 02:59 04.07.2022
2787 Smoke 23 1013 56 1609 2.57 90 23:52 03.07.2022
2788 Smoke 22 1013 60 1609 2.06 120 22:36 03.07.2022
2789 Smoke 22 1013 58 3219 2.06 140 20:46 03.07.2022
2790 Smoke 21 1012 63 10000 2.57 100 19:52 03.07.2022
2791 Smoke 20 1012 66 10000 2.57 100 19:24 03.07.2022
2792 Smoke 19 1012 71 10000 3.6 60 18:27 03.07.2022
2793 Smoke 18 1012 75 6437 2.06 40 17:38 03.07.2022
2794 Smoke 15 1012 81 10000 0 0 15:27 03.07.2022
2795 Clear 15 1011 82 10000 0 0 14:53 03.07.2022
2796 Smoke 16 1011 79 10000 2.57 20 13:50 03.07.2022
2797 Smoke 17 1011 75 10000 2.06 50 12:47 03.07.2022
2798 Smoke 18 1011 71 4828 2.06 50 12:18 03.07.2022
2799 Haze 20 1011 71 9656 0 0 10:54 03.07.2022
2800 Haze 20 1011 70 9656 0 0 10:35 03.07.2022
2801 Clouds 25 1009 55 10000 2.16 360 07:38 03.07.2022
2802 Smoke 27 1010 43 10000 2.06 90 06:34 03.07.2022
2803 Smoke 25 1012 56 4828 2.06 0 00:38 03.07.2022
2804 Smoke 24 1013 57 6437 2.57 150 23:36 02.07.2022
2805 Smoke 22 1013 63 4828 2.57 110 22:31 02.07.2022
2806 Smoke 20 1014 73 4828 1.54 50 20:28 02.07.2022
2807 Smoke 19 1014 79 4828 0 0 19:49 02.07.2022
2808 Smoke 18 1013 78 4023 2.06 340 18:24 02.07.2022
2809 Mist 18 1013 82 9656 0 0 17:38 02.07.2022
2810 Smoke 17 1013 73 10000 2.06 120 15:56 02.07.2022
2811 Smoke 18 1012 67 10000 0 0 13:35 02.07.2022
2812 Smoke 20 1012 60 10000 2.57 20 11:48 02.07.2022
2813 Rain 21 1012 58 10000 2.06 100 10:50 02.07.2022
2814 Rain 23 1011 53 10000 3.6 100 09:49 02.07.2022
2815 Smoke 24 1011 50 3219 1.54 280 08:37 02.07.2022
2816 Smoke 25 1010 49 1609 1.54 310 08:19 02.07.2022
2817 Smoke 29 1012 35 9656 0 0 02:53 02.07.2022
2818 Smoke 27 1013 41 9656 0.45 225 00:28 02.07.2022
2819 Smoke 26 1014 41 8047 1.54 230 23:21 01.07.2022
2820 Smoke 25 1014 44 8047 0 0 22:29 01.07.2022
2821 Smoke 23 1014 52 8047 1.54 210 21:37 01.07.2022
2822 Clear 24 1013 33 10000 0.61 178 20:58 01.07.2022
2823 Smoke 22 1016 55 6437 0 0 20:20 01.07.2022
2824 Smoke 20 1015 62 6437 0 0 19:36 01.07.2022
2825 Smoke 16 1015 65 6437 2.06 60 16:42 01.07.2022
2826 Smoke 14 1015 74 6437 0 0 14:32 01.07.2022
2827 Smoke 14 1014 75 6437 1.54 90 13:39 01.07.2022
2828 Smoke 17 1015 66 6437 2.06 80 11:22 01.07.2022
2829 Smoke 19 1015 59 6437 1.54 20 10:19 01.07.2022
2830 Smoke 24 1015 47 6437 1.54 120 07:32 01.07.2022
2831 Smoke 26 1018 35 6437 0 0 02:43 01.07.2022
2832 Smoke 23 1019 44 3219 0 0 23:52 30.06.2022
2833 Smoke 22 1020 50 3219 2.06 120 22:51 30.06.2022
2834 Smoke 22 1020 50 3219 2.06 120 22:32 30.06.2022
2835 Smoke 20 1020 57 4828 1.54 120 21:54 30.06.2022
2836 Smoke 17 1021 59 4828 1.54 90 20:49 30.06.2022
2837 Smoke 18 1021 62 4828 1.54 90 20:21 30.06.2022
2838 Smoke 15 1021 67 4828 2.06 80 19:48 30.06.2022
2839 Smoke 15 1021 71 4828 1.54 110 18:54 30.06.2022
2840 Smoke 11 1021 76 4828 2.57 70 17:56 30.06.2022
2841 Smoke 13 1021 75 4828 2.57 70 17:34 30.06.2022
2842 Smoke 13 1019 75 4828 2.06 40 16:20 30.06.2022
2843 Smoke 11 1016 82 4828 2.57 70 14:20 30.06.2022
2844 Smoke 12 1016 79 4828 2.57 70 13:21 30.06.2022
2845 Smoke 13 1016 77 6437 1.54 80 12:34 30.06.2022
2846 Smoke 13 1016 77 6437 1.54 80 12:34 30.06.2022
2847 Smoke 16 1016 67 6437 0 0 10:57 30.06.2022
2848 Smoke 18 1015 63 8047 0.45 306 09:51 30.06.2022
2849 Smoke 19 1015 58 8047 0.45 306 09:26 30.06.2022
2850 Smoke 22 1014 44 6437 2.57 260 07:41 30.06.2022
2851 Smoke 24 1016 40 10000 3.6 250 05:46 30.06.2022
2852 Smoke 23 1016 45 4828 3.6 180 00:26 30.06.2022
2853 Smoke 22 1018 50 6437 2.06 200 22:53 29.06.2022
2854 Smoke 21 1018 50 6437 2.06 200 22:33 29.06.2022
2855 Smoke 18 1019 65 6437 0 0 20:56 29.06.2022
2856 Smoke 17 1019 68 6437 0 0 20:32 29.06.2022
2857 Smoke 16 1019 70 8047 0 0 19:33 29.06.2022
2858 Smoke 14 1017 73 8047 2.06 80 17:40 29.06.2022
2859 Smoke 14 1016 74 8047 2.06 60 16:31 29.06.2022
2860 Smoke 13 1016 75 8047 2.06 70 14:19 29.06.2022
2861 Smoke 15 1016 66 10000 2.57 360 12:38 29.06.2022
2862 Smoke 18 1015 61 9656 1.54 290 10:20 29.06.2022
2863 Smoke 19 1015 56 9656 2.06 280 09:31 29.06.2022
2864 Smoke 21 1015 49 9656 2.57 250 07:23 29.06.2022
2865 Smoke 22 1015 47 2012 5.14 290 04:48 29.06.2022
2866 Smoke 23 1016 44 1207 4.12 290 00:55 29.06.2022
2867 Smoke 23 1016 43 1207 4.12 290 00:35 29.06.2022
2868 Smoke 22 1018 47 2414 2.57 250 22:53 28.06.2022
2869 Smoke 22 1018 50 2414 2.57 250 22:21 28.06.2022
2870 Smoke 20 1018 60 2414 2.06 230 21:50 28.06.2022
2871 Smoke 20 1018 62 2414 2.06 230 21:30 28.06.2022
2872 Smoke 18 1018 68 2414 0 0 20:20 28.06.2022
2873 Smoke 17 1019 70 3219 1.54 140 19:32 28.06.2022
2874 Smoke 16 1019 73 3219 0 0 18:42 28.06.2022
2875 Smoke 15 1018 71 3219 0 0 17:37 28.06.2022
2876 Smoke 14 961 72 3219 0.45 198 15:56 28.06.2022
2877 Clear 15 966 70 10000 0.72 294 14:59 28.06.2022
2878 Smoke 15 945 70 3219 3.09 170 14:19 28.06.2022
2879 Smoke 14 1018 72 3219 2.06 130 13:47 28.06.2022
2880 Smoke 16 945 64 4023 3.09 0 12:48 28.06.2022
2881 Smoke 18 1018 60 4828 3.09 280 10:46 28.06.2022
2882 Smoke 20 1017 55 4828 3.09 290 09:25 28.06.2022
2883 Smoke 20 1017 54 4023 0 0 08:43 28.06.2022
2884 Smoke 23 1017 48 3621 3.09 260 07:20 28.06.2022
2885 Smoke 26 1017 32 8047 4.63 250 04:56 28.06.2022
2886 Smoke 24 1019 43 4828 2.06 180 23:56 27.06.2022
2887 Smoke 24 1019 45 4828 2.06 180 23:36 27.06.2022
2888 Smoke 22 1020 49 4828 2.06 230 22:50 27.06.2022
2889 Smoke 20 1020 57 10000 1.54 160 21:30 27.06.2022
2890 Smoke 18 1021 61 4828 0 0 20:38 27.06.2022
2891 Smoke 16 1021 72 4828 0 0 18:55 27.06.2022
2892 Smoke 15 1021 69 4828 0 0 17:45 27.06.2022
2893 Smoke 14 1020 75 4828 1.54 70 15:51 27.06.2022
2894 Smoke 13 1020 77 4023 2.57 70 14:26 27.06.2022
2895 Clouds 14 1020 77 10000 0.3 284 12:59 27.06.2022
2896 Smoke 14 1020 77 4828 1.54 60 12:36 27.06.2022
2897 Smoke 19 1019 63 10000 0 0 10:22 27.06.2022
2898 Smoke 23 1018 49 10000 1.54 310 08:43 27.06.2022
2899 Clear 24 1018 46 10000 2.06 340 07:53 27.06.2022
2900 Smoke 25 1018 42 10000 3.09 340 06:37 27.06.2022
2901 Clouds 26 1020 34 10000 3.09 230 01:26 27.06.2022
2902 Smoke 25 1020 34 10000 4.63 230 23:39 26.06.2022
2903 Smoke 23 1020 43 10000 1.54 240 21:51 26.06.2022
2904 Clear 21 1020 51 10000 1.54 120 20:34 26.06.2022
2905 Smoke 19 1021 59 10000 2.06 90 19:19 26.06.2022
2906 Smoke 18 1020 62 10000 3.6 60 18:23 26.06.2022
2907 Clear 16 1019 64 10000 0.45 323 15:53 26.06.2022
2908 Smoke 13 1009 79 10000 1.54 170 14:34 26.06.2022
2909 Smoke 13 1020 76 10000 1.54 70 13:29 26.06.2022
2910 Smoke 14 1020 74 10000 1.54 60 12:44 26.06.2022
2911 Smoke 17 1019 69 10000 0 0 10:53 26.06.2022
2912 Smoke 18 1019 63 10000 0.89 323 10:23 26.06.2022
2913 Smoke 22 1019 51 10000 1.54 320 08:45 26.06.2022
2914 Smoke 23 1019 44 10000 0.45 323 07:18 26.06.2022
2915 Smoke 25 1022 37 10000 0 0 00:45 26.06.2022
2916 Smoke 24 1022 36 10000 0.89 192 00:20 26.06.2022
2917 Smoke 24 1023 40 10000 0 0 23:33 25.06.2022
2918 Smoke 23 1024 44 10000 2.06 120 22:51 25.06.2022
2919 Smoke 22 1024 47 10000 2.06 120 22:25 25.06.2022
2920 Smoke 20 1025 49 10000 2.06 70 21:22 25.06.2022
2921 Clear 17 1025 59 10000 1.54 90 20:54 25.06.2022
2922 Smoke 18 1025 59 10000 1.54 90 20:25 25.06.2022
2923 Smoke 16 1025 65 10000 2.06 60 18:42 25.06.2022
2924 Smoke 15 1023 68 10000 2.57 70 17:28 25.06.2022
2925 Haze 13 1023 70 6437 2.06 60 16:31 25.06.2022
2926 Haze 13 1023 72 4828 1.54 60 14:47 25.06.2022
2927 Haze 14 1024 73 6437 1.54 30 12:51 25.06.2022
2928 Haze 14 1024 72 6437 1.54 30 12:32 25.06.2022
2929 Haze 18 1023 58 9656 0 0 09:40 25.06.2022
2930 Smoke 19 1022 54 1609 3.6 10 08:56 25.06.2022
2931 Smoke 20 1023 51 10000 3.6 10 08:28 25.06.2022
2932 Clear 22 1023 43 10000 1.54 170 06:46 25.06.2022
2933 Smoke 22 1024 43 10000 2.06 200 01:53 25.06.2022
2934 Smoke 21 1025 45 10000 3.09 210 00:20 25.06.2022
2935 Smoke 20 1026 52 10000 1.54 180 22:31 24.06.2022
2936 Smoke 18 1026 60 10000 1.54 140 21:29 24.06.2022
2937 Smoke 16 1027 67 10000 1.54 140 20:25 24.06.2022
2938 Smoke 15 1027 70 10000 1.54 70 19:43 24.06.2022
2939 Smoke 14 1027 70 10000 1.54 70 19:18 24.06.2022
2940 Smoke 13 1027 75 10000 2.06 80 18:46 24.06.2022
2941 Smoke 13 1028 75 10000 2.06 80 18:28 24.06.2022
2942 Smoke 10 1026 83 10000 2.06 60 16:52 24.06.2022
2943 Smoke 10 1026 81 10000 2.06 40 15:27 24.06.2022
2944 Smoke 10 1026 81 10000 2.57 70 14:25 24.06.2022
2945 Smoke 10 1026 82 10000 1.54 90 13:46 24.06.2022
2946 Smoke 12 1025 77 10000 0.45 288 11:42 24.06.2022
2947 Smoke 13 1025 73 10000 0.45 288 10:42 24.06.2022
2948 Smoke 15 1025 65 10000 0.45 288 09:42 24.06.2022
2949 Clouds 16 1024 63 10000 0.45 288 08:58 24.06.2022
2950 Smoke 17 1025 59 10000 2.57 260 08:40 24.06.2022
2951 Smoke 19 1024 49 10000 5.66 240 06:47 24.06.2022
2952 Smoke 19 1024 49 10000 5.66 240 06:27 24.06.2022
2953 Smoke 19 1024 48 10000 4.63 270 05:21 24.06.2022
2954 Smoke 18 1025 54 10000 5.66 250 00:47 24.06.2022
2955 Smoke 18 1026 56 10000 3.6 200 22:43 23.06.2022
2956 Smoke 17 1026 67 10000 3.09 0 21:43 23.06.2022
2957 Smoke 16 1026 75 10000 0 0 20:43 23.06.2022
2958 Clouds 14 1025 88 10000 2.06 70 19:57 23.06.2022
2959 Smoke 14 1025 83 10000 3.09 70 18:43 23.06.2022
2960 Smoke 14 1025 84 10000 2.06 90 17:37 23.06.2022
2961 Smoke 14 1024 81 9656 3.6 160 16:32 23.06.2022
2962 Rain 15 1024 71 6437 4.12 290 15:26 23.06.2022
2963 Rain 15 1023 66 6437 5.14 300 14:45 23.06.2022
2964 Smoke 16 1023 58 6437 4.12 250 11:49 23.06.2022
2965 Smoke 17 1022 57 6437 0.45 21 10:56 23.06.2022
2966 Smoke 18 1021 50 8047 0.45 257 09:20 23.06.2022
2967 Clouds 23 1021 38 10000 3.6 220 05:48 23.06.2022
2968 Smoke 24 1023 37 10000 2.57 250 01:21 23.06.2022
2969 Smoke 23 1023 41 10000 3.6 320 00:18 23.06.2022
2970 Smoke 22 1023 46 10000 4.63 310 23:22 22.06.2022
2971 Smoke 20 1024 59 10000 1.54 100 21:44 22.06.2022
2972 Smoke 18 1024 69 10000 0 0 20:52 22.06.2022
2973 Smoke 18 1024 72 10000 0 0 20:20 22.06.2022
2974 Smoke 17 1024 73 10000 2.06 160 19:44 22.06.2022
2975 Smoke 14 1023 81 10000 2.06 70 17:40 22.06.2022
2976 Smoke 13 1023 85 10000 2.57 60 16:43 22.06.2022
2977 Smoke 12 1023 85 10000 2.06 70 15:29 22.06.2022
2978 Smoke 12 1022 85 10000 2.57 80 14:57 22.06.2022
2979 Smoke 12 1022 85 10000 2.57 70 13:49 22.06.2022
2980 Smoke 12 1022 84 10000 2.57 70 13:24 22.06.2022
2981 Smoke 13 1022 79 10000 3.09 190 12:31 22.06.2022
2982 Smoke 15 1021 73 10000 3.09 190 11:45 22.06.2022
2983 Smoke 15 1021 73 10000 3.09 190 11:45 22.06.2022
2984 Clouds 17 1020 67 10000 5.66 260 10:47 22.06.2022
2985 Clouds 18 1020 61 10000 5.14 270 09:42 22.06.2022
2986 Clouds 21 1019 54 10000 1.54 200 07:22 22.06.2022
2987 Clouds 25 1017 35 10000 4.63 290 02:39 22.06.2022
2988 Clouds 24 1017 46 10000 3.09 250 00:57 22.06.2022
2989 Clouds 24 1017 46 10000 3.09 250 00:57 22.06.2022
2990 Clear 23 1018 60 10000 0.45 170 22:57 21.06.2022
2991 Clouds 19 1019 67 10000 0.89 159 21:21 21.06.2022
2992 Clear 14 1019 86 10000 1.54 150 19:30 21.06.2022
2993 Clear 14 1019 86 10000 1.54 150 19:30 21.06.2022
2994 Fog 12 1019 92 10000 0 0 17:56 21.06.2022
2995 Fog 11 1017 93 10000 2.06 90 16:47 21.06.2022
2996 Clear 11 1017 89 10000 0.45 258 12:23 21.06.2022
2997 Clear 13 1016 84 10000 1.54 70 10:47 21.06.2022
2998 Clear 14 1016 80 10000 2.57 200 09:35 21.06.2022
2999 Clouds 16 1015 69 10000 0.45 269 07:56 21.06.2022
3000 Rain 17 1015 65 10000 5.14 170 04:59 21.06.2022
3001 Rain 20 1015 66 10000 3.09 0 00:31 21.06.2022
3002 Rain 17 1016 79 10000 3.09 190 22:21 20.06.2022
3003 Rain 16 1017 84 10000 2.57 220 21:40 20.06.2022
3004 Mist 14 1017 88 10000 2.06 190 20:30 20.06.2022
3005 Mist 13 1016 92 10000 1.54 220 19:37 20.06.2022
3006 Mist 13 1016 94 10000 0.45 271 18:34 20.06.2022
3007 Rain 12 1016 94 9656 4.12 250 17:49 20.06.2022
3008 Rain 12 1015 93 10000 2.06 30 16:53 20.06.2022
3009 Clouds 12 1015 92 10000 1.54 70 15:52 20.06.2022
3010 Clouds 13 1013 91 10000 1.54 20 12:37 20.06.2022
3011 Clouds 13 1013 88 10000 2.06 120 10:32 20.06.2022
3012 Rain 13 1012 87 10000 2.06 110 08:56 20.06.2022
3013 Rain 14 1011 83 10000 2.06 80 07:53 20.06.2022
3014 Rain 19 1010 60 10000 6.17 300 05:26 20.06.2022
3015 Clouds 20 1009 56 10000 4.63 300 01:33 20.06.2022
3016 Smoke 19 1009 57 10000 3.6 310 00:25 20.06.2022
3017 Smoke 18 1009 63 10000 2.57 270 22:46 19.06.2022
3018 Smoke 17 1009 66 10000 0.45 188 21:51 19.06.2022
3019 Smoke 17 1009 67 10000 1.34 275 21:31 19.06.2022
3020 Smoke 16 1009 73 10000 2.06 190 20:38 19.06.2022
3021 Smoke 15 1009 79 10000 1.54 100 19:47 19.06.2022
3022 Smoke 13 1009 85 10000 2.06 70 18:43 19.06.2022
3023 Smoke 12 1008 88 10000 2.57 70 17:48 19.06.2022
3024 Smoke 12 1007 89 10000 2.06 80 17:22 19.06.2022
3025 Smoke 11 1008 89 10000 3.09 80 16:34 19.06.2022
3026 Smoke 10 1008 90 10000 1.54 80 15:41 19.06.2022
3027 Clear 10 1007 90 10000 2.06 70 14:57 19.06.2022
3028 Clear 11 1008 88 10000 2.06 70 14:19 19.06.2022
3029 Clouds 12 1007 85 10000 3.09 80 13:21 19.06.2022
3030 Clouds 14 1006 76 10000 2.57 60 10:55 19.06.2022
3031 Clouds 15 1005 72 10000 1.54 90 09:46 19.06.2022
3032 Clouds 16 1005 67 10000 3.6 360 08:47 19.06.2022
3033 Rain 16 1004 68 10000 0.89 282 07:59 19.06.2022
3034 Rain 19 1004 55 10000 2.57 220 05:36 19.06.2022
3035 Smoke 22 1004 44 10000 6.69 230 01:29 19.06.2022
3036 Smoke 21 1003 50 10000 5.14 260 00:24 19.06.2022
3037 Smoke 21 1003 50 10000 4.63 230 23:36 18.06.2022
3038 Smoke 20 1004 53 10000 3.6 230 22:39 18.06.2022
3039 Clear 19 1005 57 10000 2.57 200 20:57 18.06.2022
3040 Smoke 19 1005 57 10000 3.6 200 20:38 18.06.2022
3041 Smoke 17 1005 62 10000 2.57 230 19:38 18.06.2022
3042 Clear 16 1005 66 10000 3.6 240 18:45 18.06.2022
3043 Clear 13 1005 73 10000 1.54 170 17:35 18.06.2022
3044 Clear 12 1005 77 10000 1.54 50 16:56 18.06.2022
3045 Clouds 11 1005 81 10000 2.57 110 15:33 18.06.2022
3046 Clouds 11 1005 79 10000 1.54 190 14:45 18.06.2022
3047 Clouds 12 1005 75 10000 1.54 60 13:23 18.06.2022
3048 Clear 14 1004 69 10000 2.06 130 11:45 18.06.2022
3049 Clouds 15 1004 63 10000 1.54 140 10:55 18.06.2022
3050 Clouds 17 1003 54 10000 2.06 180 09:27 18.06.2022
3051 Clouds 19 1003 46 10000 3.09 230 08:30 18.06.2022
3052 Clouds 19 1003 46 10000 3.09 230 08:30 18.06.2022
3053 Clear 21 1004 39 10000 5.66 220 06:49 18.06.2022
3054 Clouds 24 1004 37 10000 3.09 100 03:46 18.06.2022
3055 Clear 24 1005 37 10000 2.06 250 01:26 18.06.2022
3056 Clear 24 1005 38 10000 2.57 270 00:48 18.06.2022
3057 Clouds 25 1005 36 10000 0.45 253 23:58 17.06.2022
3058 Clear 23 1006 41 10000 0.45 343 23:24 17.06.2022
3059 Clear 21 1007 51 10000 1.54 160 21:27 17.06.2022
3060 Clear 19 1008 59 10000 2.06 90 20:24 17.06.2022
3061 Clear 16 1009 69 10000 2.57 90 18:52 17.06.2022
3062 Clear 14 1009 75 10000 1.54 70 17:46 17.06.2022
3063 Clear 13 1009 78 10000 1.54 80 16:43 17.06.2022
3064 Clear 12 1009 79 10000 1.54 80 16:18 17.06.2022
3065 Clear 12 1009 80 10000 2.57 30 15:34 17.06.2022
3066 Clear 11 1010 82 10000 2.57 80 14:21 17.06.2022
3067 Clear 11 1010 80 10000 3.09 60 13:48 17.06.2022
3068 Clear 11 1010 79 10000 3.09 60 13:26 17.06.2022
3069 Clouds 12 1010 76 10000 0.45 294 11:58 17.06.2022
3070 Clear 13 1010 74 10000 1.54 100 11:39 17.06.2022
3071 Clear 14 1010 73 10000 1.54 100 11:21 17.06.2022
3072 Clear 18 1011 60 10000 3.09 360 08:33 17.06.2022
3073 Clouds 18 1011 57 10000 5.66 350 07:51 17.06.2022
3074 Clear 21 1011 50 10000 3.6 230 06:32 17.06.2022
3075 Clouds 21 1012 48 10000 3.09 170 03:20 17.06.2022
3076 Clouds 21 1014 50 10000 0.45 142 00:43 17.06.2022
3077 Clouds 21 1015 54 10000 2.57 250 23:25 16.06.2022
3078 Clouds 19 1016 56 10000 2.06 250 22:31 16.06.2022
3079 Clouds 17 1015 66 10000 3.6 240 21:19 16.06.2022
3080 Clouds 16 1016 71 10000 2.06 210 20:50 16.06.2022
3081 Clouds 16 1015 73 10000 0.89 239 19:59 16.06.2022
3082 Clouds 14 1016 77 10000 1.54 130 18:44 16.06.2022
3083 Clouds 13 1017 78 10000 2.57 20 17:44 16.06.2022
3084 Clouds 12 1017 79 10000 2.57 20 17:22 16.06.2022
3085 Clouds 12 1017 78 10000 0 0 15:58 16.06.2022
3086 Clouds 12 1017 77 10000 2.57 40 15:21 16.06.2022
3087 Clouds 12 1017 76 10000 1.54 70 14:22 16.06.2022
3088 Clouds 13 1018 73 10000 0.45 320 12:53 16.06.2022
3089 Clouds 12 1018 74 10000 0.45 320 12:34 16.06.2022
3090 Clouds 13 1018 72 10000 1.54 310 11:21 16.06.2022
3091 Clear 14 1019 68 10000 2.57 360 10:41 16.06.2022
3092 Clear 16 1019 63 10000 2.57 350 09:43 16.06.2022
3093 Clear 17 1019 61 10000 4.12 360 08:56 16.06.2022
3094 Clouds 17 1019 58 10000 4.63 10 07:41 16.06.2022
3095 Clouds 20 1019 50 10000 3.6 270 05:51 16.06.2022
3096 Clouds 21 1019 50 10000 1.54 240 03:56 16.06.2022
3097 Smoke 20 1020 53 10000 4.12 210 01:52 16.06.2022
3098 Smoke 20 1021 53 10000 4.12 210 01:22 16.06.2022
3099 Smoke 21 1021 49 10000 3.6 180 00:22 16.06.2022
3100 Clouds 19 1022 57 10000 2.06 250 22:53 15.06.2022
3101 Smoke 15 1023 71 10000 0 0 21:37 15.06.2022
3102 Clouds 17 1021 83 10000 1.38 272 20:59 15.06.2022
3103 Smoke 14 1022 77 10000 1.54 190 20:36 15.06.2022
3104 Smoke 14 1022 77 10000 0 0 20:18 15.06.2022
3105 Smoke 12 1021 83 10000 0 0 18:41 15.06.2022
3106 Clouds 12 1021 84 10000 0.46 226 17:53 15.06.2022
3107 Smoke 10 1021 86 10000 2.57 70 16:27 15.06.2022
3108 Smoke 10 1021 86 10000 0 0 15:19 15.06.2022
3109 Smoke 12 1020 81 8047 3.6 210 13:29 15.06.2022
3110 Smoke 12 1020 78 8047 3.09 200 12:47 15.06.2022
3111 Smoke 14 1020 75 8047 3.09 150 11:28 15.06.2022
3112 Smoke 15 1018 68 8047 6.17 230 10:22 15.06.2022
3113 Smoke 17 1016 51 8047 5.14 230 09:34 15.06.2022
3114 Smoke 21 1017 44 8047 4.63 240 07:43 15.06.2022
3115 Clouds 21 1017 49 10000 2.15 264 05:58 15.06.2022
3116 Clear 22 1016 44 8047 1.54 290 02:56 15.06.2022
3117 Smoke 21 1015 47 8047 3.6 170 01:37 15.06.2022
3118 Smoke 20 1016 48 8047 3.6 190 00:37 15.06.2022
3119 Smoke 19 1016 49 8047 1.34 222 23:38 14.06.2022
3120 Smoke 18 1016 57 8047 2.57 170 22:48 14.06.2022
3121 Smoke 17 1015 60 8047 2.06 170 21:44 14.06.2022
3122 Smoke 16 1015 62 8047 2.06 170 21:21 14.06.2022
3123 Smoke 15 1015 63 8047 1.54 290 20:40 14.06.2022
3124 Clouds 15 1014 64 10000 2.17 257 19:58 14.06.2022
3125 Smoke 13 1014 70 8047 0 0 18:40 14.06.2022
3126 Smoke 11 1013 74 8047 2.57 50 17:20 14.06.2022
3127 Smoke 11 1012 73 8047 2.06 60 16:42 14.06.2022
3128 Smoke 11 1012 74 8047 2.06 250 15:43 14.06.2022
3129 Smoke 11 1011 69 6437 2.06 210 14:56 14.06.2022
3130 Smoke 11 1011 69 6437 2.06 210 14:18 14.06.2022
3131 Smoke 12 1010 63 6437 3.09 200 13:28 14.06.2022
3132 Smoke 13 1009 61 6437 2.57 200 12:19 14.06.2022
3133 Smoke 15 1009 56 6437 0 0 10:55 14.06.2022
3134 Smoke 16 1008 53 6437 0.45 251 10:29 14.06.2022
3135 Smoke 19 1007 46 6437 2.06 70 09:26 14.06.2022
3136 Smoke 20 1006 43 6437 0 0 08:40 14.06.2022
3137 Smoke 23 1006 33 6437 2.57 280 06:53 14.06.2022
3138 Smoke 24 1006 27 6437 2.57 190 04:23 14.06.2022
3139 Smoke 23 1006 30 8047 2.06 50 01:50 14.06.2022
3140 Smoke 22 1006 36 8047 3.09 10 00:27 14.06.2022
3141 Smoke 21 1006 36 6437 3.09 110 22:59 13.06.2022
3142 Smoke 20 1006 43 6437 3.6 50 22:23 13.06.2022
3143 Smoke 19 1007 44 6437 2.57 70 21:41 13.06.2022
3144 Clouds 16 1006 68 10000 1.94 121 19:59 13.06.2022
3145 Smoke 14 1008 62 6437 2.06 70 19:25 13.06.2022
3146 Haze 11 1008 72 8047 2.57 70 17:57 13.06.2022
3147 Haze 9 1007 75 8047 2.57 70 17:27 13.06.2022
3148 Haze 10 1005 74 4828 3.09 60 16:31 13.06.2022
3149 Haze 9 1006 80 4828 1.54 80 14:53 13.06.2022
3150 Haze 8 1006 81 4828 1.54 80 14:32 13.06.2022
3151 Haze 8 1006 81 4828 2.57 20 13:39 13.06.2022
3152 Haze 10 1006 76 4828 1.54 350 12:23 13.06.2022
3153 Haze 11 1005 75 4828 0 0 11:18 13.06.2022
3154 Haze 13 1005 69 4828 2.57 10 10:26 13.06.2022
3155 Haze 15 1004 62 4828 1.54 30 09:22 13.06.2022
3156 Haze 18 1004 49 6437 0 0 06:55 13.06.2022
3157 Haze 19 1004 44 9656 0 0 05:36 13.06.2022
3158 Haze 19 1004 43 8047 1.54 330 02:47 13.06.2022
3159 Haze 19 1005 46 8047 1.54 310 01:36 13.06.2022
3160 Smoke 17 1005 54 10000 2.06 240 23:52 12.06.2022
3161 Smoke 15 1005 58 10000 1.54 160 22:50 12.06.2022
3162 Smoke 14 1006 58 10000 1.54 160 22:22 12.06.2022
3163 Smoke 13 1006 60 10000 0 0 21:20 12.06.2022
3164 Smoke 12 1006 68 10000 0 0 20:27 12.06.2022
3165 Smoke 10 1006 73 10000 0 0 19:30 12.06.2022
3166 Clear 10 1005 71 10000 1.54 40 17:51 12.06.2022
3167 Clear 9 1003 71 10000 2.57 80 16:24 12.06.2022
3168 Clear 7 1004 78 10000 2.06 60 14:57 12.06.2022
3169 Clear 8 1003 74 10000 2.06 60 14:21 12.06.2022
3170 Clear 9 1003 73 10000 0.45 270 13:51 12.06.2022
3171 Clear 10 1002 69 10000 0.45 270 12:40 12.06.2022
3172 Clouds 11 1002 63 10000 0.45 270 11:39 12.06.2022
3173 Rain 13 1002 56 10000 2.06 350 10:22 12.06.2022
3174 Clouds 15 1001 51 10000 5.66 300 08:55 12.06.2022
3175 Clouds 15 1001 50 10000 5.66 300 08:36 12.06.2022
3176 Clear 17 1000 45 10000 3.09 220 07:33 12.06.2022
3177 Clouds 20 999 34 10000 4.63 280 04:45 12.06.2022
3178 Clear 20 999 35 10000 3.09 240 03:24 12.06.2022
3179 Clear 20 999 34 10000 3.6 260 01:42 12.06.2022
3180 Clear 19 999 39 10000 2.57 260 00:58 12.06.2022
3181 Clear 19 999 42 10000 2.57 260 00:20 12.06.2022
3182 Clear 19 999 42 10000 2.57 260 00:20 12.06.2022
3183 Clear 18 1000 42 10000 0 0 23:44 11.06.2022
3184 Clear 18 999 45 10000 1.54 240 22:38 11.06.2022
3185 Clear 17 1000 53 10000 2.06 170 21:52 11.06.2022
3186 Clear 14 1000 61 10000 1.54 80 20:37 11.06.2022
3187 Clear 13 1000 67 10000 1.54 270 19:46 11.06.2022
3188 Clear 12 1000 69 10000 1.54 270 19:25 11.06.2022
3189 Clear 11 1000 73 10000 1.54 30 18:33 11.06.2022
3190 Clear 10 1000 76 10000 0 0 17:51 11.06.2022
3191 Clear 9 1000 78 10000 0 0 17:27 11.06.2022
3192 Clear 8 999 82 10000 0 0 16:55 11.06.2022
3193 Clear 8 999 82 10000 1.54 10 16:27 11.06.2022
3194 Clear 7 999 84 10000 2.06 280 15:31 11.06.2022
3195 Clouds 7 998 83 10000 1.54 270 13:53 11.06.2022
3196 Clouds 8 999 82 10000 1.54 270 12:51 11.06.2022
3197 Clouds 10 998 77 10000 2.06 310 10:48 11.06.2022
3198 Clouds 10 998 76 10000 1.54 340 09:55 11.06.2022
3199 Rain 10 998 74 10000 2.57 330 09:19 11.06.2022
3200 Clouds 12 998 64 10000 3.6 330 07:41 11.06.2022
3201 Clouds 13 997 60 10000 3.6 310 06:30 11.06.2022
3202 Clouds 14 997 55 10000 4.12 340 04:49 11.06.2022
3203 Clouds 14 998 50 10000 2.06 330 01:53 11.06.2022
3204 Clouds 14 998 48 10000 2.06 330 01:33 11.06.2022
3205 Clouds 14 998 49 10000 3.6 360 00:20 11.06.2022
3206 Rain 12 1000 55 10000 3.09 90 22:32 10.06.2022
3207 Clouds 10 1000 64 10000 2.06 100 21:52 10.06.2022
3208 Clouds 11 999 65 10000 3.09 70 20:42 10.06.2022
3209 Clouds 11 999 65 10000 3.09 70 20:22 10.06.2022
3210 Clouds 11 999 62 10000 2.57 80 19:20 10.06.2022
3211 Clouds 10 999 63 10000 2.57 50 18:56 10.06.2022
3212 Clouds 10 999 64 10000 2.57 50 18:18 10.06.2022
3213 Clouds 9 998 64 10000 4.63 360 17:35 10.06.2022
3214 Clouds 8 999 66 10000 4.12 350 16:51 10.06.2022
3215 Clear 7 1000 69 10000 4.12 350 15:45 10.06.2022
3216 Clear 7 1000 69 10000 0.45 265 14:57 10.06.2022
3217 Clear 8 1001 63 10000 3.09 360 13:41 10.06.2022
3218 Clear 9 1002 57 10000 3.6 350 12:24 10.06.2022
3219 Clouds 10 1001 57 10000 4.63 60 11:30 10.06.2022
3220 Clouds 11 1002 53 10000 4.63 50 10:36 10.06.2022
3221 Clouds 12 1002 53 10000 2.57 40 09:37 10.06.2022
3222 Clouds 14 1002 52 10000 2 19 07:58 10.06.2022
3223 Clouds 15 1003 46 10000 1.54 0 06:50 10.06.2022
3224 Clouds 15 1003 44 10000 1.54 0 06:31 10.06.2022
3225 Clouds 15 1004 44 10000 2.06 150 05:35 10.06.2022
3226 Clouds 15 1005 43 10000 1.54 20 02:54 10.06.2022
3227 Clouds 14 1006 46 10000 2.57 0 01:37 10.06.2022
3228 Clouds 14 1006 47 10000 0.89 162 23:58 09.06.2022
3229 Clouds 13 1008 48 10000 2.57 40 22:47 09.06.2022
3230 Clouds 12 1009 46 10000 3.6 340 21:46 09.06.2022
3231 Clouds 12 1008 48 10000 3.6 340 21:28 09.06.2022
3232 Clouds 11 1008 49 10000 4.12 360 20:40 09.06.2022
3233 Clear 11 1009 51 10000 4.63 360 19:51 09.06.2022
3234 Clear 9 1009 55 10000 5.66 10 18:43 09.06.2022
3235 Clear 8 1010 58 10000 4.12 40 17:56 09.06.2022
3236 Clear 7 1010 63 10000 5.14 360 16:38 09.06.2022
3237 Clear 6 1011 63 10000 5.14 350 15:42 09.06.2022
3238 Clear 6 1011 64 10000 4.12 40 14:34 09.06.2022
3239 Clear 6 1011 63 10000 5.14 40 13:46 09.06.2022
3240 Clear 7 1011 62 10000 5.14 40 13:25 09.06.2022
3241 Clear 8 1011 59 10000 5.14 30 11:53 09.06.2022
3242 Clear 9 1011 57 10000 6.17 30 10:36 09.06.2022
3243 Clear 10 1012 53 10000 6.17 30 09:40 09.06.2022
3244 Clear 10 1012 52 10000 6.17 30 09:21 09.06.2022
3245 Clear 13 1011 45 10000 7.72 50 07:29 09.06.2022
3246 Clear 16 1011 38 10000 7.2 10 04:47 09.06.2022
3247 Clear 17 1012 37 10000 6.69 40 01:43 09.06.2022
3248 Clear 16 1012 39 10000 7.72 30 23:24 08.06.2022
3249 Clouds 16 1013 39 10000 9.26 10 22:45 08.06.2022
3250 Clouds 16 1012 39 10000 9.26 10 22:25 08.06.2022
3251 Clear 15 1013 41 10000 7.2 20 21:45 08.06.2022
3252 Clear 14 1013 45 10000 7.72 30 20:33 08.06.2022
3253 Clear 13 1013 50 10000 6.69 20 19:47 08.06.2022
3254 Clear 11 1013 54 10000 6.69 360 18:49 08.06.2022
3255 Clear 10 1014 59 10000 5.66 10 17:48 08.06.2022
3256 Clear 9 1014 63 10000 5.66 50 16:18 08.06.2022
3257 Clear 9 1013 63 10000 6.17 360 14:49 08.06.2022
3258 Clear 11 1013 59 10000 3.6 40 12:55 08.06.2022
3259 Clear 11 1013 59 10000 3.6 40 12:55 08.06.2022
3260 Clear 12 1012 56 10000 4.63 60 11:44 08.06.2022
3261 Clear 12 1013 55 10000 4.63 60 11:19 08.06.2022
3262 Clear 15 1012 47 10000 5.14 30 09:46 08.06.2022
3263 Clear 15 1012 45 10000 5.14 30 09:19 08.06.2022
3264 Clear 18 1011 36 10000 7.72 20 07:30 08.06.2022
3265 Clear 21 1010 31 10000 6.69 30 04:51 08.06.2022
3266 Clear 22 1010 29 10000 5.66 10 02:28 08.06.2022
3267 Clear 22 1010 31 10000 5.66 20 23:41 07.06.2022
3268 Clouds 22 1010 33 10000 5.66 20 23:22 07.06.2022
3269 Clear 21 1010 32 10000 3.6 360 22:38 07.06.2022
3270 Clear 21 1010 36 10000 2.57 330 21:45 07.06.2022
3271 Clear 20 1010 37 10000 2.57 330 21:24 07.06.2022
3272 Clear 19 1011 38 10000 4.63 360 20:43 07.06.2022
3273 Clear 18 1010 42 10000 0.45 242 19:59 07.06.2022
3274 Clear 16 1011 46 10000 4.63 10 18:51 07.06.2022
3275 Clear 14 1010 57 10000 0 0 17:54 07.06.2022
3276 Clear 12 1010 61 10000 0.45 237 16:54 07.06.2022
3277 Clear 12 1010 60 10000 4.63 360 16:32 07.06.2022
3278 Clear 11 1011 60 10000 5.14 360 15:40 07.06.2022
3279 Clear 10 1011 62 10000 5.14 360 15:22 07.06.2022
3280 Clear 11 1010 60 10000 5.14 360 14:45 07.06.2022
3281 Clear 12 1010 54 10000 5.14 360 13:46 07.06.2022
3282 Clear 12 1010 54 10000 5.14 360 13:46 07.06.2022
3283 Clear 12 1010 53 10000 5.14 360 13:27 07.06.2022
3284 Clear 14 1010 48 10000 4.63 360 12:22 07.06.2022
3285 Clear 15 1009 44 10000 5.14 50 10:57 07.06.2022
3286 Clear 17 1009 39 10000 6.69 20 09:46 07.06.2022
3287 Clear 19 1008 35 10000 5.66 40 08:32 07.06.2022
3288 Clear 20 1008 30 10000 6.17 40 07:21 07.06.2022
3289 Clear 23 1008 24 10000 5.66 10 05:47 07.06.2022
3290 Clouds 24 1007 23 10000 6.69 10 02:28 07.06.2022
3291 Clear 24 1008 23 10000 3.09 340 00:33 07.06.2022
3292 Clear 22 1008 27 10000 2.57 360 23:32 06.06.2022
3293 Clear 22 1009 27 10000 2.57 10 22:37 06.06.2022
3294 Clear 20 1009 30 10000 2.57 20 21:36 06.06.2022
3295 Clear 18 1008 36 10000 3.6 70 19:53 06.06.2022
3296 Clouds 16 1008 38 10000 2.06 40 19:19 06.06.2022
3297 Clear 15 1008 42 10000 4.63 10 18:34 06.06.2022
3298 Clear 12 1008 48 10000 5.14 10 17:42 06.06.2022
3299 Clear 11 1008 50 10000 5.14 360 16:33 06.06.2022
3300 Clear 10 1008 55 10000 5.66 360 15:39 06.06.2022
3301 Clear 10 1008 49 10000 5.14 360 14:40 06.06.2022
3302 Clear 11 1007 43 10000 4.63 360 13:27 06.06.2022
3303 Clear 12 1007 39 10000 5.14 360 12:38 06.06.2022
3304 Clear 12 1007 40 10000 5.14 360 12:19 06.06.2022
3305 Clear 13 1008 36 10000 4.63 360 11:42 06.06.2022
3306 Clear 15 1006 32 10000 5.66 40 09:41 06.06.2022
3307 Clear 17 1005 29 10000 5.66 40 08:35 06.06.2022
3308 Clear 19 1005 27 10000 7.2 40 07:37 06.06.2022
3309 Clear 21 1004 23 10000 7.2 20 05:34 06.06.2022
3310 Clear 22 1004 19 10000 7.72 50 03:47 06.06.2022
3311 Clear 22 1004 18 10000 4.63 70 01:29 06.06.2022
3312 Clear 22 1004 18 10000 5.66 50 00:43 06.06.2022
3313 Clear 22 1005 19 10000 4.63 30 23:50 05.06.2022
3314 Clear 21 1004 21 10000 4.63 80 22:53 05.06.2022
3315 Clear 19 1005 24 10000 5.14 90 21:33 05.06.2022
3316 Clear 18 1005 27 10000 5.66 50 20:23 05.06.2022
3317 Clear 15 1005 34 10000 5.14 50 18:42 05.06.2022
3318 Clear 13 1005 39 10000 2.57 70 17:57 05.06.2022
3319 Clear 13 1005 41 10000 4.63 360 17:36 05.06.2022
3320 Clouds 12 1004 44 10000 4.63 360 17:18 05.06.2022
3321 Clear 12 1004 41 10000 5.14 360 16:45 05.06.2022
3322 Clear 11 1005 42 10000 4.12 10 14:46 05.06.2022
3323 Clear 13 1006 37 10000 4.12 50 13:55 05.06.2022
3324 Clear 15 1004 35 10000 4.63 60 11:57 05.06.2022
3325 Clear 15 1004 34 10000 4.12 50 10:45 05.06.2022
3326 Clear 16 1004 32 10000 4.12 50 10:24 05.06.2022
3327 Clouds 17 1004 31 10000 6.17 40 09:21 05.06.2022
3328 Clouds 19 1003 28 10000 7.2 50 08:22 05.06.2022
3329 Rain 23 1003 23 10000 5.66 40 05:24 05.06.2022
3330 Clear 23 1003 23 10000 7.2 50 04:36 05.06.2022
3331 Rain 24 1003 23 10000 6.17 50 02:19 05.06.2022
3332 Clear 23 1003 27 10000 6.17 40 01:23 05.06.2022
3333 Clear 23 1003 27 10000 6.17 40 01:23 05.06.2022
3334 Clear 23 1004 33 10000 3.6 50 22:48 04.06.2022
3335 Clouds 22 1004 37 10000 5.66 70 21:24 04.06.2022
3336 Clouds 18 1005 46 10000 4.12 60 19:26 04.06.2022
3337 Clouds 15 1005 45 10000 4.12 60 16:48 04.06.2022
3338 Clouds 14 1005 39 10000 2.57 20 16:20 04.06.2022
3339 Clouds 15 1006 38 10000 4.63 10 15:35 04.06.2022
3340 Clouds 10 1007 42 10000 2.64 21 13:59 04.06.2022
3341 Clouds 17 1007 34 10000 4.63 50 11:38 04.06.2022
3342 Clouds 18 1005 35 10000 6.69 50 10:52 04.06.2022
3343 Clouds 19 1006 34 10000 5.14 50 09:47 04.06.2022
3344 Clouds 20 1005 35 10000 0.45 281 08:59 04.06.2022
3345 Clouds 20 1006 33 10000 6.17 70 08:37 04.06.2022
3346 Rain 22 1005 31 10000 3.09 160 06:32 04.06.2022
3347 Rain 24 1006 27 10000 2.06 30 03:52 04.06.2022
3348 Clouds 24 1008 27 10000 3.6 180 00:22 04.06.2022
3349 Clear 24 1009 26 10000 3.09 90 22:57 03.06.2022
3350 Clouds 23 1009 31 10000 3.09 0 21:53 03.06.2022
3351 Clouds 20 1010 38 10000 3.09 30 20:40 03.06.2022
3352 Clouds 18 1011 46 10000 2.57 30 19:37 03.06.2022
3353 Clouds 13 1010 59 10000 0 0 16:58 03.06.2022
3354 Clouds 11 1009 65 10000 0.45 249 15:55 03.06.2022
3355 Clouds 9 1012 70 10000 2.57 70 14:25 03.06.2022
3356 Clouds 12 1012 62 10000 1.54 50 12:21 03.06.2022
3357 Clouds 17 1012 47 10000 1.03 270 09:57 03.06.2022
3358 Clouds 18 1012 44 10000 2.06 280 09:29 03.06.2022
3359 Clouds 21 1012 36 10000 3.09 290 07:47 03.06.2022
3360 Clouds 22 1012 29 10000 0.45 236 06:59 03.06.2022
3361 Clouds 22 1012 28 10000 3.6 300 06:28 03.06.2022
3362 Clouds 23 1013 29 10000 1.03 230 03:39 03.06.2022
3363 Clouds 22 1015 34 10000 2.06 200 23:53 02.06.2022
3364 Clouds 21 1016 35 10000 2.06 0 22:23 02.06.2022
3365 Clouds 20 1017 39 10000 0.89 185 20:56 02.06.2022
3366 Clouds 18 1017 45 10000 0.9 316 19:57 02.06.2022
3367 Clouds 18 1017 46 10000 2.06 10 19:38 02.06.2022
3368 Clouds 16 1018 54 10000 1.03 50 18:51 02.06.2022
3369 Clouds 13 1018 58 10000 1.54 60 16:30 02.06.2022
3370 Clouds 13 1018 57 10000 2.06 360 15:47 02.06.2022
3371 Clouds 14 1018 55 10000 2.57 330 13:31 02.06.2022
3372 Clouds 15 1018 52 10000 4.12 360 12:49 02.06.2022
3373 Clouds 16 1018 48 10000 0 0 10:45 02.06.2022
3374 Clouds 19 1017 37 10000 2.57 300 09:30 02.06.2022
3375 Clouds 21 1018 23 10000 4.63 300 08:45 02.06.2022
3376 Clouds 21 1016 32 10000 4.63 300 08:23 02.06.2022
3377 Clouds 23 1016 29 10000 3.6 300 06:21 02.06.2022
3378 Clouds 25 1017 28 10000 4.63 190 03:50 02.06.2022
3379 Clouds 24 1018 28 10000 5.14 250 01:33 02.06.2022
3380 Clouds 23 1018 33 10000 2.57 140 23:22 01.06.2022
3381 Clouds 22 1019 40 10000 2.06 190 22:18 01.06.2022
3382 Rain 20 1019 42 10000 2.06 180 21:24 01.06.2022
3383 Clear 19 1019 44 10000 0.45 229 20:39 01.06.2022
3384 Clear 17 1020 47 10000 1.54 130 19:52 01.06.2022
3385 Clear 15 1020 53 10000 2.06 70 18:41 01.06.2022
3386 Clear 12 1019 62 10000 3.09 60 16:58 01.06.2022
3387 Clear 12 1019 56 10000 2.06 80 15:45 01.06.2022
3388 Clear 12 1019 59 10000 2.57 80 14:50 01.06.2022
3389 Clear 11 1020 68 10000 0.45 92 13:26 01.06.2022
3390 Clear 14 1019 61 10000 1.54 80 11:23 01.06.2022
3391 Clear 18 1018 50 10000 0 0 09:30 01.06.2022
3392 Clear 21 1017 37 10000 1.54 140 08:19 01.06.2022
3393 Clear 23 1017 30 10000 1.54 170 07:20 01.06.2022
3394 Clear 25 1018 25 10000 1.54 170 04:53 01.06.2022
3395 Clear 24 1020 27 10000 2.06 190 23:50 31.05.2022
3396 Clear 23 1020 31 10000 1.54 0 22:43 31.05.2022
3397 Clear 22 1021 33 10000 1.54 0 22:24 31.05.2022
3398 Clear 20 1021 37 10000 2.06 20 21:44 31.05.2022
3399 Clear 18 1022 43 10000 1.54 80 20:44 31.05.2022
3400 Clear 18 1022 43 10000 1.54 80 20:44 31.05.2022
3401 Clear 18 1022 43 10000 1.54 80 20:44 31.05.2022
3402 Clear 18 1022 43 10000 1.54 80 20:44 31.05.2022
3403 Clear 17 1022 49 10000 1.54 0 19:46 31.05.2022
3404 Clear 13 1022 60 10000 2.06 90 18:33 31.05.2022
3405 Clear 12 1020 62 10000 2.57 70 17:46 31.05.2022
3406 Clear 10 1021 69 10000 2.57 80 16:21 31.05.2022
3407 Clouds 11 1020 62 10000 1.54 70 15:37 31.05.2022
3408 Clear 10 1020 68 10000 1.54 60 13:22 31.05.2022
3409 Clear 12 1020 64 10000 2.57 80 12:19 31.05.2022
3410 Clear 15 1019 53 10000 1.54 40 10:34 31.05.2022
3411 Clear 20 1018 33 10000 2.57 320 08:26 31.05.2022
3412 Clear 23 1018 28 10000 5.14 260 06:38 31.05.2022
3413 Clear 24 1018 26 10000 4.12 230 04:34 31.05.2022
3414 Clear 21 1019 34 10000 3.09 150 23:46 30.05.2022
3415 Clear 21 1019 34 10000 3.09 150 23:24 30.05.2022
3416 Clear 21 1019 36 10000 2.06 0 22:42 30.05.2022
3417 Clear 19 1020 40 10000 0.45 196 21:42 30.05.2022
3418 Clear 18 1020 41 10000 0 0 21:21 30.05.2022
3419 Clear 15 1020 52 10000 1.54 130 19:45 30.05.2022
3420 Clear 12 1020 59 10000 2.06 90 18:21 30.05.2022
3421 Clear 10 1020 65 10000 2.57 70 17:23 30.05.2022
3422 Clear 9 1018 70 10000 2.57 90 16:30 30.05.2022
3423 Clear 7 1018 75 10000 1.54 70 13:38 30.05.2022
3424 Clear 10 1016 63 10000 2.06 210 11:40 30.05.2022
3425 Clear 14 1013 49 10000 0.45 259 09:58 30.05.2022
3426 Clear 16 1015 43 10000 3.09 250 09:18 30.05.2022
3427 Clear 20 1013 33 10000 6.69 280 06:28 30.05.2022
3428 Clear 22 1012 32 10000 5.14 260 04:52 30.05.2022
3429 Clear 22 1012 32 10000 6.69 290 01:23 30.05.2022
3430 Clear 20 1012 36 10000 6.17 230 22:49 29.05.2022
3431 Clear 20 1012 38 10000 6.17 230 22:28 29.05.2022
3432 Clear 16 1013 52 10000 2.57 130 20:29 29.05.2022
3433 Clear 15 1013 58 10000 1.54 120 19:29 29.05.2022
3434 Clear 13 1013 64 10000 1.54 60 18:34 29.05.2022
3435 Rain 10 1011 71 10000 2.06 60 16:40 29.05.2022
3436 Clouds 10 1011 71 10000 2.57 360 15:47 29.05.2022
3437 Clouds 9 1010 71 10000 0 0 14:55 29.05.2022
3438 Clouds 10 1010 68 10000 2.06 90 13:18 29.05.2022
3439 Clear 11 1010 64 10000 0 0 11:20 29.05.2022
3440 Clear 13 1010 59 10000 0 0 10:34 29.05.2022
3441 Clear 19 1009 39 10000 3.09 280 08:36 29.05.2022
3442 Clouds 22 1008 30 10000 0.45 198 04:59 29.05.2022
3443 Clouds 22 1008 27 10000 5.66 220 04:39 29.05.2022
3444 Clear 22 1010 27 10000 6.17 260 01:52 29.05.2022
3445 Clear 21 1011 28 10000 3.09 210 23:48 28.05.2022
3446 Clear 21 1011 29 10000 3.09 210 23:25 28.05.2022
3447 Clear 19 1012 31 10000 1.54 0 22:21 28.05.2022
3448 Clear 17 1012 36 10000 0 0 21:19 28.05.2022
3449 Clear 17 1012 36 10000 0 0 21:19 28.05.2022
3450 Clear 13 1013 43 10000 1.54 90 19:21 28.05.2022
3451 Clear 11 1013 49 10000 1.54 80 18:45 28.05.2022
3452 Clear 9 1013 54 10000 3.09 70 17:34 28.05.2022
3453 Clear 7 1012 58 10000 2.57 70 16:22 28.05.2022
3454 Clear 8 1012 60 10000 0 0 15:38 28.05.2022
3455 Clear 7 1013 64 10000 0 0 13:57 28.05.2022
3456 Clear 7 1013 63 10000 2.57 50 12:43 28.05.2022
3457 Clear 8 1012 60 10000 2.06 80 11:54 28.05.2022
3458 Clear 11 1012 57 10000 0 0 10:43 28.05.2022
3459 Clear 14 1012 42 10000 2.06 360 09:56 28.05.2022
3460 Clear 17 1012 31 10000 2.06 290 08:39 28.05.2022
3461 Clear 19 1011 23 10000 3.6 290 07:23 28.05.2022
3462 Clear 20 1011 21 10000 4.63 290 05:24 28.05.2022
3463 Clear 20 1011 24 10000 4.63 330 02:33 28.05.2022
3464 Clear 20 1012 28 10000 4.63 320 00:31 28.05.2022
3465 Clear 18 1012 31 10000 3.6 330 22:50 27.05.2022
3466 Clear 18 1012 35 10000 4.63 360 21:37 27.05.2022
3467 Clear 17 1012 40 10000 2.06 360 20:48 27.05.2022
3468 Clear 16 1012 42 10000 2.06 360 20:21 27.05.2022
3469 Clear 15 1012 46 10000 2.57 360 19:41 27.05.2022
3470 Clear 15 1012 47 10000 2.57 360 19:21 27.05.2022
3471 Clear 11 1011 60 10000 2.06 160 17:34 27.05.2022
3472 Clear 10 1011 66 10000 1.54 110 16:36 27.05.2022
3473 Clear 9 1011 66 10000 3.09 260 15:20 27.05.2022
3474 Clear 10 1011 64 10000 4.63 320 13:44 27.05.2022
3475 Clear 11 1010 61 10000 2.57 310 12:35 27.05.2022
3476 Clear 13 1009 57 10000 2.57 300 11:33 27.05.2022
3477 Clouds 13 1009 57 10000 2.57 280 10:52 27.05.2022
3478 Clouds 13 1010 55 10000 2.57 280 10:22 27.05.2022
3479 Clouds 15 1008 50 10000 5.14 290 09:31 27.05.2022
3480 Clouds 18 1008 39 10000 6.17 290 07:42 27.05.2022
3481 Clear 20 1007 33 10000 7.72 250 05:27 27.05.2022
3482 Clouds 19 1009 35 10000 8.75 270 01:47 27.05.2022
3483 Clouds 19 1009 37 10000 8.23 260 00:19 27.05.2022
3484 Clouds 17 1009 40 10000 6.17 270 22:30 26.05.2022
3485 Clouds 17 1009 42 10000 6.17 250 21:34 26.05.2022
3486 Clouds 15 1010 52 10000 3.09 250 19:51 26.05.2022
3487 Clouds 14 1009 57 10000 3.09 250 19:19 26.05.2022
3488 Clouds 11 1008 66 10000 2.06 200 17:36 26.05.2022
3489 Clouds 11 1008 66 10000 2.06 200 17:36 26.05.2022
3490 Clouds 10 1009 69 10000 2.06 60 16:36 26.05.2022
3491 Clear 10 1009 69 10000 2.06 200 15:41 26.05.2022
3492 Clear 11 1008 65 10000 3.09 210 14:21 26.05.2022
3493 Clouds 12 1009 58 10000 3.09 200 12:35 26.05.2022
3494 Clear 13 1008 53 10000 4.12 230 11:21 26.05.2022
3495 Clouds 16 1007 39 10000 3.09 270 09:40 26.05.2022
3496 Clouds 17 1007 41 10000 3.09 270 09:19 26.05.2022
3497 Clouds 19 1006 35 10000 5.14 280 07:51 26.05.2022
3498 Clouds 20 1007 32 10000 7.72 260 03:35 26.05.2022
3499 Clouds 18 1008 34 10000 7.2 240 00:21 26.05.2022
3500 Clouds 17 1008 38 10000 6.17 250 23:22 25.05.2022
3501 Clouds 14 1009 50 10000 1.54 0 21:47 25.05.2022
3502 Clouds 13 1009 52 10000 1.54 0 21:28 25.05.2022
3503 Clouds 10 1010 56 10000 2.57 80 19:59 25.05.2022
3504 Clouds 9 1009 58 10000 2.06 70 19:21 25.05.2022
3505 Clouds 7 1009 62 10000 2.06 60 17:33 25.05.2022
3506 Clouds 7 1010 61 10000 2.06 80 16:36 25.05.2022
3507 Clouds 7 1009 58 10000 3.09 80 15:53 25.05.2022
3508 Clouds 7 1009 56 10000 3.09 80 14:51 25.05.2022
3509 Clouds 7 1009 58 10000 3.09 80 14:32 25.05.2022
3510 Clouds 7 1008 60 10000 2.06 70 13:35 25.05.2022
3511 Clouds 7 1009 60 10000 0 0 12:36 25.05.2022
3512 Clear 10 1009 47 10000 1.54 230 10:43 25.05.2022
3513 Clear 12 1008 44 10000 1.54 310 09:53 25.05.2022
3514 Clouds 14 1008 32 10000 2.25 228 08:23 25.05.2022
3515 Clouds 16 1008 26 10000 0.45 231 06:53 25.05.2022
3516 Clear 18 1008 27 10000 4.63 240 03:22 25.05.2022
3517 Clouds 15 1010 28 10000 0.89 262 23:55 24.05.2022
3518 Clouds 15 1010 30 10000 0.89 102 23:25 24.05.2022
3519 Clouds 14 1011 32 10000 1.54 0 22:19 24.05.2022
3520 Clear 13 1011 34 10000 0.45 281 21:39 24.05.2022
3521 Clear 13 1011 35 10000 0.89 281 21:20 24.05.2022
3522 Clouds 10 1011 43 10000 2.06 20 19:45 24.05.2022
3523 Clouds 8 1012 49 10000 2.57 60 18:50 24.05.2022
3524 Clear 5 1011 59 10000 3.09 60 16:42 24.05.2022
3525 Clear 4 1011 62 10000 3.09 60 16:19 24.05.2022
3526 Clear 2 1012 66 10000 3.6 350 14:50 24.05.2022
3527 Clear 3 1011 62 10000 2.06 360 13:52 24.05.2022
3528 Clear 4 1012 60 10000 2.06 10 12:49 24.05.2022
3529 Clear 7 1012 51 10000 2.57 30 10:46 24.05.2022
3530 Clear 9 1011 45 10000 4.12 40 09:43 24.05.2022
3531 Clear 10 1011 40 10000 6.17 50 08:49 24.05.2022
3532 Clear 13 1012 32 10000 5.14 70 06:57 24.05.2022
3533 Clear 14 1012 29 10000 4.63 70 03:56 24.05.2022
3534 Clouds 14 1013 28 10000 5.66 80 01:53 24.05.2022
3535 Clouds 14 1013 27 10000 7.2 40 01:32 24.05.2022
3536 Clouds 14 1014 31 10000 4.63 50 22:55 23.05.2022
3537 Clouds 13 1014 32 10000 4.12 30 21:55 23.05.2022
3538 Clouds 12 1014 37 10000 4.63 50 21:29 23.05.2022
3539 Clouds 11 1015 40 10000 6.17 50 20:35 23.05.2022
3540 Clear 10 1015 45 10000 6.17 30 19:32 23.05.2022
3541 Clear 8 1015 48 10000 5.66 50 18:58 23.05.2022
3542 Clear 8 1015 50 10000 5.66 50 18:30 23.05.2022
3543 Clear 6 1015 54 10000 6.17 10 17:20 23.05.2022
3544 Clear 6 1015 58 10000 5.66 10 15:23 23.05.2022
3545 Clouds 6 1015 55 10000 2.57 350 13:21 23.05.2022
3546 Clear 8 1015 48 10000 5.14 50 11:31 23.05.2022
3547 Clear 10 1014 40 10000 7.72 50 09:51 23.05.2022
3548 Clear 11 1014 40 10000 7.72 50 09:30 23.05.2022
3549 Clear 12 1013 36 10000 9.77 50 08:31 23.05.2022
3550 Clear 15 1012 31 10000 7.72 40 06:46 23.05.2022
3551 Clear 16 1012 28 10000 8.23 40 05:39 23.05.2022
3552 Clear 18 1012 25 10000 4.63 360 02:34 23.05.2022
3553 Clear 18 1012 25 10000 7.2 350 01:39 23.05.2022
3554 Clear 19 1013 24 10000 5.14 350 00:23 23.05.2022
3555 Clear 18 1013 26 10000 4.12 340 22:42 22.05.2022
3556 Clear 17 1013 29 10000 4.12 350 21:55 22.05.2022
3557 Clear 17 1013 28 10000 4.12 350 21:36 22.05.2022
3558 Clear 16 1013 31 10000 3.09 10 20:32 22.05.2022
3559 Clear 15 1014 32 10000 2.57 50 19:57 22.05.2022
3560 Clear 13 1013 41 10000 2.06 60 18:57 22.05.2022
3561 Clear 12 1013 45 10000 4.63 10 18:28 22.05.2022
3562 Clear 11 1013 53 10000 3.09 360 17:39 22.05.2022
3563 Clear 9 1014 59 10000 4.63 360 16:50 22.05.2022
3564 Clear 8 1014 61 10000 0 0 14:53 22.05.2022
3565 Clear 10 1014 56 10000 0.89 341 13:57 22.05.2022
3566 Clear 11 1014 53 10000 2.06 60 12:53 22.05.2022
3567 Clear 12 1014 49 10000 4.12 360 11:52 22.05.2022
3568 Clear 14 1015 44 10000 3.09 60 10:27 22.05.2022
3569 Clouds 15 1014 41 10000 3.6 30 09:19 22.05.2022
3570 Clouds 18 1014 36 10000 5.66 30 07:34 22.05.2022
3571 Clear 19 1015 33 10000 6.69 40 06:40 22.05.2022
3572 Clouds 23 1015 26 10000 3.09 190 03:20 22.05.2022
3573 Clear 22 1017 28 10000 3.6 160 00:48 22.05.2022
3574 Clear 22 1018 27 10000 2.57 140 23:56 21.05.2022
3575 Clouds 22 1018 28 10000 1.79 195 23:22 21.05.2022
3576 Clear 19 1020 33 10000 1.54 160 21:55 21.05.2022
3577 Clear 18 1020 34 10000 2.06 110 21:30 21.05.2022
3578 Clear 16 1021 38 10000 1.54 30 20:29 21.05.2022
3579 Clear 14 1021 44 10000 1.54 100 19:43 21.05.2022
3580 Clear 12 1020 51 10000 1.54 70 18:31 21.05.2022
3581 Clear 8 1021 63 10000 0 0 16:57 21.05.2022
3582 Clear 6 1022 71 10000 3.6 70 14:39 21.05.2022
3583 Clear 7 1022 71 10000 2.57 60 13:55 21.05.2022
3584 Clouds 8 1022 70 10000 2.06 330 13:19 21.05.2022
3585 Clouds 8 1022 69 10000 1.54 90 12:38 21.05.2022
3586 Clouds 11 1022 62 10000 0 0 11:20 21.05.2022
3587 Clear 14 1022 51 10000 0 0 09:57 21.05.2022
3588 Clear 18 1022 37 10000 0 0 08:59 21.05.2022
3589 Clear 19 1022 36 10000 0 0 08:37 21.05.2022
3590 Clear 22 1022 27 10000 0.06 51 06:20 21.05.2022
3591 Clouds 21 1026 26 10000 2.57 260 01:41 21.05.2022
3592 Clear 20 1027 31 10000 1.54 180 23:32 20.05.2022
3593 Clear 18 1028 37 10000 1.54 330 22:30 20.05.2022
3594 Clouds 17 1028 39 10000 0.89 182 21:56 20.05.2022
3595 Clouds 16 1029 41 10000 1.54 310 21:19 20.05.2022
3596 Clear 15 1029 43 10000 0.89 219 20:45 20.05.2022
3597 Clouds 13 1029 48 10000 0.45 199 19:45 20.05.2022
3598 Clouds 11 1029 53 10000 0.45 123 18:53 20.05.2022
3599 Clear 8 1029 63 10000 2.57 80 17:53 20.05.2022
3600 Clear 6 1029 69 10000 3.09 70 16:23 20.05.2022
3601 Clear 6 1029 68 10000 3.09 80 15:53 20.05.2022
3602 Clear 5 1029 70 10000 3.09 70 14:32 20.05.2022
3603 Clouds 6 1029 70 10000 0.45 88 13:59 20.05.2022
3604 Clear 7 1029 70 10000 1.54 50 11:51 20.05.2022
3605 Clear 9 1028 65 10000 1.54 70 10:45 20.05.2022
3606 Haze 13 1028 48 8047 0.45 266 09:23 20.05.2022
3607 Clear 16 1028 37 10000 3.09 300 07:43 20.05.2022
3608 Clouds 18 1027 35 10000 3.6 220 06:40 20.05.2022
3609 Clouds 18 1027 32 10000 1.54 300 05:39 20.05.2022
3610 Clouds 18 1028 31 10000 3.09 220 01:29 20.05.2022
3611 Clouds 16 1027 36 10000 4.63 200 23:46 19.05.2022
3612 Clouds 16 1028 38 10000 3.09 190 22:35 19.05.2022
3613 Clouds 15 1028 41 10000 2.06 230 21:50 19.05.2022
3614 Clouds 15 1028 43 10000 2.06 230 21:23 19.05.2022
3615 Clouds 13 1028 47 10000 1.54 180 20:43 19.05.2022
3616 Clouds 12 1028 50 10000 2.57 80 19:54 19.05.2022
3617 Clouds 10 1028 54 10000 0.89 191 18:59 19.05.2022
3618 Clouds 8 1026 59 10000 1.54 40 17:36 19.05.2022
3619 Clouds 6 1025 66 10000 1.03 70 15:43 19.05.2022
3620 Clouds 6 1026 67 10000 0 0 14:39 19.05.2022
3621 Clouds 6 1025 67 10000 0 0 14:19 19.05.2022
3622 Clouds 9 1023 56 10000 0.51 0 11:53 19.05.2022
3623 Clouds 9 1022 53 10000 2.06 70 10:30 19.05.2022
3624 Clouds 11 1020 47 10000 2.06 260 08:33 19.05.2022
3625 Clouds 13 1020 39 10000 2.57 300 07:18 19.05.2022
3626 Clouds 15 1018 34 10000 2.57 0 03:26 19.05.2022
3627 Clouds 15 1016 35 10000 1.34 254 00:56 19.05.2022
3628 Clouds 14 1017 39 10000 2.06 310 23:35 18.05.2022
3629 Clouds 13 1017 43 10000 2.57 0 22:43 18.05.2022
3630 Clouds 12 1017 44 10000 3.6 20 21:42 18.05.2022
3631 Clouds 12 1017 46 10000 3.6 20 21:20 18.05.2022
3632 Clouds 10 1017 50 10000 1.54 130 20:19 18.05.2022
3633 Clear 8 1016 58 10000 3.09 10 18:53 18.05.2022
3634 Clear 8 1016 58 10000 3.09 10 18:53 18.05.2022
3635 Clear 5 1016 65 10000 2.57 60 17:42 18.05.2022
3636 Clear 5 1016 66 10000 2.57 60 17:24 18.05.2022
3637 Clear 4 1015 70 10000 0 0 16:53 18.05.2022
3638 Clear 4 1015 73 10000 3.09 350 15:45 18.05.2022
3639 Clouds 3 1015 71 10000 3.09 350 15:20 18.05.2022
3640 Clouds 3 1014 69 10000 0.89 284 13:59 18.05.2022
3641 Clouds 6 1014 65 10000 1.54 310 12:53 18.05.2022
3642 Clouds 7 1014 59 10000 2.57 350 11:48 18.05.2022
3643 Clouds 7 1014 62 10000 2.57 350 11:30 18.05.2022
3644 Clouds 8 1014 57 10000 2.57 10 10:43 18.05.2022
3645 Clouds 8 1015 62 10000 2.16 34 07:59 18.05.2022
3646 Clouds 11 1012 53 10000 1.54 10 06:54 18.05.2022
3647 Clouds 13 1010 52 10000 0.51 0 03:40 18.05.2022
3648 Clouds 13 1011 47 10000 3.6 340 00:42 18.05.2022
3649 Clouds 13 1011 52 10000 4.12 150 23:21 17.05.2022
3650 Clouds 11 1011 62 10000 3.6 170 21:21 17.05.2022
3651 Clouds 10 1011 65 10000 1.54 180 20:43 17.05.2022
3652 Clouds 7 1011 73 10000 0.45 112 19:31 17.05.2022
3653 Clouds 6 1011 79 10000 2.06 170 18:46 17.05.2022
3654 Clouds 4 1011 83 10000 1.54 150 17:34 17.05.2022
3655 Clouds 4 1010 84 10000 0.51 200 16:55 17.05.2022
3656 Clouds 2 1010 88 10000 0 0 15:49 17.05.2022
3657 Clouds 3 1010 88 10000 0.51 230 14:55 17.05.2022
3658 Clouds 2 1010 88 10000 0.51 230 14:28 17.05.2022
3659 Clouds 3 1009 84 10000 0.51 190 12:37 17.05.2022
3660 Clouds 5 1008 81 10000 0 0 10:39 17.05.2022
3661 Clouds 6 1008 75 10000 2.06 170 08:51 17.05.2022
3662 Clouds 7 1008 72 10000 2.06 170 07:46 17.05.2022
3663 Clouds 8 1008 69 10000 2.06 140 06:23 17.05.2022
3664 Clouds 9 1008 59 10000 1.34 250 01:23 17.05.2022
3665 Clouds 8 1008 63 10000 2.06 160 23:43 16.05.2022
3666 Clouds 7 1008 65 10000 0.89 254 22:33 16.05.2022
3667 Clouds 6 1008 66 10000 0.51 190 21:18 16.05.2022
3668 Clouds 6 1008 70 10000 0.51 90 20:37 16.05.2022
3669 Clouds 3 1008 84 10000 2.06 360 18:51 16.05.2022
3670 Rain 2 1008 90 10000 2.57 20 17:18 16.05.2022
3671 Rain 2 1008 90 10000 2.57 20 17:18 16.05.2022
3672 Clouds 1 1009 92 10000 1.54 310 15:29 16.05.2022
3673 Rain 2 1008 91 10000 3.09 270 13:45 16.05.2022
3674 Rain 3 1008 89 10000 2.57 350 12:41 16.05.2022
3675 Rain 3 1008 86 10000 2.06 30 10:36 16.05.2022
3676 Clouds 4 1009 74 10000 0.77 98 07:59 16.05.2022
3677 Clouds 6 1008 58 10000 5.66 80 06:30 16.05.2022
3678 Clouds 10 1009 49 10000 1.79 61 01:43 16.05.2022
3679 Clouds 9 1010 48 10000 4.12 50 22:44 15.05.2022
3680 Clouds 9 1010 49 10000 4.12 50 22:20 15.05.2022
3681 Clouds 8 1010 50 10000 6.17 30 21:37 15.05.2022
3682 Clouds 8 1010 52 10000 7.2 40 20:47 15.05.2022
3683 Clouds 5 1011 58 10000 4.63 20 18:46 15.05.2022
3684 Clouds 4 1013 66 10000 3.09 10 16:54 15.05.2022
3685 Clouds 2 1014 70 10000 3.09 360 14:34 15.05.2022
3686 Clouds 2 1015 69 10000 3.09 350 13:46 15.05.2022
3687 Clouds 3 1016 67 10000 2.29 9 11:59 15.05.2022
3688 Clouds 2 1017 70 10000 3.6 360 10:49 15.05.2022
3689 Clouds 3 1018 60 10000 4.12 20 09:51 15.05.2022
3690 Rain 7 1018 60 10000 3.09 360 07:23 15.05.2022
3691 Rain 7 1018 63 10000 3.6 330 06:55 15.05.2022
3692 Rain 8 1019 68 10000 6.69 60 03:38 15.05.2022
3693 Rain 7 1020 69 10000 4.12 300 00:26 15.05.2022
3694 Rain 8 1020 65 10000 1.54 0 23:37 14.05.2022
3695 Clouds 6 1020 73 10000 0.89 271 21:51 14.05.2022
3696 Clouds 6 1020 75 10000 0 0 21:26 14.05.2022
3697 Clouds 4 1020 85 10000 1.54 80 20:27 14.05.2022
3698 Clouds 2 1020 90 10000 1.54 140 19:21 14.05.2022
3699 Clouds 2 1020 90 10000 1.15 300 18:58 14.05.2022
3700 Mist 0 1020 91 8047 1.54 110 17:47 14.05.2022
3701 Clouds 0 1020 93 10000 0.96 294 15:58 14.05.2022
3702 Clouds 0 1019 91 10000 0 0 14:39 14.05.2022
3703 Clouds 0 1019 91 10000 0.45 261 14:18 14.05.2022
3704 Clouds 1 1018 88 10000 0.45 272 11:48 14.05.2022
3705 Clouds 2 1018 87 10000 0.45 302 10:45 14.05.2022
3706 Rain 2 1017 85 10000 0.45 306 10:19 14.05.2022
3707 Rain 3 1017 84 10000 0.89 288 09:25 14.05.2022
3708 Rain 5 1016 71 10000 4.12 300 07:34 14.05.2022
3709 Rain 8 1014 54 10000 2.57 0 04:43 14.05.2022
3710 Clouds 7 1013 65 10000 5.66 280 01:42 14.05.2022
3711 Rain 6 1013 73 10000 2.57 0 23:28 13.05.2022
3712 Rain 6 1012 73 10000 4.12 170 22:55 13.05.2022
3713 Clouds 5 1012 77 10000 4.12 170 22:21 13.05.2022
3714 Clouds 4 1011 84 10000 3.09 160 20:59 13.05.2022
3715 Clouds 4 1011 86 10000 3.09 160 20:40 13.05.2022
3716 Clouds 4 1011 87 10000 2.57 250 20:21 13.05.2022
3717 Clouds 3 1010 88 10000 2.57 290 19:18 13.05.2022
3718 Clouds 2 1010 92 10000 2.57 190 17:47 13.05.2022
3719 Clouds 2 1009 92 10000 2.57 190 17:23 13.05.2022
3720 Clouds 1 1009 94 10000 3.6 170 15:48 13.05.2022
3721 Snow 2 1008 94 10000 3.09 160 14:45 13.05.2022
3722 Rain 2 1008 95 8047 3.09 170 12:54 13.05.2022
3723 Rain 2 1008 94 8047 3.09 170 12:20 13.05.2022
3724 Rain 2 1007 95 10000 3.09 210 10:19 13.05.2022
3725 Rain 2 1007 93 10000 3.09 210 09:29 13.05.2022
3726 Rain 3 1007 93 10000 4.12 220 07:59 13.05.2022
3727 Rain 3 1007 92 10000 3.6 160 07:26 13.05.2022
3728 Rain 3 1007 93 4828 5.14 180 05:31 13.05.2022
3729 Rain 4 1009 89 10000 2.06 210 01:21 13.05.2022
3730 Rain 4 1010 82 4828 4.63 170 23:24 12.05.2022
3731 Rain 5 1011 76 10000 2.57 160 22:35 12.05.2022
3732 Rain 5 1011 75 10000 3.6 170 21:26 12.05.2022
3733 Rain 3 1012 88 10000 1.79 236 19:55 12.05.2022
3734 Rain 2 1013 90 10000 2.57 220 18:29 12.05.2022
3735 Rain 2 1013 90 10000 2.06 200 16:45 12.05.2022
3736 Rain 2 1014 85 10000 2.57 180 15:22 12.05.2022
3737 Clouds 3 1013 75 10000 2.06 220 13:52 12.05.2022
3738 Clouds 3 1013 73 10000 2.06 260 12:29 12.05.2022
3739 Clouds 4 1013 64 10000 3.09 0 10:34 12.05.2022
3740 Clouds 6 1012 53 10000 3.09 300 08:56 12.05.2022
3741 Clouds 6 1012 53 10000 3.09 300 08:35 12.05.2022
3742 Clouds 7 1012 45 10000 2.06 300 07:25 12.05.2022
3743 Clouds 9 1012 39 10000 2.57 200 04:45 12.05.2022
3744 Clouds 9 1013 40 10000 3.09 190 01:37 12.05.2022
3745 Clouds 8 1015 44 10000 2.57 200 23:36 11.05.2022
3746 Clouds 7 1016 48 10000 2.06 0 22:21 11.05.2022
3747 Clouds 6 1016 55 10000 2.06 180 21:26 11.05.2022
3748 Clouds 6 1016 55 10000 2.06 180 21:26 11.05.2022
3749 Rain 5 1017 60 10000 2.57 180 20:45 11.05.2022
3750 Clear 0 1019 83 10000 1.54 190 17:43 11.05.2022
3751 Clear -1 1019 86 10000 0 0 16:39 11.05.2022
3752 Clouds 0 1019 82 10000 1.54 170 14:48 11.05.2022
3753 Clouds 0 1019 81 10000 1.54 170 14:25 11.05.2022
3754 Clouds 1 1020 76 10000 5.14 260 13:25 11.05.2022
3755 Clouds 2 1020 76 10000 3.6 230 11:48 11.05.2022
3756 Clouds 3 1020 73 10000 3.6 230 09:34 11.05.2022
3757 Clouds 5 1018 73 10000 5.66 240 06:59 11.05.2022
3758 Snow 4 1018 81 10000 7.2 230 02:27 11.05.2022
3759 Snow 3 1018 85 10000 5.66 230 23:45 10.05.2022
3760 Snow 2 1017 89 10000 6.17 250 22:30 10.05.2022
3761 Snow 2 1017 90 9656 5.66 230 21:41 10.05.2022
3762 Rain 1 1016 91 4828 5.14 230 20:47 10.05.2022
3763 Snow 0 1015 93 10000 4.63 230 18:58 10.05.2022
3764 Clouds 0 1014 93 10000 5.14 230 17:43 10.05.2022
3765 Rain 0 1014 94 9656 4.12 230 16:38 10.05.2022
3766 Clouds 1 1012 94 10000 4.12 230 13:37 10.05.2022
3767 Clouds 0 1012 96 10000 3.6 220 11:54 10.05.2022
3768 Clouds 1 1011 94 10000 3.6 220 11:34 10.05.2022
3769 Clouds 0 1011 95 10000 3.6 230 10:57 10.05.2022
3770 Clouds 1 1010 94 10000 3.09 220 09:52 10.05.2022
3771 Snow 1 1009 93 10000 3.09 240 08:22 10.05.2022
3772 Rain 2 1008 92 10000 3.6 220 06:21 10.05.2022
3773 Snow 2 1008 88 1811 5.14 270 02:31 10.05.2022
3774 Rain 3 1008 83 8047 5.66 250 23:55 09.05.2022
3775 Rain 3 1008 85 10000 5.66 260 22:41 09.05.2022
3776 Rain 2 1008 90 10000 7.2 250 21:42 09.05.2022
3777 Rain 2 1008 94 9656 6.17 220 20:22 09.05.2022
3778 Snow 1 1008 93 10000 5.14 220 18:29 09.05.2022
3779 Rain 1 1008 94 6437 1.54 220 17:27 09.05.2022
3780 Snow 1 1009 95 10000 1.54 170 16:21 09.05.2022
3781 Snow 0 1009 94 10000 2.06 160 15:47 09.05.2022
3782 Snow 0 1009 95 4023 2.06 170 14:41 09.05.2022
3783 Snow 0 1010 95 4828 1.54 160 13:59 09.05.2022
3784 Snow 0 1010 94 4828 2.06 190 13:32 09.05.2022
3785 Snow 1 1010 94 10000 1.54 150 11:53 09.05.2022
3786 Snow 1 1011 92 4426 2.57 180 10:50 09.05.2022
3787 Snow 1 1011 92 4828 2.57 180 10:26 09.05.2022
3788 Rain 3 1012 81 9656 3.6 300 07:57 09.05.2022
3789 Clouds 6 1013 57 10000 5.14 300 05:59 09.05.2022
3790 Clouds 7 1016 51 10000 2.24 302 01:59 09.05.2022
3791 Rain 6 1018 59 10000 5.66 210 23:29 08.05.2022
3792 Clouds 5 1018 63 10000 5.66 250 22:32 08.05.2022
3793 Rain 4 1019 68 10000 5.14 230 21:24 08.05.2022
3794 Clouds 4 1019 71 10000 3.6 190 20:25 08.05.2022
3795 Clouds 3 1019 74 10000 2.57 220 19:35 08.05.2022
3796 Clouds 2 1020 77 10000 3.09 230 18:40 08.05.2022
3797 Clouds 2 1019 78 10000 2.57 250 17:40 08.05.2022
3798 Clouds 1 1019 78 10000 2.57 250 16:23 08.05.2022
3799 Clouds 2 1018 78 10000 4.12 250 15:24 08.05.2022
3800 Clouds 3 1017 81 10000 3.09 250 13:44 08.05.2022
3801 Rain 4 1016 88 10000 1.54 190 11:50 08.05.2022
3802 Clouds 5 1015 85 10000 2.06 230 10:26 08.05.2022
3803 Clouds 5 1015 86 10000 2.57 250 09:53 08.05.2022
3804 Rain 6 1015 79 6437 5.14 290 07:57 08.05.2022
3805 Clear 8 1014 76 10000 1.54 100 06:18 08.05.2022
3806 Rain 8 1014 78 10000 2.06 280 03:22 08.05.2022
3807 Rain 8 1014 78 10000 2.06 280 03:22 08.05.2022
3808 Rain 11 1013 59 10000 5.14 240 01:19 08.05.2022
3809 Clear 10 1012 72 10000 2.24 213 23:57 07.05.2022
3810 Clear 10 1012 71 10000 2.06 140 23:32 07.05.2022
3811 Clear 8 1013 80 10000 1.34 98 22:42 07.05.2022
3812 Clouds 7 1012 87 10000 0 0 21:56 07.05.2022
3813 Clouds 6 1013 90 10000 0 0 21:21 07.05.2022
3814 Mist 4 1012 94 10000 0.89 209 20:25 07.05.2022
3815 Mist 4 1012 94 10000 0.89 209 20:25 07.05.2022
3816 Mist 3 1012 95 10000 0 0 18:49 07.05.2022
3817 Fog 3 1011 93 10000 0 0 16:34 07.05.2022
3818 Clouds 3 1010 94 10000 0 0 14:54 07.05.2022
3819 Rain 4 1009 91 10000 3.6 80 11:28 07.05.2022
3820 Rain 5 1008 89 10000 0 0 09:44 07.05.2022
3821 Clouds 6 1008 84 10000 2.06 220 08:30 07.05.2022
3822 Clouds 7 1007 82 10000 1.54 330 07:20 07.05.2022
3823 Clouds 7 1007 80 10000 2.06 260 06:42 07.05.2022
3824 Rain 7 1006 83 6437 4.12 40 03:57 07.05.2022
3825 Clear 10 1006 62 10000 2.57 0 23:51 06.05.2022
3826 Clear 10 1006 66 10000 2.06 180 22:40 06.05.2022
3827 Clear 9 1006 70 10000 1.54 190 21:53 06.05.2022
3828 Clear 8 1006 74 10000 1.54 190 21:29 06.05.2022
3829 Clouds 5 1006 84 10000 0.45 171 19:47 06.05.2022
3830 Clouds 5 1006 86 10000 0.45 147 19:24 06.05.2022
3831 Clear 3 1006 90 10000 0 0 18:31 06.05.2022
3832 Clouds 2 1006 92 10000 0 0 17:36 06.05.2022
3833 Clear 2 1005 92 10000 2.06 80 15:53 06.05.2022
3834 Clear 1 1005 91 10000 2.06 80 15:28 06.05.2022
3835 Clouds 2 1005 90 10000 0 0 13:49 06.05.2022
3836 Clouds 2 1004 89 10000 0 0 12:50 06.05.2022
3837 Clouds -2 1005 91 10000 1.33 0 11:58 06.05.2022
3838 Clouds 4 1004 81 10000 1.54 310 10:41 06.05.2022
3839 Clouds 5 1004 81 10000 2.06 30 09:47 06.05.2022
3840 Rain 5 1003 84 10000 2.06 30 09:18 06.05.2022
3841 Rain 6 1002 81 10000 2.06 220 07:49 06.05.2022
3842 Rain 8 1002 69 10000 5.14 230 06:26 06.05.2022
3843 Rain 8 1002 72 9656 6.17 310 02:58 06.05.2022
3844 Clouds 9 1001 64 10000 1.79 296 01:58 06.05.2022
3845 Clouds 9 1003 61 10000 0.74 23 22:58 05.05.2022
3846 Clear 9 1002 59 10000 1.54 0 21:49 05.05.2022
3847 Clouds 8 1001 61 10000 0.89 223 20:36 05.05.2022
3848 Clouds 5 1000 69 10000 0.61 96 18:56 05.05.2022
3849 Clouds 1 1000 80 10000 2.06 30 16:42 05.05.2022
3850 Clouds 1 1000 81 10000 2.06 70 15:30 05.05.2022
3851 Clouds 1 999 80 10000 1.54 40 13:30 05.05.2022
3852 Clear 1 999 78 10000 0 0 12:56 05.05.2022
3853 Clear 3 999 73 10000 0 0 11:35 05.05.2022
3854 Clear 6 998 53 10000 3.09 200 09:41 05.05.2022
3855 Clear 6 998 53 10000 3.09 200 09:41 05.05.2022
3856 Clouds 7 997 51 10000 3.6 290 08:40 05.05.2022
3857 Clouds 11 996 42 10000 4.12 310 06:24 05.05.2022
3858 Rain 13 996 31 10000 3.6 190 02:25 05.05.2022
3859 Clear 12 996 37 10000 4.12 230 01:41 05.05.2022
3860 Rain 12 997 40 10000 4.63 210 00:43 05.05.2022
3861 Rain 11 996 43 10000 4.63 200 23:18 04.05.2022
3862 Clouds 10 996 46 10000 3.6 190 21:59 04.05.2022
3863 Clouds 10 996 49 10000 2.06 130 21:34 04.05.2022
3864 Clouds 9 996 51 10000 0.45 221 20:52 04.05.2022
3865 Clouds 8 995 55 10000 0.45 342 20:18 04.05.2022
3866 Clear 6 996 56 10000 0.45 172 19:35 04.05.2022
3867 Clear 4 995 66 10000 2.06 30 18:42 04.05.2022
3868 Clear 3 995 68 10000 2.06 30 18:18 04.05.2022
3869 Clouds 1 995 77 10000 2.57 90 16:36 04.05.2022
3870 Clear 0 995 79 10000 2.57 80 15:32 04.05.2022
3871 Clear 0 994 79 10000 1.54 40 14:41 04.05.2022
3872 Clear 0 994 78 10000 1.54 40 14:19 04.05.2022
3873 Clouds 2 993 73 10000 2.06 50 12:39 04.05.2022
3874 Clear 4 992 61 10000 0 0 11:40 04.05.2022
3875 Clouds 8 992 35 10000 4.12 290 09:57 04.05.2022
3876 Clouds 8 992 42 10000 4.12 290 09:21 04.05.2022
3877 Clouds 9 991 37 10000 2.57 260 07:51 04.05.2022
3878 Clear 13 989 36 10000 1.54 270 04:45 04.05.2022
3879 Clear 12 990 37 10000 2.57 240 02:37 04.05.2022
3880 Clouds 11 990 40 10000 2.06 250 23:20 03.05.2022
3881 Clear 11 989 41 10000 2.06 110 21:53 03.05.2022
3882 Clear 11 990 41 10000 2.06 110 21:31 03.05.2022
3883 Clear 10 990 41 10000 1.79 173 20:52 03.05.2022
3884 Clear 7 990 47 10000 0.45 159 19:33 03.05.2022
3885 Clear 5 990 53 10000 2.06 80 18:47 03.05.2022
3886 Clear 1 990 70 10000 3.09 60 17:22 03.05.2022
3887 Clear 0 990 73 10000 2.57 60 16:19 03.05.2022
3888 Clear 0 991 72 10000 3.09 70 14:25 03.05.2022
3889 Clear 1 991 69 10000 2.57 70 12:42 03.05.2022
3890 Clear 1 991 61 10000 2.57 20 11:39 03.05.2022
3891 Clear 1 991 63 10000 4.12 30 10:49 03.05.2022
3892 Clear 8 990 39 10000 2.57 320 08:29 03.05.2022
3893 Clear 10 992 32 10000 5.14 140 06:45 03.05.2022
3894 Clear 12 992 30 10000 4.12 150 02:48 03.05.2022
3895 Clouds 11 993 38 10000 3.09 130 23:32 02.05.2022
3896 Clouds 11 994 41 10000 2.57 160 22:29 02.05.2022
3897 Clouds 10 993 42 10000 3.09 160 21:47 02.05.2022
3898 Clouds 8 992 53 10000 0.89 165 19:59 02.05.2022
3899 Clouds 4 993 65 10000 2.06 10 18:27 02.05.2022
3900 Clouds 3 993 66 10000 2.06 80 17:41 02.05.2022
3901 Clouds 2 993 70 10000 2.06 80 16:43 02.05.2022
3902 Clouds 2 993 67 10000 1.54 280 15:44 02.05.2022
3903 Clear 3 993 68 10000 2.57 70 14:51 02.05.2022
3904 Clouds 2 993 65 10000 3.6 70 13:42 02.05.2022
3905 Clear 4 993 63 10000 3.09 70 11:41 02.05.2022
3906 Clouds 4 994 60 10000 3.09 70 09:59 02.05.2022
3907 Clear 7 994 48 10000 2.57 70 08:31 02.05.2022
3908 Clear 10 994 40 10000 3.09 100 06:56 02.05.2022
3909 Clouds 12 996 34 10000 3.09 150 00:48 02.05.2022
3910 Clouds 11 996 34 10000 3.09 150 00:22 02.05.2022
3911 Clear 12 997 34 10000 3.6 90 23:40 01.05.2022
3912 Clear 10 998 40 10000 4.63 100 21:45 01.05.2022
3913 Clear 9 998 44 10000 4.12 80 20:50 01.05.2022
3914 Clear 6 998 54 10000 4.63 60 19:40 01.05.2022
3915 Clear 5 999 57 10000 2.57 60 18:53 01.05.2022
3916 Clear 2 1000 70 10000 3.09 60 17:51 01.05.2022
3917 Clear 1 1000 73 10000 3.6 60 16:42 01.05.2022
3918 Clear 0 1001 75 10000 3.6 60 16:18 01.05.2022
3919 Clear 1 1001 71 10000 4.12 70 14:54 01.05.2022
3920 Clear 1 1002 67 10000 4.63 70 12:52 01.05.2022
3921 Clear 3 1003 60 10000 3.6 70 10:45 01.05.2022
3922 Clouds 7 1004 37 10000 2.57 130 08:50 01.05.2022
3923 Clouds 11 1005 25 10000 4.63 130 06:51 01.05.2022
3924 Clear 12 1006 31 10000 8.23 120 02:46 01.05.2022
3925 Clear 12 1009 35 10000 4.12 140 22:51 30.04.2022
3926 Clear 12 1009 35 10000 4.12 140 22:51 30.04.2022
3927 Clear 11 1009 39 10000 3.09 120 21:33 30.04.2022
3928 Clear 9 1010 44 10000 2.57 100 20:22 30.04.2022
3929 Clear 8 1010 47 10000 3.09 90 19:31 30.04.2022
3930 Clear 1 1011 74 10000 2.57 80 17:37 30.04.2022
3931 Clear -1 1011 77 10000 3.6 70 16:28 30.04.2022
3932 Clear -1 1011 80 10000 1.54 40 15:19 30.04.2022
3933 Clear 0 1011 76 10000 0 0 14:30 30.04.2022
3934 Clouds 2 1011 69 10000 1.94 37 11:59 30.04.2022
3935 Clouds 3 1012 65 10000 2.06 20 11:32 30.04.2022
3936 Clouds 3 1011 63 10000 3.6 80 10:25 30.04.2022
3937 Clouds 6 1011 50 10000 0 0 08:26 30.04.2022
3938 Clear 12 1013 37 10000 1.54 270 04:58 30.04.2022
3939 Clear 11 1015 42 10000 0 0 00:34 30.04.2022
3940 Clouds 11 1014 45 10000 0.45 289 22:58 29.04.2022
3941 Clear 9 1016 46 10000 0 0 22:29 29.04.2022
3942 Clear 8 1016 51 10000 0 0 21:26 29.04.2022
3943 Clouds 7 1014 55 10000 1.54 60 20:24 29.04.2022
3944 Clear 5 1015 64 10000 1.54 50 19:28 29.04.2022
3945 Clouds 2 1015 73 10000 2.57 40 17:38 29.04.2022
3946 Clouds 0 1015 80 10000 2.57 70 16:43 29.04.2022
3947 Clouds 0 1015 77 10000 2.06 60 14:38 29.04.2022
3948 Clouds 0 1015 77 10000 2.06 60 14:38 29.04.2022
3949 Clouds 0 1015 77 10000 2.06 60 14:38 29.04.2022
3950 Clouds 1 1015 76 10000 0.45 61 13:59 29.04.2022
3951 Clouds 2 1016 70 10000 2.57 50 12:41 29.04.2022
3952 Clouds 2 1016 69 10000 2.57 100 10:56 29.04.2022
3953 Clouds 6 1015 37 10000 3.6 330 08:18 29.04.2022
3954 Clouds 9 1016 40 10000 1.54 180 07:27 29.04.2022
3955 Clear 12 1016 30 10000 2.57 190 06:34 29.04.2022
3956 Clear 11 1016 34 10000 3.09 210 03:23 29.04.2022
3957 Clear 11 1016 41 10000 3.09 230 00:18 29.04.2022
3958 Clear 10 1017 43 10000 2.57 150 23:26 28.04.2022
3959 Clouds 10 1015 42 10000 0.45 258 22:37 28.04.2022
3960 Clear 9 1016 43 10000 0.45 174 21:45 28.04.2022
3961 Clouds 8 1016 45 10000 0.45 137 20:49 28.04.2022
3962 Clouds 4 1016 54 10000 1.23 22 19:59 28.04.2022
3963 Clear 5 1016 54 10000 2.57 60 19:40 28.04.2022
3964 Clear 4 1016 59 10000 2.57 60 19:20 28.04.2022
3965 Clear 1 1015 68 10000 0 0 17:56 28.04.2022
3966 Clear 0 1015 73 10000 0 0 16:59 28.04.2022
3967 Clear 0 1016 70 10000 2.06 70 16:21 28.04.2022
3968 Clear -1 1016 74 10000 1.54 50 15:56 28.04.2022
3969 Clouds -1 1016 70 10000 3.6 50 15:23 28.04.2022
3970 Clear 1 1016 66 10000 3.09 30 13:43 28.04.2022
3971 Clear 1 1016 63 10000 4.12 10 12:34 28.04.2022
3972 Clear 3 1015 59 10000 4.12 350 11:51 28.04.2022
3973 Clear 4 1015 54 10000 5.14 360 10:30 28.04.2022
3974 Clear 4 1015 55 10000 3.6 10 09:51 28.04.2022
3975 Clear 6 1015 40 10000 4.63 60 07:45 28.04.2022
3976 Clear 8 1015 37 10000 4.12 50 06:54 28.04.2022
3977 Clouds 11 1016 84 10000 2.6 33 05:54 28.04.2022
3978 Clear 11 1015 33 10000 5.66 40 04:44 28.04.2022
3979 Clear 11 1015 32 10000 3.6 60 03:40 28.04.2022
3980 Clear 11 1016 37 10000 1.54 180 23:52 27.04.2022
3981 Clear 10 1016 40 10000 2.57 190 22:30 27.04.2022
3982 Clear 9 1016 44 10000 2.06 90 21:50 27.04.2022
3983 Clouds 9 1013 50 10000 1.05 59 20:56 27.04.2022
3984 Clouds 8 1015 51 10000 2.06 90 20:34 27.04.2022
3985 Clear 5 1016 59 10000 1.54 50 19:37 27.04.2022
3986 Clear 4 1016 68 10000 2.06 50 18:52 27.04.2022
3987 Clear 3 1016 73 10000 2.06 50 18:21 27.04.2022
3988 Clouds 1 1016 76 10000 1.54 320 16:23 27.04.2022
3989 Clouds 2 1016 65 10000 0 0 13:51 27.04.2022
3990 Rain 5 1016 57 10000 3.09 90 11:45 27.04.2022
3991 Rain 5 1016 57 10000 3.09 90 11:20 27.04.2022
3992 Clouds 1 1018 97 8576 1.86 15 08:58 27.04.2022
3993 Rain 10 1016 42 10000 1.54 130 06:45 27.04.2022
3994 Clear 11 1016 37 10000 3.6 200 03:41 27.04.2022
3995 Clouds 9 1016 43 10000 2.06 270 01:30 27.04.2022
3996 Clouds 9 1016 49 10000 1.54 280 00:36 27.04.2022
3997 Clouds 8 1016 57 10000 2.57 180 23:25 26.04.2022
3998 Clouds 6 1016 61 10000 1.54 230 22:57 26.04.2022
3999 Clouds 7 1015 57 10000 2.06 140 22:38 26.04.2022
4000 Clouds 6 1016 61 10000 3.6 140 21:26 26.04.2022
4001 Clouds 6 1015 58 10000 2.57 160 20:41 26.04.2022
4002 Clouds 4 1015 67 10000 0 0 19:49 26.04.2022
4003 Clouds 4 1015 68 10000 0 0 19:30 26.04.2022
4004 Clouds 3 1014 71 10000 0 0 18:44 26.04.2022
4005 Clear 0 1015 81 10000 0 0 17:54 26.04.2022
4006 Clouds -1 1015 81 10000 3.09 70 16:28 26.04.2022
4007 Clear 0 1015 75 10000 1.54 40 13:59 26.04.2022
4008 Clear 1 1015 73 10000 2.06 60 13:31 26.04.2022
4009 Clear 2 1014 72 10000 3.09 80 11:49 26.04.2022
4010 Clear 3 1014 65 10000 3.09 60 10:34 26.04.2022
4011 Clouds 0 1015 99 471 1.38 357 08:54 26.04.2022
4012 Clear 10 1013 37 10000 1.54 270 06:57 26.04.2022
4013 Clear 11 1013 36 10000 2.06 170 04:23 26.04.2022
4014 Clear 9 1014 43 10000 3.09 190 01:22 26.04.2022
4015 Clear 9 1014 40 10000 2.06 230 00:25 26.04.2022
4016 Clouds 8 1013 46 10000 0 0 22:21 25.04.2022
4017 Clouds 7 1014 56 10000 2.06 260 21:39 25.04.2022
4018 Clouds 5 1014 58 10000 0.45 141 20:35 25.04.2022
4019 Clouds 3 1013 70 10000 0 0 18:54 25.04.2022
4020 Clouds 1 1013 78 10000 2.57 110 17:52 25.04.2022
4021 Clouds 0 1013 80 10000 2.57 50 16:52 25.04.2022
4022 Clouds -1 1013 79 10000 1.54 60 15:24 25.04.2022
4023 Clouds 0 1012 77 10000 1.54 80 14:34 25.04.2022
4024 Clouds 0 1012 76 10000 2.06 50 13:32 25.04.2022
4025 Clear 2 1011 70 10000 2.06 70 11:37 25.04.2022
4026 Clear 1 1011 70 10000 3.6 90 10:20 25.04.2022
4027 Clouds 6 1010 43 10000 1.54 200 08:35 25.04.2022
4028 Clear 10 1010 35 10000 2.57 200 06:37 25.04.2022
4029 Clear 11 1010 33 10000 3.09 200 03:44 25.04.2022
4030 Clear 7 1011 45 10000 2.57 240 00:33 25.04.2022
4031 Clear 7 1011 47 10000 2.57 200 23:51 24.04.2022
4032 Clear 6 1011 49 10000 2.06 230 22:41 24.04.2022
4033 Clear 6 1011 49 10000 2.06 230 22:18 24.04.2022
4034 Clear 5 1011 52 10000 1.54 210 21:24 24.04.2022
4035 Clear 4 1011 59 10000 0 0 20:48 24.04.2022
4036 Clear 4 1011 58 10000 0 0 20:22 24.04.2022
4037 Clear 2 1010 66 10000 0.45 325 19:19 24.04.2022
4038 Clear 0 1010 75 10000 0 0 18:20 24.04.2022
4039 Clear -2 1010 81 10000 0 0 17:27 24.04.2022
4040 Clouds -2 1009 81 4367 0.54 50 16:58 24.04.2022
4041 Clear -2 1010 82 10000 2.57 90 16:30 24.04.2022
4042 Clear -2 1010 82 10000 2.57 90 16:30 24.04.2022
4043 Clear -2 1010 82 10000 2.57 60 15:53 24.04.2022
4044 Clear -2 1009 80 10000 2.06 70 14:55 24.04.2022
4045 Clear -1 1009 78 10000 0 0 13:45 24.04.2022
4046 Clear -1 1009 78 10000 0 0 13:45 24.04.2022
4047 Clear -1 1009 77 10000 0 0 13:23 24.04.2022
4048 Clear -1 1009 70 10000 0 0 11:55 24.04.2022
4049 Clear 0 1009 71 10000 0 0 11:22 24.04.2022
4050 Clear 2 1008 61 10000 1.54 300 09:51 24.04.2022
4051 Clouds 4 1008 55 10000 0 0 08:31 24.04.2022
4052 Clouds 10 1006 37 10000 2.06 250 05:46 24.04.2022
4053 Clouds 11 1007 28 10000 0.53 43 02:59 24.04.2022
4054 Clear 10 1006 35 10000 2.57 50 00:55 24.04.2022
4055 Clouds 9 1006 35 10000 2.06 60 23:55 23.04.2022
4056 Clouds 9 1006 38 10000 2.06 60 23:25 23.04.2022
4057 Clear 9 1006 36 10000 2.06 50 22:42 23.04.2022
4058 Clear 7 1005 46 10000 3.09 70 21:49 23.04.2022
4059 Clear 6 1005 46 10000 3.09 70 21:30 23.04.2022
4060 Clear 6 1006 44 10000 2.06 50 20:27 23.04.2022
4061 Clear 2 1005 64 10000 2.57 70 19:21 23.04.2022
4062 Clear 0 1006 70 10000 4.63 80 18:55 23.04.2022
4063 Clear 1 1005 66 10000 4.63 80 18:32 23.04.2022
4064 Clear -1 1005 73 10000 3.09 70 17:47 23.04.2022
4065 Clear -2 1005 75 10000 3.09 70 16:46 23.04.2022
4066 Clear -2 1006 72 10000 3.09 70 15:53 23.04.2022
4067 Clear -2 1006 72 10000 3.09 70 15:53 23.04.2022
4068 Clouds -1 1005 72 10000 3.6 80 13:33 23.04.2022
4069 Clear -1 1004 67 10000 3.6 70 11:57 23.04.2022
4070 Clear 0 1004 61 10000 2.06 70 10:37 23.04.2022
4071 Clouds 8 1003 34 10000 2.57 110 08:27 23.04.2022
4072 Clear 10 1003 30 10000 1.54 240 04:18 23.04.2022
4073 Clear 9 1003 36 10000 2.06 260 03:32 23.04.2022
4074 Clouds 8 1003 38 10000 0 0 23:38 22.04.2022
4075 Clouds 8 1003 38 10000 0 0 23:20 22.04.2022
4076 Clouds 7 1003 40 10000 3.6 80 21:58 22.04.2022
4077 Clouds 7 1003 41 10000 3.6 80 21:39 22.04.2022
4078 Clouds 4 1002 56 10000 1.54 70 20:35 22.04.2022
4079 Clouds 2 1003 52 10000 4.12 70 19:27 22.04.2022
4080 Clouds 0 1003 48 10000 3.09 60 18:57 22.04.2022
4081 Clouds -1 1003 58 10000 3.09 60 18:28 22.04.2022
4082 Clear -2 1003 67 10000 3.09 70 17:24 22.04.2022
4083 Clouds -3 1003 68 10000 2.2 33 15:59 22.04.2022
4084 Clear -3 1003 67 10000 3.6 70 15:30 22.04.2022
4085 Clear -5 1002 68 10000 0 0 14:38 22.04.2022
4086 Clear -3 1003 57 10000 3.6 60 13:41 22.04.2022
4087 Clear -1 1003 55 10000 3.09 60 12:48 22.04.2022
4088 Clear -1 1003 57 10000 3.6 60 11:23 22.04.2022
4089 Clear 0 1003 59 10000 3.09 60 10:57 22.04.2022
4090 Clear -1 1003 55 10000 3.09 60 10:34 22.04.2022
4091 Clear -1 1003 60 10000 3.09 70 09:59 22.04.2022
4092 Clear 0 1003 58 10000 3.09 70 09:22 22.04.2022
4093 Clear 4 1002 45 10000 2.57 60 08:48 22.04.2022
4094 Clear 8 1003 34 10000 3.6 80 06:42 22.04.2022
4095 Clear 8 1005 34 10000 2.57 240 01:34 22.04.2022
4096 Clouds 6 1007 41 10000 2.57 230 23:35 21.04.2022
4097 Clear 6 1006 43 10000 2.06 240 22:47 21.04.2022
4098 Clear 4 1007 48 10000 2.06 240 21:42 21.04.2022
4099 Clear 1 1007 54 10000 0.45 186 20:31 21.04.2022
4100 Clear -1 1007 61 10000 0 0 19:24 21.04.2022
4101 Clear -2 1007 63 10000 0 0 18:32 21.04.2022
4102 Clear -5 1008 76 10000 1.54 80 17:20 21.04.2022
4103 Clear -7 1009 79 10000 1.54 70 16:19 21.04.2022
4104 Clear -6 1009 76 10000 2.06 90 15:19 21.04.2022
4105 Clear -5 1008 77 10000 0 0 14:28 21.04.2022
4106 Clear -4 1009 76 10000 0 0 13:22 21.04.2022
4107 Clear -5 1009 76 10000 2.06 90 12:25 21.04.2022
4108 Clouds -3 1010 68 2929 0.84 24 09:58 21.04.2022
4109 Clear -1 1008 47 10000 0 0 08:47 21.04.2022
4110 Clear 5 1010 31 10000 2.57 200 06:44 21.04.2022
4111 Clouds 7 1009 35 10000 2.06 0 03:42 21.04.2022
4112 Clouds 7 1009 35 10000 2.06 0 03:22 21.04.2022
4113 Clouds 7 1010 36 10000 0.89 315 02:44 21.04.2022
4114 Clouds 7 1010 36 10000 0.89 315 02:44 21.04.2022
4115 Clouds 6 1011 34 10000 2.24 199 00:35 21.04.2022
4116 Clouds 5 1010 37 10000 1.54 0 23:40 20.04.2022
4117 Clouds 5 1010 38 10000 1.54 0 23:18 20.04.2022
4118 Clouds 5 1010 38 10000 0.45 244 22:36 20.04.2022
4119 Clear 3 1011 39 10000 0.45 190 21:47 20.04.2022
4120 Clouds 2 1011 43 10000 0.89 173 20:45 20.04.2022
4121 Clouds 2 1011 44 10000 0 0 20:21 20.04.2022
4122 Clear 1 1011 45 10000 0 0 19:46 20.04.2022
4123 Clear -2 1011 57 10000 2.06 70 18:48 20.04.2022
4124 Clear -5 1011 70 10000 0 0 17:50 20.04.2022
4125 Clear -5 1011 65 10000 2.06 60 16:39 20.04.2022
4126 Clear -5 1011 61 10000 4.12 70 15:26 20.04.2022
4127 Clear -5 1010 67 10000 3.6 90 12:22 20.04.2022
4128 Clear -4 1009 70 10000 3.6 70 11:42 20.04.2022
4129 Clear -4 1010 66 10000 3.6 70 10:43 20.04.2022
4130 Clear -3 1009 64 10000 1.54 70 09:31 20.04.2022
4131 Clear -2 1008 55 10000 0 0 08:40 20.04.2022
4132 Clear -1 1009 58 10000 0 0 08:18 20.04.2022
4133 Clear 5 1007 35 10000 1.54 230 06:18 20.04.2022
4134 Clear 7 1006 27 10000 5.14 90 01:37 20.04.2022
4135 Clear 6 1006 28 10000 6.17 80 00:22 20.04.2022
4136 Clear 6 1006 29 10000 1.34 218 22:59 19.04.2022
4137 Clear 6 1006 29 10000 1.34 218 22:59 19.04.2022
4138 Clear 5 1006 31 10000 6.17 80 22:23 19.04.2022
4139 Clear 5 1006 31 10000 1.79 190 21:53 19.04.2022
4140 Clear 4 1006 30 10000 1.79 275 20:59 19.04.2022
4141 Clear 4 1006 31 10000 7.2 70 20:37 19.04.2022
4142 Clear 0 1007 40 10000 4.63 60 19:32 19.04.2022
4143 Clear -2 1007 45 10000 3.6 50 18:31 19.04.2022
4144 Clear -4 1007 50 10000 4.12 60 16:55 19.04.2022
4145 Clear -4 1007 50 10000 4.12 60 16:33 19.04.2022
4146 Clear -8 1007 91 10000 2.14 41 15:59 19.04.2022
4147 Clear -5 1007 47 10000 4.63 60 14:46 19.04.2022
4148 Clear -2 1008 46 10000 3.6 50 12:58 19.04.2022
4149 Clear -5 1008 52 10000 4.12 30 12:36 19.04.2022
4150 Clear -5 1008 54 10000 4.12 40 11:35 19.04.2022
4151 Clear -2 1008 50 10000 3.09 50 09:51 19.04.2022
4152 Clear 0 1008 51 10000 4.63 80 08:22 19.04.2022
4153 Clear 6 1008 29 10000 6.17 70 04:26 19.04.2022
4154 Clear 6 1010 28 10000 6.17 90 02:41 19.04.2022
4155 Clear 5 1012 29 10000 5.14 80 00:23 19.04.2022
4156 Clear 3 1014 27 10000 4.63 40 22:54 18.04.2022
4157 Clear 1 1014 35 10000 4.63 60 21:28 18.04.2022
4158 Clear 0 1016 37 10000 4.12 70 20:40 18.04.2022
4159 Clear 0 1016 38 10000 4.12 70 20:22 18.04.2022
4160 Clear -2 1016 42 10000 4.63 60 19:40 18.04.2022
4161 Clear -5 1016 52 10000 4.63 60 18:49 18.04.2022
4162 Clear -7 1018 57 10000 4.63 70 17:49 18.04.2022
4163 Clear -8 1018 60 10000 4.63 70 17:49 18.04.2022
4164 Clear -7 1018 57 10000 4.63 70 17:49 18.04.2022
4165 Clear -9 1018 62 10000 4.63 70 17:20 18.04.2022
4166 Clear -8 1019 59 10000 5.14 70 16:40 18.04.2022
4167 Clear -7 1019 57 10000 5.14 60 15:43 18.04.2022
4168 Clear -7 1019 60 10000 3.6 60 14:28 18.04.2022
4169 Clear -7 1020 60 10000 3.6 60 13:25 18.04.2022
4170 Clear -6 1020 54 10000 3.6 60 12:27 18.04.2022
4171 Clouds -10 1021 96 10000 1.91 25 10:59 18.04.2022
4172 Clear -7 1021 63 10000 2.57 50 10:28 18.04.2022
4173 Clear -6 1021 63 10000 2.06 60 09:30 18.04.2022
4174 Clear 1 1021 36 10000 1.54 150 07:34 18.04.2022
4175 Clear 5 1022 26 10000 3.09 130 03:57 18.04.2022
4176 Clear 2 1023 26 10000 4.63 80 23:41 17.04.2022
4177 Clear 1 1023 27 10000 5.14 70 22:39 17.04.2022
4178 Clear 0 1024 31 10000 5.66 80 21:39 17.04.2022
4179 Clear -1 1024 30 10000 5.66 80 21:19 17.04.2022
4180 Clear -3 1025 34 10000 7.2 70 20:32 17.04.2022
4181 Clear -5 1025 33 10000 4.63 60 19:21 17.04.2022
4182 Clear -10 1025 47 10000 4.12 30 17:38 17.04.2022
4183 Clear -8 1024 45 10000 4.63 50 15:38 17.04.2022
4184 Clear -9 1026 48 10000 3.09 60 14:53 17.04.2022
4185 Clear -11 1025 46 10000 3.6 40 13:44 17.04.2022
4186 Clear -8 1026 45 10000 3.09 60 12:56 17.04.2022
4187 Clear -9 1025 46 10000 4.63 70 11:24 17.04.2022
4188 Clear -8 1025 44 10000 4.63 60 10:38 17.04.2022
4189 Clear -6 1024 42 10000 4.12 30 10:19 17.04.2022
4190 Clear -6 1025 36 10000 4.63 10 09:23 17.04.2022
4191 Clear -5 1024 39 10000 5.14 60 08:41 17.04.2022
4192 Clear -3 1023 40 10000 6.69 50 06:52 17.04.2022
4193 Clear 1 1022 32 10000 7.2 50 03:20 17.04.2022
4194 Clear 1 1022 31 10000 5.66 50 00:53 17.04.2022
4195 Clear 0 1021 32 10000 5.14 40 23:48 16.04.2022
4196 Clear -2 1022 38 10000 3.6 60 21:55 16.04.2022
4197 Clear -2 1022 42 10000 3.6 60 21:23 16.04.2022
4198 Clear -6 1021 41 10000 2.06 40 19:54 16.04.2022
4199 Clear -7 1021 47 10000 2.06 70 18:54 16.04.2022
4200 Clear -9 1021 54 10000 5.14 10 17:38 16.04.2022
4201 Clear -10 1020 53 10000 4.63 360 16:31 16.04.2022
4202 Clear -9 1020 53 10000 5.14 360 15:26 16.04.2022
4203 Clear -9 1020 52 10000 5.14 360 14:47 16.04.2022
4204 Clear -6 1020 42 10000 2.57 50 13:56 16.04.2022
4205 Clear -7 1019 43 10000 5.66 360 13:25 16.04.2022
4206 Clear -7 1019 42 10000 3.09 50 11:58 16.04.2022
4207 Clear -5 1019 44 10000 6.17 360 10:37 16.04.2022
4208 Clear -4 1018 42 10000 5.66 50 09:39 16.04.2022
4209 Clear -3 1018 39 10000 5.66 60 08:54 16.04.2022
4210 Clear -3 1018 45 10000 7.72 10 07:31 16.04.2022
4211 Clear -2 1016 41 10000 6.69 20 06:22 16.04.2022
4212 Clear 1 1016 33 10000 7.2 50 01:53 16.04.2022
4213 Clear 2 1017 34 10000 6.69 60 00:19 16.04.2022
4214 Clear 1 1017 40 10000 6.17 70 22:52 15.04.2022
4215 Clear 1 1017 40 10000 6.17 70 22:31 15.04.2022
4216 Clear 0 1016 43 10000 6.17 50 21:44 15.04.2022
4217 Clear -1 1017 43 10000 4.63 30 20:55 15.04.2022
4218 Clear -3 1017 43 10000 5.66 10 19:52 15.04.2022
4219 Clear -3 1018 44 10000 5.66 10 19:33 15.04.2022
4220 Clear -4 1017 43 10000 5.14 360 18:45 15.04.2022
4221 Clouds -5 1017 43 10000 5.14 360 18:23 15.04.2022
4222 Clear -5 1018 48 10000 6.17 360 17:29 15.04.2022
4223 Clear -5 1018 50 10000 5.66 360 16:26 15.04.2022
4224 Clear -5 1018 53 10000 3.6 50 15:54 15.04.2022
4225 Clear -4 1018 54 10000 5.14 10 14:22 15.04.2022
4226 Clouds -4 1018 55 10000 5.14 10 13:23 15.04.2022
4227 Clear -3 1019 54 10000 4.63 10 12:40 15.04.2022
4228 Clouds -7 1020 88 10000 3.07 21 11:54 15.04.2022
4229 Clouds -2 1019 54 10000 4.12 50 10:49 15.04.2022
4230 Clouds -1 1018 55 10000 4.12 10 10:21 15.04.2022
4231 Clear -1 1019 56 10000 5.14 60 09:24 15.04.2022
4232 Clouds -2 1020 57 10000 3.26 23 08:57 15.04.2022
4233 Clear 3 1019 50 10000 5.66 60 06:55 15.04.2022
4234 Clear 6 1019 39 10000 4.63 50 05:56 15.04.2022
4235 Clear 5 1022 47 10000 2.57 260 01:33 15.04.2022
4236 Clear 5 1023 41 10000 1.54 240 23:30 14.04.2022
4237 Clear 2 1024 55 10000 2.06 220 22:46 14.04.2022
4238 Clear 2 1024 55 10000 2.06 220 22:27 14.04.2022
4239 Clear 0 1024 63 10000 0 0 21:54 14.04.2022
4240 Clouds 1 1023 57 10000 0.45 203 20:35 14.04.2022
4241 Clear -2 1024 65 10000 0 0 19:22 14.04.2022
4242 Clouds -2 1022 63 10000 0.57 26 17:58 14.04.2022
4243 Clear -5 1024 69 10000 1.54 280 17:28 14.04.2022
4244 Clear -5 1024 71 10000 2.57 40 16:33 14.04.2022
4245 Clear -6 1025 78 10000 0 0 14:23 14.04.2022
4246 Clear -5 1025 77 10000 0 0 13:31 14.04.2022
4247 Clear -4 1026 73 10000 1.54 30 12:42 14.04.2022
4248 Clear -3 1026 72 10000 1.54 30 12:22 14.04.2022
4249 Clear -3 1025 68 10000 3.09 60 11:21 14.04.2022
4250 Clear -3 1025 72 10000 0 0 10:36 14.04.2022
4251 Clear -3 1026 72 10000 0 0 09:56 14.04.2022
4252 Clouds -1 1025 66 10000 0 0 08:40 14.04.2022
4253 Clouds 4 1026 45 10000 0 0 06:50 14.04.2022
4254 Clouds 6 1027 33 10000 0.89 191 02:45 14.04.2022
4255 Clear 3 1028 41 10000 0 0 22:52 13.04.2022
4256 Clear 2 1028 47 10000 1.54 250 21:44 13.04.2022
4257 Clouds 1 1028 46 10000 0.89 150 20:55 13.04.2022
4258 Clouds -1 1028 53 10000 0.45 149 20:22 13.04.2022
4259 Clouds -2 1028 61 10000 0 0 19:24 13.04.2022
4260 Clear -6 1028 70 10000 0 0 18:19 13.04.2022
4261 Clear -7 1029 78 10000 0 0 17:23 13.04.2022
4262 Clear -6 1029 76 10000 0 0 16:33 13.04.2022
4263 Clear -6 1029 75 10000 0 0 15:35 13.04.2022
4264 Clouds -6 1029 74 10000 0 0 14:50 13.04.2022
4265 Clouds -5 1028 75 10000 0 0 14:18 13.04.2022
4266 Clear -4 1029 75 10000 2.57 280 13:19 13.04.2022
4267 Clear -4 1029 71 10000 1.54 300 12:25 13.04.2022
4268 Clear -4 1029 71 10000 0 0 10:47 13.04.2022
4269 Clouds -2 1028 69 7007 1.14 43 08:58 13.04.2022
4270 Clouds -1 1028 65 10000 1.54 280 08:33 13.04.2022
4271 Clear 3 1029 44 10000 2.57 150 06:51 13.04.2022
4272 Clear 3 1029 46 10000 2.57 150 06:25 13.04.2022
4273 Clear 5 1030 44 10000 3.09 220 04:55 13.04.2022
4274 Clear 5 1031 34 10000 2.57 130 00:20 13.04.2022
4275 Clear 5 1031 33 10000 3.6 100 23:21 12.04.2022
4276 Clear 3 1032 36 10000 4.12 60 21:57 12.04.2022
4277 Clouds 1 1032 40 10000 4.63 60 20:51 12.04.2022
4278 Clouds 1 1032 42 10000 4.63 60 20:33 12.04.2022
4279 Clear -2 1032 50 10000 3.09 60 19:48 12.04.2022
4280 Clear -3 1033 55 10000 3.09 60 19:29 12.04.2022
4281 Clouds -5 1034 58 10000 1.71 51 17:59 12.04.2022
4282 Clouds -10 1034 93 10000 1.81 35 16:58 12.04.2022
4283 Clouds -5 1033 58 10000 4.12 60 16:19 12.04.2022
4284 Clear -5 1035 59 10000 4.12 50 15:26 12.04.2022
4285 Clear -7 1034 54 10000 3.6 60 14:21 12.04.2022
4286 Clear -6 1035 56 10000 4.12 60 13:28 12.04.2022
4287 Clear -4 1035 52 10000 4.63 60 12:44 12.04.2022
4288 Clear -3 1036 55 10000 4.63 70 11:42 12.04.2022
4289 Clear -2 1036 53 10000 4.63 60 10:30 12.04.2022
4290 Clear -2 1035 59 10000 3.09 70 08:57 12.04.2022
4291 Clear 0 1036 51 10000 3.6 90 07:51 12.04.2022
4292 Clear 4 1036 45 10000 5.14 90 05:49 12.04.2022
4293 Clear 4 1036 44 10000 4.63 70 04:46 12.04.2022
4294 Clear 2 1039 57 10000 4.12 70 23:49 11.04.2022
4295 Clear 1 1039 61 10000 3.6 70 22:44 11.04.2022
4296 Clear -1 1039 67 10000 3.6 90 21:37 11.04.2022
4297 Clouds -2 1040 72 10000 0.89 134 20:55 11.04.2022
4298 Clouds -3 1040 76 10000 0.45 80 20:28 11.04.2022
4299 Clear -6 1040 81 10000 1.54 60 19:37 11.04.2022
4300 Clouds -5 1039 81 10000 0.45 51 19:18 11.04.2022
4301 Clear -8 1039 83 10000 1.54 60 18:40 11.04.2022
4302 Clouds -6 1037 81 5061 0.45 30 17:56 11.04.2022
4303 Clear -9 1039 84 10000 1.54 70 16:54 11.04.2022
4304 Clear -8 1039 84 10000 0.45 30 15:24 11.04.2022
4305 Clear -7 1040 82 10000 1.54 70 13:51 11.04.2022
4306 Clear -7 1040 80 10000 1.54 70 12:44 11.04.2022
4307 Clear -7 1040 79 10000 1.54 70 12:25 11.04.2022
4308 Clouds -6 1041 75 2396 0.85 65 10:58 11.04.2022
4309 Clouds -5 1042 77 10000 1.54 50 09:58 11.04.2022
4310 Clouds -5 1040 74 10000 2.57 80 08:24 11.04.2022
4311 Clouds -3 1040 68 10000 2.06 90 05:26 11.04.2022
4312 Snow -6 1040 71 10000 0 0 00:49 11.04.2022
4313 Clouds -8 1040 67 10000 0 0 22:33 10.04.2022
4314 Clouds -8 1040 65 10000 0.45 92 21:54 10.04.2022
4315 Snow -9 1041 64 10000 0.89 198 21:26 10.04.2022
4316 Snow -10 1041 62 10000 0.89 174 20:25 10.04.2022
4317 Clouds -11 1041 60 10000 0.89 109 19:37 10.04.2022
4318 Clouds -12 1041 61 10000 0.45 198 18:50 10.04.2022
4319 Clouds -12 1041 61 10000 0 0 18:30 10.04.2022
4320 Clouds -12 1041 63 10000 0.45 155 17:49 10.04.2022
4321 Clouds -13 1041 62 10000 0 0 16:59 10.04.2022
4322 Clouds -13 1041 61 10000 2.06 90 15:41 10.04.2022
4323 Clear -13 1041 60 10000 2.06 80 14:42 10.04.2022
4324 Clear -13 1041 60 10000 2.06 80 14:42 10.04.2022
4325 Clear -15 1041 64 10000 2.57 80 13:44 10.04.2022
4326 Clear -16 1041 67 10000 2.57 80 12:32 10.04.2022
4327 Clear -17 1041 67 10000 1.54 50 11:44 10.04.2022
4328 Clear -17 1041 67 10000 1.54 50 11:20 10.04.2022
4329 Clear -16 1041 66 10000 0 0 10:34 10.04.2022
4330 Clouds -15 1040 61 10000 0 0 09:41 10.04.2022
4331 Clouds -13 1040 60 10000 0 0 08:28 10.04.2022
4332 Clouds -11 1040 48 10000 0 0 07:57 10.04.2022
4333 Clouds -10 1038 45 10000 0.68 128 06:59 10.04.2022
4334 Clear -8 1039 40 10000 3.09 140 03:40 10.04.2022
4335 Clear -8 1039 41 10000 2.57 180 02:19 10.04.2022
4336 Clouds -9 1039 44 10000 0.89 182 23:53 09.04.2022
4337 Clear -11 1039 45 10000 2.06 120 22:56 09.04.2022
4338 Clear -11 1039 45 10000 2.06 120 22:33 09.04.2022
4339 Clear -13 1039 49 10000 0.89 53 21:23 09.04.2022
4340 Clear -14 1038 54 10000 1.54 70 20:30 09.04.2022
4341 Clouds -16 1038 57 10000 0.82 174 19:57 09.04.2022
4342 Clear -17 1038 60 10000 0.89 174 19:39 09.04.2022
4343 Clear -20 1038 69 10000 2.06 50 18:23 09.04.2022
4344 Clear -20 1037 69 10000 2.06 90 17:49 09.04.2022
4345 Clear -21 1037 70 10000 0 0 16:57 09.04.2022
4346 Clear -21 1036 70 10000 0 0 16:38 09.04.2022
4347 Clear -21 1036 70 10000 0 0 16:38 09.04.2022
4348 Clear -21 1036 70 10000 0 0 16:38 09.04.2022
4349 Clear -21 1036 70 10000 0 0 16:38 09.04.2022
4350 Clear -21 1036 70 10000 0 0 16:38 09.04.2022
4351 Clear -21 1036 69 10000 0 0 15:49 09.04.2022
4352 Clear -21 1036 69 10000 0 0 15:49 09.04.2022
4353 Clear -21 1036 69 10000 0 0 15:49 09.04.2022
4354 Clear -20 1036 69 10000 0 0 15:25 09.04.2022
4355 Clear -18 1036 60 10000 0 0 14:25 09.04.2022
4356 Clear -17 1035 58 10000 2.57 210 13:27 09.04.2022
4357 Clear -16 1034 57 10000 2.06 200 12:54 09.04.2022
4358 Clear -14 1033 52 10000 3.6 220 11:45 09.04.2022
4359 Clear -13 1031 51 10000 4.12 240 10:52 09.04.2022
4360 Clear -13 1031 51 10000 4.12 240 10:18 09.04.2022
4361 Clouds -13 1031 50 10000 4.63 240 09:22 09.04.2022
4362 Clouds -12 1030 48 10000 3.6 260 08:18 09.04.2022
4363 Clouds -10 1026 48 10000 7.2 270 04:37 09.04.2022
4364 Snow -10 1023 58 9656 4.63 250 00:35 09.04.2022
4365 Snow -10 1022 63 10000 6.17 260 23:23 08.04.2022
4366 Snow -11 1020 68 8047 6.17 260 21:49 08.04.2022
4367 Snow -11 1019 67 6437 6.17 240 20:43 08.04.2022
4368 Snow -11 1018 69 10000 6.69 250 19:47 08.04.2022
4369 Clouds -11 1018 67 10000 5.66 250 18:56 08.04.2022
4370 Snow -11 1017 67 10000 7.2 240 18:22 08.04.2022
4371 Snow -11 1016 70 10000 7.2 250 17:29 08.04.2022
4372 Clouds -11 1015 73 10000 6.17 250 16:58 08.04.2022
4373 Snow -11 1014 71 10000 6.17 250 16:27 08.04.2022
4374 Clouds -10 1014 71 10000 7.72 250 15:36 08.04.2022
4375 Clouds -9 1012 70 10000 6.69 260 14:52 08.04.2022
4376 Clouds -9 1012 69 10000 6.69 260 14:19 08.04.2022
4377 Clouds -7 1011 67 10000 7.72 240 13:31 08.04.2022
4378 Clouds -6 1010 68 10000 8.75 240 12:55 08.04.2022
4379 Clouds -4 1007 68 10000 9.77 240 11:35 08.04.2022
4380 Clouds -2 1006 66 637 0.89 256 09:59 08.04.2022
4381 Clouds -2 1004 70 10000 2.57 210 09:19 08.04.2022
4382 Haze 0 1004 59 9656 1.54 260 07:44 08.04.2022
4383 Clear 1 1004 48 10000 2.06 250 06:45 08.04.2022
4384 Clouds 6 1004 42 10000 0.2 124 02:55 08.04.2022
4385 Clear 4 1006 45 10000 2.06 250 00:30 08.04.2022
4386 Clear 2 1007 54 10000 1.54 270 23:47 07.04.2022
4387 Clear 0 1007 63 10000 1.54 270 22:55 07.04.2022
4388 Clouds 1 1006 54 10000 0 0 22:36 07.04.2022
4389 Clouds 1 1006 55 10000 0 0 22:18 07.04.2022
4390 Clouds -1 1006 60 10000 0 0 21:30 07.04.2022
4391 Clouds -2 1007 60 10000 1.54 150 20:46 07.04.2022
4392 Clouds -4 1007 68 10000 1.54 150 20:20 07.04.2022
4393 Clouds -12 1009 81 10000 0 0 17:43 07.04.2022
4394 Clouds -12 1009 80 10000 0 0 17:23 07.04.2022
4395 Clear -11 1009 82 10000 0 0 16:35 07.04.2022
4396 Clear -11 1009 80 10000 0 0 15:52 07.04.2022
4397 Clouds -9 1010 74 10000 1.65 31 13:59 07.04.2022
4398 Clear -9 1010 77 10000 1.54 60 13:24 07.04.2022
4399 Clear -8 1010 71 10000 1.54 30 11:54 07.04.2022
4400 Clear -7 1010 66 10000 1.54 70 10:55 07.04.2022
4401 Clear -6 1010 62 10000 0 0 09:28 07.04.2022
4402 Clear 1 1009 31 10000 1.54 220 07:38 07.04.2022
4403 Clear 4 1009 41 10000 3.6 200 05:32 07.04.2022
4404 Clouds 5 1009 39 10000 3.6 210 02:37 07.04.2022
4405 Clear 5 1009 47 10000 4.63 130 00:44 07.04.2022
4406 Clear 4 1009 47 10000 6.17 140 23:39 06.04.2022
4407 Clear 2 1009 53 10000 2.57 100 22:45 06.04.2022
4408 Clear 2 1009 55 10000 2.57 100 22:21 06.04.2022
4409 Clouds -7 1009 73 10000 0 0 20:53 06.04.2022
4410 Clouds -8 1008 80 10000 0 0 20:26 06.04.2022
4411 Clouds -9 1008 82 10000 0 0 19:48 06.04.2022
4412 Clouds -11 1008 83 10000 0 0 18:48 06.04.2022
4413 Clouds -11 1007 82 10000 0 0 17:38 06.04.2022
4414 Clouds -11 1006 78 10000 0 0 17:20 06.04.2022
4415 Clear -13 1008 84 10000 0 0 16:34 06.04.2022
4416 Clear -13 1008 85 10000 0 0 15:45 06.04.2022
4417 Clear -13 1008 82 10000 0 0 13:57 06.04.2022
4418 Clear -13 1007 80 10000 0 0 12:37 06.04.2022
4419 Clear -12 1006 78 10000 1.54 190 11:44 06.04.2022
4420 Clear -12 1005 79 10000 0 0 10:42 06.04.2022
4421 Clear -11 1005 79 10000 0 0 10:18 06.04.2022
4422 Clear -9 1005 73 10000 0 0 09:25 06.04.2022
4423 Clouds -6 1004 67 10000 0 0 08:26 06.04.2022
4424 Clouds -3 1001 59 10000 2.57 110 06:45 06.04.2022
4425 Clouds -2 997 55 10000 1.54 180 01:44 06.04.2022
4426 Snow -4 997 58 10000 2.06 170 23:50 05.04.2022
4427 Clouds -7 996 67 10000 0.45 111 22:20 05.04.2022
4428 Clear -9 996 72 10000 1.54 240 21:18 05.04.2022
4429 Clear -9 997 72 10000 1.54 240 21:18 05.04.2022
4430 Clear -9 997 72 10000 1.54 240 21:18 05.04.2022
4431 Clear -9 996 72 10000 1.54 240 21:18 05.04.2022
4432 Snow -11 996 75 10000 0 0 20:25 05.04.2022
4433 Snow -13 997 80 10000 1.54 190 18:53 05.04.2022
4434 Mist -14 996 79 6437 0 0 17:30 05.04.2022
4435 Snow -14 996 78 9656 0 0 16:45 05.04.2022
4436 Snow -14 996 75 9656 0 0 15:52 05.04.2022
4437 Snow -14 995 76 9656 0 0 15:33 05.04.2022
4438 Clouds -14 995 73 10000 0 0 14:18 05.04.2022
4439 Clouds -13 993 72 3823 1.38 335 12:55 05.04.2022
4440 Clouds -14 993 72 10000 0 0 11:49 05.04.2022
4441 Clouds -14 993 72 10000 0 0 11:31 05.04.2022
4442 Clouds -13 992 68 10000 1.54 70 09:42 05.04.2022
4443 Clouds -12 992 63 10000 0 0 08:52 05.04.2022
4444 Clouds -8 992 60 10000 2.06 220 06:43 05.04.2022
4445 Clouds -7 991 59 10000 2.06 200 00:39 05.04.2022
4446 Snow -10 991 66 10000 2.06 260 22:41 04.04.2022
4447 Clouds -11 991 66 2312 0.45 112 21:57 04.04.2022
4448 Clouds -12 990 70 10000 0.45 169 21:21 04.04.2022
4449 Snow -14 990 73 10000 0.45 128 20:49 04.04.2022
4450 Snow -15 990 75 10000 1.54 100 19:40 04.04.2022
4451 Clouds -14 987 73 5545 1.89 333 18:59 04.04.2022
4452 Clouds -17 989 75 10000 0 0 17:55 04.04.2022
4453 Snow -17 989 77 10000 0 0 16:36 04.04.2022
4454 Clouds -17 989 77 10000 1.54 130 15:34 04.04.2022
4455 Clouds -15 989 73 293 1.46 328 14:58 04.04.2022
4456 Clouds -16 989 75 10000 0 0 14:40 04.04.2022
4457 Clouds -16 989 74 10000 0 0 13:22 04.04.2022
4458 Clouds -15 989 73 10000 3.6 10 11:49 04.04.2022
4459 Clouds -14 989 73 10000 3.6 10 11:28 04.04.2022
4460 Clear -12 988 70 10000 0 0 08:29 04.04.2022
4461 Clear -5 987 59 10000 4.12 230 03:52 04.04.2022
4462 Clear -5 988 57 10000 2.57 130 00:41 04.04.2022
4463 Clouds -7 988 61 10000 2.06 220 22:36 03.04.2022
4464 Clouds -8 988 63 10000 1.54 230 21:44 03.04.2022
4465 Clouds -9 989 66 10000 0.45 188 20:53 03.04.2022
4466 Clear -12 989 76 10000 0 0 19:49 03.04.2022
4467 Clouds -14 990 79 10000 0 0 18:32 03.04.2022
4468 Clouds -14 990 77 10000 1.54 60 17:47 03.04.2022
4469 Clouds -13 990 77 10000 0.45 298 16:57 03.04.2022
4470 Clouds -13 990 78 10000 1.54 50 16:39 03.04.2022
4471 Clouds -12 991 75 10000 2.57 40 14:39 03.04.2022
4472 Snow -11 992 76 10000 3.09 10 13:51 03.04.2022
4473 Snow -11 992 78 10000 3.09 20 12:41 03.04.2022
4474 Clouds -10 992 77 876 1.73 342 10:58 03.04.2022
4475 Clouds -10 993 77 10000 4.63 360 09:38 03.04.2022
4476 Clouds -9 993 77 10000 4.63 360 08:33 03.04.2022
4477 Snow -6 995 76 3621 4.12 10 04:42 03.04.2022
4478 Snow -5 997 69 9656 2.06 100 01:54 03.04.2022
4479 Clouds -7 997 59 10000 2.57 80 23:21 02.04.2022
4480 Clouds -8 999 55 10000 1.54 100 22:18 02.04.2022
4481 Snow -9 998 55 10000 2.06 50 21:46 02.04.2022
4482 Snow -9 998 53 10000 2.06 50 21:18 02.04.2022
4483 Clouds -10 999 51 10000 2.57 90 19:54 02.04.2022
4484 Clouds -11 999 49 10000 3.6 10 18:23 02.04.2022
4485 Clouds -11 999 47 10000 3.6 10 17:53 02.04.2022
4486 Snow -10 999 41 10000 3.6 360 16:29 02.04.2022
4487 Snow -10 1000 45 10000 4.63 10 15:22 02.04.2022
4488 Clouds -10 1000 41 10000 4.63 360 14:51 02.04.2022
4489 Clouds -10 1001 41 10000 3.09 60 13:56 02.04.2022
4490 Clouds -10 1001 40 10000 5.14 360 13:19 02.04.2022
4491 Clouds -9 1000 38 10000 5.66 360 11:39 02.04.2022
4492 Clouds -10 1001 37 10000 5.14 360 09:31 02.04.2022
4493 Clouds -9 1001 35 10000 6.69 50 06:56 02.04.2022
4494 Clouds -6 1001 33 10000 6.17 50 03:55 02.04.2022
4495 Clear -5 1002 29 10000 7.72 70 00:25 02.04.2022
4496 Clear -5 1003 30 10000 7.72 70 23:45 01.04.2022
4497 Clear -8 1005 37 10000 5.66 70 21:55 01.04.2022
4498 Clear -8 1006 36 10000 0.89 94 20:54 01.04.2022
4499 Clear -9 1004 33 10000 5.66 50 20:31 01.04.2022
4500 Clear -12 1006 43 10000 4.12 60 19:39 01.04.2022
4501 Clear -16 1007 53 10000 4.12 50 18:54 01.04.2022
4502 Clear -16 1007 53 10000 4.12 50 18:23 01.04.2022
4503 Clear -19 1008 62 10000 3.6 60 17:35 01.04.2022
4504 Clear -16 1009 51 10000 5.14 60 15:44 01.04.2022
4505 Clear -19 1010 61 10000 3.09 40 14:39 01.04.2022
4506 Clear -16 1010 53 10000 4.63 50 13:36 01.04.2022
4507 Clear -15 1011 51 10000 5.14 70 12:33 01.04.2022
4508 Clear -14 1011 45 10000 5.14 60 11:45 01.04.2022
4509 Clear -14 1012 44 10000 5.14 60 10:34 01.04.2022
4510 Clear -12 1012 44 10000 5.14 70 09:34 01.04.2022
4511 Clear -8 1012 43 10000 5.14 60 07:19 01.04.2022
4512 Clear -4 1012 34 10000 5.14 40 04:56 01.04.2022
4513 Clear -4 1012 35 10000 7.2 40 04:37 01.04.2022
4514 Clouds -2 1013 25 10000 4.63 80 02:19 01.04.2022
4515 Clear -2 1013 27 10000 6.17 90 01:31 01.04.2022
4516 Clear -5 1013 32 10000 6.69 70 22:23 31.03.2022
4517 Clear -6 1015 32 10000 6.69 70 21:37 31.03.2022
4518 Clear -7 1014 34 10000 1.34 299 20:43 31.03.2022
4519 Clouds -10 1015 42 10000 3.09 60 20:25 31.03.2022
4520 Clear -12 1016 46 10000 4.12 60 18:57 31.03.2022
4521 Clear -13 1016 47 10000 3.09 70 17:55 31.03.2022
4522 Clear -14 1015 56 10000 5.14 60 16:46 31.03.2022
4523 Clear -16 1016 68 10000 4.12 50 15:54 31.03.2022
4524 Clear -16 1016 68 10000 3.6 50 15:22 31.03.2022
4525 Clear -16 1016 67 10000 3.09 60 14:44 31.03.2022
4526 Clear -15 1016 63 10000 3.09 50 13:27 31.03.2022
4527 Clear -11 1015 57 10000 3.6 50 11:30 31.03.2022
4528 Clear -12 1015 53 10000 4.63 70 10:19 31.03.2022
4529 Clouds -8 1013 49 10000 4.63 10 08:52 31.03.2022
4530 Clear -8 1013 47 10000 4.12 50 07:31 31.03.2022
4531 Clear -2 1011 47 10000 4.12 350 01:27 31.03.2022
4532 Clouds -2 1010 53 10000 1.54 170 23:23 30.03.2022
4533 Clouds -4 1010 60 10000 2.57 340 21:50 30.03.2022
4534 Clouds -4 1010 60 10000 2.57 340 21:27 30.03.2022
4535 Clouds -5 1009 61 10000 4.12 350 20:22 30.03.2022
4536 Clouds -6 1009 70 10000 4.63 360 19:43 30.03.2022
4537 Snow -6 1009 70 10000 4.12 350 18:40 30.03.2022
4538 Clouds -6 1008 73 10000 0.45 277 17:49 30.03.2022
4539 Clouds -6 1007 71 145 0.89 309 16:58 30.03.2022
4540 Clouds -6 1008 69 10000 5.14 10 16:39 30.03.2022
4541 Clouds -6 1007 72 10000 5.14 350 15:38 30.03.2022
4542 Clouds -5 1007 70 10000 3.6 350 14:18 30.03.2022
4543 Clouds -5 1007 79 10000 0.45 302 13:19 30.03.2022
4544 Clouds -4 1006 84 10000 0 0 11:55 30.03.2022
4545 Snow -2 1006 79 6437 4.63 350 10:38 30.03.2022
4546 Snow -2 1006 77 6437 3.6 350 09:28 30.03.2022
4547 Snow -1 1004 80 8047 2.57 340 07:59 30.03.2022
4548 Snow 0 1004 83 6437 2.06 280 05:41 30.03.2022
4549 Snow 0 1004 81 6437 2.06 280 05:23 30.03.2022
4550 Clouds 2 1003 62 10000 1.54 270 00:43 30.03.2022
4551 Clouds 1 1002 56 10000 1.54 260 22:35 29.03.2022
4552 Clouds 0 1002 62 10000 2.06 50 21:46 29.03.2022
4553 Clouds -1 1001 63 8420 0.79 346 20:55 29.03.2022
4554 Clouds -3 1001 73 10000 3.6 50 20:25 29.03.2022
4555 Clouds -4 1001 69 10000 3.09 60 19:20 29.03.2022
4556 Clouds -5 1001 70 10000 3.6 50 18:48 29.03.2022
4557 Clouds -6 1000 77 10000 2.06 30 17:39 29.03.2022
4558 Clouds -7 1000 74 10000 0 0 16:58 29.03.2022
4559 Clouds -6 1000 72 10000 2.06 40 16:20 29.03.2022
4560 Clouds -10 1001 95 10000 1.3 10 14:53 29.03.2022
4561 Clouds -3 998 63 10000 2.57 40 14:24 29.03.2022
4562 Clouds -3 999 64 10000 3.6 60 12:57 29.03.2022
4563 Clouds -2 998 69 10000 3.6 20 11:45 29.03.2022
4564 Clouds -3 998 76 10000 1.93 11 10:58 29.03.2022
4565 Clear -3 997 68 10000 4.12 70 09:49 29.03.2022
4566 Clouds -1 996 61 10000 4.12 350 08:20 29.03.2022
4567 Clouds 3 997 54 10000 3.09 70 05:35 29.03.2022
4568 Clouds 5 998 39 10000 3.6 90 01:25 29.03.2022
4569 Clear 4 998 41 10000 3.6 100 23:24 28.03.2022
4570 Clouds 3 998 44 10000 4.12 80 22:54 28.03.2022
4571 Clouds 3 998 43 10000 4.12 80 22:26 28.03.2022
4572 Clouds 0 1000 50 10000 2.57 41 20:59 28.03.2022
4573 Clouds -1 999 50 10000 3.6 40 20:31 28.03.2022
4574 Clouds -5 999 62 10000 3.09 60 19:46 28.03.2022
4575 Clouds -5 999 66 10000 3.09 60 19:27 28.03.2022
4576 Clear -5 1000 63 10000 2.57 60 18:40 28.03.2022
4577 Clouds -6 1000 63 10000 3.09 60 17:39 28.03.2022
4578 Clouds -5 1001 59 10000 3.6 60 16:33 28.03.2022
4579 Clouds -9 1001 67 10000 2.57 70 14:48 28.03.2022
4580 Clouds -8 1002 66 10000 2.57 70 14:21 28.03.2022
4581 Clear -5 1002 54 10000 3.6 60 12:41 28.03.2022
4582 Clear -5 1003 58 10000 3.6 60 11:32 28.03.2022
4583 Clear -6 1003 66 10000 4.12 70 09:43 28.03.2022
4584 Clear -6 1003 66 10000 4.12 70 09:19 28.03.2022
4585 Clear -6 1003 69 10000 2.57 60 08:22 28.03.2022
4586 Clear -3 1004 63 10000 0 0 07:40 28.03.2022
4587 Clear 4 1006 45 10000 2.06 100 04:18 28.03.2022
4588 Clear 1 1009 64 10000 2.06 220 23:33 27.03.2022
4589 Clear -2 1010 72 10000 1.54 250 22:25 27.03.2022
4590 Clouds -2 1010 73 10000 0.45 188 21:42 27.03.2022
4591 Clouds -3 1010 79 7818 0.45 98 20:58 27.03.2022
4592 Clear -7 1009 82 10000 2.06 140 19:49 27.03.2022
4593 Clear -8 1010 83 10000 2.06 140 19:26 27.03.2022
4594 Clouds -6 1010 79 10000 1.54 320 18:28 27.03.2022
4595 Clouds -5 1010 79 10000 1.11 147 17:39 27.03.2022
4596 Clear -6 1010 78 10000 0 0 16:31 27.03.2022
4597 Clouds -4 1010 74 10000 1.1 111 15:25 27.03.2022
4598 Clouds -3 1010 72 10000 1.15 99 13:56 27.03.2022
4599 Clear -5 1009 71 10000 0 0 12:37 27.03.2022
4600 Clear -4 1009 70 10000 0.89 314 11:20 27.03.2022
4601 Clouds -1 1009 63 10000 1.54 230 08:53 27.03.2022
4602 Clouds 0 1011 66 10000 0 0 05:54 27.03.2022
4603 Clouds 2 1012 57 10000 2.57 260 00:48 27.03.2022
4604 Clear 0 1012 58 10000 2.57 250 23:42 26.03.2022
4605 Clear 0 1012 59 10000 1.54 220 22:38 26.03.2022
4606 Clouds 0 1011 56 10000 0 0 21:38 26.03.2022
4607 Clouds -2 1011 61 10000 0 0 20:57 26.03.2022
4608 Clear -6 1011 68 10000 0 0 19:21 26.03.2022
4609 Clouds -9 1012 75 10000 1.54 50 17:54 26.03.2022
4610 Clouds -9 1012 75 10000 1.54 50 17:33 26.03.2022
4611 Clouds -9 1012 75 10000 0 0 16:27 26.03.2022
4612 Clear -8 1012 73 10000 0 0 14:57 26.03.2022
4613 Clouds -9 1011 86 10000 2.06 210 13:53 26.03.2022
4614 Clear -7 1010 83 10000 0 0 12:51 26.03.2022
4615 Clouds -7 1010 84 10000 0 0 11:41 26.03.2022
4616 Clear -7 1009 80 10000 0 0 10:22 26.03.2022
4617 Clouds -7 1008 76 10000 2.57 40 08:34 26.03.2022
4618 Clear 0 1006 55 10000 3.09 50 05:54 26.03.2022
4619 Clear 3 1006 50 10000 3.09 60 04:23 26.03.2022
4620 Clear 5 1005 42 10000 4.63 90 00:22 26.03.2022
4621 Clouds -1 1006 55 10000 2.06 60 21:41 25.03.2022
4622 Clouds -2 1006 53 10000 2.57 60 20:46 25.03.2022
4623 Clouds -5 1007 62 10000 3.6 20 19:36 25.03.2022
4624 Clouds -8 1007 65 10000 3.6 70 18:47 25.03.2022
4625 Clouds -9 1007 64 10000 5.14 70 17:47 25.03.2022
4626 Clouds -9 1007 65 10000 5.14 70 17:26 25.03.2022
4627 Clear -9 1006 66 10000 3.6 60 16:18 25.03.2022
4628 Clear -9 1007 60 10000 4.12 40 14:26 25.03.2022
4629 Clear -9 1009 55 10000 4.12 60 12:48 25.03.2022
4630 Clear -5 1011 50 10000 4.12 70 09:57 25.03.2022
4631 Clear -7 1010 54 10000 4.12 70 09:27 25.03.2022
4632 Clouds -12 1013 89 10000 2.86 26 07:54 25.03.2022
4633 Clouds -4 1010 50 10000 0 0 07:27 25.03.2022
4634 Clear -3 1012 46 10000 5.14 60 05:35 25.03.2022
4635 Clear 0 1015 40 10000 5.14 70 00:42 25.03.2022
4636 Clear -2 1015 42 10000 3.09 40 22:39 24.03.2022
4637 Clear -4 1015 46 10000 2.06 40 21:42 24.03.2022
4638 Clouds -9 1015 57 10000 3.6 70 19:51 24.03.2022
4639 Clouds -13 1015 66 10000 3.6 70 19:33 24.03.2022
4640 Clear -17 1015 70 10000 4.12 20 17:46 24.03.2022
4641 Clear -18 1015 70 10000 4.12 20 17:19 24.03.2022
4642 Clear -17 1014 65 10000 2.06 20 15:21 24.03.2022
4643 Clear -16 1014 65 10000 4.63 40 14:43 24.03.2022
4644 Clear -16 1014 65 10000 4.63 40 14:18 24.03.2022
4645 Clear -15 1013 64 10000 3.09 60 12:47 24.03.2022
4646 Clouds -13 1013 61 10000 2.57 70 11:33 24.03.2022
4647 Clouds -13 1012 55 10000 3.09 60 09:51 24.03.2022
4648 Clouds -13 1011 57 10000 3.6 60 08:41 24.03.2022
4649 Clear -11 1010 50 10000 4.12 10 06:48 24.03.2022
4650 Clear -7 1008 45 10000 6.17 40 02:24 24.03.2022
4651 Clear -8 1008 46 10000 6.17 40 23:18 23.03.2022
4652 Clear -11 1008 50 10000 6.17 70 21:27 23.03.2022
4653 Clouds -11 1009 54 10000 0.45 105 20:59 23.03.2022
4654 Clouds -13 1009 57 10000 3.36 47 19:45 23.03.2022
4655 Clouds -17 1007 59 10000 3.6 10 18:36 23.03.2022
4656 Clouds -19 1008 59 10000 4.12 10 17:36 23.03.2022
4657 Clear -18 1007 55 10000 4.12 10 16:33 23.03.2022
4658 Clouds -15 1006 60 10000 4.63 50 14:51 23.03.2022
4659 Clouds -16 1006 58 10000 4.63 50 14:24 23.03.2022
4660 Clear -15 1006 59 10000 5.66 50 12:45 23.03.2022
4661 Clear -14 1006 58 10000 6.69 40 09:42 23.03.2022
4662 Clear -13 1006 57 10000 6.17 30 06:41 23.03.2022
4663 Clouds -12 1006 54 10000 7.72 30 04:41 23.03.2022
4664 Snow -11 1006 55 10000 7.72 30 00:29 23.03.2022
4665 Mist -11 1006 64 4828 3.09 60 22:46 22.03.2022
4666 Snow -14 1007 60 9656 2.57 140 21:30 22.03.2022
4667 Clouds -15 1008 61 10000 1.54 40 20:40 22.03.2022
4668 Clouds -17 1009 63 10000 1.54 10 19:43 22.03.2022
4669 Clouds -19 1008 70 10000 1.54 10 19:18 22.03.2022
4670 Clouds -23 1010 74 10000 1.54 120 18:31 22.03.2022
4671 Clear -25 1011 77 10000 0 0 17:29 22.03.2022
4672 Clear -25 1012 70 10000 1.54 90 16:21 22.03.2022
4673 Clear -23 1013 67 10000 1.54 70 15:22 22.03.2022
4674 Clear -23 1014 67 10000 3.09 80 14:46 22.03.2022
4675 Clear -23 1014 66 10000 3.09 80 14:27 22.03.2022
4676 Clear -23 1015 66 10000 0 0 13:35 22.03.2022
4677 Clear -20 1017 63 10000 4.12 10 11:52 22.03.2022
4678 Clear -20 1018 58 10000 4.12 360 10:40 22.03.2022
4679 Clear -18 1019 55 10000 5.66 20 08:29 22.03.2022
4680 Clear -13 1020 48 10000 5.14 20 05:25 22.03.2022
4681 Clear -10 1020 43 10000 5.14 40 03:47 22.03.2022
4682 Clear -10 1020 45 10000 1.79 355 00:22 22.03.2022
4683 Clear -12 1021 46 10000 2.06 230 22:42 21.03.2022
4684 Clear -14 1022 50 10000 0.89 109 20:57 21.03.2022
4685 Clear -15 1021 55 10000 2.06 110 20:38 21.03.2022
4686 Clear -18 1021 72 10000 0.45 137 19:58 21.03.2022
4687 Clouds -18 1021 65 10000 2.57 80 19:33 21.03.2022
4688 Clear -25 1021 69 10000 1.54 70 18:22 21.03.2022
4689 Clear -27 1021 77 10000 1.54 30 17:19 21.03.2022
4690 Clear -25 1021 66 10000 2.06 40 16:44 21.03.2022
4691 Clear -28 1021 83 10000 0 0 15:55 21.03.2022
4692 Clear -25 1021 74 10000 2.57 30 15:19 21.03.2022
4693 Clear -27 1021 76 10000 0 0 14:25 21.03.2022
4694 Clear -22 1020 66 10000 5.14 360 12:42 21.03.2022
4695 Clear -21 1020 66 10000 5.66 350 11:53 21.03.2022
4696 Clear -20 1020 67 10000 4.63 360 10:40 21.03.2022
4697 Clear -17 1020 66 10000 2.06 60 08:56 21.03.2022
4698 Clear -14 1017 58 10000 4.63 70 06:57 21.03.2022
4699 Clear -8 1016 54 10000 3.6 240 02:55 21.03.2022
4700 Clear -9 1015 52 10000 3.6 210 00:35 21.03.2022
4701 Clear -10 1015 56 10000 2.57 220 22:55 20.03.2022
4702 Clouds -10 1015 56 10000 1.47 331 21:57 20.03.2022
4703 Clouds -10 1014 58 10000 0.89 246 21:29 20.03.2022
4704 Clouds -12 1014 62 10000 3.09 30 20:45 20.03.2022
4705 Clouds -13 1014 67 10000 0.45 259 20:00 20.03.2022
4706 Clouds -14 1013 67 10000 3.6 360 19:38 20.03.2022
4707 Clear -16 1012 72 10000 2.57 360 18:40 20.03.2022
4708 Clouds -16 1012 72 10000 3.09 340 17:37 20.03.2022
4709 Clouds -15 1011 73 8446 1.3 328 16:57 20.03.2022
4710 Clear -16 1011 73 10000 3.6 350 15:52 20.03.2022
4711 Clouds -14 1010 71 10000 3.09 350 14:36 20.03.2022
4712 Clear -16 1011 72 10000 3.6 360 13:18 20.03.2022
4713 Clouds -15 1010 73 10000 4.12 360 11:32 20.03.2022
4714 Clouds -14 1009 73 10000 0 0 09:57 20.03.2022
4715 Clouds -11 1008 70 10000 5.14 10 07:50 20.03.2022
4716 Clouds -10 1007 69 10000 0 0 05:49 20.03.2022
4717 Clouds -6 1005 59 10000 3.6 200 02:53 20.03.2022
4718 Clouds -6 1004 62 10000 3.6 200 00:48 20.03.2022
4719 Clouds -7 1004 61 10000 2.57 200 23:21 19.03.2022
4720 Clouds -9 1003 65 10000 0.45 271 21:41 19.03.2022
4721 Clouds -9 1003 67 10000 0 0 21:18 19.03.2022
4722 Clouds -13 1003 75 10000 0 0 19:21 19.03.2022
4723 Clouds -14 1003 78 10000 0 0 18:25 19.03.2022
4724 Clouds -14 1002 79 10000 1.54 90 17:41 19.03.2022
4725 Clouds -15 1002 78 10000 0 0 16:29 19.03.2022
4726 Clouds -16 1002 78 10000 0 0 15:20 19.03.2022
4727 Clouds -15 1001 77 10000 0 0 13:39 19.03.2022
4728 Clouds -16 1001 79 10000 0 0 12:42 19.03.2022
4729 Clouds -14 1001 76 10000 0 0 11:54 19.03.2022
4730 Clouds -14 1001 76 10000 0 0 11:33 19.03.2022
4731 Clear -12 999 68 10000 2.06 90 08:23 19.03.2022
4732 Clouds -4 999 53 10000 2.57 200 04:23 19.03.2022
4733 Clear -4 1000 53 10000 3.09 190 02:30 19.03.2022
4734 Clear -5 1001 55 10000 2.06 230 23:46 18.03.2022
4735 Clear -7 1001 58 10000 2.06 270 22:36 18.03.2022
4736 Clouds -8 1003 57 7353 0.45 144 21:56 18.03.2022
4737 Clear -12 1003 71 10000 0.45 136 20:25 18.03.2022
4738 Clear -15 1003 75 10000 2.06 80 19:23 18.03.2022
4739 Clear -15 1002 77 10000 1.54 90 18:34 18.03.2022
4740 Clouds -16 1004 79 10000 1.54 70 16:52 18.03.2022
4741 Clouds -16 1004 78 10000 2.06 70 15:52 18.03.2022
4742 Clouds -14 1003 76 10000 1.54 90 14:25 18.03.2022
4743 Clouds -15 1003 74 10000 1.54 50 13:18 18.03.2022
4744 Mist -16 1002 74 9656 2.06 70 11:28 18.03.2022
4745 Clear -17 1001 75 10000 1.54 40 09:41 18.03.2022
4746 Clear -14 1001 72 10000 0 0 08:45 18.03.2022
4747 Clear -11 1000 66 10000 0 0 06:42 18.03.2022
4748 Clear -7 998 57 10000 2.06 250 04:38 18.03.2022
4749 Clear -7 998 58 10000 2.06 250 04:38 18.03.2022
4750 Clouds -3 997 56 10000 1.54 260 00:54 18.03.2022
4751 Snow -4 997 56 10000 1.54 170 23:52 17.03.2022
4752 Snow -4 997 56 10000 1.54 170 23:52 17.03.2022
4753 Clouds -5 997 57 10000 0 0 22:43 17.03.2022
4754 Clouds -6 997 58 10000 0 0 22:18 17.03.2022
4755 Clouds -8 996 63 10000 0.45 131 21:27 17.03.2022
4756 Clear -10 996 65 10000 0 0 20:52 17.03.2022
4757 Clear -12 996 69 10000 0 0 20:18 17.03.2022
4758 Clouds -13 996 70 10000 0 0 19:37 17.03.2022
4759 Clear -17 997 79 10000 2.06 40 18:51 17.03.2022
4760 Clear -19 996 76 10000 1.54 20 17:27 17.03.2022
4761 Clear -18 997 70 10000 2.06 40 15:57 17.03.2022
4762 Clear -17 996 73 10000 3.09 20 15:36 17.03.2022
4763 Clear -18 997 77 10000 0 0 14:55 17.03.2022
4764 Clouds -15 997 69 10000 3.6 20 13:22 17.03.2022
4765 Clear -15 997 70 10000 3.6 40 12:38 17.03.2022
4766 Clear -14 997 67 10000 2.57 10 11:31 17.03.2022
4767 Clear -13 996 70 10000 3.09 50 10:38 17.03.2022
4768 Clear -11 996 65 10000 2.06 20 08:42 17.03.2022
4769 Clouds -14 999 91 10000 2.55 10 07:57 17.03.2022
4770 Clear -6 995 53 10000 2.57 80 05:48 17.03.2022
4771 Clear -3 995 48 10000 2.57 50 03:45 17.03.2022
4772 Clear -3 997 47 10000 2.57 60 00:21 17.03.2022
4773 Clear -5 998 51 10000 2.06 50 22:52 16.03.2022
4774 Clear -6 998 50 10000 2.06 50 22:33 16.03.2022
4775 Clear -7 999 54 10000 2.57 40 21:52 16.03.2022
4776 Clear -10 999 61 10000 3.09 30 20:32 16.03.2022
4777 Clouds -16 999 72 10000 2.57 30 19:22 16.03.2022
4778 Clear -17 999 70 10000 3.09 40 18:40 16.03.2022
4779 Clear -18 1000 63 10000 4.12 10 17:44 16.03.2022
4780 Clear -17 1000 63 10000 4.12 10 17:26 16.03.2022
4781 Clear -15 1001 66 10000 1.54 40 15:56 16.03.2022
4782 Clear -15 1000 62 10000 3.6 40 14:35 16.03.2022
4783 Clouds -16 1000 61 10000 5.14 10 13:34 16.03.2022
4784 Clouds -18 1001 69 10000 1.91 13 11:59 16.03.2022
4785 Clouds -17 1000 64 10000 3.6 60 11:22 16.03.2022
4786 Clouds -18 1000 66 10000 3.6 70 10:28 16.03.2022
4787 Clear -18 1001 63 10000 4.12 80 09:55 16.03.2022
4788 Clear -17 999 58 10000 3.09 10 06:47 16.03.2022
4789 Clear -9 998 39 10000 2.06 50 02:29 16.03.2022
4790 Clouds -12 998 49 10000 0.89 167 22:54 15.03.2022
4791 Clouds -13 998 50 10000 0.45 51 22:33 15.03.2022
4792 Clouds -13 998 49 10000 0.45 200 22:33 15.03.2022
4793 Clear -18 997 62 10000 0.45 144 20:42 15.03.2022
4794 Clouds -17 995 61 3995 0.51 48 19:34 15.03.2022
4795 Clear -26 998 73 10000 1.54 40 17:41 15.03.2022
4796 Clear -25 998 72 10000 1.54 70 16:34 15.03.2022
4797 Clear -25 998 72 10000 2.06 140 15:26 15.03.2022
4798 Clear -25 998 72 10000 2.06 60 14:47 15.03.2022
4799 Clouds -22 997 70 1122 0.45 63 13:55 15.03.2022
4800 Clouds -23 997 67 10000 1.54 360 13:20 15.03.2022
4801 Clouds -23 998 68 10000 0 0 11:32 15.03.2022
4802 Clouds -22 998 67 10000 0 0 10:21 15.03.2022
4803 Clouds -22 998 64 10000 0 0 08:50 15.03.2022
4804 Clouds -22 997 60 10000 1.54 30 07:53 15.03.2022
4805 Clouds -21 997 59 10000 1.54 30 07:35 15.03.2022
4806 Clear -18 997 51 10000 0 0 05:45 15.03.2022
4807 Clouds -11 1000 40 10000 1.54 230 00:25 15.03.2022
4808 Clear -13 1000 45 10000 1.54 240 23:26 14.03.2022
4809 Clear -14 1001 47 10000 0.89 85 22:37 14.03.2022
4810 Clear -15 1001 51 10000 0.45 76 21:51 14.03.2022
4811 Clear -17 1001 56 10000 0 0 20:55 14.03.2022
4812 Clear -20 1002 64 10000 0 0 20:24 14.03.2022
4813 Clouds -25 1002 75 10000 0 0 19:22 14.03.2022
4814 Clear -30 1004 74 10000 0 0 17:55 14.03.2022
4815 Clear -30 1004 74 10000 0 0 17:33 14.03.2022
4816 Clear -30 1004 70 10000 0 0 16:27 14.03.2022
4817 Clear -28 1006 70 10000 2.06 150 14:42 14.03.2022
4818 Clear -27 1007 72 10000 3.6 60 12:55 14.03.2022
4819 Clouds -25 1009 61 10000 1.76 29 10:59 14.03.2022
4820 Clear -24 1010 61 10000 0 0 09:56 14.03.2022
4821 Clear -24 1010 69 10000 0 0 09:23 14.03.2022
4822 Clear -24 1010 68 10000 0 0 08:57 14.03.2022
4823 Clear -24 1010 71 10000 1.54 10 08:24 14.03.2022
4824 Haze -18 1011 55 9656 1.54 160 05:51 14.03.2022
4825 Clear -8 1013 34 10000 4.12 110 02:57 14.03.2022
4826 Clear -8 1013 31 10000 4.12 100 01:33 14.03.2022
4827 Clear -10 1015 32 10000 3.6 60 23:29 13.03.2022
4828 Clear -15 1017 42 10000 2.06 70 21:41 13.03.2022
4829 Clear -16 1017 45 10000 2.06 70 21:19 13.03.2022
4830 Clear -19 1017 48 10000 3.09 20 20:46 13.03.2022
4831 Clear -19 1017 48 10000 3.09 20 20:21 13.03.2022
4832 Clear -20 1016 48 10000 2.57 90 19:41 13.03.2022
4833 Clear -22 1017 52 10000 2.57 90 19:20 13.03.2022
4834 Clear -22 1018 54 10000 3.09 20 18:41 13.03.2022
4835 Clouds -24 1017 64 10000 3.6 20 17:52 13.03.2022
4836 Clouds -24 1017 64 10000 3.6 20 17:33 13.03.2022
4837 Clear -29 1017 69 10000 2.57 30 16:44 13.03.2022
4838 Clear -29 1017 69 10000 2.57 30 16:20 13.03.2022
4839 Clear -30 1018 69 10000 4.12 20 15:34 13.03.2022
4840 Clear -24 1018 64 10000 0 0 14:20 13.03.2022
4841 Clear -21 1019 55 10000 4.12 60 13:27 13.03.2022
4842 Clear -22 1020 60 10000 2.57 50 12:20 13.03.2022
4843 Clear -20 1020 53 10000 4.12 40 11:36 13.03.2022
4844 Clear -22 1020 59 10000 3.6 50 10:49 13.03.2022
4845 Clear -22 1020 59 10000 3.6 50 10:25 13.03.2022
4846 Clear -21 1020 52 10000 1.54 80 09:41 13.03.2022
4847 Clear -20 1020 48 10000 5.14 30 08:48 13.03.2022
4848 Clear -20 1020 48 10000 5.14 30 08:21 13.03.2022
4849 Clear -17 1021 48 10000 0.89 65 05:59 13.03.2022
4850 Clear -12 1018 40 10000 7.72 50 03:33 13.03.2022
4851 Clear -10 1018 38 10000 7.72 40 00:48 13.03.2022
4852 Clear -10 1019 39 10000 8.75 40 22:47 12.03.2022
4853 Clear -12 1018 47 10000 7.2 50 20:59 12.03.2022
4854 Clear -12 1018 47 10000 3.6 50 19:57 12.03.2022
4855 Clear -12 1018 50 10000 6.17 20 19:39 12.03.2022
4856 Clear -24 1019 92 10000 1.85 31 18:31 12.03.2022
4857 Clouds -14 1016 47 10000 5.66 10 17:43 12.03.2022
4858 Clear -23 1017 69 10000 2.57 20 16:25 12.03.2022
4859 Clear -24 1016 68 10000 2.57 40 15:24 12.03.2022
4860 Clear -23 1015 64 10000 3.09 60 14:52 12.03.2022
4861 Clear -22 1014 62 10000 3.6 70 13:53 12.03.2022
4862 Clear -22 1014 63 10000 3.6 70 13:53 12.03.2022
4863 Clear -22 1013 63 10000 3.6 70 12:25 12.03.2022
4864 Clear -22 1012 57 10000 3.6 50 11:51 12.03.2022
4865 Clear -22 1012 57 10000 3.6 50 11:19 12.03.2022
4866 Clouds -22 1014 89 10000 2.04 17 09:58 12.03.2022
4867 Clouds -22 1014 89 10000 2.04 17 09:58 12.03.2022
4868 Clear -20 1011 63 10000 3.6 70 09:38 12.03.2022
4869 Clouds -15 1008 47 10000 2.57 20 07:51 12.03.2022
4870 Clear -12 1008 38 10000 3.6 50 05:20 12.03.2022
4871 Clear -6 1008 33 10000 3.09 80 00:24 12.03.2022
4872 Clear -7 1007 36 10000 4.63 80 23:28 11.03.2022
4873 Clear -9 1008 42 10000 3.09 60 21:47 11.03.2022
4874 Clear -11 1009 48 10000 2.57 60 20:57 11.03.2022
4875 Clear -11 1009 50 10000 2.57 60 20:37 11.03.2022
4876 Clear -15 1009 68 10000 1.93 42 19:53 11.03.2022
4877 Clouds -17 1007 71 10000 1.54 30 19:27 11.03.2022
4878 Clear -19 1009 68 10000 2.06 40 17:37 11.03.2022
4879 Clear -18 1009 68 10000 2.06 40 17:18 11.03.2022
4880 Clear -18 1009 66 10000 3.6 70 15:57 11.03.2022
4881 Clear -17 1009 63 10000 3.09 50 14:22 11.03.2022
4882 Clouds -18 1010 68 10000 2.06 60 13:21 11.03.2022
4883 Clear -16 1010 62 10000 2.57 20 12:22 11.03.2022
4884 Clear -15 1011 63 10000 2.57 40 11:56 11.03.2022
4885 Clear -14 1011 61 10000 3.6 360 10:18 11.03.2022
4886 Clear -12 1011 56 10000 3.09 40 09:27 11.03.2022
4887 Clear -12 1012 54 10000 6.17 30 08:24 11.03.2022
4888 Clouds -11 1011 57 10000 7.2 30 07:46 11.03.2022
4889 Clear -11 1012 62 10000 7.2 20 05:49 11.03.2022
4890 Snow -9 1012 60 10000 6.69 50 04:24 11.03.2022
4891 Clouds -6 1013 62 10000 6.69 30 00:21 11.03.2022
4892 Clouds -6 1013 64 10000 5.14 60 22:31 10.03.2022
4893 Clouds -6 1014 67 10000 5.66 10 21:50 10.03.2022
4894 Clouds -6 1014 68 10000 5.66 10 21:23 10.03.2022
4895 Snow -7 1014 80 4828 2.57 50 19:51 10.03.2022
4896 Snow -8 1014 82 4023 3.09 50 18:56 10.03.2022
4897 Snow -8 1014 82 8047 2.57 60 17:36 10.03.2022
4898 Snow -7 1014 79 10000 4.63 10 16:37 10.03.2022
4899 Snow -6 1014 78 10000 4.63 30 15:26 10.03.2022
4900 Snow -6 1015 74 10000 2.57 40 13:30 10.03.2022
4901 Snow -6 1015 70 10000 4.12 10 12:34 10.03.2022
4902 Snow -6 1015 69 10000 4.12 360 11:22 10.03.2022
4903 Snow -6 1015 75 9656 4.63 10 09:27 10.03.2022
4904 Snow -5 1016 77 10000 5.66 360 07:43 10.03.2022
4905 Snow -3 1016 87 4023 3.6 10 04:59 10.03.2022
4906 Snow -1 1016 89 2414 2.57 20 01:53 10.03.2022
4907 Snow -2 1017 89 4023 1.54 40 23:29 09.03.2022
4908 Snow -3 1019 88 4828 0 0 21:56 09.03.2022
4909 Snow -3 1018 88 4828 0 0 21:36 09.03.2022
4910 Snow -4 1019 83 4828 1.54 100 19:56 09.03.2022
4911 Clouds -6 1021 78 10000 0 0 18:34 09.03.2022
4912 Clouds -6 1021 79 10000 1.54 40 17:27 09.03.2022
4913 Clouds -6 1021 77 10000 0 0 16:34 09.03.2022
4914 Clouds -6 1023 79 10000 0 0 15:31 09.03.2022
4915 Clouds -7 1023 79 10000 1.54 40 13:54 09.03.2022
4916 Clouds -8 1025 80 10000 0 0 12:56 09.03.2022
4917 Clouds -8 1025 78 10000 0 0 12:18 09.03.2022
4918 Clouds -7 1026 76 10000 0 0 11:36 09.03.2022
4919 Clouds -6 1026 79 10000 0 0 10:38 09.03.2022
4920 Clouds -5 1028 74 10000 0 0 08:59 09.03.2022
4921 Clouds -5 1027 69 10000 0 0 08:23 09.03.2022
4922 Clouds -3 1029 52 10000 1.54 20 03:50 09.03.2022
4923 Clouds -3 1031 52 10000 2.06 260 00:47 09.03.2022
4924 Clear -4 1032 52 10000 0.45 116 22:48 08.03.2022
4925 Clear -6 1033 57 10000 0 0 22:29 08.03.2022
4926 Clear -9 1033 66 10000 0 0 21:24 08.03.2022
4927 Clear -12 1033 74 10000 0 0 20:44 08.03.2022
4928 Clear -14 1033 75 10000 1.54 80 19:42 08.03.2022
4929 Clear -18 1033 85 10000 1.54 40 18:44 08.03.2022
4930 Clear -17 1033 80 10000 0 0 17:37 08.03.2022
4931 Clear -16 1034 77 10000 0 0 16:26 08.03.2022
4932 Clouds -14 1035 74 10000 0 0 14:20 08.03.2022
4933 Clear -10 1036 68 10000 1.54 80 12:44 08.03.2022
4934 Clear -9 1036 64 10000 5.14 70 11:45 08.03.2022
4935 Clear -12 1037 73 10000 4.63 60 10:50 08.03.2022
4936 Clear -12 1037 73 10000 4.63 60 10:19 08.03.2022
4937 Clouds -11 1037 67 10000 3.09 60 07:33 08.03.2022
4938 Clear -9 1038 68 10000 2.57 60 05:43 08.03.2022
4939 Clouds -2 1040 60 10000 0.89 136 23:58 07.03.2022
4940 Clear -4 1041 68 10000 5.66 60 22:23 07.03.2022
4941 Clear -6 1043 76 10000 4.12 60 21:34 07.03.2022
4942 Clear -10 1043 83 10000 3.6 70 20:49 07.03.2022
4943 Clear -11 1042 87 10000 3.6 70 20:20 07.03.2022
4944 Clear -14 1043 85 10000 4.12 90 19:34 07.03.2022
4945 Clear -17 1043 84 10000 4.63 70 18:46 07.03.2022
4946 Clear -18 1043 79 10000 4.63 70 17:52 07.03.2022
4947 Clear -19 1043 78 10000 0 0 16:56 07.03.2022
4948 Clouds -19 1044 78 8928 1.82 33 15:59 07.03.2022
4949 Clear -17 1043 80 10000 2.57 50 14:18 07.03.2022
4950 Clear -16 1043 87 10000 0 0 12:33 07.03.2022
4951 Clear -17 1043 84 10000 0 0 10:39 07.03.2022
4952 Clear -17 1042 81 10000 0 0 09:24 07.03.2022
4953 Clear -11 1040 79 10000 0 0 06:19 07.03.2022
4954 Snow -3 1035 71 10000 5.66 270 00:23 07.03.2022
4955 Clouds -3 1034 73 10000 4.63 270 23:35 06.03.2022
4956 Clouds -3 1034 73 10000 4.63 270 23:35 06.03.2022
4957 Clouds -3 1034 73 10000 5.14 250 22:52 06.03.2022
4958 Snow -3 1033 72 10000 5.14 260 22:19 06.03.2022
4959 Snow -3 1032 75 10000 5.14 240 20:50 06.03.2022
4960 Snow -4 1031 76 10000 5.14 250 20:23 06.03.2022
4961 Snow -4 1030 77 10000 3.6 200 19:21 06.03.2022
4962 Clouds -5 1029 78 10000 4.12 230 18:25 06.03.2022
4963 Snow -5 1028 81 10000 4.12 230 17:21 06.03.2022
4964 Clouds -5 1027 77 10000 3.09 200 16:42 06.03.2022
4965 Clouds -5 1026 79 10000 1.54 210 15:54 06.03.2022
4966 Clouds -6 1025 80 10000 2.57 270 14:49 06.03.2022
4967 Clouds -6 1026 82 10000 2.57 270 14:31 06.03.2022
4968 Clouds -6 1025 80 10000 2.57 220 13:29 06.03.2022
4969 Clouds -6 1024 80 10000 3.6 240 12:35 06.03.2022
4970 Clear -5 1021 75 10000 3.09 260 11:18 06.03.2022
4971 Clouds -4 1020 73 10000 5.14 260 10:27 06.03.2022
4972 Clouds -3 1017 80 10000 2.57 230 08:30 06.03.2022
4973 Clouds -3 1017 80 10000 2.57 230 08:30 06.03.2022
4974 Clouds -2 1016 84 10000 2.57 200 07:35 06.03.2022
4975 Snow -2 1016 85 10000 3.6 240 06:19 06.03.2022
4976 Clouds -1 1015 67 10000 0 0 00:53 06.03.2022
4977 Clouds -1 1015 67 10000 0 0 00:31 06.03.2022
4978 Snow -2 1016 72 10000 0 0 23:23 05.03.2022
4979 Snow -4 1017 74 10000 0 0 22:53 05.03.2022
4980 Clouds -6 1017 80 10000 0.59 122 21:56 05.03.2022
4981 Clouds -7 1017 82 10000 1.54 360 21:23 05.03.2022
4982 Clouds -13 1018 87 10000 0.89 85 19:44 05.03.2022
4983 Clouds -14 1019 83 10000 2.57 70 18:54 05.03.2022
4984 Clouds -15 1019 81 10000 2.57 70 18:27 05.03.2022
4985 Clear -15 1019 83 10000 2.06 60 16:49 05.03.2022
4986 Clear -15 1019 83 10000 1.54 340 15:31 05.03.2022
4987 Clear -15 1018 80 10000 1.54 90 14:47 05.03.2022
4988 Clear -15 1018 80 10000 1.54 90 14:29 05.03.2022
4989 Clouds -14 1018 83 10000 0 0 13:22 05.03.2022
4990 Clear -13 1017 85 10000 0 0 11:48 05.03.2022
4991 Clear -13 1017 85 10000 0 0 11:19 05.03.2022
4992 Clear -12 1016 87 10000 1.54 70 10:18 05.03.2022
4993 Clear -9 1015 80 10000 1.54 80 09:22 05.03.2022
4994 Clouds -9 1014 80 10000 0 0 07:38 05.03.2022
4995 Clear -5 1012 75 10000 2.57 100 05:43 05.03.2022
4996 Clouds 1 1010 64 10000 2.06 70 03:18 05.03.2022
4997 Clouds 2 1009 56 10000 5.66 80 23:37 04.03.2022
4998 Clouds 1 1009 55 10000 4.63 70 22:42 04.03.2022
4999 Clouds 0 1008 60 10000 4.12 70 21:49 04.03.2022
5000 Clouds -1 1009 56 10000 0.89 214 20:56 04.03.2022
5001 Clear -5 1009 70 10000 4.12 70 20:27 04.03.2022
5002 Clear -4 1009 64 10000 4.63 70 19:36 04.03.2022
5003 Clear -7 1010 71 10000 3.6 70 18:45 04.03.2022
5004 Clear -9 1010 78 10000 4.12 70 17:39 04.03.2022
5005 Clear -9 1011 73 10000 4.12 80 16:54 04.03.2022
5006 Clear -15 1011 79 10000 4.12 60 15:30 04.03.2022
5007 Clear -15 1012 79 10000 4.63 70 14:33 04.03.2022
5008 Clear -15 1013 85 10000 4.12 70 13:26 04.03.2022
5009 Clear -16 1014 81 10000 0 0 11:46 04.03.2022
5010 Clear -13 1014 81 10000 3.09 70 10:54 04.03.2022
5011 Clouds -13 1015 80 10000 1.92 42 09:58 04.03.2022
5012 Clear -11 1015 80 10000 3.09 80 08:40 04.03.2022
5013 Clouds -10 1015 80 10000 2.06 30 07:36 04.03.2022
5014 Clouds -7 1014 70 10000 2.06 270 04:31 04.03.2022
5015 Clear -3 1014 65 10000 0 0 00:38 04.03.2022
5016 Clouds -6 1013 69 10000 0 0 22:28 03.03.2022
5017 Clear -13 1013 81 10000 0 0 21:45 03.03.2022
5018 Clear -14 1013 84 10000 0 0 21:26 03.03.2022
5019 Clear -13 1013 88 10000 0.89 77 20:18 03.03.2022
5020 Clear -20 1012 81 10000 0 0 18:55 03.03.2022
5021 Clear -19 1012 80 10000 0 0 18:24 03.03.2022
5022 Clear -18 1012 80 10000 0 0 17:31 03.03.2022
5023 Clear -18 1012 82 10000 0 0 16:25 03.03.2022
5024 Clear -14 1011 87 10000 0.45 66 15:24 03.03.2022
5025 Clear -13 1012 80 10000 3.09 90 14:43 03.03.2022
5026 Clear -14 1012 80 10000 3.09 90 14:20 03.03.2022
5027 Clear -14 1012 85 10000 3.09 70 12:23 03.03.2022
5028 Clear -14 1011 80 10000 0 0 10:49 03.03.2022
5029 Clouds -13 1011 84 10000 1.54 90 09:45 03.03.2022
5030 Clouds -10 1011 78 10000 0 0 08:19 03.03.2022
5031 Clouds -7 1011 86 10000 2.57 70 06:37 03.03.2022
5032 Clouds -6 1011 80 10000 2.06 60 04:46 03.03.2022
5033 Clouds -5 1013 81 10000 1.54 40 23:41 02.03.2022
5034 Clouds -7 1014 87 10000 0 0 22:53 02.03.2022
5035 Clouds -12 1014 85 10000 0 0 21:36 02.03.2022
5036 Mist -14 1014 87 6437 0 0 20:57 02.03.2022
5037 Mist -15 1014 85 6437 0 0 20:25 02.03.2022
5038 Fog -17 1014 87 805 0 0 19:37 02.03.2022
5039 Mist -16 1014 85 3219 0 0 18:57 02.03.2022
5040 Fog -16 1014 82 10000 0 0 18:26 02.03.2022
5041 Clouds -16 1013 84 10000 0 0 17:37 02.03.2022
5042 Mist -15 1013 84 3018 0 0 16:52 02.03.2022
5043 Mist -15 1013 84 1609 0 0 15:20 02.03.2022
5044 Fog -16 1013 80 10000 0 0 13:52 02.03.2022
5045 Mist -14 1013 83 1609 0 0 12:46 02.03.2022
5046 Fog -13 1013 81 10000 0 0 12:24 02.03.2022
5047 Clouds -11 1012 85 10000 0 0 11:26 02.03.2022
5048 Clouds -9 1012 86 10000 0 0 10:31 02.03.2022
5049 Clouds -8 1012 83 10000 0 0 09:36 02.03.2022
5050 Snow -7 1012 86 10000 0 0 08:34 02.03.2022
5051 Snow -6 1010 79 10000 1.54 0 07:23 02.03.2022
5052 Clouds -6 1011 83 10000 0 0 04:51 02.03.2022
5053 Clouds -5 1011 80 10000 0 0 00:40 02.03.2022
5054 Clouds -5 1011 80 10000 0 0 00:40 02.03.2022
5055 Clouds -6 1011 80 10000 0 0 23:27 01.03.2022
5056 Clouds -7 1011 81 10000 0 0 22:38 01.03.2022
5057 Clouds -8 1011 83 10000 0 0 21:44 01.03.2022
5058 Clouds -9 1011 85 10000 0 0 20:40 01.03.2022
5059 Clouds -9 1011 85 10000 0 0 20:19 01.03.2022
5060 Clouds -9 1011 85 10000 0 0 18:53 01.03.2022
5061 Clouds -9 1011 83 10000 1.54 190 18:24 01.03.2022
5062 Clouds -9 1011 92 10000 0 0 17:54 01.03.2022
5063 Clouds -9 1010 86 10000 0 0 16:37 01.03.2022
5064 Clouds -9 1010 86 10000 1.54 200 15:48 01.03.2022
5065 Clouds -9 1011 92 10000 0 0 14:54 01.03.2022
5066 Clouds -9 1010 86 10000 0 0 14:31 01.03.2022
5067 Clouds -9 1010 86 10000 0 0 13:26 01.03.2022
5068 Snow -9 1010 89 10000 0 0 12:37 01.03.2022
5069 Mist -10 1010 86 8047 0 0 11:38 01.03.2022
5070 Snow -9 1010 89 10000 2.06 180 09:53 01.03.2022
5071 Snow -8 1010 85 10000 0 0 08:30 01.03.2022
5072 Snow -8 1009 84 10000 0 0 07:19 01.03.2022
5073 Clouds -7 1008 83 10000 1.54 200 03:27 01.03.2022
5074 Snow -6 1008 82 10000 0 0 00:49 01.03.2022
5075 Mist -7 1008 81 4828 0 0 23:47 28.02.2022
5076 Snow -7 1008 83 10000 0 0 22:43 28.02.2022
5077 Mist -8 1008 84 4426 0 0 21:48 28.02.2022
5078 Snow -8 1009 85 3219 0 0 20:55 28.02.2022
5079 Snow -9 1008 85 3219 0 0 19:51 28.02.2022
5080 Snow -10 1008 86 2414 0 0 19:22 28.02.2022
5081 Snow -10 1008 86 2615 0 0 18:35 28.02.2022
5082 Snow -10 1008 87 3621 0 0 17:23 28.02.2022
5083 Snow -10 1008 87 4023 0 0 16:32 28.02.2022
5084 Snow -10 1007 87 3219 0 0 15:21 28.02.2022
5085 Snow -10 1008 88 10000 0 0 14:29 28.02.2022
5086 Snow -10 1008 86 4828 0 0 13:24 28.02.2022
5087 Snow -10 1008 87 10000 0 0 12:31 28.02.2022
5088 Snow -10 1008 88 10000 0 0 11:21 28.02.2022
5089 Snow -9 1007 87 6437 0 0 10:24 28.02.2022
5090 Mist -9 1008 87 6437 0 0 09:59 28.02.2022
5091 Snow -9 1007 86 3219 0 0 09:27 28.02.2022
5092 Snow -9 1007 87 9656 0 0 08:26 28.02.2022
5093 Snow -9 1007 87 8047 0 0 06:53 28.02.2022
5094 Snow -9 1006 85 4828 0 0 04:31 28.02.2022
5095 Snow -8 1006 82 4426 1.54 200 02:41 28.02.2022
5096 Mist -8 1006 82 8047 1.54 230 23:19 27.02.2022
5097 Mist -8 1006 82 8047 0.45 53 22:33 27.02.2022
5098 Mist -8 1005 83 3621 0 0 21:47 27.02.2022
5099 Clouds -9 1005 85 10000 0 0 20:54 27.02.2022
5100 Snow -9 1005 85 4828 0.45 167 20:27 27.02.2022
5101 Snow -9 1005 85 3621 0.45 166 19:56 27.02.2022
5102 Snow -9 1005 85 4023 0 0 19:26 27.02.2022
5103 Snow -10 1004 86 3621 0.45 178 18:39 27.02.2022
5104 Snow -9 1003 85 6437 1.54 180 17:54 27.02.2022
5105 Mist -9 1003 84 9656 1.54 190 16:37 27.02.2022
5106 Mist -9 1003 83 9656 1.54 200 15:55 27.02.2022
5107 Clouds -8 1003 80 10000 3.09 210 12:53 27.02.2022
5108 Clouds -8 1003 79 10000 3.09 210 12:29 27.02.2022
5109 Clouds -4 1002 90 10000 2.06 220 10:50 27.02.2022
5110 Clouds -4 1002 93 10000 0 0 09:58 27.02.2022
5111 Snow -3 1002 87 10000 0 0 09:29 27.02.2022
5112 Snow -8 1004 96 136 2.24 353 09:00 27.02.2022
5113 Clouds -2 1001 75 8047 5.14 10 06:43 27.02.2022
5114 Clouds -1 1001 72 10000 4.63 360 05:36 27.02.2022
5115 Clouds -1 1003 72 10000 3.09 10 00:52 27.02.2022
5116 Clouds -1 1003 77 10000 3.6 50 22:56 26.02.2022
5117 Clouds -4 1003 83 10000 2.57 40 21:44 26.02.2022
5118 Clouds -7 1004 87 10000 2.06 50 20:52 26.02.2022
5119 Clouds -8 1004 89 10000 2.06 50 20:19 26.02.2022
5120 Clear -10 1004 86 10000 0 0 19:41 26.02.2022
5121 Clear -11 1004 84 10000 0 0 19:19 26.02.2022
5122 Mist -11 1004 83 3018 1.54 20 17:45 26.02.2022
5123 Clear -9 1004 86 10000 0 0 16:51 26.02.2022
5124 Clear -9 1004 86 10000 0 0 15:57 26.02.2022
5125 Clear -9 1004 86 10000 0 0 15:23 26.02.2022
5126 Clear -8 1004 85 10000 0 0 14:54 26.02.2022
5127 Clear -8 1004 85 10000 0 0 14:36 26.02.2022
5128 Clear -5 1004 81 10000 0 0 13:19 26.02.2022
5129 Clear -3 1003 75 10000 0 0 12:29 26.02.2022
5130 Clouds -1 1003 75 10000 3.09 70 11:28 26.02.2022
5131 Clouds 1 1003 64 10000 5.14 60 10:49 26.02.2022
5132 Clouds -3 1003 78 10000 2.52 42 08:59 26.02.2022
5133 Clouds 2 1000 64 10000 1.54 80 07:37 26.02.2022
5134 Clouds 1 999 74 10000 2.57 50 01:27 26.02.2022
5135 Clouds -1 1000 82 10000 4.12 60 22:57 25.02.2022
5136 Clear -4 1001 91 10000 3.6 60 21:46 25.02.2022
5137 Clear -4 1002 91 10000 3.6 60 21:26 25.02.2022
5138 Clear -5 1001 90 10000 4.12 60 20:33 25.02.2022
5139 Clear -10 1003 87 10000 2.57 60 19:22 25.02.2022
5140 Clear -13 1003 86 10000 0 0 17:30 25.02.2022
5141 Clear -13 1004 85 10000 0 0 16:44 25.02.2022
5142 Clear -12 1004 85 10000 0 0 15:48 25.02.2022
5143 Clear -12 1005 85 10000 0 0 15:22 25.02.2022
5144 Clear -11 1005 85 10000 0 0 14:42 25.02.2022
5145 Mist -11 1006 87 4426 0 0 13:58 25.02.2022
5146 Mist -11 1006 86 4426 0 0 13:20 25.02.2022
5147 Clear -8 1007 89 10000 3.6 70 11:28 25.02.2022
5148 Mist -9 1007 87 8047 1.54 40 10:48 25.02.2022
5149 Mist -9 1007 87 8047 1.54 40 10:22 25.02.2022
5150 Clear -7 1008 90 10000 3.09 70 09:31 25.02.2022
5151 Clouds -7 1008 84 10000 0 0 07:44 25.02.2022
5152 Mist -6 1008 87 6437 2.06 50 06:19 25.02.2022
5153 Mist -6 1008 87 6437 1.54 80 05:36 25.02.2022
5154 Clear -1 1009 88 10000 2.57 60 00:30 25.02.2022
5155 Clouds -2 1010 89 10000 2.57 60 22:20 24.02.2022
5156 Clouds -5 1009 88 10000 0 0 21:42 24.02.2022
5157 Clouds -5 1010 89 10000 0 0 21:20 24.02.2022
5158 Clouds -6 1011 89 10000 0 0 20:42 24.02.2022
5159 Clouds -10 1011 88 10000 0 0 19:19 24.02.2022
5160 Clear -10 1011 88 10000 0 0 18:20 24.02.2022
5161 Clear -10 1011 88 10000 0 0 17:46 24.02.2022
5162 Mist -10 1011 89 6437 0 0 16:57 24.02.2022
5163 Mist -11 1011 87 6437 0 0 16:25 24.02.2022
5164 Mist -11 1012 88 2012 0 0 15:31 24.02.2022
5165 Mist -11 1012 88 4828 0 0 14:43 24.02.2022
5166 Mist -12 1013 85 9656 0 0 13:45 24.02.2022
5167 Mist -9 1012 87 9656 0 0 13:27 24.02.2022
5168 Clouds -8 1014 86 10000 0 0 10:48 24.02.2022
5169 Clouds -8 1014 84 10000 1.54 10 09:42 24.02.2022
5170 Clouds -8 1014 86 10000 0 0 08:43 24.02.2022
5171 Clouds -8 1014 86 10000 0 0 08:43 24.02.2022
5172 Clouds -11 1014 84 10000 1.54 20 06:27 24.02.2022
5173 Fog -12 1014 86 805 0 0 05:36 24.02.2022
5174 Snow -4 1016 84 10000 0 0 00:30 24.02.2022
5175 Clouds -9 1017 92 10000 2.57 80 21:56 23.02.2022
5176 Mist -10 1017 90 10000 0 0 20:43 23.02.2022
5177 Mist -13 1018 91 10000 0 0 20:20 23.02.2022
5178 Clouds -16 1019 83 10000 1.54 30 19:23 23.02.2022
5179 Mist -16 1019 84 3621 0 0 17:56 23.02.2022
5180 Fog -13 1020 84 10000 1.54 70 16:27 23.02.2022
5181 Mist -7 1021 90 9656 0 0 13:45 23.02.2022
5182 Snow -4 1022 88 10000 0 0 12:31 23.02.2022
5183 Mist -5 1022 87 8047 3.09 60 10:56 23.02.2022
5184 Snow -4 1020 89 10000 2.57 80 09:38 23.02.2022
5185 Clouds -5 1021 91 10000 2.57 60 08:54 23.02.2022
5186 Snow -5 1021 90 10000 2.57 60 07:47 23.02.2022
5187 Snow -4 1018 86 6437 4.63 240 02:31 23.02.2022
5188 Snow -4 1017 86 9656 4.12 220 23:50 22.02.2022
5189 Snow -4 1016 86 9656 4.12 220 23:32 22.02.2022
5190 Snow -5 1015 88 6437 3.6 230 22:28 22.02.2022
5191 Snow -6 1014 90 805 3.09 190 21:44 22.02.2022
5192 Snow -6 1014 90 805 3.09 190 21:21 22.02.2022
5193 Snow -6 1013 90 402 3.09 190 20:41 22.02.2022
5194 Snow -6 1013 90 402 3.09 190 20:22 22.02.2022
5195 Snow -5 1012 89 402 3.09 190 19:34 22.02.2022
5196 Snow -6 1012 90 8047 0 0 18:35 22.02.2022
5197 Snow -6 1011 89 4426 2.57 260 17:34 22.02.2022
5198 Snow -6 1010 89 4023 0 0 16:56 22.02.2022
5199 Mist -6 1009 88 1609 0 0 16:21 22.02.2022
5200 Mist -6 1009 88 3219 0 0 15:30 22.02.2022
5201 Snow -6 1009 87 3219 0 0 14:33 22.02.2022
5202 Clouds -7 1010 83 10000 0 0 11:39 22.02.2022
5203 Clouds -7 1010 83 10000 0 0 11:39 22.02.2022
5204 Clouds -7 1012 82 10000 0.45 196 09:45 22.02.2022
5205 Snow -8 1014 84 10000 2.06 10 07:38 22.02.2022
5206 Snow -8 1015 85 10000 2.06 10 07:19 22.02.2022
5207 Snow -8 1015 85 10000 2.06 10 07:19 22.02.2022
5208 Clouds -8 1022 72 10000 2.57 20 02:51 22.02.2022
5209 Clouds -8 1026 72 10000 2.57 30 23:42 21.02.2022
5210 Clouds -9 1027 73 10000 2.06 70 22:37 21.02.2022
5211 Snow -10 1027 74 10000 2.57 20 21:21 21.02.2022
5212 Clouds -11 1028 76 10000 0.23 54 18:58 21.02.2022
5213 Clouds -12 1028 75 10000 2.06 60 18:39 21.02.2022
5214 Clouds -13 1029 75 10000 2.06 90 16:30 21.02.2022
5215 Clouds -14 1030 75 10000 2.06 30 14:24 21.02.2022
5216 Clouds -14 1030 75 10000 1.54 10 13:40 21.02.2022
5217 Clouds -15 1030 75 10000 1.54 100 12:57 21.02.2022
5218 Clouds -15 1030 72 10000 2.57 30 12:21 21.02.2022
5219 Clear -17 1030 76 10000 3.09 70 10:31 21.02.2022
5220 Clear -17 1031 77 10000 3.6 70 07:51 21.02.2022
5221 Clear -14 1032 70 10000 2.06 50 00:36 21.02.2022
5222 Clear -17 1031 72 10000 3.09 40 22:37 20.02.2022
5223 Clear -20 1030 73 10000 2.57 50 21:51 20.02.2022
5224 Clear -21 1031 74 10000 2.57 50 21:25 20.02.2022
5225 Clear -22 1031 76 10000 0 0 20:45 20.02.2022
5226 Clear -26 1031 77 10000 3.09 10 19:51 20.02.2022
5227 Clear -29 1031 72 10000 2.57 40 18:57 20.02.2022
5228 Clear -29 1031 72 10000 2.57 40 18:37 20.02.2022
5229 Clear -28 1030 72 10000 2.57 40 17:56 20.02.2022
5230 Clear -28 1030 72 10000 2.57 40 17:24 20.02.2022
5231 Clear -29 1030 72 10000 2.06 30 15:28 20.02.2022
5232 Clouds -25 1029 73 10000 1.78 20 13:59 20.02.2022
5233 Haze -25 1028 75 4426 0 0 12:49 20.02.2022
5234 Clear -23 1028 76 10000 0 0 11:56 20.02.2022
5235 Clear -22 1027 76 10000 2.57 30 10:21 20.02.2022
5236 Clouds -20 1027 79 10000 2.06 60 09:46 20.02.2022
5237 Clouds -19 1025 77 10000 1.54 20 06:30 20.02.2022
5238 Clouds -14 1022 73 10000 1.54 150 00:33 20.02.2022
5239 Clear -15 1021 76 10000 0 0 23:39 19.02.2022
5240 Clouds -17 1020 77 10000 0 0 22:24 19.02.2022
5241 Clouds -17 1019 80 10000 1.54 240 21:50 19.02.2022
5242 Clouds -18 1018 80 10000 0 0 20:41 19.02.2022
5243 Haze -19 1017 79 8047 0 0 19:36 19.02.2022
5244 Snow -20 1017 79 10000 0 0 18:41 19.02.2022
5245 Snow -18 1016 81 10000 0 0 17:58 19.02.2022
5246 Snow -18 1015 78 10000 0 0 17:23 19.02.2022
5247 Clouds -19 1015 78 333 0.96 332 15:59 19.02.2022
5248 Clouds -19 1014 83 10000 0 0 14:55 19.02.2022
5249 Clouds -20 1014 82 10000 0 0 13:58 19.02.2022
5250 Snow -20 1012 78 10000 0 0 11:58 19.02.2022
5251 Snow -19 1011 79 10000 0 0 11:24 19.02.2022
5252 Clouds -17 1009 82 10000 0 0 08:59 19.02.2022
5253 Mist -17 1008 82 6437 0 0 06:48 19.02.2022
5254 Snow -15 1004 79 10000 2.06 190 00:50 19.02.2022
5255 Snow -14 1003 82 2012 4.12 200 22:33 18.02.2022
5256 Snow -13 1003 83 10000 3.09 190 21:26 18.02.2022
5257 Snow -12 1002 82 3621 2.06 200 20:24 18.02.2022
5258 Mist -11 1002 83 3018 2.57 210 19:50 18.02.2022
5259 Mist -10 1002 87 3621 2.06 350 18:37 18.02.2022
5260 Mist -10 1002 85 4023 2.06 350 18:18 18.02.2022
5261 Snow -10 1002 85 9656 3.09 360 17:18 18.02.2022
5262 Snow -10 990 83 3621 3.6 10 14:30 18.02.2022
5263 Snow -11 1002 88 4023 2.06 50 13:46 18.02.2022
5264 Mist -11 1003 87 4828 3.09 40 12:50 18.02.2022
5265 Snow -11 1003 85 4828 2.57 40 11:57 18.02.2022
5266 Mist -12 992 85 8047 3.09 60 10:45 18.02.2022
5267 Snow -12 1008 85 1609 3.09 60 08:47 18.02.2022
5268 Snow -12 1010 81 1609 3.6 30 06:35 18.02.2022
5269 Snow -12 1012 77 6437 3.6 60 05:34 18.02.2022
5270 Clouds -18 1020 73 10000 1.54 50 22:39 17.02.2022
5271 Clouds -20 1021 72 10000 0 0 21:41 17.02.2022
5272 Clouds -22 1021 73 10000 2.57 50 20:44 17.02.2022
5273 Clouds -21 1020 75 10000 1.57 36 19:56 17.02.2022
5274 Clouds -26 1023 73 10000 1.54 20 19:26 17.02.2022
5275 Clouds -29 1023 76 10000 0 0 18:29 17.02.2022
5276 Clear -31 1023 76 10000 0 0 17:42 17.02.2022
5277 Clear -30 1024 78 10000 0 0 15:57 17.02.2022
5278 Clear -30 1024 74 10000 0 0 14:30 17.02.2022
5279 Clouds -29 1023 72 10000 0 0 13:47 17.02.2022
5280 Clouds -29 1023 74 10000 0 0 11:52 17.02.2022
5281 Clouds -29 1024 75 10000 0 0 10:57 17.02.2022
5282 Clouds -24 1020 77 10000 0 0 07:56 17.02.2022
5283 Snow -14 1011 81 3219 3.6 260 23:50 16.02.2022
5284 Snow -14 1009 83 2012 1.54 260 22:38 16.02.2022
5285 Snow -16 1009 79 3621 4.63 40 20:24 16.02.2022
5286 Snow -17 1010 79 10000 4.12 60 19:23 16.02.2022
5287 Clouds -16 1010 78 10000 5.14 50 18:34 16.02.2022
5288 Clouds -19 1012 80 10000 4.12 20 17:24 16.02.2022
5289 Clouds -21 1016 75 10000 4.12 40 15:24 16.02.2022
5290 Clouds -23 1019 73 10000 2.57 30 13:47 16.02.2022
5291 Clear -28 1021 74 10000 0 0 12:27 16.02.2022
5292 Clear -26 1022 73 10000 0 0 11:46 16.02.2022
5293 Clear -27 1024 76 10000 0 0 10:35 16.02.2022
5294 Haze -24 1024 77 10000 0 0 09:54 16.02.2022
5295 Clear -21 1026 80 10000 0 0 06:44 16.02.2022
5296 Mist -18 1026 78 4426 2.57 200 02:48 16.02.2022
5297 Snow -17 1024 78 3219 2.06 210 22:34 15.02.2022
5298 Mist -17 1024 77 4828 2.06 200 21:51 15.02.2022
5299 Snow -17 1023 77 4023 2.57 250 21:31 15.02.2022
5300 Mist -17 1022 78 6437 1.54 240 20:58 15.02.2022
5301 Snow -17 1022 78 10000 1.54 200 20:27 15.02.2022
5302 Snow -17 1021 77 10000 0 0 19:46 15.02.2022
5303 Snow -17 1020 75 10000 1.54 40 18:27 15.02.2022
5304 Clouds -18 1020 77 10000 0 0 17:57 15.02.2022
5305 Clouds -17 1020 74 10000 0 0 17:38 15.02.2022
5306 Clouds -17 1019 76 10000 2.06 50 15:44 15.02.2022
5307 Clouds -18 1019 76 10000 3.09 350 14:31 15.02.2022
5308 Clouds -18 1019 74 10000 2.57 20 13:26 15.02.2022
5309 Clouds -20 1018 74 10000 3.09 40 11:41 15.02.2022
5310 Clouds -19 1017 75 10000 3.6 40 10:32 15.02.2022
5311 Clouds -20 1019 77 10000 0 0 08:56 15.02.2022
5312 Clear -19 1018 77 10000 0 0 06:47 15.02.2022
5313 Clear -18 1024 78 10000 3.6 60 00:26 15.02.2022
5314 Clouds -19 1024 79 10000 1.68 20 21:59 14.02.2022
5315 Clouds -20 1025 80 10000 1.62 25 20:57 14.02.2022
5316 Clouds -23 1028 79 7518 1.53 12 19:52 14.02.2022
5317 Clouds -23 1027 77 1833 0.45 311 19:30 14.02.2022
5318 Clouds -32 1029 69 10000 0 0 18:24 14.02.2022
5319 Clouds -32 1029 69 10000 0 0 18:24 14.02.2022
5320 Clouds -26 1028 77 10000 0 0 17:31 14.02.2022
5321 Clouds -31 1029 73 10000 0 0 16:49 14.02.2022
5322 Clear -33 1025 78 10000 1.54 50 15:42 14.02.2022
5323 Clouds -29 1028 76 10000 2.57 40 13:36 14.02.2022
5324 Clouds -25 1026 77 2727 1.04 32 12:59 14.02.2022
5325 Clouds -30 1029 75 10000 0 0 12:32 14.02.2022
5326 Clear -25 1028 76 10000 0 0 11:39 14.02.2022
5327 Clear -23 1028 79 10000 1.54 60 10:22 14.02.2022
5328 Clear -18 1025 80 10000 0 0 08:26 14.02.2022
5329 Snow -17 1025 76 10000 2.57 230 07:26 14.02.2022
5330 Snow -12 1021 81 2816 2.06 200 23:19 13.02.2022
5331 Snow -12 1020 82 9656 2.06 200 22:41 13.02.2022
5332 Snow -12 1020 81 9656 0 0 22:22 13.02.2022
5333 Snow -13 1021 81 8047 0 0 21:24 13.02.2022
5334 Snow -14 1020 83 10000 0 0 20:28 13.02.2022
5335 Snow -16 1021 80 4828 0 0 19:23 13.02.2022
5336 Snow -15 1020 82 10000 0 0 18:41 13.02.2022
5337 Snow -16 1022 83 10000 0 0 17:41 13.02.2022
5338 Mist -14 1022 85 3621 0 0 15:53 13.02.2022
5339 Snow -15 1021 82 10000 0 0 14:52 13.02.2022
5340 Snow -16 1020 79 6437 0 0 13:42 13.02.2022
5341 Snow -15 1020 81 3621 2.06 240 12:49 13.02.2022
5342 Snow -15 1019 81 10000 0 0 10:50 13.02.2022
5343 Snow -15 1020 83 10000 0 0 10:27 13.02.2022
5344 Snow -18 1020 82 4426 0 0 08:59 13.02.2022
5345 Snow -18 1021 76 9656 0 0 05:27 13.02.2022
5346 Clouds -19 1018 73 10000 0 0 00:34 13.02.2022
5347 Clouds -19 1016 74 10000 0 0 22:59 12.02.2022
5348 Clouds -21 1016 74 10000 0 0 22:33 12.02.2022
5349 Clear -23 1015 75 10000 0 0 21:19 12.02.2022
5350 Clouds -23 1015 74 10000 1.54 240 20:25 12.02.2022
5351 Clear -23 1015 74 10000 1.54 220 19:18 12.02.2022
5352 Clear -23 1015 78 10000 2.06 190 18:41 12.02.2022
5353 Clear -23 1014 78 10000 2.06 190 18:23 12.02.2022
5354 Clouds -21 1014 83 10000 0 0 16:55 12.02.2022
5355 Clouds -21 1013 81 10000 2.06 0 16:25 12.02.2022
5356 Clouds -21 993 82 10000 0 0 15:49 12.02.2022
5357 Clouds -21 1013 81 10000 0 0 14:30 12.02.2022
5358 Clear -25 1014 78 10000 0 0 12:55 12.02.2022
5359 Clouds -21 1015 78 10000 1.54 20 10:36 12.02.2022
5360 Clear -21 1015 78 10000 2.06 60 09:39 12.02.2022
5361 Clear -20 1016 79 10000 0 0 08:48 12.02.2022
5362 Clouds -18 1016 77 10000 0 0 07:50 12.02.2022
5363 Clouds -18 1017 77 10000 3.09 30 05:33 12.02.2022
5364 Clear -16 1017 74 10000 1.54 340 02:20 12.02.2022
5365 Clouds -14 1018 73 10000 3.09 60 01:44 12.02.2022
5366 Clouds -17 1020 74 10000 3.09 20 22:28 11.02.2022
5367 Clouds -18 1021 76 10000 4.12 360 21:45 11.02.2022
5368 Clear -21 1022 76 10000 2.06 360 20:38 11.02.2022
5369 Clouds -21 1022 75 10000 3.6 20 19:33 11.02.2022
5370 Clouds -22 1023 75 10000 0.99 13 18:59 11.02.2022
5371 Clear -23 1025 75 10000 4.12 20 17:41 11.02.2022
5372 Clear -23 1025 75 10000 4.12 20 17:22 11.02.2022
5373 Clouds -24 1004 76 10000 0 0 15:55 11.02.2022
5374 Clouds -25 1029 71 10000 2.57 50 14:38 11.02.2022
5375 Clouds -25 1029 71 10000 2.57 50 14:20 11.02.2022
5376 Snow -23 1028 65 10000 3.09 30 13:50 11.02.2022
5377 Snow -23 1028 65 10000 3.09 30 13:31 11.02.2022
5378 Clouds -24 1016 75 10000 3.6 50 11:32 11.02.2022
5379 Clouds -28 1033 72 10000 2.06 40 09:45 11.02.2022
5380 Clear -27 1033 75 10000 2.57 50 08:40 11.02.2022
5381 Clear -28 1034 78 10000 2.57 50 08:22 11.02.2022
5382 Snow -26 1034 71 9656 2.06 80 06:33 11.02.2022
5383 Clear -22 1034 76 10000 1.54 70 02:26 11.02.2022
5384 Clear -21 1033 77 10000 1.54 80 00:47 11.02.2022
5385 Snow -23 1032 77 10000 1.54 80 22:45 10.02.2022
5386 Snow -24 1032 77 10000 2.06 80 21:45 10.02.2022
5387 Mist -24 1031 76 9656 2.57 60 20:54 10.02.2022
5388 Mist -24 1031 77 6437 1.54 80 20:30 10.02.2022
5389 Snow -24 1030 75 1811 1.54 70 19:25 10.02.2022
5390 Snow -24 1029 75 2615 1.54 70 18:44 10.02.2022
5391 Snow -25 1015 77 8047 0 0 17:26 10.02.2022
5392 Clouds -25 1014 75 10000 2.06 70 16:50 10.02.2022
5393 Clouds -27 1011 76 10000 2.57 90 15:47 10.02.2022
5394 Clouds -28 1011 75 10000 2.57 90 15:28 10.02.2022
5395 Clear -28 1009 77 10000 0 0 14:46 10.02.2022
5396 Clear -27 1008 78 10000 0 0 14:23 10.02.2022
5397 Clouds -25 1007 76 10000 0.45 349 13:22 10.02.2022
5398 Clear -24 1005 77 10000 2.06 210 12:23 10.02.2022
5399 Snow -22 1019 72 10000 2.06 210 11:33 10.02.2022
5400 Snow -20 1016 77 10000 2.57 220 10:35 10.02.2022
5401 Snow -20 1016 78 9656 3.09 200 09:49 10.02.2022
5402 Snow -20 1014 78 9656 4.12 230 08:53 10.02.2022
5403 Snow -20 1011 76 9656 3.6 240 06:50 10.02.2022
5404 Snow -20 1008 78 9656 2.06 190 03:55 10.02.2022
5405 Snow -21 1006 76 2816 0 0 01:43 10.02.2022
5406 Snow -21 1004 76 4828 0 0 00:42 10.02.2022
5407 Snow -21 1004 76 4828 0 0 00:24 10.02.2022
5408 Snow -22 1002 75 4828 1.54 190 22:58 09.02.2022
5409 Snow -21 1002 74 4828 1.54 190 22:33 09.02.2022
5410 Snow -22 1001 76 2213 1.54 170 21:49 09.02.2022
5411 Snow -22 1000 76 6437 1.54 200 21:28 09.02.2022
5412 Snow -22 1000 75 6437 2.06 230 20:47 09.02.2022
5413 Snow -22 999 75 6437 2.06 230 20:23 09.02.2022
5414 Mist -22 999 74 4828 2.06 230 19:44 09.02.2022
5415 Haze -22 994 74 4426 1.54 200 18:58 09.02.2022
5416 Snow -22 991 75 4426 0 0 17:32 09.02.2022
5417 Snow -22 991 76 10000 0 0 16:26 09.02.2022
5418 Snow -22 989 76 10000 1.54 200 15:32 09.02.2022
5419 Clouds -22 1000 77 1125 0.73 295 13:57 09.02.2022
5420 Snow -21 1000 77 10000 0 0 12:27 09.02.2022
5421 Snow -21 1000 76 9656 0 0 10:37 09.02.2022
5422 Snow -20 1000 75 9656 1.54 180 09:57 09.02.2022
5423 Snow -20 1000 75 9656 2.06 200 09:23 09.02.2022
5424 Snow -20 999 76 9656 2.06 180 08:51 09.02.2022
5425 Snow -20 999 75 10000 3.09 190 07:34 09.02.2022
5426 Clouds -20 998 74 10000 4.12 200 05:30 09.02.2022
5427 Clear -15 996 69 10000 2.06 210 03:50 09.02.2022
5428 Clouds -16 993 71 10000 2.06 80 00:21 09.02.2022
5429 Clouds -19 993 72 10000 2.06 60 23:29 08.02.2022
5430 Clouds -19 994 70 10000 2.57 50 22:43 08.02.2022
5431 Clouds -19 993 74 10000 2.57 50 22:21 08.02.2022
5432 Clear -20 994 72 10000 2.57 40 21:38 08.02.2022
5433 Clear -21 993 74 10000 2.57 40 21:19 08.02.2022
5434 Clouds -20 995 73 10000 2.06 20 20:41 08.02.2022
5435 Clouds -20 995 73 10000 2.06 20 20:41 08.02.2022
5436 Clouds -22 995 72 10000 3.09 30 19:45 08.02.2022
5437 Clear -22 996 74 10000 2.57 40 18:34 08.02.2022
5438 Clouds -22 996 76 10000 2.06 40 17:36 08.02.2022
5439 Clear -20 999 73 10000 2.06 20 15:55 08.02.2022
5440 Clear -21 999 73 10000 3.09 30 15:29 08.02.2022
5441 Clouds -20 999 72 10000 2.93 15 13:59 08.02.2022
5442 Clouds -21 1000 71 10000 2.06 40 12:40 08.02.2022
5443 Snow -20 1000 73 10000 2.06 80 11:28 08.02.2022
5444 Clouds -19 1001 73 10000 0 0 09:59 08.02.2022
5445 Clouds -20 1002 72 10000 2.06 20 08:56 08.02.2022
5446 Clouds -20 1001 73 10000 3.09 50 07:37 08.02.2022
5447 Clouds -19 1003 70 10000 3.09 360 04:40 08.02.2022
5448 Clouds -19 1002 67 10000 3.09 360 04:22 08.02.2022
5449 Clouds -19 1002 66 10000 4.63 10 03:37 08.02.2022
5450 Clouds -19 1002 68 10000 4.63 10 03:18 08.02.2022
5451 Clouds -20 1005 75 10000 2.07 10 02:59 08.02.2022
5452 Clouds -19 1002 68 10000 3.6 10 02:37 08.02.2022
5453 Clouds -19 1003 70 10000 3.6 10 02:19 08.02.2022
5454 Clouds -19 1002 75 10000 2.24 20 01:55 08.02.2022
5455 Snow -19 1002 73 10000 2.57 50 01:37 08.02.2022
5456 Snow -19 1002 75 10000 2.57 60 01:19 08.02.2022
5457 Snow -19 1002 75 10000 3.09 50 00:44 08.02.2022
5458 Mist -20 1002 76 9656 0 0 23:45 07.02.2022
5459 Mist -20 1002 76 9656 0 0 23:18 07.02.2022
5460 Haze -20 983 76 8047 0 0 22:59 07.02.2022
5461 Haze -20 987 76 4828 2.57 70 22:19 07.02.2022
5462 Snow -20 1003 79 3219 2.06 40 21:52 07.02.2022
5463 Snow -20 1003 79 3219 2.06 40 21:29 07.02.2022
5464 Snow -20 1002 78 4426 1.54 10 20:56 07.02.2022
5465 Snow -20 1002 78 4426 1.54 10 20:38 07.02.2022
5466 Snow -21 1002 77 4828 0 0 19:47 07.02.2022
5467 Snow -20 1001 77 4828 0 0 19:20 07.02.2022
5468 Snow -21 1000 76 4023 4.12 360 17:39 07.02.2022
5469 Snow -21 999 77 6437 1.54 10 16:52 07.02.2022
5470 Haze -21 999 78 9656 0 0 15:49 07.02.2022
5471 Snow -21 998 78 4426 0 0 14:41 07.02.2022
5472 Snow -21 998 75 6437 3.09 360 13:27 07.02.2022
5473 Clouds -21 998 76 10000 0 0 12:38 07.02.2022
5474 Clouds -22 998 78 10000 0 0 11:55 07.02.2022
5475 Clouds -22 998 76 10000 0 0 11:26 07.02.2022
5476 Clouds -22 997 76 10000 0 0 10:45 07.02.2022
5477 Clouds -22 997 76 10000 0 0 10:26 07.02.2022
5478 Clouds -22 997 77 10000 1.54 200 09:52 07.02.2022
5479 Clouds -22 998 77 10000 0 0 09:18 07.02.2022
5480 Clouds -22 997 77 10000 0 0 08:20 07.02.2022
5481 Clouds -22 998 77 10000 0 0 06:35 07.02.2022
5482 Clouds -22 998 77 10000 0 0 05:47 07.02.2022
5483 Clouds -21 999 77 10000 0 0 02:56 07.02.2022
5484 Haze -20 998 77 8047 0 0 00:42 07.02.2022
5485 Clouds -20 998 78 10000 0 0 23:42 06.02.2022
5486 Snow -20 998 78 10000 0 0 22:47 06.02.2022
5487 Haze -20 997 78 6437 0 0 21:51 06.02.2022
5488 Haze -20 997 76 6437 0 0 21:30 06.02.2022
5489 Snow -20 996 77 6437 0 0 20:52 06.02.2022
5490 Snow -20 996 78 8047 0 0 20:28 06.02.2022
5491 Mist -20 995 77 10000 0 0 19:32 06.02.2022
5492 Snow -20 995 76 6437 2.57 200 18:38 06.02.2022
5493 Clouds -19 995 78 10000 2.06 190 17:55 06.02.2022
5494 Snow -19 994 79 3621 2.06 180 16:56 06.02.2022
5495 Mist -19 993 79 9656 2.57 200 16:38 06.02.2022
5496 Snow -18 993 79 10000 3.09 220 15:47 06.02.2022
5497 Snow -18 993 80 10000 2.57 200 15:26 06.02.2022
5498 Snow -17 993 80 4828 2.57 210 14:33 06.02.2022
5499 Snow -17 993 81 4828 0 0 13:25 06.02.2022
5500 Mist -17 993 82 6437 0 0 12:49 06.02.2022
5501 Snow -17 993 82 4426 0 0 11:23 06.02.2022
5502 Snow -16 993 81 6437 0 0 10:29 06.02.2022
5503 Snow -16 994 80 8047 0 0 08:49 06.02.2022
5504 Mist -16 995 83 8047 0 0 07:36 06.02.2022
5505 Snow -15 997 83 4426 1.54 200 05:30 06.02.2022
5506 Snow -15 997 83 4426 1.54 200 05:30 06.02.2022
5507 Snow -13 998 80 8047 0 0 02:26 06.02.2022
5508 Snow -13 998 79 8047 0 0 01:47 06.02.2022
5509 Clouds -13 999 78 10000 0 0 00:26 06.02.2022
5510 Clouds -15 1000 80 10000 0 0 22:20 05.02.2022
5511 Clouds -16 1000 78 10000 1.35 3 20:59 05.02.2022
5512 Clouds -18 1001 79 10000 0 0 20:24 05.02.2022
5513 Clouds -18 1001 80 10000 0 0 19:45 05.02.2022
5514 Clouds -19 1001 79 10000 0 0 18:52 05.02.2022
5515 Clouds -20 994 77 10000 3.09 40 17:39 05.02.2022
5516 Snow -20 1002 80 10000 0 0 16:48 05.02.2022
5517 Clouds -18 1003 78 10000 0 0 15:34 05.02.2022
5518 Clouds -18 1003 79 10000 0 0 14:53 05.02.2022
5519 Snow -16 1004 81 10000 0 0 12:47 05.02.2022
5520 Snow -16 1004 81 10000 0 0 12:22 05.02.2022
5521 Snow -16 1004 80 6437 0 0 10:48 05.02.2022
5522 Snow -16 1004 80 4828 0 0 09:53 05.02.2022
5523 Snow -16 1004 80 10000 0 0 09:30 05.02.2022
5524 Snow -16 1004 79 9656 0 0 07:38 05.02.2022
5525 Snow -16 1003 78 9656 0 0 06:56 05.02.2022
5526 Snow -15 1002 67 9656 0 0 04:28 05.02.2022
5527 Clouds -15 1001 62 10000 2.57 50 01:19 05.02.2022
5528 Clouds -16 1001 62 10000 2.57 70 00:52 05.02.2022
5529 Clouds -16 1002 62 10000 0 0 23:39 04.02.2022
5530 Clouds -16 1002 62 10000 0 0 23:21 04.02.2022
5531 Clouds -17 1002 65 10000 2.57 50 21:54 04.02.2022
5532 Clouds -17 1002 65 10000 2.57 50 21:36 04.02.2022
5533 Clouds -17 1002 65 5689 1.5 27 21:18 04.02.2022
5534 Clouds -18 1002 67 10000 2.57 40 19:36 04.02.2022
5535 Snow -19 1002 66 10000 0 0 17:28 04.02.2022
5536 Clouds -18 1002 64 10000 0 0 15:39 04.02.2022
5537 Clouds -19 1003 66 10000 1.54 80 14:52 04.02.2022
5538 Clouds -19 1004 61 10000 1.54 360 13:24 04.02.2022
5539 Clouds -18 1004 62 10000 0 0 12:43 04.02.2022
5540 Snow -18 1005 58 10000 1.54 60 11:41 04.02.2022
5541 Clouds -18 1006 56 10000 1.54 70 10:34 04.02.2022
5542 Clouds -18 1007 54 10000 2.06 60 08:34 04.02.2022
5543 Clouds -19 1008 55 10000 4.63 70 06:18 04.02.2022
5544 Clouds -17 1011 54 10000 4.12 90 02:42 04.02.2022
5545 Clouds -16 1012 53 10000 4.12 80 01:22 04.02.2022
5546 Clouds -20 1014 62 10000 2.06 70 23:29 03.02.2022
5547 Clouds -23 1014 64 10000 2.57 60 22:33 03.02.2022
5548 Clouds -23 1014 60 10000 3.09 50 21:49 03.02.2022
5549 Clouds -27 1016 64 10000 2.57 50 20:38 03.02.2022
5550 Clouds -31 1018 62 10000 3.09 40 20:18 03.02.2022
5551 Clear -30 1018 62 10000 2.57 60 19:30 03.02.2022
5552 Clouds -30 1017 63 10000 2.57 70 18:35 03.02.2022
5553 Clear -32 1018 68 10000 2.06 50 17:32 03.02.2022
5554 Clear -34 1019 69 10000 2.06 60 16:25 03.02.2022
5555 Clear -34 1020 68 10000 1.54 60 14:37 03.02.2022
5556 Clear -30 1021 64 10000 2.06 60 12:52 03.02.2022
5557 Clear -32 1024 61 10000 2.06 40 10:58 03.02.2022
5558 Clear -30 1023 69 10000 3.09 50 08:36 03.02.2022
5559 Clear -31 1024 70 10000 0 0 04:28 03.02.2022
5560 Clear -28 1025 74 10000 0 0 00:31 03.02.2022
5561 Clouds -31 1024 76 10000 0 0 23:39 02.02.2022
5562 Mist -36 1025 67 9656 0 0 21:55 02.02.2022
5563 Mist -36 1025 67 9656 0 0 21:31 02.02.2022
5564 Mist -35 1026 74 9656 0 0 20:40 02.02.2022
5565 Clear -33 1027 98 10000 1.53 27 19:58 02.02.2022
5566 Haze -36 1025 73 4426 0 0 19:27 02.02.2022
5567 Clear -37 1023 98 10000 0 0 18:39 02.02.2022
5568 Clear -38 1024 67 10000 0 0 17:56 02.02.2022
5569 Clear -37 1024 67 10000 0 0 17:19 02.02.2022
5570 Clear -37 1024 67 10000 0 0 16:41 02.02.2022
5571 Haze -32 1025 61 8047 0 0 12:57 02.02.2022
5572 Haze -34 1023 69 8047 0 0 12:20 02.02.2022
5573 Clear -34 1023 67 10000 0 0 11:33 02.02.2022
5574 Clear -35 1022 72 10000 0 0 09:47 02.02.2022
5575 Clear -29 1019 71 10000 0 0 07:33 02.02.2022
5576 Clouds -23 1026 75 10000 0 0 22:52 01.02.2022
5577 Clear -31 1026 71 10000 0 0 21:50 01.02.2022
5578 Clear -37 1031 74 10000 0 0 19:58 01.02.2022
5579 Clear -31 1031 73 10000 0 0 17:43 01.02.2022
5580 Clear -32 1032 74 10000 0 0 16:39 01.02.2022
5581 Clear -33 1032 74 10000 0 0 16:39 01.02.2022
5582 Clear -32 1034 76 10000 0 0 14:24 01.02.2022
5583 Clear -32 1035 72 10000 0 0 12:43 01.02.2022
5584 Clear -32 1035 70 10000 0 0 11:30 01.02.2022
5585 Clear -29 1036 76 10000 0 0 04:53 01.02.2022
5586 Clear -28 1034 74 10000 0 0 23:41 31.01.2022
5587 Clear -26 1031 76 10000 0.47 70 22:58 31.01.2022
5588 Mist -34 1033 70 9656 0 0 21:40 31.01.2022
5589 Mist -33 1035 73 9656 0 0 21:19 31.01.2022
5590 Clear -34 1034 72 10000 0 0 20:29 31.01.2022
5591 Clear -34 1034 72 10000 0 0 19:35 31.01.2022
5592 Snow -34 1034 71 10000 0 0 18:26 31.01.2022
5593 Haze -35 1033 71 8047 0 0 17:33 31.01.2022
5594 Clear -34 1033 70 10000 0 0 16:29 31.01.2022
5595 Snow -35 1033 74 10000 0 0 15:41 31.01.2022
5596 Clear -35 1032 69 10000 0 0 14:22 31.01.2022
5597 Clear -34 1032 70 10000 0 0 12:39 31.01.2022
5598 Clear -34 1032 71 10000 0 0 11:55 31.01.2022
5599 Snow -34 1030 69 10000 0 0 10:50 31.01.2022
5600 Snow -34 1030 69 10000 0 0 10:50 31.01.2022
5601 Snow -34 1030 69 10000 0 0 10:25 31.01.2022
5602 Snow -33 1029 69 10000 0 0 09:26 31.01.2022
5603 Snow -33 1029 69 10000 0 0 08:50 31.01.2022
5604 Snow -33 1030 70 10000 0 0 08:20 31.01.2022
5605 Clear -32 1028 69 10000 0 0 06:18 31.01.2022
5606 Clear -25 1026 77 10000 0 0 00:55 31.01.2022
5607 Clear -28 1025 73 10000 0 0 22:55 30.01.2022
5608 Clear -28 1026 74 10000 0 0 22:25 30.01.2022
5609 Clear -29 1025 73 10000 0 0 21:40 30.01.2022
5610 Clear -32 1028 70 10000 0 0 21:19 30.01.2022
5611 Clouds -32 1027 72 10000 0 0 20:46 30.01.2022
5612 Clouds -32 1028 71 10000 0 0 20:27 30.01.2022
5613 Clouds -33 1027 71 10000 0 0 19:52 30.01.2022
5614 Snow -35 1026 67 10000 0 0 18:43 30.01.2022
5615 Snow -35 1025 67 10000 0 0 18:20 30.01.2022
5616 Snow -35 1025 69 10000 0 0 17:22 30.01.2022
5617 Snow -35 1025 67 10000 0 0 16:40 30.01.2022
5618 Snow -35 1025 67 10000 0 0 16:22 30.01.2022
5619 Snow -35 1025 67 10000 0 0 15:50 30.01.2022
5620 Snow -35 1025 67 10000 0 0 15:31 30.01.2022
5621 Snow -35 1024 67 10000 0 0 14:46 30.01.2022
5622 Snow -34 1023 68 10000 0 0 12:47 30.01.2022
5623 Clouds -33 1024 61 10000 1.09 41 11:58 30.01.2022
5624 Clear -33 1021 71 10000 0 0 10:36 30.01.2022
5625 Clear -32 1020 66 10000 0 0 09:51 30.01.2022
5626 Clear -32 1019 68 10000 0 0 08:56 30.01.2022
5627 Clear -31 1018 71 10000 1.54 90 07:29 30.01.2022
5628 Clear -23 1012 70 10000 1.54 320 01:56 30.01.2022
5629 Clouds -22 1012 72 10000 0 0 00:41 30.01.2022
5630 Clear -23 1012 73 10000 0 0 23:20 29.01.2022
5631 Clear -27 1012 75 10000 0 0 21:58 29.01.2022
5632 Clear -27 1011 75 10000 0 0 21:25 29.01.2022
5633 Clear -27 1011 73 10000 0 0 20:35 29.01.2022
5634 Clear -27 1012 70 10000 2.06 40 19:35 29.01.2022
5635 Clear -25 1011 71 10000 1.54 40 18:53 29.01.2022
5636 Clouds -26 1012 67 10000 1.54 10 18:26 29.01.2022
5637 Clear -26 1011 73 10000 0 0 17:35 29.01.2022
5638 Clear -26 1011 75 10000 0 0 16:37 29.01.2022
5639 Clear -23 1012 71 10000 2.06 50 14:23 29.01.2022
5640 Clear -23 1012 70 10000 0 0 13:45 29.01.2022
5641 Clear -23 1012 70 10000 0 0 13:24 29.01.2022
5642 Clear -24 1011 72 10000 1.54 50 12:35 29.01.2022
5643 Clear -23 1013 67 10000 1.54 40 11:27 29.01.2022
5644 Clear -22 1012 70 10000 2.57 50 09:29 29.01.2022
5645 Clouds -19 1014 58 10000 2.06 60 06:55 29.01.2022
5646 Clouds -15 1013 51 10000 0 0 00:49 29.01.2022
5647 Clouds -15 1013 51 10000 0 0 00:31 29.01.2022
5648 Snow -16 1013 55 10000 3.6 50 22:51 28.01.2022
5649 Snow -16 1013 55 10000 3.6 50 22:26 28.01.2022
5650 Snow -15 1013 53 10000 4.63 50 21:50 28.01.2022
5651 Snow -15 1013 53 10000 4.12 40 20:30 28.01.2022
5652 Snow -15 1013 53 10000 4.12 40 20:30 28.01.2022
5653 Snow -15 1013 53 10000 4.12 40 20:30 28.01.2022
5654 Snow -14 1011 51 10000 6.69 20 19:31 28.01.2022
5655 Snow -15 1012 56 10000 5.14 50 18:43 28.01.2022
5656 Snow -15 1012 56 10000 4.63 50 17:31 28.01.2022
5657 Snow -16 1012 74 9656 3.09 50 15:20 28.01.2022
5658 Clouds -18 1013 81 10000 2.11 1 13:52 28.01.2022
5659 Snow -20 1013 79 6437 0 0 12:30 28.01.2022
5660 Snow -21 1013 78 9656 0 0 11:25 28.01.2022
5661 Snow -21 1013 79 9656 0 0 09:52 28.01.2022
5662 Snow -22 1012 75 6437 0 0 08:26 28.01.2022
5663 Snow -22 1012 73 9656 0 0 07:34 28.01.2022
5664 Clouds -23 1013 76 10000 0 0 05:23 28.01.2022
5665 Clouds -23 1013 76 10000 0 0 03:44 28.01.2022
5666 Clouds -23 1014 76 10000 0 0 02:22 28.01.2022
5667 Clouds -23 1014 74 10000 1.54 0 01:32 28.01.2022
5668 Snow -26 1017 75 10000 0 0 22:52 27.01.2022
5669 Clear -27 1018 71 10000 0 0 21:49 27.01.2022
5670 Clear -27 1019 75 10000 0 0 21:29 27.01.2022
5671 Snow -28 1020 74 10000 0 0 20:26 27.01.2022
5672 Snow -29 1021 73 10000 0 0 18:40 27.01.2022
5673 Clear -28 1021 78 10000 0 0 17:55 27.01.2022
5674 Clear -28 1006 76 10000 0 0 14:42 27.01.2022
5675 Snow -30 1024 71 10000 0 0 13:35 27.01.2022
5676 Snow -29 1025 71 10000 0 0 12:39 27.01.2022
5677 Haze -28 1026 71 8047 0 0 10:23 27.01.2022
5678 Haze -27 1026 73 6437 0 0 08:52 27.01.2022
5679 Haze -27 1026 73 6437 0 0 08:30 27.01.2022
5680 Haze -27 1026 73 6437 0 0 08:30 27.01.2022
5681 Clear -24 1027 74 10000 0 0 05:49 27.01.2022
5682 Clouds -20 1028 78 10000 0 0 02:36 27.01.2022
5683 Clouds -20 1030 80 10000 0 0 22:44 26.01.2022
5684 Clouds -20 1029 79 10000 0 0 21:55 26.01.2022
5685 Clouds -21 1029 78 10000 0 0 21:31 26.01.2022
5686 Clouds -22 1029 77 10000 0 0 20:35 26.01.2022
5687 Clouds -23 1031 81 5386 1.13 32 19:55 26.01.2022
5688 Clouds -20 1028 79 10000 0 0 19:20 26.01.2022
5689 Clouds -22 1028 77 10000 0 0 18:40 26.01.2022
5690 Clouds -23 1029 80 10000 0 0 17:49 26.01.2022
5691 Clouds -23 1030 77 10000 0 0 17:21 26.01.2022
5692 Clouds -23 1029 80 10000 0 0 16:27 26.01.2022
5693 Clouds -23 1029 80 10000 0 0 15:47 26.01.2022
5694 Clouds -21 1028 79 10000 1.54 60 13:24 26.01.2022
5695 Clear -20 1028 78 10000 0 0 11:40 26.01.2022
5696 Clouds -19 1027 85 10000 1.54 40 10:20 26.01.2022
5697 Clouds -20 1027 81 10000 2.57 70 09:43 26.01.2022
5698 Clouds -19 1025 85 10000 0 0 07:32 26.01.2022
5699 Clouds -7 1020 76 10000 5.66 240 00:48 26.01.2022
5700 Clouds -7 1020 76 10000 5.66 240 00:48 26.01.2022
5701 Clouds -7 1020 75 10000 0.45 263 23:48 25.01.2022
5702 Snow -7 1018 76 10000 0.45 284 22:50 25.01.2022
5703 Snow -7 1018 76 10000 0.45 267 22:50 25.01.2022
5704 Snow -7 1018 77 10000 0.45 284 22:50 25.01.2022
5705 Snow -7 1018 77 10000 2.24 275 22:21 25.01.2022
5706 Snow -7 1017 75 10000 2.24 243 21:41 25.01.2022
5707 Snow -6 1016 74 10000 2.24 230 20:46 25.01.2022
5708 Snow -6 1016 75 10000 2.24 261 20:21 25.01.2022
5709 Clouds -6 1015 74 10000 2.68 226 19:44 25.01.2022
5710 Snow -5 1012 73 10000 2.68 258 18:22 25.01.2022
5711 Snow -5 1011 75 10000 3.58 261 17:42 25.01.2022
5712 Snow -2 1009 83 9656 8.23 240 16:35 25.01.2022
5713 Snow 0 1007 78 9656 9.26 240 15:44 25.01.2022
5714 Snow -1 1006 84 9656 9.26 240 15:26 25.01.2022
5715 Snow 0 1004 85 9656 4.63 230 14:57 25.01.2022
5716 Snow 0 1004 85 9656 4.63 230 14:57 25.01.2022
5717 Snow 0 1003 89 6437 4.63 260 13:18 25.01.2022
5718 Clouds -5 998 93 10000 0 0 10:00 25.01.2022
5719 Clouds -5 998 87 10000 0 0 08:32 25.01.2022
5720 Clouds -6 996 86 10000 0 0 07:28 25.01.2022
5721 Clouds -3 997 84 10000 0 0 06:22 25.01.2022
5722 Clouds -3 995 80 10000 3.09 50 01:34 25.01.2022
5723 Clouds 2 995 67 10000 3.09 120 23:36 24.01.2022
5724 Clouds 2 995 67 10000 3.09 120 23:18 24.01.2022
5725 Clouds 2 995 65 10000 3.09 90 22:59 24.01.2022
5726 Clouds 2 995 65 10000 3.09 90 22:41 24.01.2022
5727 Clouds 3 995 65 10000 4.12 100 21:45 24.01.2022
5728 Clouds 3 995 65 10000 4.12 100 21:27 24.01.2022
5729 Clouds 3 995 61 10000 4.63 90 20:29 24.01.2022
5730 Clouds 0 995 69 10000 2.57 30 19:39 24.01.2022
5731 Clouds 1 997 72 10000 4.63 70 18:55 24.01.2022
5732 Clouds 2 997 79 10000 4.63 60 17:44 24.01.2022
5733 Clouds 2 997 78 10000 4.63 60 17:23 24.01.2022
5734 Clouds 2 999 77 10000 4.12 60 16:33 24.01.2022
5735 Clouds 2 1000 76 10000 3.6 70 15:52 24.01.2022
5736 Clouds 3 1000 74 10000 5.66 70 14:27 24.01.2022
5737 Clouds 0 1004 79 10000 4.12 80 12:36 24.01.2022
5738 Clouds 0 1004 83 10000 4.63 70 11:53 24.01.2022
5739 Clouds -2 1006 82 10000 4.63 60 10:25 24.01.2022
5740 Clear -1 1007 80 10000 4.63 60 09:47 24.01.2022
5741 Clouds -4 1008 84 10000 4.63 80 08:19 24.01.2022
5742 Clouds -11 1010 82 10000 1.54 170 02:51 24.01.2022
5743 Clear -15 1012 76 10000 0 0 01:28 24.01.2022
5744 Clear -13 1012 83 10000 0 0 00:34 24.01.2022
5745 Clear -13 1011 78 10000 0 0 23:47 23.01.2022
5746 Clear -15 1012 86 10000 2.06 180 22:21 23.01.2022
5747 Clear -14 1013 85 10000 0 0 21:42 23.01.2022
5748 Clear -15 1012 84 10000 0 0 21:24 23.01.2022
5749 Clouds -14 1013 85 10000 0 0 20:29 23.01.2022
5750 Clouds -14 1011 85 10000 0 0 19:21 23.01.2022
5751 Clouds -14 1011 83 10000 0 0 18:44 23.01.2022
5752 Clouds -13 1010 85 10000 0 0 17:28 23.01.2022
5753 Clouds -14 1009 84 10000 0 0 16:38 23.01.2022
5754 Clouds -14 1007 86 10000 0 0 14:56 23.01.2022
5755 Clouds -15 1007 84 10000 0 0 14:19 23.01.2022
5756 Clouds -14 1005 82 10000 0 0 12:50 23.01.2022
5757 Clouds -13 1005 82 10000 0 0 12:21 23.01.2022
5758 Clouds -14 1004 84 10000 0 0 11:51 23.01.2022
5759 Clouds -13 1002 84 10000 0 0 11:18 23.01.2022
5760 Clouds -11 1001 79 10000 0 0 10:27 23.01.2022
5761 Clouds -13 1001 81 10000 0 0 09:40 23.01.2022
5762 Clouds -13 1001 72 10000 0 0 08:51 23.01.2022
5763 Clear -16 1002 92 10000 0 0 05:55 23.01.2022
5764 Clouds -11 999 81 10000 0 0 01:49 23.01.2022
5765 Clouds -10 999 81 10000 0 0 01:25 23.01.2022
5766 Clear -13 1000 82 10000 0 0 00:23 23.01.2022
5767 Clouds -13 998 83 10000 0 0 23:35 22.01.2022
5768 Clear -13 998 83 10000 0 0 22:40 22.01.2022
5769 Clear -13 981 83 10000 0 0 21:28 22.01.2022
5770 Clouds -13 996 83 10000 0 0 19:51 22.01.2022
5771 Clouds -12 997 78 10000 1.54 200 18:49 22.01.2022
5772 Clouds -8 999 84 10000 1.13 0 17:59 22.01.2022
5773 Clouds -10 996 77 10000 0 0 17:35 22.01.2022
5774 Clouds -8 993 84 10000 1.04 334 16:56 22.01.2022
5775 Clouds -12 996 76 10000 2.57 220 15:50 22.01.2022
5776 Clouds -9 994 86 10000 1.13 326 14:58 22.01.2022
5777 Clouds -9 995 86 10000 0 0 13:42 22.01.2022
5778 Clouds -8 985 87 10000 0 0 12:50 22.01.2022
5779 Clouds -9 994 87 10000 0 0 12:28 22.01.2022
5780 Clouds -9 994 85 10000 0 0 11:31 22.01.2022
5781 Clouds -9 994 86 10000 0 0 10:29 22.01.2022
5782 Clouds -10 994 87 10000 1.93 4 09:59 22.01.2022
5783 Clouds -11 993 85 10000 0 0 08:52 22.01.2022
5784 Clouds -11 993 84 10000 0 0 07:38 22.01.2022
5785 Clouds -9 992 88 10000 0 0 04:53 22.01.2022
5786 Clouds -8 993 83 10000 2.06 60 01:35 22.01.2022
5787 Snow -9 986 85 4828 3.6 60 23:45 21.01.2022
5788 Clouds -11 986 78 10000 4.63 60 22:28 21.01.2022
5789 Clouds -13 987 79 10000 0 0 20:28 21.01.2022
5790 Clear -16 996 80 10000 3.6 50 18:40 21.01.2022
5791 Clear -15 997 78 10000 1.54 70 17:31 21.01.2022
5792 Clouds -17 999 79 10000 2.57 70 15:44 21.01.2022
5793 Clouds -16 1001 77 10000 2.57 50 13:51 21.01.2022
5794 Clouds -16 1001 77 10000 2.57 50 13:51 21.01.2022
5795 Clouds -14 1003 76 10000 0 0 12:38 21.01.2022
5796 Clouds -15 1004 76 10000 2.57 20 11:28 21.01.2022
5797 Clouds -14 1004 75 10000 3.09 50 10:19 21.01.2022
5798 Clouds -15 1006 75 10000 2.06 50 08:25 21.01.2022
5799 Clouds -16 1007 78 10000 4.12 60 06:57 21.01.2022
5800 Clouds -21 1012 79 10000 2.06 60 23:40 20.01.2022
5801 Clouds -23 1012 78 10000 0 0 22:41 20.01.2022
5802 Clear -26 1012 77 10000 0 0 21:43 20.01.2022
5803 Clouds -24 1011 80 10000 0 0 20:53 20.01.2022
5804 Clouds -26 1011 69 10000 0 0 19:20 20.01.2022
5805 Clear -25 1010 78 10000 0 0 18:50 20.01.2022
5806 Clouds -24 1009 75 10000 2.57 40 17:30 20.01.2022
5807 Clear -23 1007 79 10000 0 0 15:44 20.01.2022
5808 Clear -23 1007 79 10000 0 0 15:22 20.01.2022
5809 Clouds -18 1002 82 10000 1.54 210 13:42 20.01.2022
5810 Clear -17 994 82 10000 0 0 12:35 20.01.2022
5811 Clear -15 991 83 10000 0 0 11:57 20.01.2022
5812 Clear -15 1004 82 10000 0 0 10:40 20.01.2022
5813 Clouds -14 1003 82 10000 0 0 09:40 20.01.2022
5814 Clouds -13 1002 80 10000 0 0 08:32 20.01.2022
5815 Clouds -13 1002 81 10000 4.63 350 05:34 20.01.2022
5816 Clouds -18 1004 81 10000 0 0 23:35 19.01.2022
5817 Clouds -20 1005 83 10000 0 0 22:32 19.01.2022
5818 Clouds -22 1006 78 10000 0 0 21:24 19.01.2022
5819 Clouds -19 1004 78 10000 0 0 20:50 19.01.2022
5820 Clouds -19 1007 80 10000 1.28 3 19:54 19.01.2022
5821 Clear -19 1008 80 10000 0 0 18:43 19.01.2022
5822 Snow -17 997 83 10000 0 0 17:49 19.01.2022
5823 Mist -15 1000 83 8047 0 0 16:57 19.01.2022
5824 Snow -13 1009 80 10000 0 0 14:42 19.01.2022
5825 Clouds -14 1010 79 10000 0 0 12:43 19.01.2022
5826 Clouds -15 1010 79 10000 0 0 11:42 19.01.2022
5827 Clouds -16 1011 79 10000 0 0 10:37 19.01.2022
5828 Clouds -19 988 80 10000 0 0 09:34 19.01.2022
5829 Clouds -18 1013 79 10000 0 0 07:18 19.01.2022
5830 Clouds -18 1014 81 10000 0 0 05:18 19.01.2022
5831 Clouds -17 1016 80 10000 0 0 23:20 18.01.2022
5832 Clouds -17 1016 81 10000 0 0 22:44 18.01.2022
5833 Clouds -17 1026 82 10000 0 0 21:20 18.01.2022
5834 Clouds -18 1028 81 10000 0 0 19:55 18.01.2022
5835 Clouds -18 1028 81 10000 0 0 19:55 18.01.2022
5836 Clouds -18 1028 81 10000 0 0 19:37 18.01.2022
5837 Clouds -18 1028 82 10000 0 0 18:54 18.01.2022
5838 Clouds -20 1015 82 10000 0.81 33 17:58 18.01.2022
5839 Clouds -21 1015 80 10000 0.79 20 16:59 18.01.2022
5840 Clear -23 1017 80 10000 0 0 15:48 18.01.2022
5841 Clear -23 1017 80 10000 0 0 15:48 18.01.2022
5842 Clear -23 1017 80 10000 0 0 15:48 18.01.2022
5843 Clear -22 1016 80 10000 0 0 15:22 18.01.2022
5844 Clouds -22 1017 78 10000 0 0 12:49 18.01.2022
5845 Clear -20 1017 79 10000 0 0 10:47 18.01.2022
5846 Clouds -19 1018 79 10000 0 0 09:28 18.01.2022
5847 Clouds -19 1020 80 10000 0 0 07:56 18.01.2022
5848 Snow -19 1019 80 10000 0 0 05:31 18.01.2022
5849 Clear -20 1019 82 10000 0 0 23:55 17.01.2022
5850 Clear -20 1019 80 10000 0 0 22:29 17.01.2022
5851 Clear -21 1018 81 10000 2.06 60 21:35 17.01.2022
5852 Clear -22 1018 80 10000 0 0 20:27 17.01.2022
5853 Clear -23 1018 81 10000 0 0 18:31 17.01.2022
5854 Clouds -21 1019 80 10000 0 0 17:51 17.01.2022
5855 Clear -22 1018 81 10000 0 0 16:45 17.01.2022
5856 Clouds -22 1021 83 10000 0 0 15:23 17.01.2022
5857 Clouds -22 1020 82 10000 0 0 14:57 17.01.2022
5858 Snow -19 1020 81 10000 0 0 13:27 17.01.2022
5859 Clouds -20 1021 84 10000 4.12 70 12:57 17.01.2022
5860 Snow -19 1021 78 10000 1.54 50 11:49 17.01.2022
5861 Snow -19 1021 74 10000 2.06 70 10:25 17.01.2022
5862 Snow -19 1021 78 10000 2.06 80 09:35 17.01.2022
5863 Snow -19 1021 81 10000 1.54 70 07:43 17.01.2022
5864 Snow -19 1021 78 10000 0 0 07:18 17.01.2022
5865 Clouds -17 1019 85 10000 0 0 00:56 17.01.2022
5866 Haze -17 1018 84 6437 0 0 22:31 16.01.2022
5867 Snow -16 1016 86 3018 0 0 20:38 16.01.2022
5868 Snow -16 1014 84 10000 0 0 18:53 16.01.2022
5869 Snow -16 1020 85 6437 0 0 17:59 16.01.2022
5870 Snow -16 1013 84 6437 0 0 17:23 16.01.2022
5871 Snow -17 1013 85 8047 0 0 16:45 16.01.2022
5872 Snow -17 1012 84 10000 0 0 14:50 16.01.2022
5873 Snow -17 1012 83 10000 2.06 50 14:27 16.01.2022
5874 Clouds -17 1011 83 10000 1.54 60 12:49 16.01.2022
5875 Clouds -17 1011 82 10000 0 0 11:43 16.01.2022
5876 Clouds -17 1010 83 10000 1.54 100 10:55 16.01.2022
5877 Clouds -17 1010 83 10000 1.54 100 10:19 16.01.2022
5878 Clouds -17 1009 82 10000 0 0 09:51 16.01.2022
5879 Clouds -16 1008 82 10000 0 0 09:22 16.01.2022
5880 Clouds -16 1008 82 10000 0 0 09:22 16.01.2022
5881 Clouds -16 1008 83 10000 1.54 210 08:37 16.01.2022
5882 Clouds -16 1009 86 10000 0 0 02:36 16.01.2022
5883 Clouds -17 1009 84 10000 0 0 23:49 15.01.2022
5884 Clouds -18 1010 79 10000 0 0 21:46 15.01.2022
5885 Clouds -18 1009 81 10000 0 0 21:19 15.01.2022
5886 Clouds -20 1011 83 10000 0 0 20:40 15.01.2022
5887 Clouds -20 1011 82 10000 0 0 19:29 15.01.2022
5888 Clouds -21 1010 78 10000 0 0 18:44 15.01.2022
5889 Clouds -22 1010 82 10000 0 0 17:25 15.01.2022
5890 Clouds -21 1006 81 10000 2.57 40 15:50 15.01.2022
5891 Clouds -18 1005 83 10000 1.31 1 13:55 15.01.2022
5892 Clear -19 1007 82 10000 0 0 11:46 15.01.2022
5893 Clouds -17 1005 80 10000 0 0 10:36 15.01.2022
5894 Snow -14 1004 84 10000 0 0 07:48 15.01.2022
5895 Clouds -15 999 85 10000 0 0 00:28 15.01.2022
5896 Clouds -15 999 85 10000 0 0 21:52 14.01.2022
5897 Clouds -14 998 86 10000 0 0 20:37 14.01.2022
5898 Clouds -9 996 88 10000 1.68 346 19:58 14.01.2022
5899 Clear -16 997 84 10000 0 0 18:49 14.01.2022
5900 Clouds -14 998 87 10000 0 0 17:57 14.01.2022
5901 Clouds -14 999 86 10000 0 0 16:48 14.01.2022
5902 Clear -14 997 85 10000 0 0 15:37 14.01.2022
5903 Clouds -12 996 84 10000 0 0 14:42 14.01.2022
5904 Clouds -11 996 83 10000 1.54 90 13:35 14.01.2022
5905 Clear -12 997 87 10000 0 0 12:24 14.01.2022
5906 Clear -9 996 83 10000 0 0 10:50 14.01.2022
5907 Clouds -10 995 86 10000 1.54 270 08:54 14.01.2022
5908 Clouds -10 995 86 10000 1.54 270 08:20 14.01.2022
5909 Clouds -12 999 87 10000 0 0 03:55 14.01.2022
5910 Clouds -16 1002 87 10000 2.04 355 00:59 14.01.2022
5911 Haze -20 1003 81 9656 0 0 22:46 13.01.2022
5912 Mist -21 1005 81 9656 0 0 21:31 13.01.2022
5913 Clear -20 1006 81 10000 0 0 20:56 13.01.2022
5914 Clouds -19 987 79 10000 0 0 19:32 13.01.2022
5915 Clear -20 1007 81 10000 0 0 18:57 13.01.2022
5916 Clear -20 1007 82 10000 0 0 17:48 13.01.2022
5917 Clear -18 1008 81 10000 0 0 16:19 13.01.2022
5918 Clouds -18 1008 82 10000 0 0 15:35 13.01.2022
5919 Clouds -17 1008 83 10000 2.06 210 13:48 13.01.2022
5920 Clouds -16 1008 84 10000 0 0 12:25 13.01.2022
5921 Clear -16 1007 84 10000 1.54 300 09:38 13.01.2022
5922 Clouds -15 1007 84 10000 0 0 08:57 13.01.2022
5923 Clouds -14 1006 82 10000 0 0 08:26 13.01.2022
5924 Clouds -14 1006 82 10000 0 0 07:22 13.01.2022
5925 Clouds -13 1002 85 10000 1.14 15 05:59 13.01.2022
5926 Clouds -15 1005 83 10000 0 0 05:19 13.01.2022
5927 Clouds -13 1003 84 10000 1.14 27 01:53 13.01.2022
5928 Clouds -13 1003 83 10000 0 0 00:40 13.01.2022
5929 Clouds -13 1004 83 10000 0 0 23:45 12.01.2022
5930 Clouds -13 1003 84 10000 1.14 15 22:57 12.01.2022
5931 Clouds -14 1003 84 10000 1.14 26 21:56 12.01.2022
5932 Clouds -14 1003 83 10000 0 0 21:21 12.01.2022
5933 Clouds -14 1003 85 10000 0 0 20:56 12.01.2022
5934 Snow -14 1003 81 10000 0 0 19:41 12.01.2022
5935 Snow -12 1003 83 10000 0 0 18:30 12.01.2022
5936 Snow -12 1003 84 10000 0 0 17:20 12.01.2022
5937 Snow -12 1003 84 10000 0 0 16:28 12.01.2022
5938 Snow -13 1002 83 10000 0 0 14:48 12.01.2022
5939 Snow -13 1002 82 10000 0 0 13:19 12.01.2022
5940 Snow -15 1002 83 9656 0 0 10:48 12.01.2022
5941 Snow -15 1000 82 6437 0 0 08:38 12.01.2022
5942 Snow -14 1000 81 4023 0 0 07:50 12.01.2022
5943 Snow -14 1000 82 2414 0 0 07:31 12.01.2022
5944 Clouds -15 997 80 10000 0 0 23:53 11.01.2022
5945 Snow -15 997 79 10000 0 0 22:54 11.01.2022
5946 Snow -15 997 78 10000 0 0 22:22 11.01.2022
5947 Clouds -15 996 79 10000 0 0 20:54 11.01.2022
5948 Clouds -15 996 78 10000 0 0 19:50 11.01.2022
5949 Clouds -16 995 79 10000 0 0 18:32 11.01.2022
5950 Clouds -17 995 78 10000 0 0 17:26 11.01.2022
5951 Clear -18 995 78 10000 0 0 16:38 11.01.2022
5952 Clear -18 996 78 10000 0 0 15:47 11.01.2022
5953 Clouds -20 997 79 10000 0 0 14:42 11.01.2022
5954 Clouds -24 1000 96 10000 1.28 351 13:56 11.01.2022
5955 Clouds -21 995 71 10000 1.54 30 13:36 11.01.2022
5956 Clear -21 996 74 10000 0 0 12:48 11.01.2022
5957 Clear -21 996 74 10000 0 0 12:20 11.01.2022
5958 Clouds -19 993 81 10000 1.18 358 09:58 11.01.2022
5959 Clouds -19 996 71 10000 1.54 30 07:18 11.01.2022
5960 Clear -18 987 74 10000 2.06 80 00:34 11.01.2022
5961 Clear -18 986 71 10000 2.57 50 23:44 10.01.2022
5962 Clear -18 988 73 10000 2.57 50 23:24 10.01.2022
5963 Clear -18 1000 72 10000 1.54 30 22:19 10.01.2022
5964 Clear -20 1001 76 10000 1.54 20 21:54 10.01.2022
5965 Clear -19 992 74 10000 1.54 20 21:21 10.01.2022
5966 Clear -20 1001 72 10000 0 0 20:57 10.01.2022
5967 Clear -20 1001 70 10000 0 0 20:28 10.01.2022
5968 Clouds -19 999 69 10000 4.63 20 19:44 10.01.2022
5969 Clouds -17 1000 67 10000 4.63 20 19:21 10.01.2022
5970 Clouds -20 1002 68 10000 0 0 18:50 10.01.2022
5971 Clouds -19 1002 71 10000 1.54 50 17:56 10.01.2022
5972 Clouds -20 1002 68 10000 1.54 40 16:42 10.01.2022
5973 Clouds -19 1001 70 10000 2.57 50 15:49 10.01.2022
5974 Clouds -18 1002 68 10000 2.57 60 14:34 10.01.2022
5975 Clouds -19 1003 63 10000 4.12 50 12:22 10.01.2022
5976 Clouds -19 1003 66 10000 3.09 60 11:25 10.01.2022
5977 Clouds -18 1006 95 10000 1.9 53 09:53 10.01.2022
5978 Clouds -18 1003 60 10000 4.63 80 08:22 10.01.2022
5979 Snow -19 1003 63 10000 4.12 70 05:50 10.01.2022
5980 Clouds -24 1005 77 10000 2.06 80 01:33 10.01.2022
5981 Clear -27 1006 70 10000 3.09 80 00:29 10.01.2022
5982 Clear -28 1007 73 10000 3.09 50 23:43 09.01.2022
5983 Clear -30 1008 72 10000 3.09 60 22:40 09.01.2022
5984 Clear -30 1009 73 10000 4.12 60 21:47 09.01.2022
5985 Clear -30 1009 73 10000 4.12 60 21:24 09.01.2022
5986 Clear -30 1009 73 10000 4.12 60 21:24 09.01.2022
5987 Clear -29 1011 76 10000 4.12 50 20:53 09.01.2022
5988 Clear -30 1011 72 10000 4.12 50 20:34 09.01.2022
5989 Clear -31 1012 72 10000 4.63 50 19:45 09.01.2022
5990 Clear -31 1012 72 10000 4.63 50 19:23 09.01.2022
5991 Clear -30 1013 76 10000 3.6 40 18:56 09.01.2022
5992 Clear -32 1013 76 10000 3.6 40 18:35 09.01.2022
5993 Clear -34 1014 66 10000 3.09 60 17:45 09.01.2022
5994 Clear -34 1014 66 10000 3.09 60 17:21 09.01.2022
5995 Haze -37 1015 67 9656 0 0 15:59 09.01.2022
5996 Haze -37 1015 67 9656 0 0 15:36 09.01.2022
5997 Haze -36 1015 74 9656 0 0 14:41 09.01.2022
5998 Haze -35 1017 65 9656 0 0 13:56 09.01.2022
5999 Haze -35 1016 66 9656 0 0 13:36 09.01.2022
6000 Haze -34 1018 63 8047 0 0 11:56 09.01.2022
6001 Haze -35 1017 63 8047 0 0 11:19 09.01.2022
6002 Clear -33 1017 67 10000 3.09 60 09:51 09.01.2022
6003 Clear -31 1019 67 10000 3.6 60 08:54 09.01.2022
6004 Haze -35 1019 63 9656 0 0 05:54 09.01.2022
6005 Clear -35 1020 64 10000 3.6 70 01:25 09.01.2022
6006 Fog -36 1019 63 10000 0 0 00:37 09.01.2022
6007 Clear -37 1019 67 10000 0 0 23:27 08.01.2022
6008 Haze -38 1019 71 6437 0 0 22:35 08.01.2022
6009 Haze -38 1019 70 6437 0 0 21:26 08.01.2022
6010 Haze -39 1019 70 1609 0 0 20:43 08.01.2022
6011 Haze -39 1019 70 1811 0 0 20:21 08.01.2022
6012 Haze -39 1018 70 1811 0 0 18:45 08.01.2022
6013 Haze -39 1018 69 2615 0 0 17:23 08.01.2022
6014 Haze -39 1018 69 2414 0 0 16:40 08.01.2022
6015 Haze -40 1019 67 1811 0 0 14:50 08.01.2022
6016 Haze -40 1019 67 4426 0 0 13:41 08.01.2022
6017 Haze -40 1019 66 9656 0 0 11:30 08.01.2022
6018 Haze -39 1019 67 6437 0 0 10:31 08.01.2022
6019 Haze -35 1019 73 4426 0 0 09:54 08.01.2022
6020 Haze -35 1019 73 6437 0 0 09:30 08.01.2022
6021 Clear -37 1021 66 10000 0 0 04:25 08.01.2022
6022 Clouds -35 1023 69 10000 1.09 28 00:58 08.01.2022
6023 Haze -34 1020 74 9656 0 0 22:54 07.01.2022
6024 Haze -36 1020 72 6437 0 0 21:34 07.01.2022
6025 Haze -36 1020 68 10000 1.54 90 20:23 07.01.2022
6026 Clear -35 1020 69 10000 0 0 19:26 07.01.2022
6027 Haze -36 1020 69 4023 0 0 18:45 07.01.2022
6028 Haze -35 1020 69 4023 0 0 17:58 07.01.2022
6029 Haze -35 1020 75 8047 1.54 80 17:22 07.01.2022
6030 Clear -33 1019 75 10000 0 0 14:55 07.01.2022
6031 Clouds -35 1020 65 10000 0 0 13:52 07.01.2022
6032 Clouds -35 1020 69 10000 0 0 12:50 07.01.2022
6033 Clear -33 1020 67 10000 0 0 10:18 07.01.2022
6034 Clouds -29 1024 96 10000 0.93 14 02:59 07.01.2022
6035 Clear -25 1022 74 10000 0 0 02:22 07.01.2022
6036 Clouds -22 1022 74 10000 2.06 240 01:48 07.01.2022
6037 Clouds -22 1022 74 10000 2.06 240 01:25 07.01.2022
6038 Clouds -22 1022 74 10000 0 0 00:29 07.01.2022
6039 Clouds -23 1024 77 10000 0 0 21:57 06.01.2022
6040 Clouds -23 1024 70 10000 0 0 20:43 06.01.2022
6041 Clouds -23 1026 96 10000 1.19 35 19:58 06.01.2022
6042 Clouds -24 1024 74 10000 0 0 19:36 06.01.2022
6043 Clouds -26 1025 70 10000 0 0 17:51 06.01.2022
6044 Clouds -26 1025 70 10000 0 0 17:21 06.01.2022
6045 Clouds -24 1026 71 10000 0 0 16:31 06.01.2022
6046 Clouds -25 1026 70 10000 0 0 15:43 06.01.2022
6047 Clouds -25 1026 70 10000 0 0 15:20 06.01.2022
6048 Clouds -28 1027 70 10000 0 0 14:19 06.01.2022
6049 Clouds -29 1028 64 10000 0 0 13:30 06.01.2022
6050 Clouds -33 1028 70 10000 0 0 12:20 06.01.2022
6051 Clear -34 1028 68 10000 0 0 11:29 06.01.2022
6052 Clear -34 1029 65 10000 0 0 09:56 06.01.2022
6053 Clear -34 1030 68 10000 0 0 06:37 06.01.2022
6054 Clear -34 1033 71 10000 0 0 00:34 06.01.2022
6055 Fog -35 1033 71 10000 0 0 23:22 05.01.2022
6056 Clear -36 1034 70 10000 0 0 22:48 05.01.2022
6057 Clear -36 1034 70 10000 0 0 22:21 05.01.2022
6058 Clear -37 1034 71 10000 0 0 21:25 05.01.2022
6059 Clear -37 1034 74 10000 0 0 20:30 05.01.2022
6060 Clear -36 1034 74 10000 0 0 19:29 05.01.2022
6061 Haze -37 1035 70 9656 0 0 18:21 05.01.2022
6062 Clear -37 1036 71 10000 0 0 16:56 05.01.2022
6063 Clear -37 1036 71 10000 0 0 16:18 05.01.2022
6064 Clear -37 1037 71 10000 0 0 15:19 05.01.2022
6065 Clear -37 1037 72 10000 0 0 13:34 05.01.2022
6066 Clear -37 1038 71 10000 0 0 12:20 05.01.2022
6067 Clear -37 1038 71 10000 0 0 08:35 05.01.2022
6068 Clear -38 1039 74 10000 0 0 06:46 05.01.2022
6069 Haze -34 1039 76 9656 0 0 01:47 05.01.2022
6070 Clear -33 1039 76 10000 1.54 30 23:43 04.01.2022
6071 Clear -33 1039 76 10000 1.54 30 23:21 04.01.2022
6072 Clear -37 1038 98 10000 0 0 21:50 04.01.2022
6073 Clear -33 1039 69 10000 3.09 60 20:42 04.01.2022
6074 Clear -36 1038 98 10000 2.57 30 18:41 04.01.2022
6075 Clear -33 1038 72 10000 4.63 60 17:33 04.01.2022
6076 Clear -36 1037 98 10000 2.57 30 16:38 04.01.2022
6077 Clear -35 1037 68 10000 2.06 40 15:25 04.01.2022
6078 Clear -36 1037 98 10000 3.6 20 14:38 04.01.2022
6079 Clear -38 1041 98 10000 1.55 43 13:56 04.01.2022
6080 Clear -31 1038 69 10000 3.6 50 12:22 04.01.2022
6081 Clear -31 1038 69 10000 3.6 60 10:23 04.01.2022
6082 Clear -28 1037 69 10000 4.12 50 08:57 04.01.2022
6083 Clear -31 1037 76 10000 3.6 60 06:28 04.01.2022
6084 Clear -35 1037 68 10000 0 0 00:43 04.01.2022
6085 Clear -35 1038 68 10000 0 0 23:56 03.01.2022
6086 Clouds -37 1037 68 10000 0 0 22:22 03.01.2022
6087 Clear -37 1038 67 10000 0 0 21:40 03.01.2022
6088 Clear -37 1038 67 10000 0 0 21:40 03.01.2022
6089 Clear -35 1038 68 10000 0 0 20:41 03.01.2022
6090 Clear -32 1037 68 10000 3.09 50 19:38 03.01.2022
6091 Clear -31 1039 72 10000 0 0 18:31 03.01.2022
6092 Clear -31 1039 66 10000 0 0 17:23 03.01.2022
6093 Clear -34 1039 68 10000 2.06 50 16:53 03.01.2022
6094 Clear -37 1039 67 10000 2.06 40 14:33 03.01.2022
6095 Haze -39 1039 66 4828 2.06 40 13:25 03.01.2022
6096 Haze -40 1039 67 3219 0 0 12:22 03.01.2022
6097 Haze -40 1040 67 3219 0 0 11:22 03.01.2022
6098 Haze -41 1040 69 3018 0 0 09:29 03.01.2022
6099 Haze -39 1041 68 4828 0 0 07:55 03.01.2022
6100 Clear -38 1041 74 10000 0 0 04:23 03.01.2022
6101 Clear -35 1041 69 10000 2.06 60 23:44 02.01.2022
6102 Clear -33 1041 63 10000 2.06 70 22:57 02.01.2022
6103 Clear -35 1040 63 10000 2.06 70 22:22 02.01.2022
6104 Clear -37 1040 75 10000 0 0 21:26 02.01.2022
6105 Clear -33 1040 65 10000 0 0 20:30 02.01.2022
6106 Clear -35 1040 75 10000 0 0 19:32 02.01.2022
6107 Clear -35 1039 62 10000 2.06 60 18:56 02.01.2022
6108 Clear -35 1039 62 10000 2.06 60 18:30 02.01.2022
6109 Clear -33 1039 62 10000 1.54 90 17:42 02.01.2022
6110 Clear -33 1039 62 10000 1.54 90 17:21 02.01.2022
6111 Clear -34 1038 75 10000 0 0 16:30 02.01.2022
6112 Clear -33 1038 75 10000 1.54 50 15:49 02.01.2022
6113 Clear -33 1038 75 10000 1.54 50 15:49 02.01.2022
6114 Clear -32 1036 75 10000 0 0 13:57 02.01.2022
6115 Clear -30 1036 64 10000 2.57 90 12:33 02.01.2022
6116 Clear -32 1036 66 10000 0 0 11:55 02.01.2022
6117 Clear -29 1034 67 10000 0 0 10:56 02.01.2022
6118 Clear -29 1034 64 10000 0 0 10:22 02.01.2022
6119 Clear -27 1030 59 10000 3.09 50 07:45 02.01.2022
6120 Clouds -27 1024 63 10000 2.06 360 02:57 02.01.2022
6121 Clear -29 1021 63 10000 3.6 350 23:54 01.01.2022
6122 Clear -27 1021 67 10000 3.6 350 23:35 01.01.2022
6123 Snow -27 1019 66 10000 2.06 360 22:39 01.01.2022
6124 Snow -27 1019 66 10000 2.06 360 22:18 01.01.2022
6125 Snow -27 1019 66 10000 2.06 360 22:18 01.01.2022
6126 Snow -27 1019 66 10000 2.06 320 21:42 01.01.2022
6127 Snow -26 1017 72 10000 3.09 300 20:36 01.01.2022
6128 Snow -26 1016 70 10000 0 0 19:47 01.01.2022
6129 Clouds -26 1015 72 10000 3.09 20 18:53 01.01.2022
6130 Snow -26 1013 72 10000 2.06 340 17:45 01.01.2022
6131 Snow -25 1012 72 10000 2.57 340 16:35 01.01.2022
6132 Snow -24 1011 73 10000 2.57 330 15:45 01.01.2022
6133 Snow -24 1010 71 10000 0 0 14:40 01.01.2022
6134 Haze -24 1009 79 6437 0 0 13:42 01.01.2022
6135 Haze -24 1009 79 6437 0 0 13:42 01.01.2022
6136 Snow -25 1009 78 10000 0 0 12:26 01.01.2022
6137 Clouds -25 1008 77 10000 0 0 11:30 01.01.2022
6138 Clouds -24 1008 77 10000 1.75 346 10:59 01.01.2022
6139 Snow -24 1005 76 10000 0 0 09:48 01.01.2022
6140 Snow -23 1004 74 10000 0 0 08:45 01.01.2022
6141 Snow -23 1004 74 10000 0 0 08:21 01.01.2022
6142 Clouds -23 1003 75 10000 0 0 07:39 01.01.2022
6143 Clouds -22 1003 62 10000 1.54 350 06:44 01.01.2022
6144 Clouds -21 1003 66 10000 2.06 350 05:25 01.01.2022
6145 Snow -18 1002 63 10000 2.57 320 04:36 01.01.2022
6146 Clouds -19 1003 72 10000 0 0 00:25 01.01.2022
6147 Clouds -20 1003 69 10000 0 0 22:34 31.12.2021
6148 Clouds -22 1004 73 10000 0 0 21:47 31.12.2021
6149 Haze -24 1004 71 9656 0 0 19:48 31.12.2021
6150 Haze -24 1004 71 9656 0 0 19:28 31.12.2021
6151 Clouds -25 1005 77 10000 0 0 18:24 31.12.2021
6152 Clear -24 1005 77 10000 0 0 17:37 31.12.2021
6153 Clear -20 1006 77 10000 2.06 20 16:56 31.12.2021
6154 Clear -20 1006 77 10000 2.06 20 16:18 31.12.2021
6155 Clouds -22 1011 96 10000 1.49 333 15:50 31.12.2021
6156 Clouds -22 1011 97 10000 1.5 330 15:28 31.12.2021
6157 Clouds -30 1011 97 10000 1.5 330 14:41 31.12.2021
6158 Clouds -20 1011 96 10000 1.59 336 13:56 31.12.2021
6159 Clouds -19 1007 84 10000 2.57 50 13:23 31.12.2021
6160 Clouds -19 1011 96 10000 1.68 343 12:33 31.12.2021
6161 Clouds -19 1008 84 10000 4.12 70 11:42 31.12.2021
6162 Clouds -18 1009 85 10000 3.09 70 10:58 31.12.2021
6163 Clouds -19 1009 78 10000 3.6 80 10:29 31.12.2021
6164 Clouds -20 1010 85 10000 3.6 70 09:35 31.12.2021
6165 Clouds -22 1012 84 10000 2.06 70 08:54 31.12.2021
6166 Snow -21 1011 78 10000 2.06 70 08:23 31.12.2021
6167 Clouds -25 1013 76 10000 2.06 70 06:39 31.12.2021
6168 Clouds -19 1018 83 10000 0 0 23:23 30.12.2021
6169 Clouds -19 1018 81 10000 0 0 22:32 30.12.2021
6170 Clouds -17 1018 82 10000 2.06 60 21:41 30.12.2021
6171 Clouds -17 1018 82 10000 2.57 80 21:20 30.12.2021
6172 Mist -17 1018 82 4023 0 0 20:43 30.12.2021
6173 Haze -17 1018 82 4828 0 0 20:23 30.12.2021
6174 Mist -16 1017 83 2012 0 0 19:36 30.12.2021
6175 Snow -15 1017 84 10000 1.54 270 18:29 30.12.2021
6176 Snow -14 1017 85 10000 2.06 220 17:38 30.12.2021
6177 Clouds -13 1016 86 10000 0.45 232 15:55 30.12.2021
6178 Snow -13 1016 85 10000 4.63 240 15:36 30.12.2021
6179 Snow -12 1015 85 10000 0.45 259 14:37 30.12.2021
6180 Snow -12 1015 86 9656 4.12 220 13:32 30.12.2021
6181 Snow -11 1015 86 10000 5.14 220 11:59 30.12.2021
6182 Clouds -11 1015 85 10000 3.6 210 10:44 30.12.2021
6183 Snow -10 1014 86 10000 3.09 200 09:54 30.12.2021
6184 Mist -10 1014 88 9656 3.09 190 08:49 30.12.2021
6185 Snow -10 1014 89 10000 0 0 06:51 30.12.2021
6186 Snow -9 1014 87 8047 0.89 228 03:41 30.12.2021
6187 Snow -9 1014 88 10000 8.75 270 02:38 30.12.2021
6188 Clouds -5 1009 66 10000 6.69 260 23:42 29.12.2021
6189 Clouds -5 1009 66 10000 6.69 260 23:21 29.12.2021
6190 Clouds -6 1007 87 10000 5.66 280 22:19 29.12.2021
6191 Snow -4 1005 89 1609 3.09 330 21:27 29.12.2021
6192 Snow -4 1004 90 1811 3.6 360 20:34 29.12.2021
6193 Snow -3 1002 91 10000 2.24 227 19:48 29.12.2021
6194 Snow -2 1002 92 8047 2.68 230 18:47 29.12.2021
6195 Mist -1 1002 89 2615 3.58 259 17:54 29.12.2021
6196 Snow -1 1001 86 10000 3.58 238 17:27 29.12.2021
6197 Snow 0 1001 84 10000 2.68 291 16:24 29.12.2021
6198 Snow -1 1002 83 10000 3.13 232 15:45 29.12.2021
6199 Clouds -1 1003 87 10000 1.79 258 14:19 29.12.2021
6200 Snow -2 1005 88 10000 1.34 244 12:37 29.12.2021
6201 Snow -2 1005 91 10000 1.79 279 11:35 29.12.2021
6202 Snow -2 1003 92 10000 2.24 252 09:58 29.12.2021
6203 Snow -4 1001 92 1811 0 0 07:52 29.12.2021
6204 Snow -5 1001 91 2414 0 0 06:39 29.12.2021
6205 Snow -5 1001 91 1609 0 0 06:18 29.12.2021
6206 Snow -5 1001 91 1609 2.06 50 05:36 29.12.2021
6207 Snow -7 1007 92 4023 2.57 60 02:46 29.12.2021
6208 Mist -8 1012 91 4426 2.57 50 00:23 29.12.2021
6209 Snow -8 1013 90 3219 2.57 60 23:34 28.12.2021
6210 Mist -9 1014 90 9656 2.06 60 22:42 28.12.2021
6211 Mist -9 1014 90 9656 2.06 60 22:24 28.12.2021
6212 Snow -9 1015 89 6437 0 0 21:38 28.12.2021
6213 Snow -9 1015 89 6437 2.06 90 20:40 28.12.2021
6214 Mist -9 1015 89 4828 0 0 19:25 28.12.2021
6215 Mist -9 1015 89 4828 0 0 18:39 28.12.2021
6216 Snow -9 1015 89 4828 0 0 17:59 28.12.2021
6217 Snow -9 1015 88 4023 0 0 16:34 28.12.2021
6218 Snow -9 1015 88 4023 0 0 16:34 28.12.2021
6219 Snow -9 1015 88 4023 0 0 15:50 28.12.2021
6220 Snow -9 1015 88 3219 0 0 15:22 28.12.2021
6221 Snow -9 1015 87 3621 0 0 14:50 28.12.2021
6222 Snow -9 1014 87 3219 0 0 14:21 28.12.2021
6223 Snow -9 1014 87 2816 0 0 13:42 28.12.2021
6224 Snow -9 1014 87 3219 0 0 13:24 28.12.2021
6225 Snow -10 1014 86 2816 0 0 12:49 28.12.2021
6226 Snow -10 1014 87 3018 1.54 70 11:46 28.12.2021
6227 Clouds -11 1015 83 10000 3.6 60 08:53 28.12.2021
6228 Clouds -13 1016 84 8800 1.22 36 06:58 28.12.2021
6229 Clouds -8 1017 71 10000 2.06 260 00:34 28.12.2021
6230 Clear -7 1017 71 10000 1.54 330 23:24 27.12.2021
6231 Clear -4 1015 66 10000 5.66 300 21:42 27.12.2021
6232 Clear -4 1015 66 10000 5.66 300 21:24 27.12.2021
6233 Clear -3 1014 66 10000 9.77 300 20:24 27.12.2021
6234 Clear -2 1013 69 10000 6.69 300 19:42 27.12.2021
6235 Clear -2 1011 76 10000 10.8 270 18:54 27.12.2021
6236 Snow 1 1010 76 10000 10.8 280 17:50 27.12.2021
6237 Snow 1 1009 79 10000 3.13 233 16:57 27.12.2021
6238 Snow 1 1008 85 10000 2.68 271 15:53 27.12.2021
6239 Rain 2 1006 88 10000 3.13 275 14:34 27.12.2021
6240 Rain 2 1004 91 10000 2.68 282 13:40 27.12.2021
6241 Rain 2 1003 92 10000 3.58 226 12:47 27.12.2021
6242 Mist 3 1000 93 10000 0.89 232 10:32 27.12.2021
6243 Rain 2 1000 94 10000 1.79 263 09:57 27.12.2021
6244 Mist 3 999 95 9656 1.79 245 08:39 27.12.2021
6245 Mist 2 997 94 9656 2.24 234 07:32 27.12.2021
6246 Rain 0 996 93 4426 0 0 02:26 27.12.2021
6247 Rain 0 997 92 3621 0 0 00:23 27.12.2021
6248 Mist -1 997 94 3219 0 0 23:41 26.12.2021
6249 Rain -1 997 92 4023 0 0 22:47 26.12.2021
6250 Rain -2 1000 93 6437 2.06 60 21:29 26.12.2021
6251 Snow -5 1001 93 9656 3.09 90 19:49 26.12.2021
6252 Mist -7 1002 91 3621 0.89 250 18:25 26.12.2021
6253 Mist -8 1003 88 2012 4.12 70 17:44 26.12.2021
6254 Mist -10 1010 87 3621 0 0 14:38 26.12.2021
6255 Snow -10 1012 87 3621 0 0 13:43 26.12.2021
6256 Snow -11 1012 88 6437 0 0 13:21 26.12.2021
6257 Mist -11 1012 88 2012 0 0 12:34 26.12.2021
6258 Mist -11 1014 88 4828 0 0 11:18 26.12.2021
6259 Snow -11 1015 88 3621 0 0 09:30 26.12.2021
6260 Snow -11 1015 87 10000 0 0 08:44 26.12.2021
6261 Mist -11 1015 86 8047 0 0 08:23 26.12.2021
6262 Snow -12 1015 87 4426 0 0 01:37 26.12.2021
6263 Mist -12 1016 85 4023 0 0 00:20 26.12.2021
6264 Mist -12 1016 86 2615 0 0 23:35 25.12.2021
6265 Snow -13 1016 84 3621 0 0 22:29 25.12.2021
6266 Snow -13 1016 85 2615 0 0 21:29 25.12.2021
6267 Mist -14 1017 86 6437 0 0 19:46 25.12.2021
6268 Snow -14 1017 85 4828 0 0 19:18 25.12.2021
6269 Snow -14 1018 85 8047 0 0 18:26 25.12.2021
6270 Snow -14 1017 85 6437 0 0 16:49 25.12.2021
6271 Snow -15 1018 82 2414 2.06 40 15:30 25.12.2021
6272 Snow -15 1019 83 3621 0 0 14:22 25.12.2021
6273 Snow -17 1020 82 10000 0 0 12:21 25.12.2021
6274 Snow -17 1022 81 10000 0 0 10:38 25.12.2021
6275 Snow -18 1023 82 10000 2.57 70 09:48 25.12.2021
6276 Snow -19 1025 80 10000 2.57 80 07:27 25.12.2021
6277 Clear -26 1031 76 10000 0 0 01:40 25.12.2021
6278 Clouds -27 1032 75 10000 0 0 00:21 25.12.2021
6279 Clouds -28 1030 78 10000 0 0 21:57 24.12.2021
6280 Clear -29 1031 73 10000 0 0 19:27 24.12.2021
6281 Clouds -29 1032 74 10000 1.54 60 18:56 24.12.2021
6282 Clear -32 1030 73 10000 0 0 16:49 24.12.2021
6283 Clear -31 1030 73 10000 0 0 15:50 24.12.2021
6284 Clear -31 1030 73 10000 0 0 15:25 24.12.2021
6285 Clear -29 1028 72 10000 0 0 14:35 24.12.2021
6286 Clear -30 1030 73 10000 0 0 13:57 24.12.2021
6287 Clear -29 1029 74 10000 0 0 13:32 24.12.2021
6288 Clear -29 1028 72 10000 1.54 60 12:45 24.12.2021
6289 Clear -29 1028 74 10000 0 0 11:45 24.12.2021
6290 Clear -29 1028 74 10000 0 0 11:24 24.12.2021
6291 Clear -28 1027 76 10000 0 0 10:36 24.12.2021
6292 Clear -28 1026 73 10000 1.54 50 09:22 24.12.2021
6293 Clear -28 1025 76 10000 0 0 08:19 24.12.2021
6294 Clear -27 1024 74 10000 0 0 07:42 24.12.2021
6295 Clouds -19 1017 78 10000 2.57 220 00:47 24.12.2021
6296 Clouds -17 1016 79 10000 0 0 23:50 23.12.2021
6297 Snow -16 1015 82 10000 2.57 240 22:54 23.12.2021
6298 Snow -16 1015 82 10000 2.57 240 22:26 23.12.2021
6299 Clouds -16 1014 83 10000 3.09 230 21:50 23.12.2021
6300 Clouds -17 1015 82 10000 0.45 247 20:53 23.12.2021
6301 Mist -16 1012 82 9656 0.45 228 19:31 23.12.2021
6302 Snow -15 1011 84 8047 3.09 260 18:32 23.12.2021
6303 Snow -15 1009 84 10000 0.45 250 17:47 23.12.2021
6304 Snow -15 1007 83 4828 0 0 16:40 23.12.2021
6305 Mist -15 1006 83 2213 0 0 16:20 23.12.2021
6306 Mist -15 1005 83 4426 0 0 15:31 23.12.2021
6307 Snow -16 1005 83 9656 0 0 14:42 23.12.2021
6308 Snow -16 1004 83 10000 0 0 14:19 23.12.2021
6309 Snow -16 1004 84 3219 0 0 12:48 23.12.2021
6310 Snow -16 1005 84 4023 0 0 10:43 23.12.2021
6311 Snow -16 1006 84 4828 0 0 09:35 23.12.2021
6312 Snow -16 1006 83 3621 0 0 08:59 23.12.2021
6313 Snow -17 1007 82 10000 0 0 06:48 23.12.2021
6314 Clouds -19 1010 82 10000 3.09 70 03:41 23.12.2021
6315 Clouds -25 1018 77 10000 1.54 80 22:57 22.12.2021
6316 Clouds -24 1018 73 10000 1.54 80 22:32 22.12.2021
6317 Clouds -25 1019 76 10000 1.54 90 21:53 22.12.2021
6318 Clouds -25 1019 76 10000 1.54 90 21:28 22.12.2021
6319 Clouds -23 1019 74 10000 0 0 20:44 22.12.2021
6320 Clouds -23 1019 74 10000 0 0 20:25 22.12.2021
6321 Clouds -23 1020 76 10000 0 0 19:19 22.12.2021
6322 Clouds -21 1021 72 10000 0 0 17:42 22.12.2021
6323 Clear -18 1020 73 10000 0 0 16:38 22.12.2021
6324 Clear -17 1019 74 10000 0.51 0 15:39 22.12.2021
6325 Clear -14 1022 79 10000 0.45 227 13:32 22.12.2021
6326 Clear -14 1021 79 10000 1.34 246 12:31 22.12.2021
6327 Clear -13 1022 78 10000 0.45 259 09:53 22.12.2021
6328 Clear -12 1022 76 10000 0.89 260 09:35 22.12.2021
6329 Clear -12 1021 77 10000 2.68 263 07:25 22.12.2021
6330 Clear -11 1021 76 10000 5.66 260 05:42 22.12.2021
6331 Clear -11 1021 76 10000 5.66 260 05:24 22.12.2021
6332 Clear -11 1022 79 10000 1.34 240 04:47 22.12.2021
6333 Clear -11 1022 82 10000 8.23 240 04:22 22.12.2021
6334 Clear -10 1022 76 10000 6.69 250 03:32 22.12.2021
6335 Snow -9 1022 82 10000 0 0 00:33 22.12.2021
6336 Clouds -11 1021 83 10000 0 0 22:52 21.12.2021
6337 Clouds -11 1022 82 10000 2.06 60 22:27 21.12.2021
6338 Clouds -11 1023 81 10000 2.57 150 21:43 21.12.2021
6339 Clouds -8 1023 67 10000 0 0 20:54 21.12.2021
6340 Clouds -9 1023 74 10000 0 0 20:20 21.12.2021
6341 Clouds -9 1021 74 10000 5.14 290 19:41 21.12.2021
6342 Clear -8 1021 77 10000 6.69 250 18:43 21.12.2021
6343 Clear -8 1022 78 10000 6.69 250 18:21 21.12.2021
6344 Clouds -7 1022 76 10000 0.89 225 17:40 21.12.2021
6345 Clear -7 1019 82 10000 0.45 243 15:47 21.12.2021
6346 Clear -6 1019 84 10000 1.79 221 15:20 21.12.2021
6347 Clear -4 1017 89 10000 2.57 220 13:50 21.12.2021
6348 Clear -3 1017 87 10000 2.57 220 13:29 21.12.2021
6349 Clouds -1 994 94 10000 0.89 244 10:56 21.12.2021
6350 Snow -1 1013 94 10000 4.12 250 09:59 21.12.2021
6351 Snow -1 1013 94 10000 4.12 250 09:18 21.12.2021
6352 Snow -2 1012 94 10000 4.12 230 07:54 21.12.2021
6353 Mist -2 1012 94 6437 3.09 230 07:25 21.12.2021
6354 Mist -3 1012 93 10000 2.57 60 04:56 21.12.2021
6355 Mist -3 1013 94 10000 1.54 60 02:40 21.12.2021
6356 Snow -2 1012 94 10000 2.86 252 23:58 20.12.2021
6357 Mist -2 1013 92 10000 0 0 23:24 20.12.2021
6358 Snow -1 1013 94 6437 2.57 160 22:28 20.12.2021
6359 Snow -2 1014 92 1609 3.09 30 21:43 20.12.2021
6360 Snow -2 1014 93 4828 2.06 170 21:23 20.12.2021
6361 Snow -2 1014 95 8047 1.54 40 20:42 20.12.2021
6362 Mist -3 1013 91 4828 0 0 19:50 20.12.2021
6363 Snow -4 1013 89 4828 0 0 19:30 20.12.2021
6364 Snow -4 1013 90 8047 1.54 100 18:53 20.12.2021
6365 Snow -4 1015 88 2414 0 0 17:52 20.12.2021
6366 Snow -4 1015 89 2414 0 0 17:23 20.12.2021
6367 Snow -4 1015 89 1207 0.51 0 16:38 20.12.2021
6368 Snow -5 1016 90 805 0 0 15:48 20.12.2021
6369 Snow -5 1017 90 805 0 0 14:43 20.12.2021
6370 Snow -6 1016 89 2414 2.06 20 12:51 20.12.2021
6371 Snow -6 1016 88 8047 2.57 30 11:19 20.12.2021
6372 Mist -6 1017 88 2816 1.54 20 09:47 20.12.2021
6373 Snow -6 1017 89 3219 2.06 30 08:58 20.12.2021
6374 Mist -6 1018 89 1609 2.57 10 08:40 20.12.2021
6375 Snow -7 1018 89 1609 2.06 20 07:49 20.12.2021
6376 Snow -7 1018 89 1609 2.06 20 07:25 20.12.2021
6377 Snow -8 1021 89 108 1.22 100 03:59 20.12.2021
6378 Snow -9 1022 88 402 2.06 20 23:58 19.12.2021
6379 Fog -9 1023 87 805 1.54 30 22:45 19.12.2021
6380 Snow -9 1023 87 1207 1.54 40 21:50 19.12.2021
6381 Snow -9 1023 87 1207 1.54 40 21:29 19.12.2021
6382 Snow -9 1023 86 10000 0 0 20:30 19.12.2021
6383 Snow -9 1023 86 10000 0 0 19:46 19.12.2021
6384 Clouds -10 1025 91 9668 1 54 18:59 19.12.2021
6385 Clouds -8 1023 79 10000 2.06 90 18:29 19.12.2021
6386 Clouds -8 1024 79 10000 2.06 70 17:51 19.12.2021
6387 Clouds -9 1024 79 10000 2.06 70 17:18 19.12.2021
6388 Snow -9 1024 79 10000 0 0 16:26 19.12.2021
6389 Clouds -9 1024 79 10000 2.06 50 15:31 19.12.2021
6390 Clouds -10 1025 85 10000 1.54 50 14:59 19.12.2021
6391 Snow -10 1026 87 9656 2.57 40 14:36 19.12.2021
6392 Snow -10 1025 87 10000 3.09 360 13:22 19.12.2021
6393 Snow -10 1026 86 10000 2.57 360 12:33 19.12.2021
6394 Snow -11 1025 85 10000 2.06 20 11:44 19.12.2021
6395 Clouds -11 1025 86 395 0.99 52 10:59 19.12.2021
6396 Snow -11 1024 85 10000 1.54 10 10:25 19.12.2021
6397 Clouds -11 1025 85 231 1.06 61 09:26 19.12.2021
6398 Snow -11 1025 85 10000 1.54 40 07:50 19.12.2021
6399 Snow -12 1022 84 10000 0 0 04:45 19.12.2021
6400 Snow -13 1019 83 10000 1.54 60 00:56 19.12.2021
6401 Snow -12 1019 81 10000 1.54 60 00:28 19.12.2021
6402 Snow -13 1017 82 9656 0 0 22:32 18.12.2021
6403 Haze -13 1017 82 8047 0 0 21:54 18.12.2021
6404 Snow -12 1016 81 8047 1.54 150 21:35 18.12.2021
6405 Snow -12 1016 82 8047 0 0 20:44 18.12.2021
6406 Clouds -12 1014 84 10000 0 0 19:54 18.12.2021
6407 Snow -12 1014 82 10000 0 0 19:19 18.12.2021
6408 Mist -13 1013 83 4828 0 0 18:20 18.12.2021
6409 Snow -13 1013 81 10000 0 0 17:47 18.12.2021
6410 Snow -13 1012 82 10000 0 0 16:25 18.12.2021
6411 Snow -13 1012 82 10000 0 0 15:26 18.12.2021
6412 Snow -13 1012 82 10000 1.54 280 14:32 18.12.2021
6413 Snow -13 1012 82 10000 0 0 13:20 18.12.2021
6414 Snow -14 1012 81 10000 0 0 11:21 18.12.2021
6415 Clouds -14 1011 84 10000 1.54 270 09:39 18.12.2021
6416 Clouds -15 1011 83 10000 0 0 08:43 18.12.2021
6417 Clouds -15 1012 83 10000 0 0 08:19 18.12.2021
6418 Snow -14 1014 82 10000 0 0 02:20 18.12.2021
6419 Snow -14 1015 84 4828 0 0 00:27 18.12.2021
6420 Snow -14 1015 83 10000 0 0 23:39 17.12.2021
6421 Snow -15 1016 83 6437 0 0 21:56 17.12.2021
6422 Snow -15 1016 83 9656 0 0 20:51 17.12.2021
6423 Snow -15 1016 83 9656 0 0 20:31 17.12.2021
6424 Snow -15 1015 81 2615 0 0 19:18 17.12.2021
6425 Snow -15 1015 81 1408 0.51 200 18:38 17.12.2021
6426 Snow -15 1015 80 9656 0 0 17:26 17.12.2021
6427 Snow -15 1014 81 3219 0 0 16:44 17.12.2021
6428 Snow -15 1014 81 3219 0 0 16:21 17.12.2021
6429 Snow -15 1014 81 3219 0 0 15:20 17.12.2021
6430 Snow -15 1014 81 6437 0.51 0 14:38 17.12.2021
6431 Snow -15 1013 83 3219 0.51 0 12:46 17.12.2021
6432 Snow -15 1012 82 3219 0 0 11:27 17.12.2021
6433 Snow -15 1012 83 3219 0 0 09:59 17.12.2021
6434 Snow -16 1011 83 4828 0 0 08:58 17.12.2021
6435 Snow -16 1011 83 4828 0 0 08:29 17.12.2021
6436 Snow -16 1012 81 4426 0 0 05:41 17.12.2021
6437 Mist -16 1012 81 3219 0 0 02:53 17.12.2021
6438 Clouds -17 1012 79 10000 0 0 23:23 16.12.2021
6439 Snow -17 1013 79 10000 1.54 310 22:24 16.12.2021
6440 Snow -17 1013 79 10000 1.54 310 22:24 16.12.2021
6441 Mist -17 1013 79 9656 1.54 290 21:50 16.12.2021
6442 Mist -17 1013 80 9656 1.54 290 21:25 16.12.2021
6443 Snow -18 1013 79 6437 0 0 20:28 16.12.2021
6444 Clouds -18 1013 78 10000 0 0 19:42 16.12.2021
6445 Clouds -19 1013 79 10000 0 0 18:38 16.12.2021
6446 Clouds -19 1012 78 10000 0 0 17:55 16.12.2021
6447 Clouds -20 1013 78 10000 0 0 17:28 16.12.2021
6448 Clouds -20 1012 78 10000 0 0 16:21 16.12.2021
6449 Clouds -20 1013 76 10000 0 0 14:50 16.12.2021
6450 Clouds -25 1015 80 10000 0 0 12:57 16.12.2021
6451 Clouds -22 1016 76 10000 0 0 11:20 16.12.2021
6452 Clouds -23 1017 78 10000 1.54 70 10:58 16.12.2021
6453 Clouds -24 1018 74 10000 1.54 70 10:20 16.12.2021
6454 Clouds -25 1020 71 10000 2.57 20 07:31 16.12.2021
6455 Clouds -27 1020 75 10000 0 0 06:19 16.12.2021
6456 Haze -35 1026 71 2414 0 0 00:54 16.12.2021
6457 Haze -36 1025 71 3219 0 0 23:25 15.12.2021
6458 Haze -37 1026 71 2414 0 0 22:41 15.12.2021
6459 Haze -37 1026 70 1609 0 0 21:55 15.12.2021
6460 Haze -37 1027 66 2816 0 0 21:26 15.12.2021
6461 Haze -38 1027 66 1207 0 0 20:18 15.12.2021
6462 Haze -40 1026 66 1207 0 0 19:45 15.12.2021
6463 Mist -39 1028 65 1207 0 0 18:37 15.12.2021
6464 Mist -37 1027 66 1408 0 0 17:51 15.12.2021
6465 Mist -37 1027 66 1408 0 0 17:51 15.12.2021
6466 Mist -38 1027 67 3219 0 0 17:32 15.12.2021
6467 Mist -38 1026 63 2615 0 0 16:28 15.12.2021
6468 Mist -39 1027 63 3219 0 0 15:46 15.12.2021
6469 Mist -38 1027 67 3219 0 0 15:27 15.12.2021
6470 Clouds -37 1027 65 10000 0 0 14:18 15.12.2021
6471 Mist -39 1027 65 9656 0 0 12:37 15.12.2021
6472 Clear -39 1026 68 10000 0 0 10:27 15.12.2021
6473 Clear -37 1024 67 10000 0 0 08:55 15.12.2021
6474 Clouds -36 1025 66 10000 0 0 06:54 15.12.2021
6475 Haze -38 1021 66 2213 0 0 01:20 15.12.2021
6476 Haze -38 1019 67 6437 0 0 23:42 14.12.2021
6477 Haze -38 1018 66 3621 0 0 22:49 14.12.2021
6478 Mist -38 1018 65 3219 0 0 22:19 14.12.2021
6479 Haze -39 1017 64 3018 0 0 20:28 14.12.2021
6480 Mist -38 1016 64 8047 0 0 19:40 14.12.2021
6481 Clouds -38 1016 64 10000 0.34 41 18:53 14.12.2021
6482 Mist -38 1015 64 9656 0 0 18:22 14.12.2021
6483 Mist -38 1014 66 2414 0 0 17:30 14.12.2021
6484 Mist -39 1014 63 2615 0 0 16:39 14.12.2021
6485 Haze -38 1014 65 4828 0 0 15:35 14.12.2021
6486 Clouds -39 1012 76 10000 0 0 13:31 14.12.2021
6487 Clouds -39 1012 76 10000 0 0 13:31 14.12.2021
6488 Clouds -35 1016 77 10000 0.86 12 11:59 14.12.2021
6489 Haze -39 1011 67 4828 0 0 11:24 14.12.2021
6490 Haze -40 1011 67 6437 0 0 09:57 14.12.2021
6491 Haze -36 1011 72 6437 0 0 09:35 14.12.2021
6492 Haze -36 1012 72 8047 0 0 08:25 14.12.2021
6493 Mist -35 1012 73 9656 0 0 07:43 14.12.2021
6494 Haze -36 1015 74 4828 0 0 02:27 14.12.2021
6495 Haze -36 1019 71 9656 0 0 22:55 13.12.2021
6496 Mist -37 1020 70 6437 0 0 21:53 13.12.2021
6497 Mist -36 1020 73 9656 0 0 21:18 13.12.2021
6498 Mist -37 1020 70 6437 0 0 20:38 13.12.2021
6499 Haze -37 1022 71 3219 0 0 19:52 13.12.2021
6500 Haze -36 1023 74 4828 0 0 18:24 13.12.2021
6501 Mist -35 1023 73 4828 0 0 17:26 13.12.2021
6502 Snow -34 1024 73 10000 0 0 15:51 13.12.2021
6503 Snow -34 1025 73 10000 0 0 15:25 13.12.2021
6504 Snow -35 1026 74 9656 0 0 13:39 13.12.2021
6505 Snow -34 1026 73 10000 0 0 12:46 13.12.2021
6506 Clear -35 1027 70 10000 0 0 11:56 13.12.2021
6507 Snow -33 1026 73 10000 0 0 11:35 13.12.2021
6508 Snow -33 1026 73 10000 0 0 10:44 13.12.2021
6509 Snow -32 1026 73 10000 0 0 09:29 13.12.2021
6510 Snow -34 1026 71 10000 0 0 07:48 13.12.2021
6511 Snow -31 1025 69 10000 0 0 05:35 13.12.2021
6512 Snow -33 1024 71 10000 0 0 03:26 13.12.2021
6513 Snow -30 1022 69 10000 1.54 50 23:22 12.12.2021
6514 Snow -30 1021 70 10000 0 0 21:40 12.12.2021
6515 Snow -30 1019 76 10000 0 0 19:57 12.12.2021
6516 Snow -27 1018 72 10000 0 0 18:36 12.12.2021
6517 Snow -27 1018 70 10000 0 0 18:36 12.12.2021
6518 Haze -27 1017 70 8047 0 0 17:31 12.12.2021
6519 Snow -29 1017 70 9656 0 0 16:27 12.12.2021
6520 Snow -29 1016 71 10000 0 0 15:46 12.12.2021
6521 Mist -28 1016 71 10000 0 0 15:25 12.12.2021
6522 Snow -27 1015 73 10000 0 0 14:34 12.12.2021
6523 Snow -24 1015 73 10000 0 0 13:26 12.12.2021
6524 Haze -25 1013 74 8047 0 0 12:30 12.12.2021
6525 Mist -24 1013 76 4828 0 0 11:44 12.12.2021
6526 Haze -24 1013 77 6437 0 0 11:22 12.12.2021
6527 Snow -24 1012 76 10000 2.06 230 10:22 12.12.2021
6528 Snow -24 1011 77 10000 1.54 210 09:38 12.12.2021
6529 Haze -24 1010 77 6437 1.54 220 08:33 12.12.2021
6530 Snow -23 1008 76 10000 2.57 250 06:19 12.12.2021
6531 Clouds -22 1007 77 10000 2.57 240 04:56 12.12.2021
6532 Haze -22 1005 77 9656 0.45 277 03:31 12.12.2021
6533 Snow -20 1002 76 10000 1.34 229 23:44 11.12.2021
6534 Snow -20 1000 77 10000 0.45 241 22:22 11.12.2021
6535 Mist -19 999 77 10000 1.34 232 21:52 11.12.2021
6536 Snow -19 998 77 10000 0.89 223 20:51 11.12.2021
6537 Snow -18 997 78 10000 1.34 250 19:27 11.12.2021
6538 Snow -18 996 78 10000 0.89 247 18:52 11.12.2021
6539 Snow -18 996 77 10000 0.45 273 18:25 11.12.2021
6540 Snow -17 995 79 10000 1.34 277 17:21 11.12.2021
6541 Clouds -17 994 81 10000 1.34 254 15:55 11.12.2021
6542 Snow -16 993 81 10000 6.69 250 15:30 11.12.2021
6543 Clouds -14 991 82 10000 0.45 254 12:59 11.12.2021
6544 Snow -14 989 81 10000 0.45 257 11:26 11.12.2021
6545 Snow -13 987 83 10000 0.45 250 09:47 11.12.2021
6546 Snow -13 987 82 4828 3.09 260 09:18 11.12.2021
6547 Snow -13 982 82 3219 0.45 245 02:40 11.12.2021
6548 Snow -14 980 82 8047 1.54 200 00:40 11.12.2021
6549 Snow -13 979 82 8047 2.57 200 23:23 10.12.2021
6550 Snow -13 979 85 4828 2.57 200 21:57 10.12.2021
6551 Snow -13 978 84 10000 2.06 260 21:36 10.12.2021
6552 Snow -12 975 82 9656 3.6 280 19:22 10.12.2021
6553 Snow -12 974 81 9656 2.57 290 18:39 10.12.2021
6554 Snow -11 975 86 9656 2.57 280 16:57 10.12.2021
6555 Snow -11 975 85 9656 2.57 280 16:30 10.12.2021
6556 Snow -12 974 85 9656 1.54 280 15:42 10.12.2021
6557 Snow -12 974 85 10000 0 0 15:22 10.12.2021
6558 Snow -13 974 84 10000 0 0 13:52 10.12.2021
6559 Snow -13 974 83 10000 0 0 13:27 10.12.2021
6560 Snow -13 973 86 10000 1.54 270 12:47 10.12.2021
6561 Snow -12 974 84 10000 2.06 260 11:34 10.12.2021
6562 Snow -13 975 84 10000 0 0 10:38 10.12.2021
6563 Clouds -12 976 84 10000 0 0 09:29 10.12.2021
6564 Clouds -11 976 84 10000 2.57 60 07:21 10.12.2021
6565 Clouds -13 981 86 10000 2.06 50 02:51 10.12.2021
6566 Clouds -17 984 86 10000 0 0 00:57 10.12.2021
6567 Clouds -18 987 79 10000 0 0 23:38 09.12.2021
6568 Clouds -18 988 82 10000 0 0 22:41 09.12.2021
6569 Clouds -18 988 81 10000 0 0 22:20 09.12.2021
6570 Clouds -18 990 81 10000 0 0 21:20 09.12.2021
6571 Clouds -18 992 81 10000 0 0 20:34 09.12.2021
6572 Clouds -13 994 79 10000 0 0 19:22 09.12.2021
6573 Clouds -13 995 85 10000 0 0 18:53 09.12.2021
6574 Snow -11 996 85 10000 0 0 17:57 09.12.2021
6575 Snow -11 996 82 10000 0 0 17:28 09.12.2021
6576 Snow -12 997 82 4828 0 0 16:57 09.12.2021
6577 Snow -12 997 85 4828 0 0 16:20 09.12.2021
6578 Snow -12 997 85 1609 0 0 14:52 09.12.2021
6579 Snow -12 997 84 1609 2.06 10 13:50 09.12.2021
6580 Snow -13 998 85 1609 0 0 12:47 09.12.2021
6581 Snow -13 998 84 3219 0.51 50 11:25 09.12.2021
6582 Snow -13 998 83 2414 0 0 10:19 09.12.2021
6583 Snow -14 998 84 6437 0 0 06:51 09.12.2021
6584 Clouds -16 996 82 10000 0 0 03:50 09.12.2021
6585 Clouds -17 997 80 10000 1.54 90 00:24 09.12.2021
6586 Clouds -16 997 89 10000 1.54 70 23:32 08.12.2021
6587 Clouds -12 997 92 10000 1.54 60 22:56 08.12.2021
6588 Snow -12 997 89 10000 1.54 60 21:50 08.12.2021
6589 Snow -12 997 89 10000 1.54 60 21:31 08.12.2021
6590 Snow -11 998 89 8047 1.54 60 20:30 08.12.2021
6591 Snow -9 998 73 9656 0 0 19:48 08.12.2021
6592 Snow -11 998 85 9656 2.06 70 18:54 08.12.2021
6593 Snow -11 998 82 9656 2.06 70 18:22 08.12.2021
6594 Snow -10 1000 86 9656 0 0 16:44 08.12.2021
6595 Snow -10 1000 86 9656 0 0 16:44 08.12.2021
6596 Snow -10 1000 86 9656 1.54 120 15:40 08.12.2021
6597 Snow -10 1000 86 9656 1.54 120 15:40 08.12.2021
6598 Snow -10 1000 86 9656 1.54 120 15:21 08.12.2021
6599 Snow -8 1000 73 10000 2.06 210 13:21 08.12.2021
6600 Snow -8 1001 84 4828 4.63 230 10:42 08.12.2021
6601 Snow -9 1000 87 4828 0.45 236 09:32 08.12.2021
6602 Snow -8 1000 86 4828 3.6 170 07:37 08.12.2021
6603 Snow -8 998 88 6437 0.89 242 05:22 08.12.2021
6604 Snow -8 994 87 4828 0.45 192 00:21 08.12.2021
6605 Mist -8 992 86 1609 0 0 22:48 07.12.2021
6606 Snow -9 991 85 3219 1.54 220 21:25 07.12.2021
6607 Snow -8 990 87 4828 0 0 20:25 07.12.2021
6608 Clouds -9 990 86 3705 1.23 222 18:59 07.12.2021
6609 Clouds -9 988 83 10000 2.06 290 18:20 07.12.2021
6610 Clouds -10 988 88 10000 0 0 17:23 07.12.2021
6611 Clouds -11 987 88 10000 0 0 16:41 07.12.2021
6612 Clouds -10 986 83 10000 0.48 357 15:59 07.12.2021
6613 Clouds -9 986 83 10000 0 0 14:37 07.12.2021
6614 Clouds -9 986 84 10000 0 0 13:38 07.12.2021
6615 Clouds -9 986 86 10000 0 0 12:22 07.12.2021
6616 Clouds -9 986 83 10000 0 0 10:48 07.12.2021
6617 Clouds -9 986 83 10000 1.54 270 09:20 07.12.2021
6618 Clear -12 987 85 10000 0 0 06:50 07.12.2021
6619 Clear -12 988 85 10000 0 0 05:50 07.12.2021
6620 Clouds -9 989 83 10000 0 0 03:25 07.12.2021
6621 Clouds -7 991 73 10000 2.06 50 23:23 06.12.2021
6622 Clouds -7 992 73 10000 2.57 30 22:40 06.12.2021
6623 Clouds -9 995 87 10000 1.85 71 21:59 06.12.2021
6624 Clouds -7 992 72 10000 2.57 30 21:31 06.12.2021
6625 Clouds -8 993 74 10000 2.57 30 20:32 06.12.2021
6626 Clouds -8 993 74 10000 2.57 30 20:32 06.12.2021
6627 Clouds -9 994 78 10000 1.54 360 19:24 06.12.2021
6628 Clouds -10 994 79 10000 0 0 18:40 06.12.2021
6629 Clouds -9 995 77 10000 2.57 100 17:54 06.12.2021
6630 Clouds -9 995 77 10000 2.57 100 17:33 06.12.2021
6631 Clouds -9 996 79 10000 3.6 80 15:51 06.12.2021
6632 Clouds -8 997 71 10000 3.6 100 14:38 06.12.2021
6633 Clouds -8 997 68 10000 1.54 0 13:28 06.12.2021
6634 Clouds -9 999 76 10000 3.6 70 12:37 06.12.2021
6635 Clouds -10 1000 77 10000 3.6 90 10:23 06.12.2021
6636 Clouds -12 1002 82 10000 2.57 80 07:40 06.12.2021
6637 Clouds -15 1006 77 10000 0 0 02:26 06.12.2021
6638 Clear -20 1012 76 10000 0 0 22:26 05.12.2021
6639 Clear -22 1014 77 10000 0 0 21:25 05.12.2021
6640 Clear -22 1015 78 10000 0 0 20:52 05.12.2021
6641 Clear -25 1016 78 10000 0 0 20:18 05.12.2021
6642 Clear -25 1017 74 10000 0 0 19:24 05.12.2021
6643 Clear -26 1019 76 10000 0 0 18:29 05.12.2021
6644 Clear -26 1020 75 10000 0 0 17:49 05.12.2021
6645 Clear -25 1020 75 10000 0 0 17:20 05.12.2021
6646 Clear -25 1022 76 10000 0 0 16:36 05.12.2021
6647 Clear -25 1022 76 10000 0 0 16:18 05.12.2021
6648 Clouds -24 1026 77 10000 0 0 14:48 05.12.2021
6649 Clouds -24 1026 78 10000 0 0 14:30 05.12.2021
6650 Clouds -24 1027 78 10000 0 0 13:35 05.12.2021
6651 Clouds -24 1028 76 10000 0 0 12:46 05.12.2021
6652 Clouds -24 1028 76 10000 0 0 12:26 05.12.2021
6653 Clouds -24 1028 78 10000 0 0 11:46 05.12.2021
6654 Clouds -23 1029 77 10000 0 0 10:43 05.12.2021
6655 Snow -23 1029 76 10000 0 0 09:47 05.12.2021
6656 Clouds -25 1028 74 10000 0 0 06:31 05.12.2021
6657 Clouds -31 1028 72 10000 0 0 01:38 05.12.2021
6658 Clear -33 1028 69 10000 0 0 23:22 04.12.2021
6659 Haze -35 1028 73 9656 0 0 21:51 04.12.2021
6660 Haze -37 1028 62 9656 0 0 20:47 04.12.2021
6661 Clear -34 1027 68 10000 0 0 19:54 04.12.2021
6662 Clear -35 1027 68 10000 0 0 19:30 04.12.2021
6663 Clear -35 1028 67 10000 0 0 17:58 04.12.2021
6664 Clear -36 1027 66 10000 0 0 17:36 04.12.2021
6665 Clear -35 1027 67 10000 0 0 16:47 04.12.2021
6666 Clear -37 1026 62 10000 0 0 16:28 04.12.2021
6667 Clear -38 1025 67 10000 0 0 13:39 04.12.2021
6668 Clear -37 1025 74 10000 0 0 11:44 04.12.2021
6669 Clear -36 1026 66 10000 0 0 11:20 04.12.2021
6670 Clear -36 1025 72 10000 0 0 10:24 04.12.2021
6671 Clear -36 1025 62 10000 0 0 08:42 04.12.2021
6672 Clear -35 1027 70 10000 0 0 05:47 04.12.2021
6673 Clear -35 1027 68 10000 0 0 04:41 04.12.2021
6674 Clear -34 1029 70 10000 0 0 23:49 03.12.2021
6675 Clear -37 1029 67 10000 0 0 22:56 03.12.2021
6676 Clear -29 1029 75 10000 1.29 35 22:00 03.12.2021
6677 Clear -34 1028 70 10000 0 0 21:25 03.12.2021
6678 Clear -34 1030 76 10000 0 0 20:44 03.12.2021
6679 Clouds -37 1030 73 10000 0 0 19:36 03.12.2021
6680 Clear -34 1031 72 10000 0 0 18:26 03.12.2021
6681 Clear -29 1031 75 10000 1.35 35 17:58 03.12.2021
6682 Clear -34 1032 68 10000 0 0 14:23 03.12.2021
6683 Clear -33 1034 69 10000 0 0 12:52 03.12.2021
6684 Clear -32 1034 72 10000 0 0 11:25 03.12.2021
6685 Clear -32 1034 71 10000 0 0 10:32 03.12.2021
6686 Clear -31 1034 71 10000 0 0 08:25 03.12.2021
6687 Clear -29 1034 73 10000 0 0 07:38 03.12.2021
6688 Clouds -25 1033 79 10000 0 0 02:39 03.12.2021
6689 Snow -24 1031 77 10000 0 0 00:47 03.12.2021
6690 Clouds -24 1030 76 10000 0 0 23:47 02.12.2021
6691 Clouds -24 1028 76 10000 0 0 21:43 02.12.2021
6692 Clouds -23 1028 75 10000 0 0 21:20 02.12.2021
6693 Snow -23 1028 77 10000 0 0 20:38 02.12.2021
6694 Snow -22 1026 77 10000 0 0 19:31 02.12.2021
6695 Snow -22 1025 78 9656 0 0 18:33 02.12.2021
6696 Haze -21 1022 77 6437 0 0 15:43 02.12.2021
6697 Snow -21 1022 78 6437 0 0 15:20 02.12.2021
6698 Snow -21 1022 77 10000 0 0 14:43 02.12.2021
6699 Snow -21 1020 78 10000 0 0 12:52 02.12.2021
6700 Snow -21 1019 77 10000 0 0 12:18 02.12.2021
6701 Snow -21 1017 78 9656 0 0 10:36 02.12.2021
6702 Snow -22 1015 79 9656 1.54 80 08:55 02.12.2021
6703 Snow -24 1010 76 10000 0 0 04:54 02.12.2021
6704 Snow -20 1006 77 4828 0 0 00:53 02.12.2021
6705 Snow -20 1005 78 2012 0 0 23:28 01.12.2021
6706 Snow -20 1004 78 1609 0 0 22:24 01.12.2021
6707 Snow -20 1002 79 2414 0 0 20:53 01.12.2021
6708 Snow -20 1001 77 3219 0 0 19:58 01.12.2021
6709 Snow -20 1001 77 10000 0 0 19:28 01.12.2021
6710 Snow -21 999 78 10000 0 0 17:50 01.12.2021
6711 Snow -21 998 78 10000 0 0 16:50 01.12.2021
6712 Snow -21 997 79 239 0.9 282 14:54 01.12.2021
6713 Clouds -22 996 78 10000 0 0 13:46 01.12.2021
6714 Clouds -21 995 78 10000 0 0 12:51 01.12.2021
6715 Clouds -21 995 78 10000 0 0 12:51 01.12.2021
6716 Clear -19 993 77 10000 2.06 210 10:43 01.12.2021
6717 Clear -19 992 79 10000 0 0 09:25 01.12.2021
6718 Clouds -19 991 80 10000 0 0 08:36